<?xml version='1.0' encoding='UTF-8'?><gpx version="1.1" creator="JPX - https://github.com/jenetics/jpx" xmlns="http://www.topografix.com/GPX/1/1"><trk><trkseg><trkpt lat="44.7853071" lon="10.2590603"><ele>77.8</ele><time>2026-04-12T12:30:55.953Z</time></trkpt><trkpt lat="44.7852741" lon="10.258947"><ele>77.6</ele><time>2026-04-12T12:30:56.953Z</time></trkpt><trkpt lat="44.7852517" lon="10.2588159"><ele>77.4</ele><time>2026-04-12T12:30:57.953Z</time></trkpt><trkpt lat="44.7852131" lon="10.2586872"><ele>77.2</ele><time>2026-04-12T12:30:58.952Z</time></trkpt><trkpt lat="44.7851678" lon="10.2585578"><ele>77.0</ele><time>2026-04-12T12:30:59.951Z</time></trkpt><trkpt lat="44.7851253" lon="10.2584259"><ele>77.0</ele><time>2026-04-12T12:31:00.953Z</time></trkpt><trkpt lat="44.7850888" lon="10.2583027"><ele>77.0</ele><time>2026-04-12T12:31:01.952Z</time></trkpt><trkpt lat="44.7850542" lon="10.258189"><ele>77.0</ele><time>2026-04-12T12:31:02.953Z</time></trkpt><trkpt lat="44.7850358" lon="10.258104"><ele>77.0</ele><time>2026-04-12T12:31:03.953Z</time></trkpt><trkpt lat="44.785002" lon="10.2579897"><ele>77.0</ele><time>2026-04-12T12:31:04.953Z</time></trkpt><trkpt lat="44.7849723" lon="10.2578904"><ele>77.0</ele><time>2026-04-12T12:31:05.951Z</time></trkpt><trkpt lat="44.7849408" lon="10.2577965"><ele>77.2</ele><time>2026-04-12T12:31:06.953Z</time></trkpt><trkpt lat="44.7848839" lon="10.2577109"><ele>77.4</ele><time>2026-04-12T12:31:07.953Z</time></trkpt><trkpt lat="44.784817" lon="10.2576377"><ele>77.6</ele><time>2026-04-12T12:31:08.952Z</time></trkpt><trkpt lat="44.7847354" lon="10.2575827"><ele>77.8</ele><time>2026-04-12T12:31:09.953Z</time></trkpt><trkpt lat="44.7846402" lon="10.2575304"><ele>78.0</ele><time>2026-04-12T12:31:10.953Z</time></trkpt><trkpt lat="44.7845381" lon="10.2574861"><ele>78.0</ele><time>2026-04-12T12:31:11.953Z</time></trkpt><trkpt lat="44.7844371" lon="10.257446"><ele>78.0</ele><time>2026-04-12T12:31:12.952Z</time></trkpt><trkpt lat="44.7843352" lon="10.2574078"><ele>78.0</ele><time>2026-04-12T12:31:13.952Z</time></trkpt><trkpt lat="44.7842276" lon="10.2573654"><ele>78.0</ele><time>2026-04-12T12:31:14.952Z</time></trkpt><trkpt lat="44.7841142" lon="10.2573235"><ele>78.0</ele><time>2026-04-12T12:31:15.953Z</time></trkpt><trkpt lat="44.7839947" lon="10.2572735"><ele>78.0</ele><time>2026-04-12T12:31:16.952Z</time></trkpt><trkpt lat="44.7838776" lon="10.2572286"><ele>78.0</ele><time>2026-04-12T12:31:17.952Z</time></trkpt><trkpt lat="44.7837659" lon="10.2571829"><ele>78.0</ele><time>2026-04-12T12:31:18.953Z</time></trkpt><trkpt lat="44.7836456" lon="10.2571351"><ele>78.0</ele><time>2026-04-12T12:31:19.953Z</time></trkpt><trkpt lat="44.7835216" lon="10.2570881"><ele>78.25</ele><time>2026-04-12T12:31:20.953Z</time></trkpt><trkpt lat="44.7833898" lon="10.2570376"><ele>78.5</ele><time>2026-04-12T12:31:21.952Z</time></trkpt><trkpt lat="44.7832515" lon="10.2569862"><ele>78.75</ele><time>2026-04-12T12:31:22.952Z</time></trkpt><trkpt lat="44.783116" lon="10.2569286"><ele>79.0</ele><time>2026-04-12T12:31:23.952Z</time></trkpt><trkpt lat="44.7829769" lon="10.2568703"><ele>79.0</ele><time>2026-04-12T12:31:24.951Z</time></trkpt><trkpt lat="44.7828319" lon="10.2568121"><ele>79.0</ele><time>2026-04-12T12:31:25.952Z</time></trkpt><trkpt lat="44.7826832" lon="10.2567477"><ele>79.0</ele><time>2026-04-12T12:31:26.953Z</time></trkpt><trkpt lat="44.7825344" lon="10.2566911"><ele>79.66666666666666</ele><time>2026-04-12T12:31:27.953Z</time></trkpt><trkpt lat="44.7823916" lon="10.2566335"><ele>80.33333333333333</ele><time>2026-04-12T12:31:28.953Z</time></trkpt><trkpt lat="44.7822438" lon="10.2565741"><ele>81.0</ele><time>2026-04-12T12:31:29.953Z</time></trkpt><trkpt lat="44.7820948" lon="10.2565184"><ele>81.0</ele><time>2026-04-12T12:31:30.951Z</time></trkpt><trkpt lat="44.7819418" lon="10.2564582"><ele>81.0</ele><time>2026-04-12T12:31:31.952Z</time></trkpt><trkpt lat="44.7817938" lon="10.2563931"><ele>81.0</ele><time>2026-04-12T12:31:32.953Z</time></trkpt><trkpt lat="44.7816437" lon="10.2563267"><ele>80.66666666666667</ele><time>2026-04-12T12:31:33.953Z</time></trkpt><trkpt lat="44.7814921" lon="10.2562606"><ele>80.33333333333334</ele><time>2026-04-12T12:31:34.953Z</time></trkpt><trkpt lat="44.7813446" lon="10.2562024"><ele>80.0</ele><time>2026-04-12T12:31:35.953Z</time></trkpt><trkpt lat="44.7811913" lon="10.2561418"><ele>80.0</ele><time>2026-04-12T12:31:36.952Z</time></trkpt><trkpt lat="44.7810375" lon="10.2560812"><ele>80.0</ele><time>2026-04-12T12:31:37.952Z</time></trkpt><trkpt lat="44.7808791" lon="10.2560317"><ele>80.0</ele><time>2026-04-12T12:31:38.952Z</time></trkpt><trkpt lat="44.7807211" lon="10.2559961"><ele>80.66666666666667</ele><time>2026-04-12T12:31:39.952Z</time></trkpt><trkpt lat="44.7805546" lon="10.2559789"><ele>81.33333333333333</ele><time>2026-04-12T12:31:40.953Z</time></trkpt><trkpt lat="44.7803924" lon="10.2559695"><ele>82.0</ele><time>2026-04-12T12:31:41.953Z</time></trkpt><trkpt lat="44.7802363" lon="10.2559637"><ele>81.33333333333333</ele><time>2026-04-12T12:31:42.953Z</time></trkpt><trkpt lat="44.7800858" lon="10.2559588"><ele>80.66666666666667</ele><time>2026-04-12T12:31:43.953Z</time></trkpt><trkpt lat="44.7799338" lon="10.2559559"><ele>80.0</ele><time>2026-04-12T12:31:44.953Z</time></trkpt><trkpt lat="44.7797825" lon="10.2559392"><ele>80.0</ele><time>2026-04-12T12:31:45.953Z</time></trkpt><trkpt lat="44.7796367" lon="10.255881"><ele>80.0</ele><time>2026-04-12T12:31:46.952Z</time></trkpt><trkpt lat="44.7794951" lon="10.2557895"><ele>80.0</ele><time>2026-04-12T12:31:47.952Z</time></trkpt><trkpt lat="44.7793539" lon="10.2556897"><ele>79.0</ele><time>2026-04-12T12:31:48.953Z</time></trkpt><trkpt lat="44.7792133" lon="10.2555826"><ele>78.0</ele><time>2026-04-12T12:31:49.952Z</time></trkpt><trkpt lat="44.7790856" lon="10.255438"><ele>77.0</ele><time>2026-04-12T12:31:50.952Z</time></trkpt><trkpt lat="44.7789786" lon="10.2552702"><ele>77.0</ele><time>2026-04-12T12:31:51.953Z</time></trkpt><trkpt lat="44.7788819" lon="10.2550736"><ele>77.0</ele><time>2026-04-12T12:31:52.953Z</time></trkpt><trkpt lat="44.7787828" lon="10.2548699"><ele>77.0</ele><time>2026-04-12T12:31:53.952Z</time></trkpt><trkpt lat="44.7786842" lon="10.2546758"><ele>77.66666666666667</ele><time>2026-04-12T12:31:54.951Z</time></trkpt><trkpt lat="44.7785842" lon="10.2544858"><ele>78.33333333333333</ele><time>2026-04-12T12:31:55.952Z</time></trkpt><trkpt lat="44.7784736" lon="10.2542989"><ele>79.0</ele><time>2026-04-12T12:31:56.952Z</time></trkpt><trkpt lat="44.7783482" lon="10.2541297"><ele>78.0</ele><time>2026-04-12T12:31:57.952Z</time></trkpt><trkpt lat="44.7782061" lon="10.2539889"><ele>77.0</ele><time>2026-04-12T12:31:58.953Z</time></trkpt><trkpt lat="44.7780473" lon="10.2538731"><ele>76.0</ele><time>2026-04-12T12:31:59.951Z</time></trkpt><trkpt lat="44.7778809" lon="10.253799"><ele>76.0</ele><time>2026-04-12T12:32:00.952Z</time></trkpt><trkpt lat="44.777703" lon="10.2537618"><ele>76.0</ele><time>2026-04-12T12:32:01.953Z</time></trkpt><trkpt lat="44.777522" lon="10.2537607"><ele>76.0</ele><time>2026-04-12T12:32:02.953Z</time></trkpt><trkpt lat="44.7773375" lon="10.253798"><ele>76.33333333333333</ele><time>2026-04-12T12:32:03.953Z</time></trkpt><trkpt lat="44.7771558" lon="10.2538777"><ele>76.66666666666667</ele><time>2026-04-12T12:32:04.952Z</time></trkpt><trkpt lat="44.7769767" lon="10.2539887"><ele>77.0</ele><time>2026-04-12T12:32:05.952Z</time></trkpt><trkpt lat="44.7768013" lon="10.2541013"><ele>79.33333333333334</ele><time>2026-04-12T12:32:06.953Z</time></trkpt><trkpt lat="44.7766336" lon="10.2542468"><ele>81.66666666666667</ele><time>2026-04-12T12:32:07.952Z</time></trkpt><trkpt lat="44.7764794" lon="10.2543968"><ele>84.0</ele><time>2026-04-12T12:32:08.952Z</time></trkpt><trkpt lat="44.7763336" lon="10.25458"><ele>84.33333333333333</ele><time>2026-04-12T12:32:09.952Z</time></trkpt><trkpt lat="44.7762171" lon="10.2547898"><ele>84.66666666666666</ele><time>2026-04-12T12:32:10.952Z</time></trkpt><trkpt lat="44.7761415" lon="10.2550154"><ele>85.0</ele><time>2026-04-12T12:32:11.952Z</time></trkpt><trkpt lat="44.7760935" lon="10.2552535"><ele>85.0</ele><time>2026-04-12T12:32:12.951Z</time></trkpt><trkpt lat="44.7760746" lon="10.2554849"><ele>85.0</ele><time>2026-04-12T12:32:13.951Z</time></trkpt><trkpt lat="44.776067" lon="10.2557105"><ele>85.0</ele><time>2026-04-12T12:32:14.953Z</time></trkpt><trkpt lat="44.7760411" lon="10.2559068"><ele>85.0</ele><time>2026-04-12T12:32:15.953Z</time></trkpt><trkpt lat="44.7760173" lon="10.2560983"><ele>85.0</ele><time>2026-04-12T12:32:16.953Z</time></trkpt><trkpt lat="44.7760036" lon="10.256267"><ele>85.0</ele><time>2026-04-12T12:32:17.951Z</time></trkpt><trkpt lat="44.7759618" lon="10.2564063"><ele>85.0</ele><time>2026-04-12T12:32:18.953Z</time></trkpt><trkpt lat="44.7758942" lon="10.2565009"><ele>85.0</ele><time>2026-04-12T12:32:19.951Z</time></trkpt><trkpt lat="44.7758121" lon="10.2565514"><ele>85.0</ele><time>2026-04-12T12:32:20.952Z</time></trkpt><trkpt lat="44.7757174" lon="10.2565701"><ele>85.0</ele><time>2026-04-12T12:32:21.953Z</time></trkpt><trkpt lat="44.7756064" lon="10.2565428"><ele>85.0</ele><time>2026-04-12T12:32:22.953Z</time></trkpt><trkpt lat="44.7754845" lon="10.2564989"><ele>85.0</ele><time>2026-04-12T12:32:23.952Z</time></trkpt><trkpt lat="44.7753474" lon="10.2564541"><ele>84.66666666666666</ele><time>2026-04-12T12:32:24.952Z</time></trkpt><trkpt lat="44.7752062" lon="10.2564131"><ele>84.33333333333333</ele><time>2026-04-12T12:32:25.951Z</time></trkpt><trkpt lat="44.7750589" lon="10.256373"><ele>84.0</ele><time>2026-04-12T12:32:26.952Z</time></trkpt><trkpt lat="44.7749007" lon="10.2563282"><ele>83.33333333333333</ele><time>2026-04-12T12:32:27.952Z</time></trkpt><trkpt lat="44.7747387" lon="10.2562901"><ele>82.66666666666666</ele><time>2026-04-12T12:32:28.953Z</time></trkpt><trkpt lat="44.7745711" lon="10.2562412"><ele>82.0</ele><time>2026-04-12T12:32:29.951Z</time></trkpt><trkpt lat="44.7744026" lon="10.2561917"><ele>83.0</ele><time>2026-04-12T12:32:30.953Z</time></trkpt><trkpt lat="44.7742254" lon="10.256141"><ele>84.0</ele><time>2026-04-12T12:32:31.951Z</time></trkpt><trkpt lat="44.7740457" lon="10.2560873"><ele>85.0</ele><time>2026-04-12T12:32:32.953Z</time></trkpt><trkpt lat="44.7738606" lon="10.256038"><ele>85.0</ele><time>2026-04-12T12:32:33.952Z</time></trkpt><trkpt lat="44.7736684" lon="10.2559822"><ele>85.0</ele><time>2026-04-12T12:32:34.952Z</time></trkpt><trkpt lat="44.7734706" lon="10.2559246"><ele>85.0</ele><time>2026-04-12T12:32:35.952Z</time></trkpt><trkpt lat="44.7732781" lon="10.2558716"><ele>84.66666666666666</ele><time>2026-04-12T12:32:36.953Z</time></trkpt><trkpt lat="44.7730833" lon="10.2558144"><ele>84.33333333333333</ele><time>2026-04-12T12:32:37.952Z</time></trkpt><trkpt lat="44.7728855" lon="10.2557618"><ele>84.0</ele><time>2026-04-12T12:32:38.952Z</time></trkpt><trkpt lat="44.7726884" lon="10.2557109"><ele>85.33333333333333</ele><time>2026-04-12T12:32:39.952Z</time></trkpt><trkpt lat="44.7724901" lon="10.2556556"><ele>86.66666666666666</ele><time>2026-04-12T12:32:40.952Z</time></trkpt><trkpt lat="44.7722878" lon="10.2556027"><ele>88.0</ele><time>2026-04-12T12:32:41.951Z</time></trkpt><trkpt lat="44.772087" lon="10.2555457"><ele>88.33333333333333</ele><time>2026-04-12T12:32:42.953Z</time></trkpt><trkpt lat="44.7718867" lon="10.2554841"><ele>88.66666666666667</ele><time>2026-04-12T12:32:43.952Z</time></trkpt><trkpt lat="44.7716821" lon="10.2554284"><ele>89.0</ele><time>2026-04-12T12:32:44.952Z</time></trkpt><trkpt lat="44.7714783" lon="10.2553643"><ele>89.66666666666667</ele><time>2026-04-12T12:32:45.953Z</time></trkpt><trkpt lat="44.7712745" lon="10.2553076"><ele>90.33333333333333</ele><time>2026-04-12T12:32:46.953Z</time></trkpt><trkpt lat="44.7710717" lon="10.2552442"><ele>91.0</ele><time>2026-04-12T12:32:47.953Z</time></trkpt><trkpt lat="44.7708662" lon="10.2551919"><ele>91.33333333333333</ele><time>2026-04-12T12:32:48.953Z</time></trkpt><trkpt lat="44.7706662" lon="10.2551333"><ele>91.66666666666667</ele><time>2026-04-12T12:32:49.953Z</time></trkpt><trkpt lat="44.7704673" lon="10.2550773"><ele>92.0</ele><time>2026-04-12T12:32:50.952Z</time></trkpt><trkpt lat="44.7702654" lon="10.2550109"><ele>92.0</ele><time>2026-04-12T12:32:51.952Z</time></trkpt><trkpt lat="44.7700627" lon="10.2549475"><ele>92.0</ele><time>2026-04-12T12:32:52.952Z</time></trkpt><trkpt lat="44.7698649" lon="10.2548879"><ele>92.0</ele><time>2026-04-12T12:32:53.952Z</time></trkpt><trkpt lat="44.769664" lon="10.2548315"><ele>92.0</ele><time>2026-04-12T12:32:54.952Z</time></trkpt><trkpt lat="44.769465" lon="10.2547717"><ele>92.0</ele><time>2026-04-12T12:32:55.952Z</time></trkpt><trkpt lat="44.7692636" lon="10.2547134"><ele>92.0</ele><time>2026-04-12T12:32:56.953Z</time></trkpt><trkpt lat="44.7690637" lon="10.2546572"><ele>92.0</ele><time>2026-04-12T12:32:57.953Z</time></trkpt><trkpt lat="44.7688612" lon="10.254602"><ele>92.0</ele><time>2026-04-12T12:32:58.952Z</time></trkpt><trkpt lat="44.7686602" lon="10.254552"><ele>92.0</ele><time>2026-04-12T12:32:59.953Z</time></trkpt><trkpt lat="44.7684612" lon="10.2544936"><ele>93.33333333333334</ele><time>2026-04-12T12:33:00.952Z</time></trkpt><trkpt lat="44.7682618" lon="10.2544344"><ele>94.66666666666667</ele><time>2026-04-12T12:33:01.952Z</time></trkpt><trkpt lat="44.7680553" lon="10.254378"><ele>96.0</ele><time>2026-04-12T12:33:02.952Z</time></trkpt><trkpt lat="44.7678498" lon="10.2543245"><ele>96.0</ele><time>2026-04-12T12:33:03.952Z</time></trkpt><trkpt lat="44.7676418" lon="10.2542685"><ele>96.0</ele><time>2026-04-12T12:33:04.952Z</time></trkpt><trkpt lat="44.7674377" lon="10.2542125"><ele>96.0</ele><time>2026-04-12T12:33:05.952Z</time></trkpt><trkpt lat="44.7672332" lon="10.254154"><ele>96.0</ele><time>2026-04-12T12:33:06.951Z</time></trkpt><trkpt lat="44.7670436" lon="10.2541008"><ele>96.0</ele><time>2026-04-12T12:33:07.953Z</time></trkpt><trkpt lat="44.7668739" lon="10.2540519"><ele>96.0</ele><time>2026-04-12T12:33:08.952Z</time></trkpt><trkpt lat="44.7667205" lon="10.254017"><ele>96.0</ele><time>2026-04-12T12:33:09.952Z</time></trkpt><trkpt lat="44.7665866" lon="10.253998"><ele>96.0</ele><time>2026-04-12T12:33:10.952Z</time></trkpt><trkpt lat="44.7664674" lon="10.2539826"><ele>96.0</ele><time>2026-04-12T12:33:11.953Z</time></trkpt><trkpt lat="44.7663704" lon="10.2539393"><ele>96.0</ele><time>2026-04-12T12:33:12.953Z</time></trkpt><trkpt lat="44.7662836" lon="10.2538784"><ele>96.5</ele><time>2026-04-12T12:33:13.953Z</time></trkpt><trkpt lat="44.7661978" lon="10.2537873"><ele>97.0</ele><time>2026-04-12T12:33:14.952Z</time></trkpt><trkpt lat="44.7661203" lon="10.2536567"><ele>97.5</ele><time>2026-04-12T12:33:15.952Z</time></trkpt><trkpt lat="44.7660444" lon="10.2534999"><ele>98.0</ele><time>2026-04-12T12:33:16.952Z</time></trkpt><trkpt lat="44.7659653" lon="10.2533443"><ele>98.0</ele><time>2026-04-12T12:33:17.953Z</time></trkpt><trkpt lat="44.7658876" lon="10.253231"><ele>98.0</ele><time>2026-04-12T12:33:18.952Z</time></trkpt><trkpt lat="44.7657954" lon="10.2531719"><ele>98.0</ele><time>2026-04-12T12:33:19.952Z</time></trkpt><trkpt lat="44.7656983" lon="10.2531679"><ele>98.0</ele><time>2026-04-12T12:33:20.952Z</time></trkpt><trkpt lat="44.7655889" lon="10.2532058"><ele>98.0</ele><time>2026-04-12T12:33:21.953Z</time></trkpt><trkpt lat="44.7654773" lon="10.2532922"><ele>98.0</ele><time>2026-04-12T12:33:22.952Z</time></trkpt><trkpt lat="44.7653664" lon="10.2533862"><ele>98.0</ele><time>2026-04-12T12:33:23.952Z</time></trkpt><trkpt lat="44.7652369" lon="10.2534649"><ele>98.0</ele><time>2026-04-12T12:33:24.952Z</time></trkpt><trkpt lat="44.7651067" lon="10.2534827"><ele>98.0</ele><time>2026-04-12T12:33:25.952Z</time></trkpt><trkpt lat="44.7649617" lon="10.2534547"><ele>98.0</ele><time>2026-04-12T12:33:26.953Z</time></trkpt><trkpt lat="44.7648062" lon="10.2534009"><ele>98.0</ele><time>2026-04-12T12:33:27.953Z</time></trkpt><trkpt lat="44.7646325" lon="10.2533546"><ele>98.0</ele><time>2026-04-12T12:33:28.953Z</time></trkpt><trkpt lat="44.7644598" lon="10.2533015"><ele>97.66666666666666</ele><time>2026-04-12T12:33:29.953Z</time></trkpt><trkpt lat="44.7642791" lon="10.2532539"><ele>97.33333333333334</ele><time>2026-04-12T12:33:30.953Z</time></trkpt><trkpt lat="44.7640978" lon="10.2531984"><ele>97.0</ele><time>2026-04-12T12:33:31.952Z</time></trkpt><trkpt lat="44.7639074" lon="10.2531509"><ele>97.0</ele><time>2026-04-12T12:33:32.952Z</time></trkpt><trkpt lat="44.7637185" lon="10.2530991"><ele>97.0</ele><time>2026-04-12T12:33:33.953Z</time></trkpt><trkpt lat="44.7635245" lon="10.2530404"><ele>97.0</ele><time>2026-04-12T12:33:34.953Z</time></trkpt><trkpt lat="44.7633298" lon="10.2529822"><ele>97.0</ele><time>2026-04-12T12:33:35.951Z</time></trkpt><trkpt lat="44.7631269" lon="10.2529356"><ele>97.0</ele><time>2026-04-12T12:33:36.953Z</time></trkpt><trkpt lat="44.7629259" lon="10.2528806"><ele>97.0</ele><time>2026-04-12T12:33:37.953Z</time></trkpt><trkpt lat="44.7627406" lon="10.2528286"><ele>97.66666666666667</ele><time>2026-04-12T12:33:38.952Z</time></trkpt><trkpt lat="44.7625659" lon="10.252784"><ele>98.33333333333334</ele><time>2026-04-12T12:33:39.952Z</time></trkpt><trkpt lat="44.7624026" lon="10.2527406"><ele>99.0</ele><time>2026-04-12T12:33:40.953Z</time></trkpt><trkpt lat="44.7622463" lon="10.2527032"><ele>99.0</ele><time>2026-04-12T12:33:41.952Z</time></trkpt><trkpt lat="44.7621054" lon="10.2526728"><ele>99.0</ele><time>2026-04-12T12:33:42.953Z</time></trkpt><trkpt lat="44.7619664" lon="10.2526339"><ele>99.0</ele><time>2026-04-12T12:33:43.952Z</time></trkpt><trkpt lat="44.7618248" lon="10.252591"><ele>99.0</ele><time>2026-04-12T12:33:44.952Z</time></trkpt><trkpt lat="44.7616889" lon="10.2525538"><ele>99.25</ele><time>2026-04-12T12:33:45.953Z</time></trkpt><trkpt lat="44.7615475" lon="10.2525183"><ele>99.5</ele><time>2026-04-12T12:33:46.952Z</time></trkpt><trkpt lat="44.761416" lon="10.252481"><ele>99.75</ele><time>2026-04-12T12:33:47.953Z</time></trkpt><trkpt lat="44.7612925" lon="10.2524385"><ele>100.0</ele><time>2026-04-12T12:33:48.952Z</time></trkpt><trkpt lat="44.7611786" lon="10.2524084"><ele>100.0</ele><time>2026-04-12T12:33:49.953Z</time></trkpt><trkpt lat="44.7610741" lon="10.2523803"><ele>100.0</ele><time>2026-04-12T12:33:50.953Z</time></trkpt><trkpt lat="44.760973" lon="10.2523686"><ele>100.0</ele><time>2026-04-12T12:33:51.953Z</time></trkpt><trkpt lat="44.7608576" lon="10.2523509"><ele>100.0</ele><time>2026-04-12T12:33:52.951Z</time></trkpt><trkpt lat="44.7607256" lon="10.2523229"><ele>100.0</ele><time>2026-04-12T12:33:53.952Z</time></trkpt><trkpt lat="44.7605881" lon="10.2522771"><ele>100.0</ele><time>2026-04-12T12:33:54.952Z</time></trkpt><trkpt lat="44.7604356" lon="10.2522352"><ele>100.0</ele><time>2026-04-12T12:33:55.953Z</time></trkpt><trkpt lat="44.7602684" lon="10.2521812"><ele>100.66666666666667</ele><time>2026-04-12T12:33:56.952Z</time></trkpt><trkpt lat="44.760089" lon="10.2521216"><ele>101.33333333333334</ele><time>2026-04-12T12:33:57.953Z</time></trkpt><trkpt lat="44.7599089" lon="10.252067"><ele>102.0</ele><time>2026-04-12T12:33:58.952Z</time></trkpt><trkpt lat="44.7597264" lon="10.2520121"><ele>102.0</ele><time>2026-04-12T12:33:59.952Z</time></trkpt><trkpt lat="44.7595439" lon="10.2519584"><ele>102.0</ele><time>2026-04-12T12:34:00.952Z</time></trkpt><trkpt lat="44.7593704" lon="10.251912"><ele>102.0</ele><time>2026-04-12T12:34:01.951Z</time></trkpt><trkpt lat="44.7592111" lon="10.2518691"><ele>103.33333333333334</ele><time>2026-04-12T12:34:02.952Z</time></trkpt><trkpt lat="44.7590471" lon="10.2518259"><ele>104.66666666666667</ele><time>2026-04-12T12:34:03.953Z</time></trkpt><trkpt lat="44.7588825" lon="10.2517821"><ele>106.0</ele><time>2026-04-12T12:34:04.953Z</time></trkpt><trkpt lat="44.7587122" lon="10.2517267"><ele>106.0</ele><time>2026-04-12T12:34:05.952Z</time></trkpt><trkpt lat="44.7585382" lon="10.251677"><ele>106.0</ele><time>2026-04-12T12:34:06.951Z</time></trkpt><trkpt lat="44.758364" lon="10.25163"><ele>106.0</ele><time>2026-04-12T12:34:07.952Z</time></trkpt><trkpt lat="44.7581827" lon="10.2515809"><ele>106.0</ele><time>2026-04-12T12:34:08.952Z</time></trkpt><trkpt lat="44.7580004" lon="10.2515343"><ele>106.0</ele><time>2026-04-12T12:34:09.952Z</time></trkpt><trkpt lat="44.7578126" lon="10.2514842"><ele>106.0</ele><time>2026-04-12T12:34:10.953Z</time></trkpt><trkpt lat="44.7576251" lon="10.2514241"><ele>105.33333333333334</ele><time>2026-04-12T12:34:11.951Z</time></trkpt><trkpt lat="44.7574285" lon="10.2513704"><ele>104.66666666666666</ele><time>2026-04-12T12:34:12.952Z</time></trkpt><trkpt lat="44.7572377" lon="10.2513131"><ele>104.0</ele><time>2026-04-12T12:34:13.952Z</time></trkpt><trkpt lat="44.7570372" lon="10.2512562"><ele>105.66666666666666</ele><time>2026-04-12T12:34:14.951Z</time></trkpt><trkpt lat="44.7568373" lon="10.2511989"><ele>107.33333333333334</ele><time>2026-04-12T12:34:15.953Z</time></trkpt><trkpt lat="44.7566343" lon="10.2511402"><ele>109.0</ele><time>2026-04-12T12:34:16.952Z</time></trkpt><trkpt lat="44.7564306" lon="10.2510814"><ele>109.0</ele><time>2026-04-12T12:34:17.952Z</time></trkpt><trkpt lat="44.7562237" lon="10.2510224"><ele>109.0</ele><time>2026-04-12T12:34:18.953Z</time></trkpt><trkpt lat="44.7560152" lon="10.2509679"><ele>109.0</ele><time>2026-04-12T12:34:19.952Z</time></trkpt><trkpt lat="44.7558041" lon="10.2509158"><ele>108.66666666666667</ele><time>2026-04-12T12:34:20.952Z</time></trkpt><trkpt lat="44.7555968" lon="10.2508571"><ele>108.33333333333334</ele><time>2026-04-12T12:34:21.953Z</time></trkpt><trkpt lat="44.7553925" lon="10.2507973"><ele>108.0</ele><time>2026-04-12T12:34:22.951Z</time></trkpt><trkpt lat="44.7551873" lon="10.2507374"><ele>107.66666666666666</ele><time>2026-04-12T12:34:23.953Z</time></trkpt><trkpt lat="44.7549815" lon="10.2506772"><ele>107.33333333333333</ele><time>2026-04-12T12:34:24.952Z</time></trkpt><trkpt lat="44.7547774" lon="10.2506177"><ele>107.0</ele><time>2026-04-12T12:34:25.951Z</time></trkpt><trkpt lat="44.7545739" lon="10.2505575"><ele>107.66666666666666</ele><time>2026-04-12T12:34:26.952Z</time></trkpt><trkpt lat="44.7543745" lon="10.2505006"><ele>108.33333333333334</ele><time>2026-04-12T12:34:27.953Z</time></trkpt><trkpt lat="44.7541707" lon="10.2504428"><ele>109.0</ele><time>2026-04-12T12:34:28.952Z</time></trkpt><trkpt lat="44.753965" lon="10.2503923"><ele>109.33333333333334</ele><time>2026-04-12T12:34:29.952Z</time></trkpt><trkpt lat="44.7537621" lon="10.2503348"><ele>109.66666666666666</ele><time>2026-04-12T12:34:30.952Z</time></trkpt><trkpt lat="44.7535593" lon="10.2502808"><ele>110.0</ele><time>2026-04-12T12:34:31.952Z</time></trkpt><trkpt lat="44.7533638" lon="10.2502199"><ele>110.0</ele><time>2026-04-12T12:34:32.952Z</time></trkpt><trkpt lat="44.7531697" lon="10.2501518"><ele>110.0</ele><time>2026-04-12T12:34:33.953Z</time></trkpt><trkpt lat="44.7529686" lon="10.2500804"><ele>110.0</ele><time>2026-04-12T12:34:34.952Z</time></trkpt><trkpt lat="44.7527716" lon="10.2500113"><ele>110.66666666666666</ele><time>2026-04-12T12:34:35.952Z</time></trkpt><trkpt lat="44.7525783" lon="10.2499436"><ele>111.33333333333334</ele><time>2026-04-12T12:34:36.953Z</time></trkpt><trkpt lat="44.7523993" lon="10.2498809"><ele>112.0</ele><time>2026-04-12T12:34:37.953Z</time></trkpt><trkpt lat="44.7522251" lon="10.2498144"><ele>112.0</ele><time>2026-04-12T12:34:38.952Z</time></trkpt><trkpt lat="44.7520476" lon="10.2497384"><ele>112.0</ele><time>2026-04-12T12:34:39.953Z</time></trkpt><trkpt lat="44.7518771" lon="10.2496605"><ele>112.0</ele><time>2026-04-12T12:34:40.953Z</time></trkpt><trkpt lat="44.7517088" lon="10.2495815"><ele>112.0</ele><time>2026-04-12T12:34:41.953Z</time></trkpt><trkpt lat="44.7515462" lon="10.2495048"><ele>112.0</ele><time>2026-04-12T12:34:42.953Z</time></trkpt><trkpt lat="44.7513848" lon="10.2494242"><ele>112.0</ele><time>2026-04-12T12:34:43.953Z</time></trkpt><trkpt lat="44.7512155" lon="10.2493408"><ele>112.0</ele><time>2026-04-12T12:34:44.953Z</time></trkpt><trkpt lat="44.7510425" lon="10.2492641"><ele>112.0</ele><time>2026-04-12T12:34:45.953Z</time></trkpt><trkpt lat="44.7508769" lon="10.2491885"><ele>112.0</ele><time>2026-04-12T12:34:46.953Z</time></trkpt><trkpt lat="44.7507237" lon="10.2491144"><ele>111.66666666666667</ele><time>2026-04-12T12:34:47.953Z</time></trkpt><trkpt lat="44.7505714" lon="10.2490322"><ele>111.33333333333334</ele><time>2026-04-12T12:34:48.952Z</time></trkpt><trkpt lat="44.7504113" lon="10.2489403"><ele>111.0</ele><time>2026-04-12T12:34:49.952Z</time></trkpt><trkpt lat="44.7502588" lon="10.2488488"><ele>113.0</ele><time>2026-04-12T12:34:50.953Z</time></trkpt><trkpt lat="44.7501027" lon="10.2487602"><ele>115.0</ele><time>2026-04-12T12:34:51.952Z</time></trkpt><trkpt lat="44.7499465" lon="10.2486699"><ele>117.0</ele><time>2026-04-12T12:34:52.953Z</time></trkpt><trkpt lat="44.7497847" lon="10.2485856"><ele>117.0</ele><time>2026-04-12T12:34:53.952Z</time></trkpt><trkpt lat="44.7496214" lon="10.2485109"><ele>117.0</ele><time>2026-04-12T12:34:54.952Z</time></trkpt><trkpt lat="44.7494487" lon="10.2484459"><ele>117.0</ele><time>2026-04-12T12:34:55.953Z</time></trkpt><trkpt lat="44.7492734" lon="10.2483701"><ele>116.66666666666666</ele><time>2026-04-12T12:34:56.953Z</time></trkpt><trkpt lat="44.7490996" lon="10.2482992"><ele>116.33333333333333</ele><time>2026-04-12T12:34:57.953Z</time></trkpt><trkpt lat="44.7489197" lon="10.2482314"><ele>116.0</ele><time>2026-04-12T12:34:58.953Z</time></trkpt><trkpt lat="44.7487457" lon="10.248164"><ele>115.66666666666666</ele><time>2026-04-12T12:34:59.952Z</time></trkpt><trkpt lat="44.7485648" lon="10.248093"><ele>115.33333333333334</ele><time>2026-04-12T12:35:00.952Z</time></trkpt><trkpt lat="44.748379" lon="10.2480306"><ele>115.0</ele><time>2026-04-12T12:35:01.952Z</time></trkpt><trkpt lat="44.7481981" lon="10.2479638"><ele>116.33333333333334</ele><time>2026-04-12T12:35:02.952Z</time></trkpt><trkpt lat="44.7480172" lon="10.2478977"><ele>117.66666666666666</ele><time>2026-04-12T12:35:03.952Z</time></trkpt><trkpt lat="44.7478355" lon="10.2478276"><ele>119.0</ele><time>2026-04-12T12:35:04.953Z</time></trkpt><trkpt lat="44.7476538" lon="10.2477596"><ele>119.33333333333333</ele><time>2026-04-12T12:35:05.953Z</time></trkpt><trkpt lat="44.7474646" lon="10.2476903"><ele>119.66666666666666</ele><time>2026-04-12T12:35:06.953Z</time></trkpt><trkpt lat="44.7472787" lon="10.2476143"><ele>120.0</ele><time>2026-04-12T12:35:07.953Z</time></trkpt><trkpt lat="44.7470912" lon="10.2475408"><ele>120.0</ele><time>2026-04-12T12:35:08.952Z</time></trkpt><trkpt lat="44.7469044" lon="10.2474665"><ele>120.0</ele><time>2026-04-12T12:35:09.952Z</time></trkpt><trkpt lat="44.7467134" lon="10.2473938"><ele>120.0</ele><time>2026-04-12T12:35:10.953Z</time></trkpt><trkpt lat="44.7465242" lon="10.2473257"><ele>120.0</ele><time>2026-04-12T12:35:11.951Z</time></trkpt><trkpt lat="44.7463336" lon="10.2472588"><ele>120.0</ele><time>2026-04-12T12:35:12.953Z</time></trkpt><trkpt lat="44.7461429" lon="10.247179"><ele>120.0</ele><time>2026-04-12T12:35:13.952Z</time></trkpt><trkpt lat="44.7459472" lon="10.2471057"><ele>120.0</ele><time>2026-04-12T12:35:14.952Z</time></trkpt><trkpt lat="44.7457533" lon="10.2470291"><ele>120.0</ele><time>2026-04-12T12:35:15.952Z</time></trkpt><trkpt lat="44.7455615" lon="10.2469547"><ele>120.0</ele><time>2026-04-12T12:35:16.952Z</time></trkpt><trkpt lat="44.7453708" lon="10.2468778"><ele>121.0</ele><time>2026-04-12T12:35:17.953Z</time></trkpt><trkpt lat="44.7451761" lon="10.2467979"><ele>122.0</ele><time>2026-04-12T12:35:18.952Z</time></trkpt><trkpt lat="44.7449796" lon="10.2467254"><ele>123.0</ele><time>2026-04-12T12:35:19.953Z</time></trkpt><trkpt lat="44.7447842" lon="10.2466456"><ele>123.0</ele><time>2026-04-12T12:35:20.953Z</time></trkpt><trkpt lat="44.7445864" lon="10.2465711"><ele>123.0</ele><time>2026-04-12T12:35:21.953Z</time></trkpt><trkpt lat="44.7443888" lon="10.2464947"><ele>123.0</ele><time>2026-04-12T12:35:22.952Z</time></trkpt><trkpt lat="44.744188" lon="10.2464143"><ele>123.0</ele><time>2026-04-12T12:35:23.953Z</time></trkpt><trkpt lat="44.7439866" lon="10.2463273"><ele>123.0</ele><time>2026-04-12T12:35:24.953Z</time></trkpt><trkpt lat="44.7437872" lon="10.2462437"><ele>123.0</ele><time>2026-04-12T12:35:25.953Z</time></trkpt><trkpt lat="44.7435873" lon="10.246165"><ele>123.0</ele><time>2026-04-12T12:35:26.952Z</time></trkpt><trkpt lat="44.7433874" lon="10.2460786"><ele>123.0</ele><time>2026-04-12T12:35:27.952Z</time></trkpt><trkpt lat="44.7431808" lon="10.2459993"><ele>123.0</ele><time>2026-04-12T12:35:28.953Z</time></trkpt><trkpt lat="44.742978" lon="10.2459172"><ele>123.0</ele><time>2026-04-12T12:35:29.953Z</time></trkpt><trkpt lat="44.7427759" lon="10.2458376"><ele>123.0</ele><time>2026-04-12T12:35:30.953Z</time></trkpt><trkpt lat="44.7425708" lon="10.2457487"><ele>123.0</ele><time>2026-04-12T12:35:31.953Z</time></trkpt><trkpt lat="44.7423676" lon="10.2456684"><ele>124.0</ele><time>2026-04-12T12:35:32.953Z</time></trkpt><trkpt lat="44.7421669" lon="10.2455866"><ele>125.0</ele><time>2026-04-12T12:35:33.952Z</time></trkpt><trkpt lat="44.7419696" lon="10.2455156"><ele>126.0</ele><time>2026-04-12T12:35:34.953Z</time></trkpt><trkpt lat="44.7417903" lon="10.24544"><ele>126.0</ele><time>2026-04-12T12:35:35.951Z</time></trkpt><trkpt lat="44.7416245" lon="10.2453754"><ele>126.0</ele><time>2026-04-12T12:35:36.953Z</time></trkpt><trkpt lat="44.7414655" lon="10.2453139"><ele>126.0</ele><time>2026-04-12T12:35:37.953Z</time></trkpt><trkpt lat="44.7413227" lon="10.2452619"><ele>126.0</ele><time>2026-04-12T12:35:38.952Z</time></trkpt><trkpt lat="44.741207" lon="10.245218"><ele>126.0</ele><time>2026-04-12T12:35:39.952Z</time></trkpt><trkpt lat="44.7411234" lon="10.2451704"><ele>126.0</ele><time>2026-04-12T12:35:40.952Z</time></trkpt><trkpt lat="44.741061" lon="10.2451077"><ele>126.0</ele><time>2026-04-12T12:35:41.952Z</time></trkpt><trkpt lat="44.74102" lon="10.2449364"><ele>126.0</ele><time>2026-04-12T12:35:43.953Z</time></trkpt><trkpt lat="44.7410323" lon="10.2448233"><ele>125.5</ele><time>2026-04-12T12:35:44.952Z</time></trkpt><trkpt lat="44.7410589" lon="10.2446952"><ele>125.0</ele><time>2026-04-12T12:35:45.952Z</time></trkpt><trkpt lat="44.7410839" lon="10.244545"><ele>124.5</ele><time>2026-04-12T12:35:46.953Z</time></trkpt><trkpt lat="44.7411155" lon="10.2443759"><ele>124.0</ele><time>2026-04-12T12:35:47.953Z</time></trkpt><trkpt lat="44.7411508" lon="10.2441795"><ele>123.33333333333334</ele><time>2026-04-12T12:35:48.952Z</time></trkpt><trkpt lat="44.741192" lon="10.2439581"><ele>122.66666666666666</ele><time>2026-04-12T12:35:49.953Z</time></trkpt><trkpt lat="44.7412364" lon="10.2437281"><ele>122.0</ele><time>2026-04-12T12:35:50.952Z</time></trkpt><trkpt lat="44.7412812" lon="10.2434969"><ele>122.0</ele><time>2026-04-12T12:35:51.953Z</time></trkpt><trkpt lat="44.741328" lon="10.2432513"><ele>122.0</ele><time>2026-04-12T12:35:52.953Z</time></trkpt><trkpt lat="44.7413758" lon="10.2430001"><ele>122.0</ele><time>2026-04-12T12:35:53.953Z</time></trkpt><trkpt lat="44.7414257" lon="10.2427354"><ele>122.66666666666666</ele><time>2026-04-12T12:35:54.952Z</time></trkpt><trkpt lat="44.7414772" lon="10.2424704"><ele>123.33333333333334</ele><time>2026-04-12T12:35:55.952Z</time></trkpt><trkpt lat="44.7415291" lon="10.2421979"><ele>124.0</ele><time>2026-04-12T12:35:56.953Z</time></trkpt><trkpt lat="44.7415855" lon="10.2419215"><ele>124.0</ele><time>2026-04-12T12:35:57.953Z</time></trkpt><trkpt lat="44.741641" lon="10.2416515"><ele>124.0</ele><time>2026-04-12T12:35:58.953Z</time></trkpt><trkpt lat="44.7416878" lon="10.2413925"><ele>124.0</ele><time>2026-04-12T12:35:59.953Z</time></trkpt><trkpt lat="44.7417386" lon="10.2411548"><ele>124.0</ele><time>2026-04-12T12:36:00.952Z</time></trkpt><trkpt lat="44.741784" lon="10.2409298"><ele>124.0</ele><time>2026-04-12T12:36:01.952Z</time></trkpt><trkpt lat="44.7418264" lon="10.2407198"><ele>124.0</ele><time>2026-04-12T12:36:02.953Z</time></trkpt><trkpt lat="44.7418673" lon="10.2405208"><ele>123.2</ele><time>2026-04-12T12:36:03.952Z</time></trkpt><trkpt lat="44.741906" lon="10.2403394"><ele>122.4</ele><time>2026-04-12T12:36:04.953Z</time></trkpt><trkpt lat="44.7419438" lon="10.2401819"><ele>121.6</ele><time>2026-04-12T12:36:05.951Z</time></trkpt><trkpt lat="44.7419828" lon="10.2400692"><ele>120.8</ele><time>2026-04-12T12:36:06.952Z</time></trkpt><trkpt lat="44.7420203" lon="10.2399817"><ele>120.0</ele><time>2026-04-12T12:36:07.953Z</time></trkpt><trkpt lat="44.7421006" lon="10.2398358"><ele>120.6</ele><time>2026-04-12T12:36:09.952Z</time></trkpt><trkpt lat="44.7421187" lon="10.2397407"><ele>121.2</ele><time>2026-04-12T12:36:10.952Z</time></trkpt><trkpt lat="44.7420543" lon="10.2396128"><ele>121.80000000000001</ele><time>2026-04-12T12:36:12.952Z</time></trkpt><trkpt lat="44.7419803" lon="10.2395855"><ele>122.4</ele><time>2026-04-12T12:36:13.953Z</time></trkpt><trkpt lat="44.7418929" lon="10.2395958"><ele>123.0</ele><time>2026-04-12T12:36:14.952Z</time></trkpt><trkpt lat="44.7417869" lon="10.2396227"><ele>123.75</ele><time>2026-04-12T12:36:15.953Z</time></trkpt><trkpt lat="44.7416616" lon="10.2396076"><ele>124.5</ele><time>2026-04-12T12:36:16.952Z</time></trkpt><trkpt lat="44.7415236" lon="10.2395708"><ele>125.25</ele><time>2026-04-12T12:36:17.953Z</time></trkpt><trkpt lat="44.7413712" lon="10.2395268"><ele>126.0</ele><time>2026-04-12T12:36:18.953Z</time></trkpt><trkpt lat="44.7412154" lon="10.2394786"><ele>126.0</ele><time>2026-04-12T12:36:19.952Z</time></trkpt><trkpt lat="44.7410327" lon="10.2394174"><ele>126.0</ele><time>2026-04-12T12:36:20.952Z</time></trkpt><trkpt lat="44.7408533" lon="10.2393625"><ele>126.0</ele><time>2026-04-12T12:36:21.953Z</time></trkpt><trkpt lat="44.7406601" lon="10.2393018"><ele>126.0</ele><time>2026-04-12T12:36:22.953Z</time></trkpt><trkpt lat="44.7404548" lon="10.2392351"><ele>126.0</ele><time>2026-04-12T12:36:23.953Z</time></trkpt><trkpt lat="44.7402514" lon="10.2391712"><ele>126.0</ele><time>2026-04-12T12:36:24.952Z</time></trkpt><trkpt lat="44.7400424" lon="10.2391061"><ele>126.0</ele><time>2026-04-12T12:36:25.953Z</time></trkpt><trkpt lat="44.7398259" lon="10.2390441"><ele>126.0</ele><time>2026-04-12T12:36:26.953Z</time></trkpt><trkpt lat="44.739605" lon="10.2389811"><ele>126.0</ele><time>2026-04-12T12:36:27.952Z</time></trkpt><trkpt lat="44.739388" lon="10.2389203"><ele>127.5</ele><time>2026-04-12T12:36:28.952Z</time></trkpt><trkpt lat="44.7391657" lon="10.2388554"><ele>129.0</ele><time>2026-04-12T12:36:29.952Z</time></trkpt><trkpt lat="44.7389426" lon="10.238786"><ele>129.0</ele><time>2026-04-12T12:36:30.952Z</time></trkpt><trkpt lat="44.73872" lon="10.2387185"><ele>129.0</ele><time>2026-04-12T12:36:31.953Z</time></trkpt><trkpt lat="44.7384985" lon="10.2386461"><ele>127.5</ele><time>2026-04-12T12:36:32.953Z</time></trkpt><trkpt lat="44.7382765" lon="10.238582"><ele>126.0</ele><time>2026-04-12T12:36:33.952Z</time></trkpt><trkpt lat="44.7380551" lon="10.2385089"><ele>126.0</ele><time>2026-04-12T12:36:34.953Z</time></trkpt><trkpt lat="44.737835" lon="10.2384362"><ele>126.0</ele><time>2026-04-12T12:36:35.953Z</time></trkpt><trkpt lat="44.7376104" lon="10.2383671"><ele>129.0</ele><time>2026-04-12T12:36:36.953Z</time></trkpt><trkpt lat="44.7373853" lon="10.2383007"><ele>132.0</ele><time>2026-04-12T12:36:37.952Z</time></trkpt><trkpt lat="44.7371621" lon="10.2382363"><ele>132.0</ele><time>2026-04-12T12:36:38.953Z</time></trkpt><trkpt lat="44.7369321" lon="10.238169"><ele>132.0</ele><time>2026-04-12T12:36:39.952Z</time></trkpt><trkpt lat="44.7367046" lon="10.2380988"><ele>132.0</ele><time>2026-04-12T12:36:40.953Z</time></trkpt><trkpt lat="44.7364814" lon="10.2380356"><ele>132.0</ele><time>2026-04-12T12:36:41.952Z</time></trkpt><trkpt lat="44.7362594" lon="10.2379674"><ele>133.5</ele><time>2026-04-12T12:36:42.953Z</time></trkpt><trkpt lat="44.7360375" lon="10.237902"><ele>135.0</ele><time>2026-04-12T12:36:43.953Z</time></trkpt><trkpt lat="44.7358172" lon="10.2378363"><ele>135.0</ele><time>2026-04-12T12:36:44.952Z</time></trkpt><trkpt lat="44.7355948" lon="10.2377681"><ele>135.0</ele><time>2026-04-12T12:36:45.953Z</time></trkpt><trkpt lat="44.735378" lon="10.2377019"><ele>135.0</ele><time>2026-04-12T12:36:46.953Z</time></trkpt><trkpt lat="44.7351566" lon="10.2376379"><ele>135.33333333333334</ele><time>2026-04-12T12:36:47.952Z</time></trkpt><trkpt lat="44.7349386" lon="10.2375683"><ele>135.66666666666669</ele><time>2026-04-12T12:36:48.952Z</time></trkpt><trkpt lat="44.7347248" lon="10.2375011"><ele>136.0</ele><time>2026-04-12T12:36:49.953Z</time></trkpt><trkpt lat="44.7345079" lon="10.2374334"><ele>135.66666666666669</ele><time>2026-04-12T12:36:50.952Z</time></trkpt><trkpt lat="44.7342894" lon="10.2373686"><ele>135.33333333333334</ele><time>2026-04-12T12:36:51.953Z</time></trkpt><trkpt lat="44.73407" lon="10.2373017"><ele>135.0</ele><time>2026-04-12T12:36:52.952Z</time></trkpt><trkpt lat="44.7338514" lon="10.2372362"><ele>134.66666666666666</ele><time>2026-04-12T12:36:53.952Z</time></trkpt><trkpt lat="44.7336333" lon="10.2371706"><ele>134.33333333333331</ele><time>2026-04-12T12:36:54.952Z</time></trkpt><trkpt lat="44.7334142" lon="10.2371034"><ele>134.0</ele><time>2026-04-12T12:36:55.952Z</time></trkpt><trkpt lat="44.733194" lon="10.2370369"><ele>133.66666666666666</ele><time>2026-04-12T12:36:56.953Z</time></trkpt><trkpt lat="44.7329766" lon="10.236972"><ele>133.33333333333334</ele><time>2026-04-12T12:36:57.953Z</time></trkpt><trkpt lat="44.732759" lon="10.236903"><ele>133.0</ele><time>2026-04-12T12:36:58.953Z</time></trkpt><trkpt lat="44.732543" lon="10.2368313"><ele>134.66666666666669</ele><time>2026-04-12T12:36:59.952Z</time></trkpt><trkpt lat="44.732327" lon="10.2367646"><ele>136.33333333333334</ele><time>2026-04-12T12:37:00.95Z</time></trkpt><trkpt lat="44.7321123" lon="10.2366981"><ele>138.0</ele><time>2026-04-12T12:37:01.952Z</time></trkpt><trkpt lat="44.7318997" lon="10.2366393"><ele>138.33333333333334</ele><time>2026-04-12T12:37:02.952Z</time></trkpt><trkpt lat="44.7316906" lon="10.2365788"><ele>138.66666666666669</ele><time>2026-04-12T12:37:03.951Z</time></trkpt><trkpt lat="44.7314808" lon="10.2365173"><ele>139.0</ele><time>2026-04-12T12:37:04.951Z</time></trkpt><trkpt lat="44.7312779" lon="10.2364491"><ele>139.0</ele><time>2026-04-12T12:37:05.952Z</time></trkpt><trkpt lat="44.7310744" lon="10.2363803"><ele>139.0</ele><time>2026-04-12T12:37:06.951Z</time></trkpt><trkpt lat="44.7308683" lon="10.2363197"><ele>139.0</ele><time>2026-04-12T12:37:07.951Z</time></trkpt><trkpt lat="44.7306628" lon="10.2362552"><ele>139.33333333333334</ele><time>2026-04-12T12:37:08.95Z</time></trkpt><trkpt lat="44.7304583" lon="10.2361958"><ele>139.66666666666666</ele><time>2026-04-12T12:37:09.952Z</time></trkpt><trkpt lat="44.7302515" lon="10.2361338"><ele>140.0</ele><time>2026-04-12T12:37:10.952Z</time></trkpt><trkpt lat="44.730046" lon="10.2360679"><ele>140.33333333333331</ele><time>2026-04-12T12:37:11.951Z</time></trkpt><trkpt lat="44.7298391" lon="10.2359998"><ele>140.66666666666666</ele><time>2026-04-12T12:37:12.951Z</time></trkpt><trkpt lat="44.7296336" lon="10.2359389"><ele>141.0</ele><time>2026-04-12T12:37:13.951Z</time></trkpt><trkpt lat="44.7294247" lon="10.2358798"><ele>141.66666666666666</ele><time>2026-04-12T12:37:14.951Z</time></trkpt><trkpt lat="44.7292155" lon="10.2358102"><ele>142.33333333333331</ele><time>2026-04-12T12:37:15.95Z</time></trkpt><trkpt lat="44.7290123" lon="10.2357411"><ele>143.0</ele><time>2026-04-12T12:37:16.951Z</time></trkpt><trkpt lat="44.7288058" lon="10.2356797"><ele>142.66666666666666</ele><time>2026-04-12T12:37:17.951Z</time></trkpt><trkpt lat="44.7286061" lon="10.2356175"><ele>142.33333333333334</ele><time>2026-04-12T12:37:18.95Z</time></trkpt><trkpt lat="44.7284074" lon="10.2355525"><ele>142.0</ele><time>2026-04-12T12:37:19.951Z</time></trkpt><trkpt lat="44.7282118" lon="10.2354913"><ele>143.0</ele><time>2026-04-12T12:37:20.951Z</time></trkpt><trkpt lat="44.7280213" lon="10.2354331"><ele>144.0</ele><time>2026-04-12T12:37:21.951Z</time></trkpt><trkpt lat="44.7278257" lon="10.2353784"><ele>145.0</ele><time>2026-04-12T12:37:22.951Z</time></trkpt><trkpt lat="44.7276284" lon="10.2353168"><ele>145.33333333333334</ele><time>2026-04-12T12:37:23.952Z</time></trkpt><trkpt lat="44.7274354" lon="10.2352516"><ele>145.66666666666666</ele><time>2026-04-12T12:37:24.952Z</time></trkpt><trkpt lat="44.7272432" lon="10.2351933"><ele>146.0</ele><time>2026-04-12T12:37:25.951Z</time></trkpt><trkpt lat="44.7270514" lon="10.2351384"><ele>146.66666666666666</ele><time>2026-04-12T12:37:26.952Z</time></trkpt><trkpt lat="44.7268589" lon="10.2350785"><ele>147.33333333333334</ele><time>2026-04-12T12:37:27.951Z</time></trkpt><trkpt lat="44.7266683" lon="10.2350206"><ele>148.0</ele><time>2026-04-12T12:37:28.952Z</time></trkpt><trkpt lat="44.7264773" lon="10.2349585"><ele>148.0</ele><time>2026-04-12T12:37:29.95Z</time></trkpt><trkpt lat="44.7262871" lon="10.2349005"><ele>148.0</ele><time>2026-04-12T12:37:30.952Z</time></trkpt><trkpt lat="44.7261009" lon="10.2348417"><ele>148.0</ele><time>2026-04-12T12:37:31.951Z</time></trkpt><trkpt lat="44.7259279" lon="10.2347886"><ele>148.0</ele><time>2026-04-12T12:37:32.952Z</time></trkpt><trkpt lat="44.725761" lon="10.2347376"><ele>148.0</ele><time>2026-04-12T12:37:33.951Z</time></trkpt><trkpt lat="44.725597" lon="10.2346871"><ele>148.0</ele><time>2026-04-12T12:37:34.951Z</time></trkpt><trkpt lat="44.7254306" lon="10.2346435"><ele>148.0</ele><time>2026-04-12T12:37:35.952Z</time></trkpt><trkpt lat="44.7252646" lon="10.2345985"><ele>148.0</ele><time>2026-04-12T12:37:36.951Z</time></trkpt><trkpt lat="44.7251017" lon="10.2345524"><ele>148.0</ele><time>2026-04-12T12:37:37.951Z</time></trkpt><trkpt lat="44.7249397" lon="10.2345073"><ele>148.0</ele><time>2026-04-12T12:37:38.952Z</time></trkpt><trkpt lat="44.724773" lon="10.2344581"><ele>148.0</ele><time>2026-04-12T12:37:39.952Z</time></trkpt><trkpt lat="44.7246121" lon="10.2344099"><ele>148.0</ele><time>2026-04-12T12:37:40.952Z</time></trkpt><trkpt lat="44.7244465" lon="10.2343629"><ele>148.33333333333334</ele><time>2026-04-12T12:37:41.952Z</time></trkpt><trkpt lat="44.724279" lon="10.2343117"><ele>148.66666666666666</ele><time>2026-04-12T12:37:42.951Z</time></trkpt><trkpt lat="44.7241076" lon="10.2342601"><ele>149.0</ele><time>2026-04-12T12:37:43.952Z</time></trkpt><trkpt lat="44.7239322" lon="10.2342103"><ele>149.0</ele><time>2026-04-12T12:37:44.951Z</time></trkpt><trkpt lat="44.7237556" lon="10.2341537"><ele>149.0</ele><time>2026-04-12T12:37:45.951Z</time></trkpt><trkpt lat="44.7235784" lon="10.2340938"><ele>149.0</ele><time>2026-04-12T12:37:46.951Z</time></trkpt><trkpt lat="44.7233952" lon="10.2340373"><ele>150.0</ele><time>2026-04-12T12:37:47.952Z</time></trkpt><trkpt lat="44.7232101" lon="10.2339826"><ele>151.0</ele><time>2026-04-12T12:37:48.952Z</time></trkpt><trkpt lat="44.7230246" lon="10.2339251"><ele>152.0</ele><time>2026-04-12T12:37:49.952Z</time></trkpt><trkpt lat="44.7228531" lon="10.2338741"><ele>152.33333333333331</ele><time>2026-04-12T12:37:50.951Z</time></trkpt><trkpt lat="44.7226957" lon="10.2338255"><ele>152.66666666666666</ele><time>2026-04-12T12:37:51.951Z</time></trkpt><trkpt lat="44.7225487" lon="10.2337848"><ele>153.0</ele><time>2026-04-12T12:37:52.951Z</time></trkpt><trkpt lat="44.7224112" lon="10.2337406"><ele>153.0</ele><time>2026-04-12T12:37:53.952Z</time></trkpt><trkpt lat="44.7222791" lon="10.2336929"><ele>153.0</ele><time>2026-04-12T12:37:54.952Z</time></trkpt><trkpt lat="44.7221637" lon="10.2336293"><ele>153.0</ele><time>2026-04-12T12:37:55.951Z</time></trkpt><trkpt lat="44.7220659" lon="10.2335377"><ele>153.0</ele><time>2026-04-12T12:37:56.952Z</time></trkpt><trkpt lat="44.721988" lon="10.2334368"><ele>153.0</ele><time>2026-04-12T12:37:57.951Z</time></trkpt><trkpt lat="44.7219163" lon="10.2333655"><ele>153.0</ele><time>2026-04-12T12:37:58.951Z</time></trkpt><trkpt lat="44.721825" lon="10.2333412"><ele>153.0</ele><time>2026-04-12T12:37:59.952Z</time></trkpt><trkpt lat="44.7217376" lon="10.2333124"><ele>153.0</ele><time>2026-04-12T12:38:00.952Z</time></trkpt><trkpt lat="44.7216164" lon="10.2334071"><ele>153.0</ele><time>2026-04-12T12:38:01.952Z</time></trkpt><trkpt lat="44.7214924" lon="10.2334024"><ele>153.0</ele><time>2026-04-12T12:38:02.952Z</time></trkpt><trkpt lat="44.7213504" lon="10.2333809"><ele>153.0</ele><time>2026-04-12T12:38:03.952Z</time></trkpt><trkpt lat="44.7212104" lon="10.2333476"><ele>153.0</ele><time>2026-04-12T12:38:04.952Z</time></trkpt><trkpt lat="44.7210517" lon="10.2333085"><ele>153.0</ele><time>2026-04-12T12:38:05.952Z</time></trkpt><trkpt lat="44.7208805" lon="10.2332619"><ele>154.0</ele><time>2026-04-12T12:38:06.952Z</time></trkpt><trkpt lat="44.7207063" lon="10.2332077"><ele>155.0</ele><time>2026-04-12T12:38:07.952Z</time></trkpt><trkpt lat="44.7205288" lon="10.2331569"><ele>156.0</ele><time>2026-04-12T12:38:08.952Z</time></trkpt><trkpt lat="44.7203456" lon="10.2331012"><ele>156.33333333333334</ele><time>2026-04-12T12:38:09.95Z</time></trkpt><trkpt lat="44.720158" lon="10.233048"><ele>156.66666666666669</ele><time>2026-04-12T12:38:10.95Z</time></trkpt><trkpt lat="44.719971" lon="10.2329957"><ele>157.0</ele><time>2026-04-12T12:38:11.951Z</time></trkpt><trkpt lat="44.7197837" lon="10.2329424"><ele>157.0</ele><time>2026-04-12T12:38:12.95Z</time></trkpt><trkpt lat="44.7195994" lon="10.2328859"><ele>157.0</ele><time>2026-04-12T12:38:13.951Z</time></trkpt><trkpt lat="44.7194179" lon="10.2328263"><ele>157.0</ele><time>2026-04-12T12:38:14.951Z</time></trkpt><trkpt lat="44.7192412" lon="10.2327729"><ele>157.0</ele><time>2026-04-12T12:38:15.952Z</time></trkpt><trkpt lat="44.7190727" lon="10.2327233"><ele>157.0</ele><time>2026-04-12T12:38:16.951Z</time></trkpt><trkpt lat="44.7189054" lon="10.2326699"><ele>157.0</ele><time>2026-04-12T12:38:17.951Z</time></trkpt><trkpt lat="44.7187317" lon="10.2326167"><ele>157.33333333333334</ele><time>2026-04-12T12:38:18.951Z</time></trkpt><trkpt lat="44.7185579" lon="10.2325665"><ele>157.66666666666666</ele><time>2026-04-12T12:38:19.952Z</time></trkpt><trkpt lat="44.7183844" lon="10.2325118"><ele>158.0</ele><time>2026-04-12T12:38:20.951Z</time></trkpt><trkpt lat="44.718209" lon="10.2324589"><ele>158.0</ele><time>2026-04-12T12:38:21.952Z</time></trkpt><trkpt lat="44.7180327" lon="10.2324038"><ele>158.0</ele><time>2026-04-12T12:38:22.952Z</time></trkpt><trkpt lat="44.7178574" lon="10.2323471"><ele>158.0</ele><time>2026-04-12T12:38:23.951Z</time></trkpt><trkpt lat="44.7176755" lon="10.2322896"><ele>158.33333333333331</ele><time>2026-04-12T12:38:24.951Z</time></trkpt><trkpt lat="44.7174959" lon="10.2322337"><ele>158.66666666666666</ele><time>2026-04-12T12:38:25.952Z</time></trkpt><trkpt lat="44.717316" lon="10.2321755"><ele>159.0</ele><time>2026-04-12T12:38:26.952Z</time></trkpt><trkpt lat="44.7171352" lon="10.2321239"><ele>159.0</ele><time>2026-04-12T12:38:27.951Z</time></trkpt><trkpt lat="44.7169541" lon="10.2320664"><ele>159.0</ele><time>2026-04-12T12:38:28.952Z</time></trkpt><trkpt lat="44.7167743" lon="10.2319972"><ele>159.0</ele><time>2026-04-12T12:38:29.951Z</time></trkpt><trkpt lat="44.7165941" lon="10.2319407"><ele>160.0</ele><time>2026-04-12T12:38:30.951Z</time></trkpt><trkpt lat="44.7164108" lon="10.2318848"><ele>161.0</ele><time>2026-04-12T12:38:31.952Z</time></trkpt><trkpt lat="44.7162314" lon="10.2318273"><ele>162.0</ele><time>2026-04-12T12:38:32.951Z</time></trkpt><trkpt lat="44.7160507" lon="10.2317681"><ele>162.33333333333334</ele><time>2026-04-12T12:38:33.952Z</time></trkpt><trkpt lat="44.7158695" lon="10.2317099"><ele>162.66666666666669</ele><time>2026-04-12T12:38:34.952Z</time></trkpt><trkpt lat="44.7156881" lon="10.2316574"><ele>163.0</ele><time>2026-04-12T12:38:35.952Z</time></trkpt><trkpt lat="44.715506" lon="10.2316012"><ele>163.0</ele><time>2026-04-12T12:38:36.951Z</time></trkpt><trkpt lat="44.7153276" lon="10.2315448"><ele>163.0</ele><time>2026-04-12T12:38:37.952Z</time></trkpt><trkpt lat="44.7151519" lon="10.2314887"><ele>163.0</ele><time>2026-04-12T12:38:38.952Z</time></trkpt><trkpt lat="44.714976" lon="10.2314237"><ele>163.0</ele><time>2026-04-12T12:38:39.952Z</time></trkpt><trkpt lat="44.7147993" lon="10.2313682"><ele>163.0</ele><time>2026-04-12T12:38:40.952Z</time></trkpt><trkpt lat="44.7146217" lon="10.2313087"><ele>163.0</ele><time>2026-04-12T12:38:41.952Z</time></trkpt><trkpt lat="44.7144449" lon="10.2312565"><ele>164.0</ele><time>2026-04-12T12:38:42.951Z</time></trkpt><trkpt lat="44.7142698" lon="10.2312053"><ele>165.0</ele><time>2026-04-12T12:38:43.95Z</time></trkpt><trkpt lat="44.714095" lon="10.231178"><ele>166.0</ele><time>2026-04-12T12:38:44.951Z</time></trkpt><trkpt lat="44.7139229" lon="10.2311909"><ele>166.0</ele><time>2026-04-12T12:38:45.952Z</time></trkpt><trkpt lat="44.7137551" lon="10.231232"><ele>166.0</ele><time>2026-04-12T12:38:46.951Z</time></trkpt><trkpt lat="44.7135866" lon="10.231284"><ele>166.0</ele><time>2026-04-12T12:38:47.951Z</time></trkpt><trkpt lat="44.713425" lon="10.2313479"><ele>166.5</ele><time>2026-04-12T12:38:48.952Z</time></trkpt><trkpt lat="44.7132754" lon="10.2314062"><ele>167.0</ele><time>2026-04-12T12:38:49.952Z</time></trkpt><trkpt lat="44.7131391" lon="10.231463"><ele>167.5</ele><time>2026-04-12T12:38:50.951Z</time></trkpt><trkpt lat="44.7130122" lon="10.231514"><ele>168.0</ele><time>2026-04-12T12:38:51.952Z</time></trkpt><trkpt lat="44.7128872" lon="10.2315649"><ele>168.0</ele><time>2026-04-12T12:38:52.951Z</time></trkpt><trkpt lat="44.7127656" lon="10.2316137"><ele>168.0</ele><time>2026-04-12T12:38:53.951Z</time></trkpt><trkpt lat="44.7126502" lon="10.2316684"><ele>168.0</ele><time>2026-04-12T12:38:54.952Z</time></trkpt><trkpt lat="44.7125478" lon="10.2317367"><ele>168.0</ele><time>2026-04-12T12:38:55.952Z</time></trkpt><trkpt lat="44.7124685" lon="10.2318351"><ele>167.8</ele><time>2026-04-12T12:38:56.952Z</time></trkpt><trkpt lat="44.7123932" lon="10.2319285"><ele>167.60000000000002</ele><time>2026-04-12T12:38:57.951Z</time></trkpt><trkpt lat="44.7123244" lon="10.2320388"><ele>167.39999999999998</ele><time>2026-04-12T12:38:58.952Z</time></trkpt><trkpt lat="44.712263" lon="10.2321594"><ele>167.2</ele><time>2026-04-12T12:38:59.951Z</time></trkpt><trkpt lat="44.7122074" lon="10.2322804"><ele>167.0</ele><time>2026-04-12T12:39:00.952Z</time></trkpt><trkpt lat="44.712154" lon="10.2323929"><ele>167.0</ele><time>2026-04-12T12:39:01.951Z</time></trkpt><trkpt lat="44.712106" lon="10.2324894"><ele>167.0</ele><time>2026-04-12T12:39:02.951Z</time></trkpt><trkpt lat="44.7120571" lon="10.2326037"><ele>167.0</ele><time>2026-04-12T12:39:03.952Z</time></trkpt><trkpt lat="44.7120041" lon="10.2327262"><ele>167.0</ele><time>2026-04-12T12:39:04.952Z</time></trkpt><trkpt lat="44.7119452" lon="10.2328557"><ele>167.0</ele><time>2026-04-12T12:39:05.951Z</time></trkpt><trkpt lat="44.7118843" lon="10.232998"><ele>167.0</ele><time>2026-04-12T12:39:06.952Z</time></trkpt><trkpt lat="44.7118186" lon="10.2331464"><ele>167.0</ele><time>2026-04-12T12:39:07.951Z</time></trkpt><trkpt lat="44.7117574" lon="10.2332901"><ele>167.0</ele><time>2026-04-12T12:39:08.952Z</time></trkpt><trkpt lat="44.7117029" lon="10.2334212"><ele>167.0</ele><time>2026-04-12T12:39:09.952Z</time></trkpt><trkpt lat="44.711644" lon="10.2335647"><ele>167.0</ele><time>2026-04-12T12:39:10.952Z</time></trkpt><trkpt lat="44.7115809" lon="10.2337062"><ele>167.0</ele><time>2026-04-12T12:39:11.952Z</time></trkpt><trkpt lat="44.7115182" lon="10.2338575"><ele>167.0</ele><time>2026-04-12T12:39:12.952Z</time></trkpt><trkpt lat="44.7114507" lon="10.2340103"><ele>167.0</ele><time>2026-04-12T12:39:13.952Z</time></trkpt><trkpt lat="44.7113883" lon="10.2341658"><ele>166.25</ele><time>2026-04-12T12:39:14.95Z</time></trkpt><trkpt lat="44.7113256" lon="10.2343101"><ele>165.5</ele><time>2026-04-12T12:39:15.951Z</time></trkpt><trkpt lat="44.7112638" lon="10.2344547"><ele>164.75</ele><time>2026-04-12T12:39:16.952Z</time></trkpt><trkpt lat="44.7111998" lon="10.2346051"><ele>164.0</ele><time>2026-04-12T12:39:17.952Z</time></trkpt><trkpt lat="44.7111304" lon="10.2347579"><ele>164.0</ele><time>2026-04-12T12:39:18.95Z</time></trkpt><trkpt lat="44.7110616" lon="10.2349134"><ele>164.0</ele><time>2026-04-12T12:39:19.952Z</time></trkpt><trkpt lat="44.7109868" lon="10.2350781"><ele>164.0</ele><time>2026-04-12T12:39:20.951Z</time></trkpt><trkpt lat="44.710916" lon="10.2352482"><ele>164.0</ele><time>2026-04-12T12:39:21.952Z</time></trkpt><trkpt lat="44.7108408" lon="10.2354152"><ele>164.0</ele><time>2026-04-12T12:39:22.952Z</time></trkpt><trkpt lat="44.7107661" lon="10.2355874"><ele>164.0</ele><time>2026-04-12T12:39:23.951Z</time></trkpt><trkpt lat="44.7106941" lon="10.2357535"><ele>164.0</ele><time>2026-04-12T12:39:24.951Z</time></trkpt><trkpt lat="44.7106218" lon="10.2359188"><ele>164.0</ele><time>2026-04-12T12:39:25.952Z</time></trkpt><trkpt lat="44.7105487" lon="10.2360876"><ele>163.75</ele><time>2026-04-12T12:39:26.952Z</time></trkpt><trkpt lat="44.7104742" lon="10.2362524"><ele>163.5</ele><time>2026-04-12T12:39:27.95Z</time></trkpt><trkpt lat="44.7103991" lon="10.2364284"><ele>163.25</ele><time>2026-04-12T12:39:28.952Z</time></trkpt><trkpt lat="44.7103218" lon="10.2366018"><ele>163.0</ele><time>2026-04-12T12:39:29.952Z</time></trkpt><trkpt lat="44.7102457" lon="10.2367769"><ele>163.0</ele><time>2026-04-12T12:39:30.952Z</time></trkpt><trkpt lat="44.7101712" lon="10.236956"><ele>163.0</ele><time>2026-04-12T12:39:31.951Z</time></trkpt><trkpt lat="44.7100958" lon="10.2371358"><ele>163.0</ele><time>2026-04-12T12:39:32.952Z</time></trkpt><trkpt lat="44.7100185" lon="10.2373119"><ele>163.0</ele><time>2026-04-12T12:39:33.951Z</time></trkpt><trkpt lat="44.7099405" lon="10.2374954"><ele>163.75</ele><time>2026-04-12T12:39:34.952Z</time></trkpt><trkpt lat="44.7098686" lon="10.2376735"><ele>164.5</ele><time>2026-04-12T12:39:35.952Z</time></trkpt><trkpt lat="44.7097968" lon="10.2378361"><ele>165.25</ele><time>2026-04-12T12:39:36.952Z</time></trkpt><trkpt lat="44.7097251" lon="10.238001"><ele>166.0</ele><time>2026-04-12T12:39:37.95Z</time></trkpt><trkpt lat="44.7096558" lon="10.2381665"><ele>166.25</ele><time>2026-04-12T12:39:38.952Z</time></trkpt><trkpt lat="44.709586" lon="10.2383288"><ele>166.5</ele><time>2026-04-12T12:39:39.952Z</time></trkpt><trkpt lat="44.7095137" lon="10.2384917"><ele>166.75</ele><time>2026-04-12T12:39:40.952Z</time></trkpt><trkpt lat="44.7094401" lon="10.2386556"><ele>167.0</ele><time>2026-04-12T12:39:41.951Z</time></trkpt><trkpt lat="44.7093683" lon="10.2388112"><ele>167.5</ele><time>2026-04-12T12:39:42.951Z</time></trkpt><trkpt lat="44.7093067" lon="10.2389521"><ele>168.0</ele><time>2026-04-12T12:39:43.952Z</time></trkpt><trkpt lat="44.709246" lon="10.2390846"><ele>168.5</ele><time>2026-04-12T12:39:44.951Z</time></trkpt><trkpt lat="44.7091845" lon="10.2392097"><ele>169.0</ele><time>2026-04-12T12:39:45.951Z</time></trkpt><trkpt lat="44.7091206" lon="10.2393397"><ele>169.5</ele><time>2026-04-12T12:39:46.952Z</time></trkpt><trkpt lat="44.7090499" lon="10.2394606"><ele>170.0</ele><time>2026-04-12T12:39:47.951Z</time></trkpt><trkpt lat="44.7089739" lon="10.2395683"><ele>170.5</ele><time>2026-04-12T12:39:48.952Z</time></trkpt><trkpt lat="44.7088821" lon="10.2396548"><ele>171.0</ele><time>2026-04-12T12:39:49.952Z</time></trkpt><trkpt lat="44.7087697" lon="10.2397211"><ele>171.0</ele><time>2026-04-12T12:39:50.952Z</time></trkpt><trkpt lat="44.7086614" lon="10.2397772"><ele>171.0</ele><time>2026-04-12T12:39:51.95Z</time></trkpt><trkpt lat="44.7085599" lon="10.2398288"><ele>171.0</ele><time>2026-04-12T12:39:52.951Z</time></trkpt><trkpt lat="44.7084612" lon="10.2398577"><ele>171.0</ele><time>2026-04-12T12:39:53.952Z</time></trkpt><trkpt lat="44.7083459" lon="10.2398698"><ele>171.0</ele><time>2026-04-12T12:39:54.951Z</time></trkpt><trkpt lat="44.7082336" lon="10.2398586"><ele>171.0</ele><time>2026-04-12T12:39:55.951Z</time></trkpt><trkpt lat="44.7081267" lon="10.2398381"><ele>171.0</ele><time>2026-04-12T12:39:56.952Z</time></trkpt><trkpt lat="44.7080202" lon="10.2398067"><ele>171.0</ele><time>2026-04-12T12:39:57.951Z</time></trkpt><trkpt lat="44.7079122" lon="10.2397754"><ele>171.0</ele><time>2026-04-12T12:39:58.952Z</time></trkpt><trkpt lat="44.7078006" lon="10.2397348"><ele>171.0</ele><time>2026-04-12T12:39:59.952Z</time></trkpt><trkpt lat="44.7076892" lon="10.2396811"><ele>171.0</ele><time>2026-04-12T12:40:00.951Z</time></trkpt><trkpt lat="44.7075766" lon="10.2396179"><ele>171.0</ele><time>2026-04-12T12:40:01.952Z</time></trkpt><trkpt lat="44.7074644" lon="10.2395435"><ele>171.0</ele><time>2026-04-12T12:40:02.951Z</time></trkpt><trkpt lat="44.707345" lon="10.2394686"><ele>171.0</ele><time>2026-04-12T12:40:03.952Z</time></trkpt><trkpt lat="44.70721" lon="10.2393868"><ele>171.0</ele><time>2026-04-12T12:40:04.952Z</time></trkpt><trkpt lat="44.70705" lon="10.2393043"><ele>171.0</ele><time>2026-04-12T12:40:05.95Z</time></trkpt><trkpt lat="44.7068785" lon="10.239196"><ele>171.0</ele><time>2026-04-12T12:40:06.952Z</time></trkpt><trkpt lat="44.706704" lon="10.2390681"><ele>171.0</ele><time>2026-04-12T12:40:07.95Z</time></trkpt><trkpt lat="44.7065272" lon="10.2389332"><ele>171.0</ele><time>2026-04-12T12:40:08.952Z</time></trkpt><trkpt lat="44.7063476" lon="10.2388182"><ele>171.0</ele><time>2026-04-12T12:40:09.951Z</time></trkpt><trkpt lat="44.7061609" lon="10.2387334"><ele>170.66666666666666</ele><time>2026-04-12T12:40:10.951Z</time></trkpt><trkpt lat="44.7059705" lon="10.2386699"><ele>170.33333333333331</ele><time>2026-04-12T12:40:11.952Z</time></trkpt><trkpt lat="44.7057798" lon="10.2386243"><ele>170.0</ele><time>2026-04-12T12:40:12.95Z</time></trkpt><trkpt lat="44.7055922" lon="10.2385538"><ele>170.0</ele><time>2026-04-12T12:40:13.952Z</time></trkpt><trkpt lat="44.7054193" lon="10.2384408"><ele>170.0</ele><time>2026-04-12T12:40:14.952Z</time></trkpt><trkpt lat="44.705253" lon="10.2382933"><ele>170.0</ele><time>2026-04-12T12:40:15.952Z</time></trkpt><trkpt lat="44.7050903" lon="10.238123"><ele>171.33333333333331</ele><time>2026-04-12T12:40:16.951Z</time></trkpt><trkpt lat="44.7049302" lon="10.237941"><ele>172.66666666666666</ele><time>2026-04-12T12:40:17.951Z</time></trkpt><trkpt lat="44.7047659" lon="10.2377756"><ele>174.0</ele><time>2026-04-12T12:40:18.952Z</time></trkpt><trkpt lat="44.7046013" lon="10.237632"><ele>174.0</ele><time>2026-04-12T12:40:19.952Z</time></trkpt><trkpt lat="44.7044466" lon="10.2375034"><ele>174.0</ele><time>2026-04-12T12:40:20.952Z</time></trkpt><trkpt lat="44.7043012" lon="10.2373888"><ele>174.0</ele><time>2026-04-12T12:40:21.952Z</time></trkpt><trkpt lat="44.7041582" lon="10.2372798"><ele>174.33333333333334</ele><time>2026-04-12T12:40:22.951Z</time></trkpt><trkpt lat="44.7040073" lon="10.2371711"><ele>174.66666666666669</ele><time>2026-04-12T12:40:23.952Z</time></trkpt><trkpt lat="44.703861" lon="10.2370585"><ele>175.0</ele><time>2026-04-12T12:40:24.951Z</time></trkpt><trkpt lat="44.7037255" lon="10.2369517"><ele>175.0</ele><time>2026-04-12T12:40:25.951Z</time></trkpt><trkpt lat="44.7035985" lon="10.2368492"><ele>175.0</ele><time>2026-04-12T12:40:26.952Z</time></trkpt><trkpt lat="44.7034824" lon="10.2367586"><ele>175.0</ele><time>2026-04-12T12:40:27.952Z</time></trkpt><trkpt lat="44.7033707" lon="10.2366762"><ele>175.0</ele><time>2026-04-12T12:40:28.951Z</time></trkpt><trkpt lat="44.7032694" lon="10.2366033"><ele>174.6</ele><time>2026-04-12T12:40:29.951Z</time></trkpt><trkpt lat="44.7031727" lon="10.2365397"><ele>174.2</ele><time>2026-04-12T12:40:30.951Z</time></trkpt><trkpt lat="44.7030948" lon="10.2364904"><ele>173.8</ele><time>2026-04-12T12:40:31.952Z</time></trkpt><trkpt lat="44.7030291" lon="10.2364785"><ele>173.4</ele><time>2026-04-12T12:40:32.952Z</time></trkpt><trkpt lat="44.7029473" lon="10.2365752"><ele>173.0</ele><time>2026-04-12T12:40:34.951Z</time></trkpt><trkpt lat="44.7029622" lon="10.2367157"><ele>173.0</ele><time>2026-04-12T12:40:36.95Z</time></trkpt><trkpt lat="44.70303" lon="10.2367897"><ele>173.0</ele><time>2026-04-12T12:40:38.952Z</time></trkpt><trkpt lat="44.7030927" lon="10.23676"><ele>173.0</ele><time>2026-04-12T12:42:54.95Z</time></trkpt><trkpt lat="44.7031775" lon="10.236792"><ele>173.0</ele><time>2026-04-12T12:42:56.952Z</time></trkpt><trkpt lat="44.7032752" lon="10.2368303"><ele>173.0</ele><time>2026-04-12T12:42:58.952Z</time></trkpt><trkpt lat="44.7033618" lon="10.2368251"><ele>173.0</ele><time>2026-04-12T12:43:00.95Z</time></trkpt><trkpt lat="44.7034257" lon="10.2368173"><ele>173.0</ele><time>2026-04-12T12:43:03.95Z</time></trkpt><trkpt lat="44.7035412" lon="10.236887"><ele>173.0</ele><time>2026-04-12T12:43:05.951Z</time></trkpt><trkpt lat="44.7036005" lon="10.2369298"><ele>173.0</ele><time>2026-04-12T12:43:06.952Z</time></trkpt><trkpt lat="44.7036582" lon="10.2369752"><ele>173.0</ele><time>2026-04-12T12:43:07.951Z</time></trkpt><trkpt lat="44.7037169" lon="10.2370253"><ele>173.0</ele><time>2026-04-12T12:43:08.951Z</time></trkpt><trkpt lat="44.7037801" lon="10.2370769"><ele>173.0</ele><time>2026-04-12T12:43:09.952Z</time></trkpt><trkpt lat="44.7038324" lon="10.2371434"><ele>172.83333333333331</ele><time>2026-04-12T12:43:10.951Z</time></trkpt><trkpt lat="44.7038545" lon="10.2372302"><ele>172.66666666666666</ele><time>2026-04-12T12:43:11.95Z</time></trkpt><trkpt lat="44.7038536" lon="10.2373899"><ele>172.5</ele><time>2026-04-12T12:43:13.952Z</time></trkpt><trkpt lat="44.7039226" lon="10.2373325"><ele>172.33333333333334</ele><time>2026-04-12T12:43:18.952Z</time></trkpt><trkpt lat="44.7039393" lon="10.2372462"><ele>172.16666666666669</ele><time>2026-04-12T12:43:22.952Z</time></trkpt><trkpt lat="44.7039208" lon="10.2371372"><ele>172.0</ele><time>2026-04-12T12:43:26.95Z</time></trkpt><trkpt lat="44.7038765" lon="10.2370569"><ele>172.2</ele><time>2026-04-12T12:43:27.951Z</time></trkpt><trkpt lat="44.7038105" lon="10.2369877"><ele>172.39999999999998</ele><time>2026-04-12T12:43:28.952Z</time></trkpt><trkpt lat="44.703719" lon="10.2369157"><ele>172.60000000000002</ele><time>2026-04-12T12:43:29.952Z</time></trkpt><trkpt lat="44.7036141" lon="10.23684"><ele>172.8</ele><time>2026-04-12T12:43:30.952Z</time></trkpt><trkpt lat="44.703506" lon="10.2367568"><ele>173.0</ele><time>2026-04-12T12:43:31.951Z</time></trkpt><trkpt lat="44.7033874" lon="10.2366664"><ele>173.0</ele><time>2026-04-12T12:43:32.951Z</time></trkpt><trkpt lat="44.7032629" lon="10.2365768"><ele>173.0</ele><time>2026-04-12T12:43:33.952Z</time></trkpt><trkpt lat="44.7031412" lon="10.2364869"><ele>173.0</ele><time>2026-04-12T12:43:34.951Z</time></trkpt><trkpt lat="44.7030183" lon="10.236404"><ele>173.0</ele><time>2026-04-12T12:43:35.951Z</time></trkpt><trkpt lat="44.7028894" lon="10.2363323"><ele>173.25</ele><time>2026-04-12T12:43:36.952Z</time></trkpt><trkpt lat="44.7027621" lon="10.2362736"><ele>173.5</ele><time>2026-04-12T12:43:37.951Z</time></trkpt><trkpt lat="44.7026315" lon="10.2362213"><ele>173.75</ele><time>2026-04-12T12:43:38.951Z</time></trkpt><trkpt lat="44.7025056" lon="10.2361667"><ele>174.0</ele><time>2026-04-12T12:43:39.952Z</time></trkpt><trkpt lat="44.7023912" lon="10.2360975"><ele>174.39999999999998</ele><time>2026-04-12T12:43:40.951Z</time></trkpt><trkpt lat="44.7023001" lon="10.2360007"><ele>174.8</ele><time>2026-04-12T12:43:41.952Z</time></trkpt><trkpt lat="44.7022284" lon="10.2359024"><ele>175.2</ele><time>2026-04-12T12:43:42.951Z</time></trkpt><trkpt lat="44.7021495" lon="10.2358443"><ele>175.60000000000002</ele><time>2026-04-12T12:43:43.951Z</time></trkpt><trkpt lat="44.7020666" lon="10.2358301"><ele>176.0</ele><time>2026-04-12T12:43:44.952Z</time></trkpt><trkpt lat="44.7019802" lon="10.235862"><ele>176.5</ele><time>2026-04-12T12:43:45.951Z</time></trkpt><trkpt lat="44.7018932" lon="10.2359365"><ele>177.0</ele><time>2026-04-12T12:43:46.95Z</time></trkpt><trkpt lat="44.7018014" lon="10.2360254"><ele>177.5</ele><time>2026-04-12T12:43:47.951Z</time></trkpt><trkpt lat="44.7016968" lon="10.2361141"><ele>178.0</ele><time>2026-04-12T12:43:48.951Z</time></trkpt><trkpt lat="44.7015889" lon="10.2362123"><ele>178.0</ele><time>2026-04-12T12:43:49.952Z</time></trkpt><trkpt lat="44.7014849" lon="10.2363117"><ele>178.0</ele><time>2026-04-12T12:43:50.952Z</time></trkpt><trkpt lat="44.7013701" lon="10.2364168"><ele>178.0</ele><time>2026-04-12T12:43:51.951Z</time></trkpt><trkpt lat="44.7012348" lon="10.2365164"><ele>178.0</ele><time>2026-04-12T12:43:52.951Z</time></trkpt><trkpt lat="44.7011104" lon="10.2366292"><ele>178.5</ele><time>2026-04-12T12:43:53.951Z</time></trkpt><trkpt lat="44.7009901" lon="10.2367305"><ele>179.0</ele><time>2026-04-12T12:43:54.951Z</time></trkpt><trkpt lat="44.7008768" lon="10.2368337"><ele>179.5</ele><time>2026-04-12T12:43:55.951Z</time></trkpt><trkpt lat="44.7007816" lon="10.2369182"><ele>180.0</ele><time>2026-04-12T12:43:56.952Z</time></trkpt><trkpt lat="44.7006774" lon="10.2370118"><ele>180.0</ele><time>2026-04-12T12:43:57.951Z</time></trkpt><trkpt lat="44.7005821" lon="10.2371008"><ele>180.0</ele><time>2026-04-12T12:43:58.951Z</time></trkpt><trkpt lat="44.700481" lon="10.2371871"><ele>180.0</ele><time>2026-04-12T12:43:59.951Z</time></trkpt><trkpt lat="44.7003817" lon="10.2372823"><ele>180.0</ele><time>2026-04-12T12:44:00.952Z</time></trkpt><trkpt lat="44.7002974" lon="10.2373639"><ele>180.0</ele><time>2026-04-12T12:44:01.951Z</time></trkpt><trkpt lat="44.7002386" lon="10.237425"><ele>180.0</ele><time>2026-04-12T12:44:02.951Z</time></trkpt><trkpt lat="44.7001614" lon="10.2374687"><ele>180.0</ele><time>2026-04-12T12:44:03.952Z</time></trkpt><trkpt lat="44.7000908" lon="10.2375335"><ele>180.0</ele><time>2026-04-12T12:44:04.952Z</time></trkpt><trkpt lat="44.70002" lon="10.2375932"><ele>180.0</ele><time>2026-04-12T12:44:05.951Z</time></trkpt><trkpt lat="44.6999431" lon="10.2376628"><ele>180.0</ele><time>2026-04-12T12:44:06.952Z</time></trkpt><trkpt lat="44.6998631" lon="10.2377318"><ele>180.0</ele><time>2026-04-12T12:44:07.951Z</time></trkpt><trkpt lat="44.6997857" lon="10.2378086"><ele>180.0</ele><time>2026-04-12T12:44:08.951Z</time></trkpt><trkpt lat="44.6996923" lon="10.2378821"><ele>180.0</ele><time>2026-04-12T12:44:09.951Z</time></trkpt><trkpt lat="44.6995966" lon="10.2379588"><ele>180.0</ele><time>2026-04-12T12:44:10.95Z</time></trkpt><trkpt lat="44.6995067" lon="10.2380432"><ele>180.0</ele><time>2026-04-12T12:44:11.952Z</time></trkpt><trkpt lat="44.6994102" lon="10.2381306"><ele>180.2</ele><time>2026-04-12T12:44:12.952Z</time></trkpt><trkpt lat="44.6993265" lon="10.238208"><ele>180.4</ele><time>2026-04-12T12:44:13.952Z</time></trkpt><trkpt lat="44.6992396" lon="10.2382918"><ele>180.60000000000002</ele><time>2026-04-12T12:44:14.952Z</time></trkpt><trkpt lat="44.6991529" lon="10.2383764"><ele>180.8</ele><time>2026-04-12T12:44:15.951Z</time></trkpt><trkpt lat="44.6990811" lon="10.2384227"><ele>181.0</ele><time>2026-04-12T12:44:16.951Z</time></trkpt><trkpt lat="44.6990081" lon="10.238482"><ele>181.0</ele><time>2026-04-12T12:44:17.951Z</time></trkpt><trkpt lat="44.6989408" lon="10.2385364"><ele>181.0</ele><time>2026-04-12T12:44:18.952Z</time></trkpt><trkpt lat="44.6988746" lon="10.2385984"><ele>181.0</ele><time>2026-04-12T12:44:19.952Z</time></trkpt><trkpt lat="44.6988012" lon="10.2386653"><ele>181.0</ele><time>2026-04-12T12:44:20.952Z</time></trkpt><trkpt lat="44.6987317" lon="10.2387232"><ele>181.0</ele><time>2026-04-12T12:44:21.951Z</time></trkpt><trkpt lat="44.6986631" lon="10.2387976"><ele>181.0</ele><time>2026-04-12T12:44:22.952Z</time></trkpt><trkpt lat="44.6985734" lon="10.2388692"><ele>181.0</ele><time>2026-04-12T12:44:23.951Z</time></trkpt><trkpt lat="44.6984733" lon="10.2389589"><ele>181.0</ele><time>2026-04-12T12:44:24.951Z</time></trkpt><trkpt lat="44.6983707" lon="10.2390496"><ele>181.0</ele><time>2026-04-12T12:44:25.951Z</time></trkpt><trkpt lat="44.6982725" lon="10.239136"><ele>181.0</ele><time>2026-04-12T12:44:26.951Z</time></trkpt><trkpt lat="44.69817" lon="10.2392273"><ele>181.0</ele><time>2026-04-12T12:44:27.951Z</time></trkpt><trkpt lat="44.6980698" lon="10.2393131"><ele>181.0</ele><time>2026-04-12T12:44:28.951Z</time></trkpt><trkpt lat="44.6979729" lon="10.2394052"><ele>181.0</ele><time>2026-04-12T12:44:29.951Z</time></trkpt><trkpt lat="44.6978721" lon="10.2394937"><ele>181.0</ele><time>2026-04-12T12:44:30.952Z</time></trkpt><trkpt lat="44.6977675" lon="10.239574"><ele>181.0</ele><time>2026-04-12T12:44:31.951Z</time></trkpt><trkpt lat="44.6976764" lon="10.2396597"><ele>181.0</ele><time>2026-04-12T12:44:32.951Z</time></trkpt><trkpt lat="44.6975743" lon="10.2397421"><ele>181.0</ele><time>2026-04-12T12:44:33.952Z</time></trkpt><trkpt lat="44.6974817" lon="10.2398109"><ele>181.0</ele><time>2026-04-12T12:44:34.952Z</time></trkpt><trkpt lat="44.6973806" lon="10.2398991"><ele>181.20000000000002</ele><time>2026-04-12T12:44:35.952Z</time></trkpt><trkpt lat="44.6972802" lon="10.2399897"><ele>181.4</ele><time>2026-04-12T12:44:36.951Z</time></trkpt><trkpt lat="44.6972022" lon="10.2400507"><ele>181.6</ele><time>2026-04-12T12:44:37.952Z</time></trkpt><trkpt lat="44.6971067" lon="10.2401291"><ele>181.8</ele><time>2026-04-12T12:44:38.952Z</time></trkpt><trkpt lat="44.6970284" lon="10.240195"><ele>182.0</ele><time>2026-04-12T12:44:39.951Z</time></trkpt><trkpt lat="44.6969487" lon="10.2402736"><ele>182.25</ele><time>2026-04-12T12:44:40.951Z</time></trkpt><trkpt lat="44.6968602" lon="10.24036"><ele>182.5</ele><time>2026-04-12T12:44:41.951Z</time></trkpt><trkpt lat="44.6967559" lon="10.2404509"><ele>182.75</ele><time>2026-04-12T12:44:42.952Z</time></trkpt><trkpt lat="44.6966629" lon="10.2405302"><ele>183.0</ele><time>2026-04-12T12:44:43.951Z</time></trkpt><trkpt lat="44.6965651" lon="10.2406188"><ele>183.0</ele><time>2026-04-12T12:44:44.951Z</time></trkpt><trkpt lat="44.6965035" lon="10.2406793"><ele>183.0</ele><time>2026-04-12T12:44:45.952Z</time></trkpt><trkpt lat="44.6964213" lon="10.2407365"><ele>183.0</ele><time>2026-04-12T12:44:46.951Z</time></trkpt><trkpt lat="44.6963382" lon="10.2408159"><ele>183.0</ele><time>2026-04-12T12:44:47.952Z</time></trkpt><trkpt lat="44.6962502" lon="10.240896"><ele>183.0</ele><time>2026-04-12T12:44:48.952Z</time></trkpt><trkpt lat="44.6961615" lon="10.2409674"><ele>183.8</ele><time>2026-04-12T12:44:49.952Z</time></trkpt><trkpt lat="44.6960761" lon="10.2410451"><ele>184.60000000000002</ele><time>2026-04-12T12:44:50.951Z</time></trkpt><trkpt lat="44.6959913" lon="10.2411167"><ele>185.39999999999998</ele><time>2026-04-12T12:44:51.952Z</time></trkpt><trkpt lat="44.6959001" lon="10.24117"><ele>186.2</ele><time>2026-04-12T12:44:52.952Z</time></trkpt><trkpt lat="44.6958104" lon="10.2412277"><ele>187.0</ele><time>2026-04-12T12:44:53.951Z</time></trkpt><trkpt lat="44.6957235" lon="10.2413038"><ele>187.0</ele><time>2026-04-12T12:44:54.951Z</time></trkpt><trkpt lat="44.6956402" lon="10.2413778"><ele>187.0</ele><time>2026-04-12T12:44:55.951Z</time></trkpt><trkpt lat="44.6955525" lon="10.2414519"><ele>187.0</ele><time>2026-04-12T12:44:56.951Z</time></trkpt><trkpt lat="44.6954645" lon="10.2415276"><ele>187.0</ele><time>2026-04-12T12:44:57.952Z</time></trkpt><trkpt lat="44.6953746" lon="10.2416066"><ele>187.0</ele><time>2026-04-12T12:44:58.95Z</time></trkpt><trkpt lat="44.6952912" lon="10.2416771"><ele>187.0</ele><time>2026-04-12T12:44:59.952Z</time></trkpt><trkpt lat="44.6952035" lon="10.2417505"><ele>187.0</ele><time>2026-04-12T12:45:00.951Z</time></trkpt><trkpt lat="44.695111" lon="10.2418226"><ele>187.0</ele><time>2026-04-12T12:45:01.952Z</time></trkpt><trkpt lat="44.6950123" lon="10.2418758"><ele>187.0</ele><time>2026-04-12T12:45:02.951Z</time></trkpt><trkpt lat="44.694916" lon="10.2418955"><ele>187.0</ele><time>2026-04-12T12:45:03.951Z</time></trkpt><trkpt lat="44.6948129" lon="10.241891"><ele>187.0</ele><time>2026-04-12T12:45:04.952Z</time></trkpt><trkpt lat="44.6947074" lon="10.241881"><ele>187.0</ele><time>2026-04-12T12:45:05.952Z</time></trkpt><trkpt lat="44.6946065" lon="10.2418693"><ele>187.0</ele><time>2026-04-12T12:45:06.951Z</time></trkpt><trkpt lat="44.6945036" lon="10.2418537"><ele>187.0</ele><time>2026-04-12T12:45:07.952Z</time></trkpt><trkpt lat="44.6943993" lon="10.2418467"><ele>187.0</ele><time>2026-04-12T12:45:08.95Z</time></trkpt><trkpt lat="44.6942958" lon="10.2418449"><ele>187.2</ele><time>2026-04-12T12:45:09.952Z</time></trkpt><trkpt lat="44.6941931" lon="10.2418476"><ele>187.39999999999998</ele><time>2026-04-12T12:45:10.952Z</time></trkpt><trkpt lat="44.6940833" lon="10.2418637"><ele>187.60000000000002</ele><time>2026-04-12T12:45:11.95Z</time></trkpt><trkpt lat="44.6939735" lon="10.241885"><ele>187.8</ele><time>2026-04-12T12:45:12.951Z</time></trkpt><trkpt lat="44.6938717" lon="10.2418964"><ele>188.0</ele><time>2026-04-12T12:45:13.951Z</time></trkpt><trkpt lat="44.6937798" lon="10.2418993"><ele>188.0</ele><time>2026-04-12T12:45:14.951Z</time></trkpt><trkpt lat="44.6936963" lon="10.2418897"><ele>188.0</ele><time>2026-04-12T12:45:15.952Z</time></trkpt><trkpt lat="44.6936191" lon="10.2418979"><ele>188.0</ele><time>2026-04-12T12:45:16.951Z</time></trkpt><trkpt lat="44.6935537" lon="10.2419356"><ele>188.0</ele><time>2026-04-12T12:45:17.95Z</time></trkpt><trkpt lat="44.6935046" lon="10.2420061"><ele>188.0</ele><time>2026-04-12T12:45:18.951Z</time></trkpt><trkpt lat="44.6934674" lon="10.2421157"><ele>188.0</ele><time>2026-04-12T12:45:19.951Z</time></trkpt><trkpt lat="44.6934326" lon="10.242245"><ele>188.25</ele><time>2026-04-12T12:45:20.951Z</time></trkpt><trkpt lat="44.6933915" lon="10.2423904"><ele>188.5</ele><time>2026-04-12T12:45:21.952Z</time></trkpt><trkpt lat="44.6933481" lon="10.242548"><ele>188.75</ele><time>2026-04-12T12:45:22.951Z</time></trkpt><trkpt lat="44.6933054" lon="10.2427204"><ele>189.0</ele><time>2026-04-12T12:45:23.952Z</time></trkpt><trkpt lat="44.6932618" lon="10.2428865"><ele>189.0</ele><time>2026-04-12T12:45:24.95Z</time></trkpt><trkpt lat="44.6932126" lon="10.2430654"><ele>189.0</ele><time>2026-04-12T12:45:25.952Z</time></trkpt><trkpt lat="44.6931613" lon="10.2432478"><ele>189.0</ele><time>2026-04-12T12:45:26.951Z</time></trkpt><trkpt lat="44.6931123" lon="10.2434347"><ele>189.0</ele><time>2026-04-12T12:45:27.952Z</time></trkpt><trkpt lat="44.6930546" lon="10.2436268"><ele>188.66666666666666</ele><time>2026-04-12T12:45:28.951Z</time></trkpt><trkpt lat="44.6930014" lon="10.2438184"><ele>188.33333333333331</ele><time>2026-04-12T12:45:29.951Z</time></trkpt><trkpt lat="44.692945" lon="10.2440171"><ele>188.0</ele><time>2026-04-12T12:45:30.952Z</time></trkpt><trkpt lat="44.6928895" lon="10.2442154"><ele>187.66666666666666</ele><time>2026-04-12T12:45:31.952Z</time></trkpt><trkpt lat="44.6928379" lon="10.244422"><ele>187.33333333333334</ele><time>2026-04-12T12:45:32.952Z</time></trkpt><trkpt lat="44.6927883" lon="10.2446284"><ele>187.0</ele><time>2026-04-12T12:45:33.95Z</time></trkpt><trkpt lat="44.6927405" lon="10.2448416"><ele>187.66666666666669</ele><time>2026-04-12T12:45:34.952Z</time></trkpt><trkpt lat="44.6927004" lon="10.245062"><ele>188.33333333333334</ele><time>2026-04-12T12:45:35.951Z</time></trkpt><trkpt lat="44.6926591" lon="10.2452848"><ele>189.0</ele><time>2026-04-12T12:45:36.951Z</time></trkpt><trkpt lat="44.6926164" lon="10.2455102"><ele>188.66666666666666</ele><time>2026-04-12T12:45:37.952Z</time></trkpt><trkpt lat="44.6925784" lon="10.2457338"><ele>188.33333333333331</ele><time>2026-04-12T12:45:38.951Z</time></trkpt><trkpt lat="44.6925386" lon="10.2459576"><ele>188.0</ele><time>2026-04-12T12:45:39.951Z</time></trkpt><trkpt lat="44.6924981" lon="10.2461795"><ele>188.0</ele><time>2026-04-12T12:45:40.951Z</time></trkpt><trkpt lat="44.6924538" lon="10.2464111"><ele>188.0</ele><time>2026-04-12T12:45:41.952Z</time></trkpt><trkpt lat="44.6924099" lon="10.2466393"><ele>188.0</ele><time>2026-04-12T12:45:42.952Z</time></trkpt><trkpt lat="44.6923636" lon="10.246852"><ele>187.75</ele><time>2026-04-12T12:45:43.951Z</time></trkpt><trkpt lat="44.6923193" lon="10.2470465"><ele>187.5</ele><time>2026-04-12T12:45:44.952Z</time></trkpt><trkpt lat="44.6922721" lon="10.2472213"><ele>187.25</ele><time>2026-04-12T12:45:45.951Z</time></trkpt><trkpt lat="44.6922302" lon="10.2473784"><ele>187.0</ele><time>2026-04-12T12:45:46.952Z</time></trkpt><trkpt lat="44.6921936" lon="10.2475218"><ele>186.8</ele><time>2026-04-12T12:45:47.952Z</time></trkpt><trkpt lat="44.6921575" lon="10.2476532"><ele>186.6</ele><time>2026-04-12T12:45:48.951Z</time></trkpt><trkpt lat="44.6921212" lon="10.2477847"><ele>186.4</ele><time>2026-04-12T12:45:49.952Z</time></trkpt><trkpt lat="44.692082" lon="10.2479217"><ele>186.20000000000002</ele><time>2026-04-12T12:45:50.952Z</time></trkpt><trkpt lat="44.6920396" lon="10.2480683"><ele>186.0</ele><time>2026-04-12T12:45:51.952Z</time></trkpt><trkpt lat="44.6919927" lon="10.2482201"><ele>185.75</ele><time>2026-04-12T12:45:52.951Z</time></trkpt><trkpt lat="44.6919502" lon="10.2483762"><ele>185.5</ele><time>2026-04-12T12:45:53.952Z</time></trkpt><trkpt lat="44.691908" lon="10.2485362"><ele>185.25</ele><time>2026-04-12T12:45:54.951Z</time></trkpt><trkpt lat="44.6918636" lon="10.2487005"><ele>185.0</ele><time>2026-04-12T12:45:55.951Z</time></trkpt><trkpt lat="44.6918207" lon="10.248856"><ele>185.8</ele><time>2026-04-12T12:45:56.951Z</time></trkpt><trkpt lat="44.6917822" lon="10.2490018"><ele>186.6</ele><time>2026-04-12T12:45:57.952Z</time></trkpt><trkpt lat="44.6917488" lon="10.2491313"><ele>187.39999999999998</ele><time>2026-04-12T12:45:58.952Z</time></trkpt><trkpt lat="44.691723" lon="10.249236"><ele>188.2</ele><time>2026-04-12T12:45:59.951Z</time></trkpt><trkpt lat="44.6916552" lon="10.2493269"><ele>189.0</ele><time>2026-04-12T12:46:01.952Z</time></trkpt><trkpt lat="44.6915852" lon="10.2492769"><ele>189.0</ele><time>2026-04-12T12:46:03.952Z</time></trkpt><trkpt lat="44.6914843" lon="10.2491496"><ele>189.0</ele><time>2026-04-12T12:46:05.952Z</time></trkpt><trkpt lat="44.6914134" lon="10.2490773"><ele>189.0</ele><time>2026-04-12T12:46:06.951Z</time></trkpt><trkpt lat="44.691351" lon="10.2490152"><ele>189.0</ele><time>2026-04-12T12:46:07.951Z</time></trkpt><trkpt lat="44.6912957" lon="10.2489585"><ele>189.0</ele><time>2026-04-12T12:46:08.95Z</time></trkpt><trkpt lat="44.6912274" lon="10.248889"><ele>188.83333333333334</ele><time>2026-04-12T12:46:10.951Z</time></trkpt><trkpt lat="44.6911502" lon="10.2489422"><ele>188.66666666666666</ele><time>2026-04-12T12:46:13.951Z</time></trkpt><trkpt lat="44.6910785" lon="10.2490586"><ele>188.5</ele><time>2026-04-12T12:46:15.951Z</time></trkpt><trkpt lat="44.6910405" lon="10.2491311"><ele>188.33333333333331</ele><time>2026-04-12T12:46:16.951Z</time></trkpt><trkpt lat="44.6909966" lon="10.2492104"><ele>188.16666666666666</ele><time>2026-04-12T12:46:17.951Z</time></trkpt><trkpt lat="44.6909405" lon="10.2492941"><ele>188.0</ele><time>2026-04-12T12:46:18.951Z</time></trkpt><trkpt lat="44.6908834" lon="10.2493881"><ele>188.66666666666666</ele><time>2026-04-12T12:46:19.952Z</time></trkpt><trkpt lat="44.6908176" lon="10.2494764"><ele>189.33333333333331</ele><time>2026-04-12T12:46:20.952Z</time></trkpt><trkpt lat="44.6907437" lon="10.2495377"><ele>190.0</ele><time>2026-04-12T12:46:21.952Z</time></trkpt><trkpt lat="44.6906751" lon="10.2495393"><ele>190.66666666666666</ele><time>2026-04-12T12:46:22.951Z</time></trkpt><trkpt lat="44.6905959" lon="10.2495222"><ele>191.33333333333334</ele><time>2026-04-12T12:46:23.951Z</time></trkpt><trkpt lat="44.6905222" lon="10.2494728"><ele>192.0</ele><time>2026-04-12T12:46:24.951Z</time></trkpt><trkpt lat="44.6904487" lon="10.2493847"><ele>192.0</ele><time>2026-04-12T12:46:25.951Z</time></trkpt><trkpt lat="44.6903804" lon="10.2492933"><ele>192.0</ele><time>2026-04-12T12:46:26.95Z</time></trkpt><trkpt lat="44.6903209" lon="10.2491982"><ele>192.0</ele><time>2026-04-12T12:46:27.951Z</time></trkpt><trkpt lat="44.690259" lon="10.2490965"><ele>192.0</ele><time>2026-04-12T12:46:28.951Z</time></trkpt><trkpt lat="44.6901849" lon="10.2489954"><ele>192.0</ele><time>2026-04-12T12:46:29.952Z</time></trkpt><trkpt lat="44.6901076" lon="10.2488942"><ele>193.0</ele><time>2026-04-12T12:46:30.951Z</time></trkpt><trkpt lat="44.690024" lon="10.2487852"><ele>194.0</ele><time>2026-04-12T12:46:31.951Z</time></trkpt><trkpt lat="44.6899393" lon="10.2486804"><ele>195.0</ele><time>2026-04-12T12:46:32.952Z</time></trkpt><trkpt lat="44.6898427" lon="10.2485781"><ele>196.0</ele><time>2026-04-12T12:46:33.951Z</time></trkpt><trkpt lat="44.6897416" lon="10.248478"><ele>196.0</ele><time>2026-04-12T12:46:34.952Z</time></trkpt><trkpt lat="44.6896428" lon="10.248375"><ele>196.0</ele><time>2026-04-12T12:46:35.952Z</time></trkpt><trkpt lat="44.6895459" lon="10.2482684"><ele>196.0</ele><time>2026-04-12T12:46:36.951Z</time></trkpt><trkpt lat="44.6894592" lon="10.2481512"><ele>196.0</ele><time>2026-04-12T12:46:37.952Z</time></trkpt><trkpt lat="44.6893757" lon="10.2480311"><ele>197.75</ele><time>2026-04-12T12:46:38.952Z</time></trkpt><trkpt lat="44.6892918" lon="10.2478834"><ele>199.5</ele><time>2026-04-12T12:46:39.951Z</time></trkpt><trkpt lat="44.6892255" lon="10.2477358"><ele>201.25</ele><time>2026-04-12T12:46:40.952Z</time></trkpt><trkpt lat="44.689174" lon="10.247587"><ele>203.0</ele><time>2026-04-12T12:46:41.952Z</time></trkpt><trkpt lat="44.6891398" lon="10.2474292"><ele>202.75</ele><time>2026-04-12T12:46:42.951Z</time></trkpt><trkpt lat="44.6891063" lon="10.2472661"><ele>202.5</ele><time>2026-04-12T12:46:43.952Z</time></trkpt><trkpt lat="44.6890662" lon="10.2470899"><ele>202.25</ele><time>2026-04-12T12:46:44.952Z</time></trkpt><trkpt lat="44.6890097" lon="10.2469198"><ele>202.0</ele><time>2026-04-12T12:46:45.95Z</time></trkpt><trkpt lat="44.6889375" lon="10.2467525"><ele>202.0</ele><time>2026-04-12T12:46:46.952Z</time></trkpt><trkpt lat="44.6888562" lon="10.2465893"><ele>202.0</ele><time>2026-04-12T12:46:47.951Z</time></trkpt><trkpt lat="44.6887725" lon="10.2464247"><ele>202.0</ele><time>2026-04-12T12:46:48.952Z</time></trkpt><trkpt lat="44.6886848" lon="10.2462475"><ele>202.0</ele><time>2026-04-12T12:46:49.952Z</time></trkpt><trkpt lat="44.6885992" lon="10.2460896"><ele>203.25</ele><time>2026-04-12T12:46:50.951Z</time></trkpt><trkpt lat="44.6885094" lon="10.2459309"><ele>204.5</ele><time>2026-04-12T12:46:51.951Z</time></trkpt><trkpt lat="44.6884293" lon="10.2457994"><ele>205.75</ele><time>2026-04-12T12:46:52.952Z</time></trkpt><trkpt lat="44.6883581" lon="10.2456838"><ele>207.0</ele><time>2026-04-12T12:46:53.952Z</time></trkpt><trkpt lat="44.6882914" lon="10.2455867"><ele>207.0</ele><time>2026-04-12T12:46:54.952Z</time></trkpt><trkpt lat="44.6882236" lon="10.2455044"><ele>207.0</ele><time>2026-04-12T12:46:55.951Z</time></trkpt><trkpt lat="44.6881592" lon="10.2454322"><ele>207.0</ele><time>2026-04-12T12:46:56.951Z</time></trkpt><trkpt lat="44.688094" lon="10.2453772"><ele>207.0</ele><time>2026-04-12T12:46:57.95Z</time></trkpt><trkpt lat="44.6880259" lon="10.2453277"><ele>207.0</ele><time>2026-04-12T12:46:58.952Z</time></trkpt><trkpt lat="44.6879549" lon="10.2452777"><ele>207.0</ele><time>2026-04-12T12:46:59.952Z</time></trkpt><trkpt lat="44.6878865" lon="10.2452533"><ele>207.0</ele><time>2026-04-12T12:47:00.951Z</time></trkpt><trkpt lat="44.6878243" lon="10.2452688"><ele>207.0</ele><time>2026-04-12T12:47:01.951Z</time></trkpt><trkpt lat="44.6877727" lon="10.2453289"><ele>207.0</ele><time>2026-04-12T12:47:02.952Z</time></trkpt><trkpt lat="44.6877361" lon="10.2454199"><ele>207.0</ele><time>2026-04-12T12:47:03.951Z</time></trkpt><trkpt lat="44.6877003" lon="10.2455295"><ele>207.0</ele><time>2026-04-12T12:47:04.951Z</time></trkpt><trkpt lat="44.6876595" lon="10.2456409"><ele>207.0</ele><time>2026-04-12T12:47:05.951Z</time></trkpt><trkpt lat="44.6876163" lon="10.2457605"><ele>209.5</ele><time>2026-04-12T12:47:06.952Z</time></trkpt><trkpt lat="44.6875641" lon="10.2458638"><ele>212.0</ele><time>2026-04-12T12:47:07.952Z</time></trkpt><trkpt lat="44.6875005" lon="10.2459196"><ele>214.5</ele><time>2026-04-12T12:47:08.952Z</time></trkpt><trkpt lat="44.6874354" lon="10.2459237"><ele>217.0</ele><time>2026-04-12T12:47:09.951Z</time></trkpt><trkpt lat="44.6873573" lon="10.2459139"><ele>219.5</ele><time>2026-04-12T12:47:10.952Z</time></trkpt><trkpt lat="44.6872737" lon="10.2458898"><ele>222.0</ele><time>2026-04-12T12:47:11.952Z</time></trkpt><trkpt lat="44.6871738" lon="10.2458647"><ele>222.0</ele><time>2026-04-12T12:47:12.952Z</time></trkpt><trkpt lat="44.6870656" lon="10.2458358"><ele>222.0</ele><time>2026-04-12T12:47:13.951Z</time></trkpt><trkpt lat="44.686963" lon="10.2458082"><ele>222.0</ele><time>2026-04-12T12:47:14.951Z</time></trkpt><trkpt lat="44.6868527" lon="10.2457773"><ele>222.0</ele><time>2026-04-12T12:47:15.951Z</time></trkpt><trkpt lat="44.6867376" lon="10.2457408"><ele>222.0</ele><time>2026-04-12T12:47:16.951Z</time></trkpt><trkpt lat="44.6866133" lon="10.2457076"><ele>223.0</ele><time>2026-04-12T12:47:17.952Z</time></trkpt><trkpt lat="44.6864864" lon="10.2456741"><ele>224.0</ele><time>2026-04-12T12:47:18.952Z</time></trkpt><trkpt lat="44.6863551" lon="10.245645"><ele>225.0</ele><time>2026-04-12T12:47:19.952Z</time></trkpt><trkpt lat="44.6862208" lon="10.2456092"><ele>226.0</ele><time>2026-04-12T12:47:20.951Z</time></trkpt><trkpt lat="44.6860853" lon="10.2455701"><ele>228.5</ele><time>2026-04-12T12:47:21.952Z</time></trkpt><trkpt lat="44.6859602" lon="10.2455286"><ele>231.0</ele><time>2026-04-12T12:47:22.95Z</time></trkpt><trkpt lat="44.685842" lon="10.2454934"><ele>233.5</ele><time>2026-04-12T12:47:23.952Z</time></trkpt><trkpt lat="44.6857161" lon="10.245462"><ele>236.0</ele><time>2026-04-12T12:47:24.951Z</time></trkpt><trkpt lat="44.6855846" lon="10.2454278"><ele>236.0</ele><time>2026-04-12T12:47:25.95Z</time></trkpt><trkpt lat="44.6854454" lon="10.245387"><ele>236.0</ele><time>2026-04-12T12:47:26.951Z</time></trkpt><trkpt lat="44.6853061" lon="10.245345"><ele>236.0</ele><time>2026-04-12T12:47:27.952Z</time></trkpt><trkpt lat="44.6851655" lon="10.2453098"><ele>236.0</ele><time>2026-04-12T12:47:28.952Z</time></trkpt><trkpt lat="44.6850244" lon="10.2452676"><ele>239.0</ele><time>2026-04-12T12:47:29.952Z</time></trkpt><trkpt lat="44.6848799" lon="10.2452292"><ele>242.0</ele><time>2026-04-12T12:47:30.951Z</time></trkpt><trkpt lat="44.6847367" lon="10.2451932"><ele>245.0</ele><time>2026-04-12T12:47:31.952Z</time></trkpt><trkpt lat="44.6845979" lon="10.2451578"><ele>248.0</ele><time>2026-04-12T12:47:32.952Z</time></trkpt><trkpt lat="44.6844742" lon="10.2451221"><ele>250.2</ele><time>2026-04-12T12:47:33.952Z</time></trkpt><trkpt lat="44.6843636" lon="10.2451025"><ele>252.4</ele><time>2026-04-12T12:47:34.952Z</time></trkpt><trkpt lat="44.6842605" lon="10.2451116"><ele>254.59999999999997</ele><time>2026-04-12T12:47:35.952Z</time></trkpt><trkpt lat="44.6841592" lon="10.2451589"><ele>256.8</ele><time>2026-04-12T12:47:36.951Z</time></trkpt><trkpt lat="44.6840702" lon="10.2452408"><ele>259.0</ele><time>2026-04-12T12:47:37.951Z</time></trkpt><trkpt lat="44.683987" lon="10.2453462"><ele>259.0</ele><time>2026-04-12T12:47:38.95Z</time></trkpt><trkpt lat="44.6839077" lon="10.2454527"><ele>259.0</ele><time>2026-04-12T12:47:39.951Z</time></trkpt><trkpt lat="44.683833" lon="10.2455377"><ele>259.0</ele><time>2026-04-12T12:47:40.951Z</time></trkpt><trkpt lat="44.6837673" lon="10.2455766"><ele>259.0</ele><time>2026-04-12T12:47:41.952Z</time></trkpt><trkpt lat="44.6836758" lon="10.2455218"><ele>259.0</ele><time>2026-04-12T12:47:43.951Z</time></trkpt><trkpt lat="44.6835959" lon="10.2453564"><ele>260.4</ele><time>2026-04-12T12:47:45.952Z</time></trkpt><trkpt lat="44.6835441" lon="10.2452392"><ele>261.79999999999995</ele><time>2026-04-12T12:47:46.951Z</time></trkpt><trkpt lat="44.6834895" lon="10.2451184"><ele>263.20000000000005</ele><time>2026-04-12T12:47:47.951Z</time></trkpt><trkpt lat="44.6834303" lon="10.2449893"><ele>264.6</ele><time>2026-04-12T12:47:48.952Z</time></trkpt><trkpt lat="44.6833754" lon="10.244844"><ele>266.0</ele><time>2026-04-12T12:47:49.951Z</time></trkpt><trkpt lat="44.6833209" lon="10.2447106"><ele>266.6666666666667</ele><time>2026-04-12T12:47:50.952Z</time></trkpt><trkpt lat="44.6832674" lon="10.2445727"><ele>267.33333333333337</ele><time>2026-04-12T12:47:51.952Z</time></trkpt><trkpt lat="44.6831783" lon="10.2445107"><ele>268.0</ele><time>2026-04-12T12:47:52.952Z</time></trkpt><trkpt lat="44.6831046" lon="10.2444501"><ele>268.6666666666667</ele><time>2026-04-12T12:47:53.951Z</time></trkpt><trkpt lat="44.6830494" lon="10.2444024"><ele>269.3333333333333</ele><time>2026-04-12T12:47:54.952Z</time></trkpt><trkpt lat="44.6829867" lon="10.2443657"><ele>270.0</ele><time>2026-04-12T12:47:56.951Z</time></trkpt><trkpt lat="44.6828991" lon="10.2443027"><ele>270.0</ele><time>2026-04-12T12:47:58.952Z</time></trkpt><trkpt lat="44.6828264" lon="10.244258"><ele>270.0</ele><time>2026-04-12T12:47:59.952Z</time></trkpt><trkpt lat="44.6827446" lon="10.2442121"><ele>270.0</ele><time>2026-04-12T12:48:00.952Z</time></trkpt><trkpt lat="44.6826417" lon="10.2441657"><ele>270.0</ele><time>2026-04-12T12:48:01.951Z</time></trkpt><trkpt lat="44.6825408" lon="10.2441209"><ele>270.0</ele><time>2026-04-12T12:48:02.95Z</time></trkpt><trkpt lat="44.6824353" lon="10.2440679"><ele>270.75</ele><time>2026-04-12T12:48:03.951Z</time></trkpt><trkpt lat="44.6823275" lon="10.2440151"><ele>271.5</ele><time>2026-04-12T12:48:04.952Z</time></trkpt><trkpt lat="44.6822063" lon="10.2439601"><ele>272.25</ele><time>2026-04-12T12:48:05.952Z</time></trkpt><trkpt lat="44.6820777" lon="10.2438999"><ele>273.0</ele><time>2026-04-12T12:48:06.952Z</time></trkpt><trkpt lat="44.6819438" lon="10.2438349"><ele>273.75</ele><time>2026-04-12T12:48:07.952Z</time></trkpt><trkpt lat="44.6817997" lon="10.2437671"><ele>274.5</ele><time>2026-04-12T12:48:08.952Z</time></trkpt><trkpt lat="44.6816669" lon="10.2436978"><ele>275.25</ele><time>2026-04-12T12:48:09.952Z</time></trkpt><trkpt lat="44.6815491" lon="10.2436464"><ele>276.0</ele><time>2026-04-12T12:48:10.952Z</time></trkpt><trkpt lat="44.6814398" lon="10.2436171"><ele>276.0</ele><time>2026-04-12T12:48:11.951Z</time></trkpt><trkpt lat="44.6813413" lon="10.2436235"><ele>276.0</ele><time>2026-04-12T12:48:12.951Z</time></trkpt><trkpt lat="44.6812539" lon="10.2436402"><ele>276.0</ele><time>2026-04-12T12:48:13.951Z</time></trkpt><trkpt lat="44.681168" lon="10.2437031"><ele>276.0</ele><time>2026-04-12T12:48:14.951Z</time></trkpt><trkpt lat="44.6810829" lon="10.2437903"><ele>276.0</ele><time>2026-04-12T12:48:15.951Z</time></trkpt><trkpt lat="44.6809987" lon="10.2438797"><ele>276.6</ele><time>2026-04-12T12:48:16.951Z</time></trkpt><trkpt lat="44.6809117" lon="10.2439799"><ele>277.20000000000005</ele><time>2026-04-12T12:48:17.952Z</time></trkpt><trkpt lat="44.6808243" lon="10.2440808"><ele>277.79999999999995</ele><time>2026-04-12T12:48:18.952Z</time></trkpt><trkpt lat="44.6807355" lon="10.2441734"><ele>278.4</ele><time>2026-04-12T12:48:19.951Z</time></trkpt><trkpt lat="44.6806518" lon="10.2442419"><ele>279.0</ele><time>2026-04-12T12:48:20.952Z</time></trkpt><trkpt lat="44.6805806" lon="10.2442906"><ele>279.0</ele><time>2026-04-12T12:48:21.952Z</time></trkpt><trkpt lat="44.6805146" lon="10.2443061"><ele>279.0</ele><time>2026-04-12T12:48:22.952Z</time></trkpt><trkpt lat="44.6804095" lon="10.2442153"><ele>279.0</ele><time>2026-04-12T12:48:24.951Z</time></trkpt><trkpt lat="44.6803634" lon="10.2441358"><ele>279.0</ele><time>2026-04-12T12:48:25.952Z</time></trkpt><trkpt lat="44.6803148" lon="10.244042"><ele>279.0</ele><time>2026-04-12T12:48:26.951Z</time></trkpt><trkpt lat="44.6802638" lon="10.2439393"><ele>279.0</ele><time>2026-04-12T12:48:27.952Z</time></trkpt><trkpt lat="44.6802063" lon="10.2438304"><ele>280.4</ele><time>2026-04-12T12:48:28.952Z</time></trkpt><trkpt lat="44.6801403" lon="10.2437191"><ele>281.79999999999995</ele><time>2026-04-12T12:48:29.952Z</time></trkpt><trkpt lat="44.680082" lon="10.2436002"><ele>283.20000000000005</ele><time>2026-04-12T12:48:30.951Z</time></trkpt><trkpt lat="44.6800293" lon="10.2434855"><ele>284.6</ele><time>2026-04-12T12:48:31.952Z</time></trkpt><trkpt lat="44.6799776" lon="10.2433685"><ele>286.0</ele><time>2026-04-12T12:48:32.952Z</time></trkpt><trkpt lat="44.6799264" lon="10.2432431"><ele>287.8</ele><time>2026-04-12T12:48:33.952Z</time></trkpt><trkpt lat="44.6798733" lon="10.2431116"><ele>289.6</ele><time>2026-04-12T12:48:34.951Z</time></trkpt><trkpt lat="44.6798199" lon="10.2429769"><ele>291.4</ele><time>2026-04-12T12:48:35.951Z</time></trkpt><trkpt lat="44.6797718" lon="10.2428331"><ele>293.2</ele><time>2026-04-12T12:48:36.95Z</time></trkpt><trkpt lat="44.6797233" lon="10.2426989"><ele>295.0</ele><time>2026-04-12T12:48:37.951Z</time></trkpt><trkpt lat="44.6796846" lon="10.2425612"><ele>295.0</ele><time>2026-04-12T12:48:38.951Z</time></trkpt><trkpt lat="44.6796571" lon="10.2424232"><ele>295.0</ele><time>2026-04-12T12:48:39.951Z</time></trkpt><trkpt lat="44.679633" lon="10.2422972"><ele>295.0</ele><time>2026-04-12T12:48:40.951Z</time></trkpt><trkpt lat="44.6796161" lon="10.2421769"><ele>295.0</ele><time>2026-04-12T12:48:41.952Z</time></trkpt><trkpt lat="44.6795968" lon="10.2420535"><ele>295.0</ele><time>2026-04-12T12:48:42.952Z</time></trkpt><trkpt lat="44.6795802" lon="10.2419317"><ele>295.6</ele><time>2026-04-12T12:48:43.951Z</time></trkpt><trkpt lat="44.6795596" lon="10.2418079"><ele>296.2</ele><time>2026-04-12T12:48:44.951Z</time></trkpt><trkpt lat="44.6795287" lon="10.2416896"><ele>296.8</ele><time>2026-04-12T12:48:45.95Z</time></trkpt><trkpt lat="44.6794896" lon="10.2415687"><ele>297.4</ele><time>2026-04-12T12:48:46.951Z</time></trkpt><trkpt lat="44.6794485" lon="10.2414525"><ele>298.0</ele><time>2026-04-12T12:48:47.951Z</time></trkpt><trkpt lat="44.679395" lon="10.241348"><ele>299.4</ele><time>2026-04-12T12:48:48.951Z</time></trkpt><trkpt lat="44.679343" lon="10.2412455"><ele>300.8</ele><time>2026-04-12T12:48:49.95Z</time></trkpt><trkpt lat="44.6792817" lon="10.2411404"><ele>302.2</ele><time>2026-04-12T12:48:50.951Z</time></trkpt><trkpt lat="44.6792215" lon="10.2410386"><ele>303.6</ele><time>2026-04-12T12:48:51.949Z</time></trkpt><trkpt lat="44.6791629" lon="10.2409362"><ele>305.0</ele><time>2026-04-12T12:48:52.95Z</time></trkpt><trkpt lat="44.6791032" lon="10.2408399"><ele>305.0</ele><time>2026-04-12T12:48:53.95Z</time></trkpt><trkpt lat="44.6790401" lon="10.2407361"><ele>305.0</ele><time>2026-04-12T12:48:54.951Z</time></trkpt><trkpt lat="44.6789765" lon="10.2406252"><ele>305.0</ele><time>2026-04-12T12:48:55.951Z</time></trkpt><trkpt lat="44.67891" lon="10.2405182"><ele>305.0</ele><time>2026-04-12T12:48:56.95Z</time></trkpt><trkpt lat="44.6788354" lon="10.2404113"><ele>305.0</ele><time>2026-04-12T12:48:57.95Z</time></trkpt><trkpt lat="44.6787522" lon="10.2403153"><ele>304.6</ele><time>2026-04-12T12:48:58.95Z</time></trkpt><trkpt lat="44.6786642" lon="10.2402298"><ele>304.2</ele><time>2026-04-12T12:48:59.951Z</time></trkpt><trkpt lat="44.6785788" lon="10.2401465"><ele>303.8</ele><time>2026-04-12T12:49:00.95Z</time></trkpt><trkpt lat="44.6785008" lon="10.2400654"><ele>303.4</ele><time>2026-04-12T12:49:01.951Z</time></trkpt><trkpt lat="44.6784213" lon="10.2399878"><ele>303.0</ele><time>2026-04-12T12:49:02.949Z</time></trkpt><trkpt lat="44.6783454" lon="10.2399088"><ele>303.0</ele><time>2026-04-12T12:49:03.951Z</time></trkpt><trkpt lat="44.6782614" lon="10.2398258"><ele>303.0</ele><time>2026-04-12T12:49:04.951Z</time></trkpt><trkpt lat="44.6781792" lon="10.239733"><ele>303.0</ele><time>2026-04-12T12:49:05.95Z</time></trkpt><trkpt lat="44.6780942" lon="10.2396455"><ele>303.0</ele><time>2026-04-12T12:49:06.95Z</time></trkpt><trkpt lat="44.6780094" lon="10.2395587"><ele>303.0</ele><time>2026-04-12T12:49:07.95Z</time></trkpt><trkpt lat="44.6779232" lon="10.2394704"><ele>302.4</ele><time>2026-04-12T12:49:08.951Z</time></trkpt><trkpt lat="44.6778386" lon="10.2393874"><ele>301.8</ele><time>2026-04-12T12:49:09.95Z</time></trkpt><trkpt lat="44.6777524" lon="10.2393049"><ele>301.2</ele><time>2026-04-12T12:49:10.95Z</time></trkpt><trkpt lat="44.6776681" lon="10.2392253"><ele>300.6</ele><time>2026-04-12T12:49:11.951Z</time></trkpt><trkpt lat="44.6775837" lon="10.2391469"><ele>300.0</ele><time>2026-04-12T12:49:12.951Z</time></trkpt><trkpt lat="44.6775074" lon="10.2390569"><ele>300.4</ele><time>2026-04-12T12:49:13.951Z</time></trkpt><trkpt lat="44.6774425" lon="10.2389479"><ele>300.8</ele><time>2026-04-12T12:49:14.95Z</time></trkpt><trkpt lat="44.6773863" lon="10.2388343"><ele>301.2</ele><time>2026-04-12T12:49:15.951Z</time></trkpt><trkpt lat="44.677324" lon="10.2387207"><ele>301.6</ele><time>2026-04-12T12:49:16.951Z</time></trkpt><trkpt lat="44.6772651" lon="10.2385981"><ele>302.0</ele><time>2026-04-12T12:49:17.95Z</time></trkpt><trkpt lat="44.6772052" lon="10.2384703"><ele>302.0</ele><time>2026-04-12T12:49:18.951Z</time></trkpt><trkpt lat="44.6771433" lon="10.2383471"><ele>302.0</ele><time>2026-04-12T12:49:19.951Z</time></trkpt><trkpt lat="44.6770868" lon="10.2382156"><ele>302.0</ele><time>2026-04-12T12:49:20.951Z</time></trkpt><trkpt lat="44.6770261" lon="10.2380865"><ele>302.0</ele><time>2026-04-12T12:49:21.95Z</time></trkpt><trkpt lat="44.6769633" lon="10.2379616"><ele>302.0</ele><time>2026-04-12T12:49:22.95Z</time></trkpt><trkpt lat="44.676909" lon="10.2378371"><ele>304.0</ele><time>2026-04-12T12:49:23.951Z</time></trkpt><trkpt lat="44.6768501" lon="10.2377125"><ele>306.0</ele><time>2026-04-12T12:49:24.95Z</time></trkpt><trkpt lat="44.6767909" lon="10.2375885"><ele>308.0</ele><time>2026-04-12T12:49:25.95Z</time></trkpt><trkpt lat="44.6767312" lon="10.2374664"><ele>310.0</ele><time>2026-04-12T12:49:26.95Z</time></trkpt><trkpt lat="44.6766761" lon="10.2373457"><ele>312.0</ele><time>2026-04-12T12:49:27.95Z</time></trkpt><trkpt lat="44.6766187" lon="10.2372224"><ele>312.0</ele><time>2026-04-12T12:49:28.951Z</time></trkpt><trkpt lat="44.6765627" lon="10.2370966"><ele>312.0</ele><time>2026-04-12T12:49:29.951Z</time></trkpt><trkpt lat="44.6765052" lon="10.2369699"><ele>312.0</ele><time>2026-04-12T12:49:30.95Z</time></trkpt><trkpt lat="44.6764455" lon="10.2368461"><ele>312.0</ele><time>2026-04-12T12:49:31.95Z</time></trkpt><trkpt lat="44.6763804" lon="10.2367227"><ele>312.0</ele><time>2026-04-12T12:49:32.949Z</time></trkpt><trkpt lat="44.6763088" lon="10.2366053"><ele>312.0</ele><time>2026-04-12T12:49:33.95Z</time></trkpt><trkpt lat="44.6762281" lon="10.236498"><ele>312.0</ele><time>2026-04-12T12:49:34.95Z</time></trkpt><trkpt lat="44.6761418" lon="10.2363875"><ele>312.0</ele><time>2026-04-12T12:49:35.951Z</time></trkpt><trkpt lat="44.6760603" lon="10.236292"><ele>312.0</ele><time>2026-04-12T12:49:36.951Z</time></trkpt><trkpt lat="44.6759733" lon="10.2361873"><ele>312.0</ele><time>2026-04-12T12:49:37.95Z</time></trkpt><trkpt lat="44.6758901" lon="10.2360804"><ele>314.8</ele><time>2026-04-12T12:49:38.951Z</time></trkpt><trkpt lat="44.6758127" lon="10.2359766"><ele>317.6</ele><time>2026-04-12T12:49:39.951Z</time></trkpt><trkpt lat="44.675728" lon="10.2358767"><ele>320.40000000000003</ele><time>2026-04-12T12:49:40.95Z</time></trkpt><trkpt lat="44.675644" lon="10.235789"><ele>323.2</ele><time>2026-04-12T12:49:41.951Z</time></trkpt><trkpt lat="44.6755518" lon="10.2357057"><ele>326.0</ele><time>2026-04-12T12:49:42.95Z</time></trkpt><trkpt lat="44.6754534" lon="10.2356355"><ele>326.0</ele><time>2026-04-12T12:49:43.95Z</time></trkpt><trkpt lat="44.6753512" lon="10.2355608"><ele>326.0</ele><time>2026-04-12T12:49:44.95Z</time></trkpt><trkpt lat="44.6752501" lon="10.2354799"><ele>326.0</ele><time>2026-04-12T12:49:45.951Z</time></trkpt><trkpt lat="44.675148" lon="10.2353998"><ele>326.0</ele><time>2026-04-12T12:49:46.951Z</time></trkpt><trkpt lat="44.6750399" lon="10.2353146"><ele>327.75</ele><time>2026-04-12T12:49:47.95Z</time></trkpt><trkpt lat="44.6749301" lon="10.2352319"><ele>329.5</ele><time>2026-04-12T12:49:48.951Z</time></trkpt><trkpt lat="44.6748199" lon="10.2351575"><ele>331.25</ele><time>2026-04-12T12:49:49.95Z</time></trkpt><trkpt lat="44.6747171" lon="10.2350844"><ele>333.0</ele><time>2026-04-12T12:49:50.951Z</time></trkpt><trkpt lat="44.674615" lon="10.235007"><ele>333.0</ele><time>2026-04-12T12:49:51.951Z</time></trkpt><trkpt lat="44.6745231" lon="10.2349379"><ele>333.0</ele><time>2026-04-12T12:49:52.95Z</time></trkpt><trkpt lat="44.6744314" lon="10.234862"><ele>333.0</ele><time>2026-04-12T12:49:53.95Z</time></trkpt><trkpt lat="44.6743429" lon="10.2348028"><ele>333.0</ele><time>2026-04-12T12:49:54.951Z</time></trkpt><trkpt lat="44.674265" lon="10.2347357"><ele>333.0</ele><time>2026-04-12T12:49:55.95Z</time></trkpt><trkpt lat="44.6742087" lon="10.2346631"><ele>332.6666666666667</ele><time>2026-04-12T12:49:56.95Z</time></trkpt><trkpt lat="44.6741739" lon="10.2345791"><ele>332.3333333333333</ele><time>2026-04-12T12:49:57.951Z</time></trkpt><trkpt lat="44.6741135" lon="10.2344239"><ele>332.0</ele><time>2026-04-12T12:49:59.95Z</time></trkpt><trkpt lat="44.6740792" lon="10.2343409"><ele>331.66666666666663</ele><time>2026-04-12T12:50:00.951Z</time></trkpt><trkpt lat="44.6740456" lon="10.2342529"><ele>331.3333333333333</ele><time>2026-04-12T12:50:01.949Z</time></trkpt><trkpt lat="44.6740124" lon="10.234163"><ele>331.0</ele><time>2026-04-12T12:50:02.95Z</time></trkpt><trkpt lat="44.6739766" lon="10.234069"><ele>328.6</ele><time>2026-04-12T12:50:03.951Z</time></trkpt><trkpt lat="44.6739374" lon="10.2339691"><ele>326.20000000000005</ele><time>2026-04-12T12:50:04.95Z</time></trkpt><trkpt lat="44.6738937" lon="10.2338556"><ele>323.79999999999995</ele><time>2026-04-12T12:50:05.951Z</time></trkpt><trkpt lat="44.6738526" lon="10.233732"><ele>321.4</ele><time>2026-04-12T12:50:06.951Z</time></trkpt><trkpt lat="44.6738186" lon="10.2335937"><ele>319.0</ele><time>2026-04-12T12:50:07.951Z</time></trkpt><trkpt lat="44.6737938" lon="10.2334475"><ele>319.0</ele><time>2026-04-12T12:50:08.951Z</time></trkpt><trkpt lat="44.6737807" lon="10.2333"><ele>319.0</ele><time>2026-04-12T12:50:09.95Z</time></trkpt><trkpt lat="44.6737685" lon="10.2331663"><ele>319.0</ele><time>2026-04-12T12:50:10.951Z</time></trkpt><trkpt lat="44.6737604" lon="10.2330349"><ele>319.0</ele><time>2026-04-12T12:50:11.95Z</time></trkpt><trkpt lat="44.6737563" lon="10.2329218"><ele>319.0</ele><time>2026-04-12T12:50:12.951Z</time></trkpt><trkpt lat="44.6737529" lon="10.2328302"><ele>319.0</ele><time>2026-04-12T12:50:13.951Z</time></trkpt><trkpt lat="44.6737546" lon="10.2327164"><ele>318.0</ele><time>2026-04-12T12:50:15.95Z</time></trkpt><trkpt lat="44.6737347" lon="10.2326282"><ele>317.0</ele><time>2026-04-12T12:50:18.951Z</time></trkpt><trkpt lat="44.6736464" lon="10.232609"><ele>316.0</ele><time>2026-04-12T12:50:20.951Z</time></trkpt><trkpt lat="44.6735764" lon="10.2326332"><ele>315.0</ele><time>2026-04-12T12:50:21.95Z</time></trkpt><trkpt lat="44.6734949" lon="10.232673"><ele>314.0</ele><time>2026-04-12T12:50:22.949Z</time></trkpt><trkpt lat="44.6734038" lon="10.2327276"><ele>313.0</ele><time>2026-04-12T12:50:23.951Z</time></trkpt><trkpt lat="44.6733018" lon="10.2327979"><ele>313.0</ele><time>2026-04-12T12:50:24.95Z</time></trkpt><trkpt lat="44.6732007" lon="10.2328647"><ele>313.0</ele><time>2026-04-12T12:50:25.95Z</time></trkpt><trkpt lat="44.6731139" lon="10.2329506"><ele>313.0</ele><time>2026-04-12T12:50:26.951Z</time></trkpt><trkpt lat="44.6730173" lon="10.2330299"><ele>313.0</ele><time>2026-04-12T12:50:27.951Z</time></trkpt><trkpt lat="44.6729279" lon="10.2331083"><ele>313.0</ele><time>2026-04-12T12:50:28.951Z</time></trkpt><trkpt lat="44.6728436" lon="10.2331871"><ele>316.6</ele><time>2026-04-12T12:50:29.951Z</time></trkpt><trkpt lat="44.6727591" lon="10.233283"><ele>320.20000000000005</ele><time>2026-04-12T12:50:30.95Z</time></trkpt><trkpt lat="44.6726721" lon="10.2333708"><ele>323.8</ele><time>2026-04-12T12:50:31.95Z</time></trkpt><trkpt lat="44.672578" lon="10.2334675"><ele>327.40000000000003</ele><time>2026-04-12T12:50:32.95Z</time></trkpt><trkpt lat="44.6725047" lon="10.2335869"><ele>331.0</ele><time>2026-04-12T12:50:33.95Z</time></trkpt><trkpt lat="44.6724349" lon="10.2337136"><ele>331.0</ele><time>2026-04-12T12:50:34.951Z</time></trkpt><trkpt lat="44.6723813" lon="10.233846"><ele>331.0</ele><time>2026-04-12T12:50:35.951Z</time></trkpt><trkpt lat="44.6722863" lon="10.2339535"><ele>331.0</ele><time>2026-04-12T12:50:36.951Z</time></trkpt><trkpt lat="44.6721643" lon="10.2339969"><ele>331.0</ele><time>2026-04-12T12:50:37.951Z</time></trkpt><trkpt lat="44.672048" lon="10.2340412"><ele>332.75</ele><time>2026-04-12T12:50:38.951Z</time></trkpt><trkpt lat="44.6719366" lon="10.2341221"><ele>334.5</ele><time>2026-04-12T12:50:39.95Z</time></trkpt><trkpt lat="44.671827" lon="10.2342095"><ele>336.25</ele><time>2026-04-12T12:50:40.951Z</time></trkpt><trkpt lat="44.6717267" lon="10.2343315"><ele>338.0</ele><time>2026-04-12T12:50:41.951Z</time></trkpt><trkpt lat="44.6716286" lon="10.2344335"><ele>338.0</ele><time>2026-04-12T12:50:42.951Z</time></trkpt><trkpt lat="44.6715324" lon="10.2345438"><ele>338.0</ele><time>2026-04-12T12:50:43.951Z</time></trkpt><trkpt lat="44.6714298" lon="10.2346454"><ele>338.0</ele><time>2026-04-12T12:50:44.95Z</time></trkpt><trkpt lat="44.6713281" lon="10.2347307"><ele>338.0</ele><time>2026-04-12T12:50:45.95Z</time></trkpt><trkpt lat="44.671223" lon="10.2348008"><ele>339.59999999999997</ele><time>2026-04-12T12:50:46.951Z</time></trkpt><trkpt lat="44.6711207" lon="10.2348621"><ele>341.2</ele><time>2026-04-12T12:50:47.95Z</time></trkpt><trkpt lat="44.6710288" lon="10.2348978"><ele>342.8</ele><time>2026-04-12T12:50:48.95Z</time></trkpt><trkpt lat="44.6709407" lon="10.2349076"><ele>344.4</ele><time>2026-04-12T12:50:49.95Z</time></trkpt><trkpt lat="44.6708585" lon="10.2348876"><ele>346.0</ele><time>2026-04-12T12:50:50.95Z</time></trkpt><trkpt lat="44.6707705" lon="10.2348487"><ele>346.6</ele><time>2026-04-12T12:50:51.951Z</time></trkpt><trkpt lat="44.6706691" lon="10.2347983"><ele>347.20000000000005</ele><time>2026-04-12T12:50:52.95Z</time></trkpt><trkpt lat="44.670563" lon="10.2347588"><ele>347.79999999999995</ele><time>2026-04-12T12:50:53.949Z</time></trkpt><trkpt lat="44.6704535" lon="10.2347365"><ele>348.4</ele><time>2026-04-12T12:50:54.951Z</time></trkpt><trkpt lat="44.670338" lon="10.2347376"><ele>349.0</ele><time>2026-04-12T12:50:55.951Z</time></trkpt><trkpt lat="44.6702208" lon="10.2347468"><ele>349.0</ele><time>2026-04-12T12:50:56.951Z</time></trkpt><trkpt lat="44.670106" lon="10.2347636"><ele>349.0</ele><time>2026-04-12T12:50:57.95Z</time></trkpt><trkpt lat="44.6699868" lon="10.2347764"><ele>349.0</ele><time>2026-04-12T12:50:58.951Z</time></trkpt><trkpt lat="44.6698668" lon="10.2347866"><ele>349.0</ele><time>2026-04-12T12:50:59.951Z</time></trkpt><trkpt lat="44.6697494" lon="10.2347966"><ele>350.75</ele><time>2026-04-12T12:51:00.951Z</time></trkpt><trkpt lat="44.6696334" lon="10.2348147"><ele>352.5</ele><time>2026-04-12T12:51:01.95Z</time></trkpt><trkpt lat="44.6695184" lon="10.2348345"><ele>354.25</ele><time>2026-04-12T12:51:02.95Z</time></trkpt><trkpt lat="44.669397" lon="10.2348564"><ele>356.0</ele><time>2026-04-12T12:51:03.95Z</time></trkpt><trkpt lat="44.669275" lon="10.2348804"><ele>357.5</ele><time>2026-04-12T12:51:04.95Z</time></trkpt><trkpt lat="44.6691553" lon="10.234915"><ele>359.0</ele><time>2026-04-12T12:51:05.951Z</time></trkpt><trkpt lat="44.6690431" lon="10.2349662"><ele>360.5</ele><time>2026-04-12T12:51:06.95Z</time></trkpt><trkpt lat="44.6689346" lon="10.2350001"><ele>362.0</ele><time>2026-04-12T12:51:07.95Z</time></trkpt><trkpt lat="44.6688198" lon="10.2350124"><ele>362.0</ele><time>2026-04-12T12:51:08.951Z</time></trkpt><trkpt lat="44.6686999" lon="10.2350022"><ele>362.0</ele><time>2026-04-12T12:51:09.95Z</time></trkpt><trkpt lat="44.6685746" lon="10.2349759"><ele>362.0</ele><time>2026-04-12T12:51:10.951Z</time></trkpt><trkpt lat="44.6684462" lon="10.2349335"><ele>362.0</ele><time>2026-04-12T12:51:11.951Z</time></trkpt><trkpt lat="44.6683194" lon="10.2348882"><ele>363.0</ele><time>2026-04-12T12:51:12.951Z</time></trkpt><trkpt lat="44.6681994" lon="10.2348462"><ele>364.0</ele><time>2026-04-12T12:51:13.95Z</time></trkpt><trkpt lat="44.6680863" lon="10.2348171"><ele>365.0</ele><time>2026-04-12T12:51:14.951Z</time></trkpt><trkpt lat="44.6679749" lon="10.2347942"><ele>366.0</ele><time>2026-04-12T12:51:15.951Z</time></trkpt><trkpt lat="44.667883" lon="10.2347883"><ele>367.0</ele><time>2026-04-12T12:51:16.951Z</time></trkpt><trkpt lat="44.6678015" lon="10.2347966"><ele>370.16666666666663</ele><time>2026-04-12T12:51:17.95Z</time></trkpt><trkpt lat="44.6677237" lon="10.2348253"><ele>373.3333333333333</ele><time>2026-04-12T12:51:18.951Z</time></trkpt><trkpt lat="44.6676492" lon="10.2348738"><ele>376.5</ele><time>2026-04-12T12:51:19.95Z</time></trkpt><trkpt lat="44.6675725" lon="10.2349344"><ele>379.66666666666663</ele><time>2026-04-12T12:51:20.951Z</time></trkpt><trkpt lat="44.6674959" lon="10.2349985"><ele>382.8333333333333</ele><time>2026-04-12T12:51:21.95Z</time></trkpt><trkpt lat="44.667434" lon="10.2350373"><ele>386.0</ele><time>2026-04-12T12:51:22.95Z</time></trkpt><trkpt lat="44.6673299" lon="10.2350485"><ele>386.0</ele><time>2026-04-12T12:51:24.95Z</time></trkpt><trkpt lat="44.6672712" lon="10.2350107"><ele>386.0</ele><time>2026-04-12T12:51:25.951Z</time></trkpt><trkpt lat="44.6671946" lon="10.2349645"><ele>386.0</ele><time>2026-04-12T12:51:26.95Z</time></trkpt><trkpt lat="44.6670919" lon="10.2349354"><ele>386.0</ele><time>2026-04-12T12:51:27.95Z</time></trkpt><trkpt lat="44.6669922" lon="10.2349193"><ele>386.0</ele><time>2026-04-12T12:51:28.95Z</time></trkpt><trkpt lat="44.6668862" lon="10.2349177"><ele>388.25</ele><time>2026-04-12T12:51:29.951Z</time></trkpt><trkpt lat="44.6667765" lon="10.2349237"><ele>390.5</ele><time>2026-04-12T12:51:30.95Z</time></trkpt><trkpt lat="44.6666607" lon="10.2349333"><ele>392.75</ele><time>2026-04-12T12:51:31.95Z</time></trkpt><trkpt lat="44.6665454" lon="10.2349584"><ele>395.0</ele><time>2026-04-12T12:51:32.951Z</time></trkpt><trkpt lat="44.666432" lon="10.2349833"><ele>395.0</ele><time>2026-04-12T12:51:33.95Z</time></trkpt><trkpt lat="44.6663241" lon="10.2350098"><ele>395.0</ele><time>2026-04-12T12:51:34.95Z</time></trkpt><trkpt lat="44.6662186" lon="10.2350171"><ele>395.0</ele><time>2026-04-12T12:51:35.951Z</time></trkpt><trkpt lat="44.6661175" lon="10.2350032"><ele>395.0</ele><time>2026-04-12T12:51:36.95Z</time></trkpt><trkpt lat="44.6660182" lon="10.2349564"><ele>395.0</ele><time>2026-04-12T12:51:37.951Z</time></trkpt><trkpt lat="44.6659266" lon="10.2349254"><ele>394.75</ele><time>2026-04-12T12:51:38.95Z</time></trkpt><trkpt lat="44.6658218" lon="10.234853"><ele>394.5</ele><time>2026-04-12T12:51:39.951Z</time></trkpt><trkpt lat="44.6657211" lon="10.2347605"><ele>394.25</ele><time>2026-04-12T12:51:40.95Z</time></trkpt><trkpt lat="44.6656265" lon="10.2346551"><ele>394.0</ele><time>2026-04-12T12:51:41.951Z</time></trkpt><trkpt lat="44.6655361" lon="10.2345332"><ele>394.0</ele><time>2026-04-12T12:51:42.95Z</time></trkpt><trkpt lat="44.6654584" lon="10.2343958"><ele>394.0</ele><time>2026-04-12T12:51:43.95Z</time></trkpt><trkpt lat="44.6653967" lon="10.2342442"><ele>394.0</ele><time>2026-04-12T12:51:44.95Z</time></trkpt><trkpt lat="44.6653653" lon="10.2340808"><ele>394.0</ele><time>2026-04-12T12:51:45.95Z</time></trkpt><trkpt lat="44.6653601" lon="10.2339152"><ele>395.6</ele><time>2026-04-12T12:51:46.951Z</time></trkpt><trkpt lat="44.6653583" lon="10.2337567"><ele>397.2</ele><time>2026-04-12T12:51:47.95Z</time></trkpt><trkpt lat="44.6653328" lon="10.2336106"><ele>398.8</ele><time>2026-04-12T12:51:48.951Z</time></trkpt><trkpt lat="44.6652746" lon="10.2334976"><ele>400.40000000000003</ele><time>2026-04-12T12:51:49.95Z</time></trkpt><trkpt lat="44.6651883" lon="10.2334008"><ele>402.0</ele><time>2026-04-12T12:51:50.95Z</time></trkpt><trkpt lat="44.6650852" lon="10.2333055"><ele>402.0</ele><time>2026-04-12T12:51:51.951Z</time></trkpt><trkpt lat="44.6649735" lon="10.2332023"><ele>402.0</ele><time>2026-04-12T12:51:52.951Z</time></trkpt><trkpt lat="44.6648565" lon="10.2330972"><ele>402.0</ele><time>2026-04-12T12:51:53.95Z</time></trkpt><trkpt lat="44.664739" lon="10.2329924"><ele>402.0</ele><time>2026-04-12T12:51:54.95Z</time></trkpt><trkpt lat="44.6646283" lon="10.232891"><ele>403.75</ele><time>2026-04-12T12:51:55.951Z</time></trkpt><trkpt lat="44.6645234" lon="10.2327843"><ele>405.5</ele><time>2026-04-12T12:51:56.95Z</time></trkpt><trkpt lat="44.6644189" lon="10.2326634"><ele>407.25</ele><time>2026-04-12T12:51:57.951Z</time></trkpt><trkpt lat="44.6643219" lon="10.2325393"><ele>409.0</ele><time>2026-04-12T12:51:58.95Z</time></trkpt><trkpt lat="44.6642245" lon="10.2324107"><ele>407.25</ele><time>2026-04-12T12:51:59.95Z</time></trkpt><trkpt lat="44.664126" lon="10.2322795"><ele>405.5</ele><time>2026-04-12T12:52:00.951Z</time></trkpt><trkpt lat="44.6640237" lon="10.2321414"><ele>403.75</ele><time>2026-04-12T12:52:01.951Z</time></trkpt><trkpt lat="44.6639214" lon="10.2320193"><ele>402.0</ele><time>2026-04-12T12:52:02.95Z</time></trkpt><trkpt lat="44.6638276" lon="10.2319145"><ele>402.0</ele><time>2026-04-12T12:52:03.95Z</time></trkpt><trkpt lat="44.6637301" lon="10.2318247"><ele>402.0</ele><time>2026-04-12T12:52:04.951Z</time></trkpt><trkpt lat="44.6636259" lon="10.2317469"><ele>402.0</ele><time>2026-04-12T12:52:05.951Z</time></trkpt><trkpt lat="44.6635109" lon="10.2316928"><ele>402.0</ele><time>2026-04-12T12:52:06.95Z</time></trkpt><trkpt lat="44.6633863" lon="10.231648"><ele>400.75</ele><time>2026-04-12T12:52:07.95Z</time></trkpt><trkpt lat="44.6632567" lon="10.2315999"><ele>399.5</ele><time>2026-04-12T12:52:08.951Z</time></trkpt><trkpt lat="44.6631436" lon="10.2315375"><ele>398.25</ele><time>2026-04-12T12:52:09.951Z</time></trkpt><trkpt lat="44.6630414" lon="10.2314511"><ele>397.0</ele><time>2026-04-12T12:52:10.949Z</time></trkpt><trkpt lat="44.6629572" lon="10.2313287"><ele>397.0</ele><time>2026-04-12T12:52:11.95Z</time></trkpt><trkpt lat="44.6628805" lon="10.2311868"><ele>397.0</ele><time>2026-04-12T12:52:12.951Z</time></trkpt><trkpt lat="44.662804" lon="10.2310303"><ele>397.0</ele><time>2026-04-12T12:52:13.95Z</time></trkpt><trkpt lat="44.6627277" lon="10.2308776"><ele>397.0</ele><time>2026-04-12T12:52:14.951Z</time></trkpt><trkpt lat="44.662654" lon="10.2307406"><ele>400.75</ele><time>2026-04-12T12:52:15.95Z</time></trkpt><trkpt lat="44.662577" lon="10.2306157"><ele>404.5</ele><time>2026-04-12T12:52:16.95Z</time></trkpt><trkpt lat="44.6624984" lon="10.2304991"><ele>408.25</ele><time>2026-04-12T12:52:17.95Z</time></trkpt><trkpt lat="44.6624084" lon="10.2303824"><ele>412.0</ele><time>2026-04-12T12:52:18.951Z</time></trkpt><trkpt lat="44.6623133" lon="10.2302675"><ele>412.0</ele><time>2026-04-12T12:52:19.951Z</time></trkpt><trkpt lat="44.6622209" lon="10.2301341"><ele>412.0</ele><time>2026-04-12T12:52:20.949Z</time></trkpt><trkpt lat="44.6621409" lon="10.2299812"><ele>412.0</ele><time>2026-04-12T12:52:21.951Z</time></trkpt><trkpt lat="44.6620657" lon="10.2298159"><ele>412.0</ele><time>2026-04-12T12:52:22.95Z</time></trkpt><trkpt lat="44.6619965" lon="10.2296509"><ele>411.75</ele><time>2026-04-12T12:52:23.951Z</time></trkpt><trkpt lat="44.6619334" lon="10.229481"><ele>411.5</ele><time>2026-04-12T12:52:24.951Z</time></trkpt><trkpt lat="44.6618794" lon="10.2293081"><ele>411.25</ele><time>2026-04-12T12:52:25.95Z</time></trkpt><trkpt lat="44.6618234" lon="10.2291417"><ele>411.0</ele><time>2026-04-12T12:52:26.951Z</time></trkpt><trkpt lat="44.6617624" lon="10.2289909"><ele>411.6</ele><time>2026-04-12T12:52:27.949Z</time></trkpt><trkpt lat="44.6616946" lon="10.2288625"><ele>412.20000000000005</ele><time>2026-04-12T12:52:28.951Z</time></trkpt><trkpt lat="44.661622" lon="10.2287443"><ele>412.79999999999995</ele><time>2026-04-12T12:52:29.951Z</time></trkpt><trkpt lat="44.661548" lon="10.2286517"><ele>413.4</ele><time>2026-04-12T12:52:30.95Z</time></trkpt><trkpt lat="44.6614506" lon="10.2286253"><ele>414.0</ele><time>2026-04-12T12:52:31.951Z</time></trkpt><trkpt lat="44.6613452" lon="10.2285908"><ele>414.0</ele><time>2026-04-12T12:52:32.95Z</time></trkpt><trkpt lat="44.661236" lon="10.2285652"><ele>414.0</ele><time>2026-04-12T12:52:33.95Z</time></trkpt><trkpt lat="44.6611264" lon="10.2285607"><ele>414.0</ele><time>2026-04-12T12:52:34.95Z</time></trkpt><trkpt lat="44.6610141" lon="10.2285671"><ele>414.0</ele><time>2026-04-12T12:52:35.95Z</time></trkpt><trkpt lat="44.660908" lon="10.2285851"><ele>414.0</ele><time>2026-04-12T12:52:36.95Z</time></trkpt><trkpt lat="44.6607989" lon="10.2286139"><ele>413.5</ele><time>2026-04-12T12:52:37.951Z</time></trkpt><trkpt lat="44.6606924" lon="10.2286589"><ele>413.0</ele><time>2026-04-12T12:52:38.951Z</time></trkpt><trkpt lat="44.6605776" lon="10.2287267"><ele>412.5</ele><time>2026-04-12T12:52:39.951Z</time></trkpt><trkpt lat="44.6604573" lon="10.2287986"><ele>412.0</ele><time>2026-04-12T12:52:40.95Z</time></trkpt><trkpt lat="44.6603324" lon="10.2288604"><ele>408.5</ele><time>2026-04-12T12:52:41.951Z</time></trkpt><trkpt lat="44.6602035" lon="10.2289165"><ele>405.0</ele><time>2026-04-12T12:52:42.949Z</time></trkpt><trkpt lat="44.6600796" lon="10.2289435"><ele>401.5</ele><time>2026-04-12T12:52:43.951Z</time></trkpt><trkpt lat="44.6599527" lon="10.2289578"><ele>398.0</ele><time>2026-04-12T12:52:44.951Z</time></trkpt><trkpt lat="44.6598285" lon="10.228948"><ele>398.0</ele><time>2026-04-12T12:52:45.951Z</time></trkpt><trkpt lat="44.6597081" lon="10.2289131"><ele>398.0</ele><time>2026-04-12T12:52:46.951Z</time></trkpt><trkpt lat="44.6595888" lon="10.2288464"><ele>398.0</ele><time>2026-04-12T12:52:47.95Z</time></trkpt><trkpt lat="44.6594718" lon="10.2287549"><ele>398.0</ele><time>2026-04-12T12:52:48.951Z</time></trkpt><trkpt lat="44.6593526" lon="10.2286602"><ele>400.75</ele><time>2026-04-12T12:52:49.951Z</time></trkpt><trkpt lat="44.6592262" lon="10.2285652"><ele>403.5</ele><time>2026-04-12T12:52:50.95Z</time></trkpt><trkpt lat="44.6590968" lon="10.2284747"><ele>406.25</ele><time>2026-04-12T12:52:51.95Z</time></trkpt><trkpt lat="44.6589653" lon="10.2283956"><ele>409.0</ele><time>2026-04-12T12:52:52.951Z</time></trkpt><trkpt lat="44.658844" lon="10.2283279"><ele>409.0</ele><time>2026-04-12T12:52:53.95Z</time></trkpt><trkpt lat="44.6587221" lon="10.2282709"><ele>409.0</ele><time>2026-04-12T12:52:54.95Z</time></trkpt><trkpt lat="44.6585951" lon="10.2282386"><ele>409.0</ele><time>2026-04-12T12:52:55.951Z</time></trkpt><trkpt lat="44.6584618" lon="10.2282112"><ele>409.0</ele><time>2026-04-12T12:52:56.95Z</time></trkpt><trkpt lat="44.6583345" lon="10.2281889"><ele>409.5</ele><time>2026-04-12T12:52:57.95Z</time></trkpt><trkpt lat="44.6582056" lon="10.2281515"><ele>410.0</ele><time>2026-04-12T12:52:58.951Z</time></trkpt><trkpt lat="44.6580815" lon="10.2281109"><ele>410.5</ele><time>2026-04-12T12:52:59.95Z</time></trkpt><trkpt lat="44.6579551" lon="10.2280692"><ele>411.0</ele><time>2026-04-12T12:53:00.95Z</time></trkpt><trkpt lat="44.6578339" lon="10.228017"><ele>412.0</ele><time>2026-04-12T12:53:01.951Z</time></trkpt><trkpt lat="44.6577202" lon="10.2279638"><ele>413.0</ele><time>2026-04-12T12:53:02.949Z</time></trkpt><trkpt lat="44.6576146" lon="10.2279106"><ele>414.0</ele><time>2026-04-12T12:53:03.951Z</time></trkpt><trkpt lat="44.6575125" lon="10.2278516"><ele>415.0</ele><time>2026-04-12T12:53:04.95Z</time></trkpt><trkpt lat="44.6573993" lon="10.2277971"><ele>415.0</ele><time>2026-04-12T12:53:05.95Z</time></trkpt><trkpt lat="44.6572743" lon="10.227744"><ele>415.0</ele><time>2026-04-12T12:53:06.951Z</time></trkpt><trkpt lat="44.6571411" lon="10.2276855"><ele>415.0</ele><time>2026-04-12T12:53:07.95Z</time></trkpt><trkpt lat="44.6570032" lon="10.2276214"><ele>415.0</ele><time>2026-04-12T12:53:08.951Z</time></trkpt><trkpt lat="44.6568585" lon="10.2275542"><ele>414.25</ele><time>2026-04-12T12:53:09.95Z</time></trkpt><trkpt lat="44.6567148" lon="10.2274852"><ele>413.5</ele><time>2026-04-12T12:53:10.95Z</time></trkpt><trkpt lat="44.6565801" lon="10.2274213"><ele>412.75</ele><time>2026-04-12T12:53:11.951Z</time></trkpt><trkpt lat="44.6564519" lon="10.2273669"><ele>412.0</ele><time>2026-04-12T12:53:12.951Z</time></trkpt><trkpt lat="44.6563262" lon="10.2273163"><ele>411.0</ele><time>2026-04-12T12:53:13.95Z</time></trkpt><trkpt lat="44.6562003" lon="10.2272709"><ele>410.0</ele><time>2026-04-12T12:53:14.951Z</time></trkpt><trkpt lat="44.6560683" lon="10.2272256"><ele>409.0</ele><time>2026-04-12T12:53:15.951Z</time></trkpt><trkpt lat="44.6559299" lon="10.2271815"><ele>408.0</ele><time>2026-04-12T12:53:16.951Z</time></trkpt><trkpt lat="44.6557911" lon="10.2271338"><ele>407.0</ele><time>2026-04-12T12:53:17.949Z</time></trkpt><trkpt lat="44.6556572" lon="10.227083"><ele>406.0</ele><time>2026-04-12T12:53:18.951Z</time></trkpt><trkpt lat="44.6555297" lon="10.2270303"><ele>405.0</ele><time>2026-04-12T12:53:19.951Z</time></trkpt><trkpt lat="44.655405" lon="10.2269769"><ele>404.0</ele><time>2026-04-12T12:53:20.95Z</time></trkpt><trkpt lat="44.6552854" lon="10.2269042"><ele>404.0</ele><time>2026-04-12T12:53:21.949Z</time></trkpt><trkpt lat="44.6551702" lon="10.2268241"><ele>404.0</ele><time>2026-04-12T12:53:22.951Z</time></trkpt><trkpt lat="44.65506" lon="10.2267393"><ele>404.0</ele><time>2026-04-12T12:53:23.95Z</time></trkpt><trkpt lat="44.6549569" lon="10.226644"><ele>404.0</ele><time>2026-04-12T12:53:24.951Z</time></trkpt><trkpt lat="44.6548585" lon="10.2265522"><ele>402.75</ele><time>2026-04-12T12:53:25.95Z</time></trkpt><trkpt lat="44.6547614" lon="10.2264543"><ele>401.5</ele><time>2026-04-12T12:53:26.951Z</time></trkpt><trkpt lat="44.6546592" lon="10.2263534"><ele>400.25</ele><time>2026-04-12T12:53:27.95Z</time></trkpt><trkpt lat="44.6545581" lon="10.2262549"><ele>399.0</ele><time>2026-04-12T12:53:28.95Z</time></trkpt><trkpt lat="44.6544468" lon="10.2261578"><ele>399.0</ele><time>2026-04-12T12:53:29.95Z</time></trkpt><trkpt lat="44.6543332" lon="10.2260563"><ele>399.0</ele><time>2026-04-12T12:53:30.95Z</time></trkpt><trkpt lat="44.6542238" lon="10.2259465"><ele>399.0</ele><time>2026-04-12T12:53:31.95Z</time></trkpt><trkpt lat="44.6541137" lon="10.2258195"><ele>399.0</ele><time>2026-04-12T12:53:32.951Z</time></trkpt><trkpt lat="44.6540028" lon="10.2256869"><ele>400.25</ele><time>2026-04-12T12:53:33.95Z</time></trkpt><trkpt lat="44.6538993" lon="10.2255643"><ele>401.5</ele><time>2026-04-12T12:53:34.95Z</time></trkpt><trkpt lat="44.6537936" lon="10.2254604"><ele>402.75</ele><time>2026-04-12T12:53:35.951Z</time></trkpt><trkpt lat="44.6536874" lon="10.2253776"><ele>404.0</ele><time>2026-04-12T12:53:36.95Z</time></trkpt><trkpt lat="44.6535669" lon="10.22531"><ele>404.0</ele><time>2026-04-12T12:53:37.95Z</time></trkpt><trkpt lat="44.6534421" lon="10.2252616"><ele>404.0</ele><time>2026-04-12T12:53:38.951Z</time></trkpt><trkpt lat="44.6533099" lon="10.2252263"><ele>404.0</ele><time>2026-04-12T12:53:39.951Z</time></trkpt><trkpt lat="44.6531855" lon="10.2252002"><ele>404.0</ele><time>2026-04-12T12:53:40.951Z</time></trkpt><trkpt lat="44.6530687" lon="10.2251857"><ele>404.0</ele><time>2026-04-12T12:53:41.951Z</time></trkpt><trkpt lat="44.6529552" lon="10.2251823"><ele>404.0</ele><time>2026-04-12T12:53:42.95Z</time></trkpt><trkpt lat="44.6528551" lon="10.2251708"><ele>404.0</ele><time>2026-04-12T12:53:43.951Z</time></trkpt><trkpt lat="44.6527658" lon="10.2251371"><ele>404.0</ele><time>2026-04-12T12:53:44.95Z</time></trkpt><trkpt lat="44.6526983" lon="10.2250511"><ele>404.0</ele><time>2026-04-12T12:53:45.951Z</time></trkpt><trkpt lat="44.6526458" lon="10.2249333"><ele>401.25</ele><time>2026-04-12T12:53:46.95Z</time></trkpt><trkpt lat="44.6525907" lon="10.2248047"><ele>398.5</ele><time>2026-04-12T12:53:47.95Z</time></trkpt><trkpt lat="44.6525339" lon="10.2246592"><ele>395.75</ele><time>2026-04-12T12:53:48.95Z</time></trkpt><trkpt lat="44.6524783" lon="10.2245009"><ele>393.0</ele><time>2026-04-12T12:53:49.95Z</time></trkpt><trkpt lat="44.6524197" lon="10.2243325"><ele>393.0</ele><time>2026-04-12T12:53:50.951Z</time></trkpt><trkpt lat="44.6523565" lon="10.2241536"><ele>393.0</ele><time>2026-04-12T12:53:51.95Z</time></trkpt><trkpt lat="44.6522918" lon="10.2239709"><ele>393.0</ele><time>2026-04-12T12:53:52.951Z</time></trkpt><trkpt lat="44.652237" lon="10.2237895"><ele>393.0</ele><time>2026-04-12T12:53:53.95Z</time></trkpt><trkpt lat="44.652187" lon="10.2236079"><ele>392.75</ele><time>2026-04-12T12:53:54.951Z</time></trkpt><trkpt lat="44.652134" lon="10.2234333"><ele>392.5</ele><time>2026-04-12T12:53:55.951Z</time></trkpt><trkpt lat="44.65207" lon="10.2232763"><ele>392.25</ele><time>2026-04-12T12:53:56.951Z</time></trkpt><trkpt lat="44.6519956" lon="10.2231449"><ele>392.0</ele><time>2026-04-12T12:53:57.951Z</time></trkpt><trkpt lat="44.6519168" lon="10.2230335"><ele>389.99999999999994</ele><time>2026-04-12T12:53:58.95Z</time></trkpt><trkpt lat="44.6518453" lon="10.2229307"><ele>388.0</ele><time>2026-04-12T12:53:59.949Z</time></trkpt><trkpt lat="44.6517789" lon="10.2228364"><ele>386.0</ele><time>2026-04-12T12:54:00.95Z</time></trkpt><trkpt lat="44.6517177" lon="10.2227513"><ele>384.0</ele><time>2026-04-12T12:54:01.95Z</time></trkpt><trkpt lat="44.6516539" lon="10.2226947"><ele>382.0</ele><time>2026-04-12T12:54:02.951Z</time></trkpt><trkpt lat="44.6515924" lon="10.2226606"><ele>380.0</ele><time>2026-04-12T12:54:03.95Z</time></trkpt><trkpt lat="44.6515216" lon="10.2226335"><ele>380.0</ele><time>2026-04-12T12:54:04.95Z</time></trkpt><trkpt lat="44.6514505" lon="10.2226193"><ele>380.0</ele><time>2026-04-12T12:54:05.951Z</time></trkpt><trkpt lat="44.6513666" lon="10.2226025"><ele>380.0</ele><time>2026-04-12T12:54:06.95Z</time></trkpt><trkpt lat="44.6512698" lon="10.2225924"><ele>380.0</ele><time>2026-04-12T12:54:07.951Z</time></trkpt><trkpt lat="44.6511652" lon="10.222566"><ele>380.0</ele><time>2026-04-12T12:54:08.951Z</time></trkpt><trkpt lat="44.6510505" lon="10.2225287"><ele>379.75</ele><time>2026-04-12T12:54:09.95Z</time></trkpt><trkpt lat="44.6509304" lon="10.2224832"><ele>379.5</ele><time>2026-04-12T12:54:10.95Z</time></trkpt><trkpt lat="44.6508055" lon="10.222413"><ele>379.25</ele><time>2026-04-12T12:54:11.951Z</time></trkpt><trkpt lat="44.6506848" lon="10.2223188"><ele>379.0</ele><time>2026-04-12T12:54:12.951Z</time></trkpt><trkpt lat="44.6505679" lon="10.2222439"><ele>379.0</ele><time>2026-04-12T12:54:13.951Z</time></trkpt><trkpt lat="44.6504461" lon="10.2221719"><ele>379.0</ele><time>2026-04-12T12:54:14.95Z</time></trkpt><trkpt lat="44.650312" lon="10.2220891"><ele>379.0</ele><time>2026-04-12T12:54:15.95Z</time></trkpt><trkpt lat="44.6501828" lon="10.2220102"><ele>379.0</ele><time>2026-04-12T12:54:16.949Z</time></trkpt><trkpt lat="44.6500464" lon="10.2219284"><ele>381.75</ele><time>2026-04-12T12:54:17.95Z</time></trkpt><trkpt lat="44.6499059" lon="10.2218542"><ele>384.5</ele><time>2026-04-12T12:54:18.951Z</time></trkpt><trkpt lat="44.6497814" lon="10.2217916"><ele>387.25</ele><time>2026-04-12T12:54:19.949Z</time></trkpt><trkpt lat="44.6496531" lon="10.2217305"><ele>390.0</ele><time>2026-04-12T12:54:20.951Z</time></trkpt><trkpt lat="44.6495216" lon="10.2216685"><ele>392.25</ele><time>2026-04-12T12:54:21.951Z</time></trkpt><trkpt lat="44.6493826" lon="10.2216285"><ele>394.5</ele><time>2026-04-12T12:54:22.951Z</time></trkpt><trkpt lat="44.6492465" lon="10.2215847"><ele>396.75</ele><time>2026-04-12T12:54:23.95Z</time></trkpt><trkpt lat="44.6491261" lon="10.2215684"><ele>399.0</ele><time>2026-04-12T12:54:24.951Z</time></trkpt><trkpt lat="44.6490191" lon="10.2215666"><ele>399.0</ele><time>2026-04-12T12:54:25.95Z</time></trkpt><trkpt lat="44.6489235" lon="10.2215716"><ele>399.0</ele><time>2026-04-12T12:54:26.95Z</time></trkpt><trkpt lat="44.6488525" lon="10.2216064"><ele>399.0</ele><time>2026-04-12T12:54:27.95Z</time></trkpt><trkpt lat="44.6488" lon="10.221662"><ele>399.0</ele><time>2026-04-12T12:54:28.95Z</time></trkpt><trkpt lat="44.6487566" lon="10.2217347"><ele>399.0</ele><time>2026-04-12T12:54:29.95Z</time></trkpt><trkpt lat="44.6487272" lon="10.2218185"><ele>399.0</ele><time>2026-04-12T12:54:30.949Z</time></trkpt><trkpt lat="44.6486988" lon="10.2219272"><ele>399.0</ele><time>2026-04-12T12:54:31.95Z</time></trkpt><trkpt lat="44.6486633" lon="10.2220423"><ele>399.0</ele><time>2026-04-12T12:54:32.951Z</time></trkpt><trkpt lat="44.6486126" lon="10.2221471"><ele>399.0</ele><time>2026-04-12T12:54:33.951Z</time></trkpt><trkpt lat="44.6485402" lon="10.2222443"><ele>399.0</ele><time>2026-04-12T12:54:34.95Z</time></trkpt><trkpt lat="44.648451" lon="10.2223352"><ele>399.0</ele><time>2026-04-12T12:54:35.95Z</time></trkpt><trkpt lat="44.6483561" lon="10.2224333"><ele>399.75</ele><time>2026-04-12T12:54:36.95Z</time></trkpt><trkpt lat="44.6482576" lon="10.2225433"><ele>400.5</ele><time>2026-04-12T12:54:37.951Z</time></trkpt><trkpt lat="44.648167" lon="10.2226491"><ele>401.25</ele><time>2026-04-12T12:54:38.95Z</time></trkpt><trkpt lat="44.6480803" lon="10.2227712"><ele>402.0</ele><time>2026-04-12T12:54:39.95Z</time></trkpt><trkpt lat="44.6479916" lon="10.2228884"><ele>402.0</ele><time>2026-04-12T12:54:40.95Z</time></trkpt><trkpt lat="44.6478968" lon="10.2229892"><ele>402.0</ele><time>2026-04-12T12:54:41.949Z</time></trkpt><trkpt lat="44.6477908" lon="10.2230748"><ele>402.0</ele><time>2026-04-12T12:54:42.95Z</time></trkpt><trkpt lat="44.6476761" lon="10.2231385"><ele>402.0</ele><time>2026-04-12T12:54:43.95Z</time></trkpt><trkpt lat="44.6475614" lon="10.2231942"><ele>403.5</ele><time>2026-04-12T12:54:44.951Z</time></trkpt><trkpt lat="44.6474442" lon="10.2232508"><ele>405.0</ele><time>2026-04-12T12:54:45.951Z</time></trkpt><trkpt lat="44.6473263" lon="10.2232954"><ele>406.5</ele><time>2026-04-12T12:54:46.95Z</time></trkpt><trkpt lat="44.6472115" lon="10.2233368"><ele>408.0</ele><time>2026-04-12T12:54:47.951Z</time></trkpt><trkpt lat="44.647086" lon="10.2233789"><ele>407.25</ele><time>2026-04-12T12:54:48.951Z</time></trkpt><trkpt lat="44.6469568" lon="10.2234348"><ele>406.5</ele><time>2026-04-12T12:54:49.95Z</time></trkpt><trkpt lat="44.6468235" lon="10.2235059"><ele>405.75</ele><time>2026-04-12T12:54:50.951Z</time></trkpt><trkpt lat="44.6466864" lon="10.2235805"><ele>405.0</ele><time>2026-04-12T12:54:51.951Z</time></trkpt><trkpt lat="44.646549" lon="10.2236394"><ele>405.0</ele><time>2026-04-12T12:54:52.951Z</time></trkpt><trkpt lat="44.6464091" lon="10.2236613"><ele>405.0</ele><time>2026-04-12T12:54:53.951Z</time></trkpt><trkpt lat="44.646269" lon="10.2236708"><ele>405.0</ele><time>2026-04-12T12:54:54.951Z</time></trkpt><trkpt lat="44.64612" lon="10.2236726"><ele>405.0</ele><time>2026-04-12T12:54:55.95Z</time></trkpt><trkpt lat="44.6459723" lon="10.2236668"><ele>403.75</ele><time>2026-04-12T12:54:56.951Z</time></trkpt><trkpt lat="44.6458375" lon="10.2236624"><ele>402.5</ele><time>2026-04-12T12:54:57.95Z</time></trkpt><trkpt lat="44.6457099" lon="10.2236652"><ele>401.25</ele><time>2026-04-12T12:54:58.95Z</time></trkpt><trkpt lat="44.6456012" lon="10.2236912"><ele>400.0</ele><time>2026-04-12T12:54:59.95Z</time></trkpt><trkpt lat="44.6454745" lon="10.2237153"><ele>400.0</ele><time>2026-04-12T12:55:00.949Z</time></trkpt><trkpt lat="44.6453727" lon="10.2238166"><ele>400.0</ele><time>2026-04-12T12:55:01.951Z</time></trkpt><trkpt lat="44.6452598" lon="10.2238898"><ele>400.0</ele><time>2026-04-12T12:55:02.949Z</time></trkpt><trkpt lat="44.645142" lon="10.2239636"><ele>400.0</ele><time>2026-04-12T12:55:03.949Z</time></trkpt><trkpt lat="44.645029" lon="10.2240261"><ele>404.0</ele><time>2026-04-12T12:55:04.95Z</time></trkpt><trkpt lat="44.6449121" lon="10.2240763"><ele>408.0</ele><time>2026-04-12T12:55:05.949Z</time></trkpt><trkpt lat="44.6447879" lon="10.2241177"><ele>412.0</ele><time>2026-04-12T12:55:06.951Z</time></trkpt><trkpt lat="44.6446634" lon="10.2241647"><ele>416.0</ele><time>2026-04-12T12:55:07.95Z</time></trkpt><trkpt lat="44.6445437" lon="10.2242446"><ele>415.75</ele><time>2026-04-12T12:55:08.951Z</time></trkpt><trkpt lat="44.644433" lon="10.2243405"><ele>415.5</ele><time>2026-04-12T12:55:09.95Z</time></trkpt><trkpt lat="44.6443284" lon="10.2244584"><ele>415.25</ele><time>2026-04-12T12:55:10.95Z</time></trkpt><trkpt lat="44.6442112" lon="10.2245806"><ele>415.0</ele><time>2026-04-12T12:55:11.95Z</time></trkpt><trkpt lat="44.6440986" lon="10.2247137"><ele>415.0</ele><time>2026-04-12T12:55:12.951Z</time></trkpt><trkpt lat="44.6439797" lon="10.224854"><ele>415.0</ele><time>2026-04-12T12:55:13.95Z</time></trkpt><trkpt lat="44.6438552" lon="10.2249972"><ele>415.0</ele><time>2026-04-12T12:55:14.95Z</time></trkpt><trkpt lat="44.6437307" lon="10.2251368"><ele>413.6666666666667</ele><time>2026-04-12T12:55:15.95Z</time></trkpt><trkpt lat="44.6436071" lon="10.225277"><ele>412.33333333333337</ele><time>2026-04-12T12:55:16.951Z</time></trkpt><trkpt lat="44.6434866" lon="10.2254136"><ele>411.0</ele><time>2026-04-12T12:55:17.951Z</time></trkpt><trkpt lat="44.6433627" lon="10.2255515"><ele>412.0</ele><time>2026-04-12T12:55:18.95Z</time></trkpt><trkpt lat="44.6432434" lon="10.2256909"><ele>413.0</ele><time>2026-04-12T12:55:19.949Z</time></trkpt><trkpt lat="44.6431244" lon="10.2258328"><ele>414.0</ele><time>2026-04-12T12:55:20.95Z</time></trkpt><trkpt lat="44.643005" lon="10.2259705"><ele>414.0</ele><time>2026-04-12T12:55:21.951Z</time></trkpt><trkpt lat="44.6428796" lon="10.2260902"><ele>414.0</ele><time>2026-04-12T12:55:22.95Z</time></trkpt><trkpt lat="44.6427467" lon="10.2261747"><ele>414.0</ele><time>2026-04-12T12:55:23.951Z</time></trkpt><trkpt lat="44.6426037" lon="10.2262323"><ele>414.0</ele><time>2026-04-12T12:55:24.95Z</time></trkpt><trkpt lat="44.6424537" lon="10.2262691"><ele>416.33333333333337</ele><time>2026-04-12T12:55:25.951Z</time></trkpt><trkpt lat="44.6423005" lon="10.2263047"><ele>418.6666666666667</ele><time>2026-04-12T12:55:26.951Z</time></trkpt><trkpt lat="44.642148" lon="10.2263444"><ele>421.0</ele><time>2026-04-12T12:55:27.95Z</time></trkpt><trkpt lat="44.6419993" lon="10.226384"><ele>419.0</ele><time>2026-04-12T12:55:28.951Z</time></trkpt><trkpt lat="44.6418494" lon="10.2264097"><ele>417.0</ele><time>2026-04-12T12:55:29.95Z</time></trkpt><trkpt lat="44.6416927" lon="10.2264183"><ele>415.0</ele><time>2026-04-12T12:55:30.951Z</time></trkpt><trkpt lat="44.6415349" lon="10.2264088"><ele>415.0</ele><time>2026-04-12T12:55:31.949Z</time></trkpt><trkpt lat="44.6413758" lon="10.2263949"><ele>415.0</ele><time>2026-04-12T12:55:32.951Z</time></trkpt><trkpt lat="44.6412147" lon="10.2263771"><ele>415.0</ele><time>2026-04-12T12:55:33.951Z</time></trkpt><trkpt lat="44.6410526" lon="10.2263694"><ele>416.0</ele><time>2026-04-12T12:55:34.95Z</time></trkpt><trkpt lat="44.6408912" lon="10.2263774"><ele>417.0</ele><time>2026-04-12T12:55:35.95Z</time></trkpt><trkpt lat="44.6407281" lon="10.2264002"><ele>418.0</ele><time>2026-04-12T12:55:36.95Z</time></trkpt><trkpt lat="44.640566" lon="10.2264322"><ele>418.0</ele><time>2026-04-12T12:55:37.95Z</time></trkpt><trkpt lat="44.6404039" lon="10.2264628"><ele>418.0</ele><time>2026-04-12T12:55:38.95Z</time></trkpt><trkpt lat="44.6402426" lon="10.2264923"><ele>418.0</ele><time>2026-04-12T12:55:39.951Z</time></trkpt><trkpt lat="44.6400819" lon="10.226517"><ele>422.33333333333337</ele><time>2026-04-12T12:55:40.95Z</time></trkpt><trkpt lat="44.6399191" lon="10.226538"><ele>426.66666666666663</ele><time>2026-04-12T12:55:41.951Z</time></trkpt><trkpt lat="44.6397547" lon="10.22656"><ele>431.0</ele><time>2026-04-12T12:55:42.951Z</time></trkpt><trkpt lat="44.6395929" lon="10.2265878"><ele>433.0</ele><time>2026-04-12T12:55:43.95Z</time></trkpt><trkpt lat="44.6394301" lon="10.2266232"><ele>435.0</ele><time>2026-04-12T12:55:44.95Z</time></trkpt><trkpt lat="44.6392703" lon="10.2266684"><ele>437.0</ele><time>2026-04-12T12:55:45.95Z</time></trkpt><trkpt lat="44.6391109" lon="10.2267197"><ele>437.0</ele><time>2026-04-12T12:55:46.951Z</time></trkpt><trkpt lat="44.6389492" lon="10.2267681"><ele>437.0</ele><time>2026-04-12T12:55:47.951Z</time></trkpt><trkpt lat="44.6387899" lon="10.2268198"><ele>437.0</ele><time>2026-04-12T12:55:48.949Z</time></trkpt><trkpt lat="44.6386295" lon="10.2268667"><ele>437.3333333333333</ele><time>2026-04-12T12:55:49.95Z</time></trkpt><trkpt lat="44.6384713" lon="10.2268944"><ele>437.66666666666663</ele><time>2026-04-12T12:55:50.951Z</time></trkpt><trkpt lat="44.6383169" lon="10.2268754"><ele>438.0</ele><time>2026-04-12T12:55:51.951Z</time></trkpt><trkpt lat="44.6381638" lon="10.2268354"><ele>438.0</ele><time>2026-04-12T12:55:52.95Z</time></trkpt><trkpt lat="44.6380099" lon="10.2267852"><ele>438.0</ele><time>2026-04-12T12:55:53.951Z</time></trkpt><trkpt lat="44.6378569" lon="10.2267511"><ele>438.0</ele><time>2026-04-12T12:55:54.951Z</time></trkpt><trkpt lat="44.637707" lon="10.2267212"><ele>439.0</ele><time>2026-04-12T12:55:55.949Z</time></trkpt><trkpt lat="44.6375538" lon="10.2266953"><ele>440.0</ele><time>2026-04-12T12:55:56.95Z</time></trkpt><trkpt lat="44.6373994" lon="10.226678"><ele>441.0</ele><time>2026-04-12T12:55:57.95Z</time></trkpt><trkpt lat="44.637244" lon="10.2266539"><ele>441.0</ele><time>2026-04-12T12:55:58.95Z</time></trkpt><trkpt lat="44.6370943" lon="10.2266232"><ele>441.0</ele><time>2026-04-12T12:55:59.951Z</time></trkpt><trkpt lat="44.6369579" lon="10.2265896"><ele>441.0</ele><time>2026-04-12T12:56:00.951Z</time></trkpt><trkpt lat="44.636837" lon="10.2265535"><ele>441.0</ele><time>2026-04-12T12:56:01.95Z</time></trkpt><trkpt lat="44.6367312" lon="10.226528"><ele>440.8</ele><time>2026-04-12T12:56:02.949Z</time></trkpt><trkpt lat="44.6366332" lon="10.2265013"><ele>440.6</ele><time>2026-04-12T12:56:03.949Z</time></trkpt><trkpt lat="44.6365371" lon="10.2264696"><ele>440.4</ele><time>2026-04-12T12:56:04.951Z</time></trkpt><trkpt lat="44.6364411" lon="10.2264288"><ele>440.2</ele><time>2026-04-12T12:56:05.95Z</time></trkpt><trkpt lat="44.6363433" lon="10.2263915"><ele>440.0</ele><time>2026-04-12T12:56:06.949Z</time></trkpt><trkpt lat="44.6362521" lon="10.2263532"><ele>439.99999999999994</ele><time>2026-04-12T12:56:07.951Z</time></trkpt><trkpt lat="44.6361712" lon="10.2263232"><ele>440.0</ele><time>2026-04-12T12:56:08.95Z</time></trkpt><trkpt lat="44.6360969" lon="10.2263037"><ele>440.0</ele><time>2026-04-12T12:56:09.951Z</time></trkpt><trkpt lat="44.6360079" lon="10.2263104"><ele>440.0</ele><time>2026-04-12T12:56:10.951Z</time></trkpt><trkpt lat="44.6359281" lon="10.2263209"><ele>439.99999999999994</ele><time>2026-04-12T12:56:11.95Z</time></trkpt><trkpt lat="44.635846" lon="10.2263721"><ele>440.0</ele><time>2026-04-12T12:56:12.951Z</time></trkpt><trkpt lat="44.6357289" lon="10.2264543"><ele>443.25</ele><time>2026-04-12T12:56:13.95Z</time></trkpt><trkpt lat="44.6356174" lon="10.2264998"><ele>446.5</ele><time>2026-04-12T12:56:14.95Z</time></trkpt><trkpt lat="44.6355095" lon="10.2265723"><ele>449.75</ele><time>2026-04-12T12:56:15.95Z</time></trkpt><trkpt lat="44.6353918" lon="10.2266323"><ele>453.0</ele><time>2026-04-12T12:56:16.95Z</time></trkpt><trkpt lat="44.635279" lon="10.2266803"><ele>454.5</ele><time>2026-04-12T12:56:17.95Z</time></trkpt><trkpt lat="44.6351553" lon="10.2267468"><ele>456.0</ele><time>2026-04-12T12:56:18.949Z</time></trkpt><trkpt lat="44.6350357" lon="10.2268038"><ele>457.5</ele><time>2026-04-12T12:56:19.951Z</time></trkpt><trkpt lat="44.6349065" lon="10.2268472"><ele>459.0</ele><time>2026-04-12T12:56:20.95Z</time></trkpt><trkpt lat="44.6347926" lon="10.2268963"><ele>459.0</ele><time>2026-04-12T12:56:21.951Z</time></trkpt><trkpt lat="44.634688" lon="10.2269169"><ele>459.0</ele><time>2026-04-12T12:56:22.95Z</time></trkpt><trkpt lat="44.6346032" lon="10.2269572"><ele>459.0</ele><time>2026-04-12T12:56:23.949Z</time></trkpt><trkpt lat="44.6345239" lon="10.2269919"><ele>459.0</ele><time>2026-04-12T12:56:24.951Z</time></trkpt><trkpt lat="44.6344431" lon="10.227024"><ele>459.0</ele><time>2026-04-12T12:56:25.95Z</time></trkpt><trkpt lat="44.6343544" lon="10.2270641"><ele>459.0</ele><time>2026-04-12T12:56:26.951Z</time></trkpt><trkpt lat="44.6342525" lon="10.2271054"><ele>459.0</ele><time>2026-04-12T12:56:27.95Z</time></trkpt><trkpt lat="44.6341443" lon="10.2271515"><ele>459.0</ele><time>2026-04-12T12:56:28.951Z</time></trkpt><trkpt lat="44.6340302" lon="10.2271968"><ele>459.0</ele><time>2026-04-12T12:56:29.951Z</time></trkpt><trkpt lat="44.6339124" lon="10.2272432"><ele>459.0</ele><time>2026-04-12T12:56:30.951Z</time></trkpt><trkpt lat="44.6337929" lon="10.22727"><ele>459.0</ele><time>2026-04-12T12:56:31.95Z</time></trkpt><trkpt lat="44.6336755" lon="10.2272673"><ele>459.0</ele><time>2026-04-12T12:56:32.951Z</time></trkpt><trkpt lat="44.6335513" lon="10.2272278"><ele>459.0</ele><time>2026-04-12T12:56:33.951Z</time></trkpt><trkpt lat="44.6334367" lon="10.227175"><ele>459.5</ele><time>2026-04-12T12:56:34.951Z</time></trkpt><trkpt lat="44.6333219" lon="10.2271219"><ele>460.0</ele><time>2026-04-12T12:56:35.951Z</time></trkpt><trkpt lat="44.6332014" lon="10.2270687"><ele>460.5</ele><time>2026-04-12T12:56:36.95Z</time></trkpt><trkpt lat="44.6330799" lon="10.2270233"><ele>461.0</ele><time>2026-04-12T12:56:37.951Z</time></trkpt><trkpt lat="44.6329548" lon="10.2269782"><ele>461.0</ele><time>2026-04-12T12:56:38.951Z</time></trkpt><trkpt lat="44.6328274" lon="10.22693"><ele>461.0</ele><time>2026-04-12T12:56:39.95Z</time></trkpt><trkpt lat="44.6326957" lon="10.2268816"><ele>461.0</ele><time>2026-04-12T12:56:40.95Z</time></trkpt><trkpt lat="44.63256" lon="10.2268418"><ele>461.0</ele><time>2026-04-12T12:56:41.95Z</time></trkpt><trkpt lat="44.6324212" lon="10.2267913"><ele>464.0</ele><time>2026-04-12T12:56:42.95Z</time></trkpt><trkpt lat="44.6322896" lon="10.2267392"><ele>467.0</ele><time>2026-04-12T12:56:43.951Z</time></trkpt><trkpt lat="44.6321527" lon="10.2266882"><ele>470.0</ele><time>2026-04-12T12:56:44.951Z</time></trkpt><trkpt lat="44.6320259" lon="10.2266383"><ele>473.0</ele><time>2026-04-12T12:56:45.95Z</time></trkpt><trkpt lat="44.6319029" lon="10.2265889"><ele>475.4</ele><time>2026-04-12T12:56:46.95Z</time></trkpt><trkpt lat="44.6317896" lon="10.2265444"><ele>477.79999999999995</ele><time>2026-04-12T12:56:47.95Z</time></trkpt><trkpt lat="44.631695" lon="10.2265144"><ele>480.2</ele><time>2026-04-12T12:56:48.949Z</time></trkpt><trkpt lat="44.6316122" lon="10.2264949"><ele>482.6</ele><time>2026-04-12T12:56:49.951Z</time></trkpt><trkpt lat="44.6315295" lon="10.2265008"><ele>485.0</ele><time>2026-04-12T12:56:50.951Z</time></trkpt><trkpt lat="44.6314396" lon="10.2265158"><ele>485.0</ele><time>2026-04-12T12:56:51.95Z</time></trkpt><trkpt lat="44.6313487" lon="10.2265526"><ele>485.0</ele><time>2026-04-12T12:56:52.95Z</time></trkpt><trkpt lat="44.6312488" lon="10.2265786"><ele>485.0</ele><time>2026-04-12T12:56:53.949Z</time></trkpt><trkpt lat="44.6311618" lon="10.2266005"><ele>485.0</ele><time>2026-04-12T12:56:54.95Z</time></trkpt><trkpt lat="44.6310756" lon="10.2266104"><ele>485.0</ele><time>2026-04-12T12:56:55.951Z</time></trkpt><trkpt lat="44.6309965" lon="10.2266308"><ele>485.6</ele><time>2026-04-12T12:56:56.951Z</time></trkpt><trkpt lat="44.6309112" lon="10.2266612"><ele>486.2</ele><time>2026-04-12T12:56:57.95Z</time></trkpt><trkpt lat="44.6308236" lon="10.2267079"><ele>486.79999999999995</ele><time>2026-04-12T12:56:58.951Z</time></trkpt><trkpt lat="44.6307367" lon="10.2267499"><ele>487.4</ele><time>2026-04-12T12:56:59.95Z</time></trkpt><trkpt lat="44.6306294" lon="10.2268223"><ele>488.0</ele><time>2026-04-12T12:57:00.95Z</time></trkpt><trkpt lat="44.630529" lon="10.226887"><ele>488.0</ele><time>2026-04-12T12:57:01.95Z</time></trkpt><trkpt lat="44.6304282" lon="10.2269381"><ele>487.99999999999994</ele><time>2026-04-12T12:57:02.951Z</time></trkpt><trkpt lat="44.6303318" lon="10.2269942"><ele>487.99999999999994</ele><time>2026-04-12T12:57:03.95Z</time></trkpt><trkpt lat="44.6302364" lon="10.2270479"><ele>488.0</ele><time>2026-04-12T12:57:04.95Z</time></trkpt><trkpt lat="44.6301539" lon="10.2271035"><ele>488.0</ele><time>2026-04-12T12:57:05.95Z</time></trkpt><trkpt lat="44.6300724" lon="10.2271618"><ele>488.16666666666663</ele><time>2026-04-12T12:57:06.95Z</time></trkpt><trkpt lat="44.6299937" lon="10.2272136"><ele>488.3333333333333</ele><time>2026-04-12T12:57:07.95Z</time></trkpt><trkpt lat="44.6299098" lon="10.2272636"><ele>488.5</ele><time>2026-04-12T12:57:08.95Z</time></trkpt><trkpt lat="44.6298262" lon="10.2273054"><ele>488.66666666666663</ele><time>2026-04-12T12:57:09.951Z</time></trkpt><trkpt lat="44.6297486" lon="10.227344"><ele>488.8333333333333</ele><time>2026-04-12T12:57:10.95Z</time></trkpt><trkpt lat="44.629666" lon="10.22738"><ele>489.0</ele><time>2026-04-12T12:57:11.951Z</time></trkpt><trkpt lat="44.6295757" lon="10.2274267"><ele>490.6</ele><time>2026-04-12T12:57:12.95Z</time></trkpt><trkpt lat="44.6294831" lon="10.2274742"><ele>492.2</ele><time>2026-04-12T12:57:13.951Z</time></trkpt><trkpt lat="44.6293905" lon="10.2275194"><ele>493.80000000000007</ele><time>2026-04-12T12:57:14.949Z</time></trkpt><trkpt lat="44.6293041" lon="10.2275691"><ele>495.40000000000003</ele><time>2026-04-12T12:57:15.95Z</time></trkpt><trkpt lat="44.6292191" lon="10.2276226"><ele>497.0</ele><time>2026-04-12T12:57:16.951Z</time></trkpt><trkpt lat="44.6291426" lon="10.2276758"><ele>497.99999999999994</ele><time>2026-04-12T12:57:17.95Z</time></trkpt><trkpt lat="44.6290752" lon="10.2277351"><ele>499.0</ele><time>2026-04-12T12:57:18.951Z</time></trkpt><trkpt lat="44.6290099" lon="10.2277995"><ele>500.0</ele><time>2026-04-12T12:57:19.949Z</time></trkpt><trkpt lat="44.6289457" lon="10.2278765"><ele>501.0</ele><time>2026-04-12T12:57:20.951Z</time></trkpt><trkpt lat="44.6288743" lon="10.2279629"><ele>501.99999999999994</ele><time>2026-04-12T12:57:21.951Z</time></trkpt><trkpt lat="44.6288097" lon="10.2280295"><ele>503.0</ele><time>2026-04-12T12:57:22.951Z</time></trkpt><trkpt lat="44.6287429" lon="10.2280669"><ele>505.79999999999995</ele><time>2026-04-12T12:57:23.949Z</time></trkpt><trkpt lat="44.6286318" lon="10.2280791"><ele>508.59999999999997</ele><time>2026-04-12T12:57:25.951Z</time></trkpt><trkpt lat="44.6285501" lon="10.22808"><ele>511.40000000000003</ele><time>2026-04-12T12:57:27.951Z</time></trkpt><trkpt lat="44.62847" lon="10.2280906"><ele>514.2</ele><time>2026-04-12T12:57:29.951Z</time></trkpt><trkpt lat="44.6283744" lon="10.2281489"><ele>517.0</ele><time>2026-04-12T12:57:31.95Z</time></trkpt><trkpt lat="44.6283015" lon="10.2282464"><ele>517.0</ele><time>2026-04-12T12:57:33.95Z</time></trkpt><trkpt lat="44.6282078" lon="10.2282422"><ele>517.0</ele><time>2026-04-12T12:57:36.949Z</time></trkpt><trkpt lat="44.6281328" lon="10.2281684"><ele>517.0</ele><time>2026-04-12T12:57:38.951Z</time></trkpt><trkpt lat="44.6280495" lon="10.2280766"><ele>517.0</ele><time>2026-04-12T12:57:40.951Z</time></trkpt><trkpt lat="44.6279517" lon="10.2280154"><ele>517.0</ele><time>2026-04-12T12:57:42.951Z</time></trkpt><trkpt lat="44.6278909" lon="10.2279876"><ele>519.8333333333334</ele><time>2026-04-12T12:57:43.951Z</time></trkpt><trkpt lat="44.6277733" lon="10.2279309"><ele>522.6666666666667</ele><time>2026-04-12T12:57:45.951Z</time></trkpt><trkpt lat="44.6277073" lon="10.2278956"><ele>525.5</ele><time>2026-04-12T12:57:46.95Z</time></trkpt><trkpt lat="44.6276395" lon="10.2278509"><ele>528.3333333333334</ele><time>2026-04-12T12:57:47.95Z</time></trkpt><trkpt lat="44.6275725" lon="10.2278089"><ele>531.1666666666666</ele><time>2026-04-12T12:57:48.95Z</time></trkpt><trkpt lat="44.6274996" lon="10.2277645"><ele>534.0</ele><time>2026-04-12T12:57:49.951Z</time></trkpt><trkpt lat="44.6274359" lon="10.2277182"><ele>534.0</ele><time>2026-04-12T12:57:50.95Z</time></trkpt><trkpt lat="44.6273638" lon="10.2276673"><ele>534.0</ele><time>2026-04-12T12:57:52.949Z</time></trkpt><trkpt lat="44.6272923" lon="10.2276534"><ele>534.0</ele><time>2026-04-12T12:58:04.95Z</time></trkpt><trkpt lat="44.6271959" lon="10.2275996"><ele>534.0</ele><time>2026-04-12T12:58:06.95Z</time></trkpt><trkpt lat="44.6271014" lon="10.2275645"><ele>534.0</ele><time>2026-04-12T12:58:08.951Z</time></trkpt><trkpt lat="44.6270188" lon="10.2275834"><ele>534.0</ele><time>2026-04-12T12:58:10.95Z</time></trkpt><trkpt lat="44.6269038" lon="10.2276219"><ele>537.6</ele><time>2026-04-12T12:58:12.951Z</time></trkpt><trkpt lat="44.6267811" lon="10.2276253"><ele>541.2</ele><time>2026-04-12T12:58:14.951Z</time></trkpt><trkpt lat="44.626667" lon="10.2276514"><ele>544.8000000000001</ele><time>2026-04-12T12:58:16.951Z</time></trkpt><trkpt lat="44.6266011" lon="10.2276525"><ele>548.4</ele><time>2026-04-12T12:58:17.95Z</time></trkpt><trkpt lat="44.6265359" lon="10.2276511"><ele>552.0</ele><time>2026-04-12T12:58:18.951Z</time></trkpt><trkpt lat="44.6264174" lon="10.2276257"><ele>552.0</ele><time>2026-04-12T12:58:20.95Z</time></trkpt><trkpt lat="44.6263141" lon="10.2275423"><ele>552.0</ele><time>2026-04-12T12:58:22.95Z</time></trkpt><trkpt lat="44.6262212" lon="10.2274266"><ele>552.0</ele><time>2026-04-12T12:58:24.95Z</time></trkpt><trkpt lat="44.6261709" lon="10.2273497"><ele>552.0</ele><time>2026-04-12T12:58:25.951Z</time></trkpt><trkpt lat="44.6261112" lon="10.2272737"><ele>552.0</ele><time>2026-04-12T12:58:26.951Z</time></trkpt><trkpt lat="44.6260596" lon="10.2271989"><ele>553.4285714285714</ele><time>2026-04-12T12:58:27.951Z</time></trkpt><trkpt lat="44.6260053" lon="10.2271297"><ele>554.8571428571429</ele><time>2026-04-12T12:58:28.951Z</time></trkpt><trkpt lat="44.6258995" lon="10.2270651"><ele>556.2857142857143</ele><time>2026-04-12T12:58:30.951Z</time></trkpt><trkpt lat="44.6258365" lon="10.2270511"><ele>557.7142857142858</ele><time>2026-04-12T12:58:31.951Z</time></trkpt><trkpt lat="44.6257742" lon="10.2270287"><ele>559.1428571428571</ele><time>2026-04-12T12:58:32.951Z</time></trkpt><trkpt lat="44.6257137" lon="10.2269904"><ele>560.5714285714287</ele><time>2026-04-12T12:58:33.951Z</time></trkpt><trkpt lat="44.6256534" lon="10.2269544"><ele>562.0</ele><time>2026-04-12T12:58:34.95Z</time></trkpt><trkpt lat="44.6255904" lon="10.2269194"><ele>562.0</ele><time>2026-04-12T12:58:35.951Z</time></trkpt><trkpt lat="44.625531" lon="10.2268841"><ele>562.0</ele><time>2026-04-12T12:58:36.95Z</time></trkpt><trkpt lat="44.6254288" lon="10.2268136"><ele>562.0</ele><time>2026-04-12T12:58:38.951Z</time></trkpt><trkpt lat="44.6253743" lon="10.2267618"><ele>562.0</ele><time>2026-04-12T12:58:39.95Z</time></trkpt><trkpt lat="44.6253207" lon="10.226703"><ele>562.0</ele><time>2026-04-12T12:58:40.951Z</time></trkpt><trkpt lat="44.6252708" lon="10.226639"><ele>562.0</ele><time>2026-04-12T12:58:41.951Z</time></trkpt><trkpt lat="44.6251968" lon="10.226507"><ele>568.0</ele><time>2026-04-12T12:58:43.95Z</time></trkpt><trkpt lat="44.6251667" lon="10.2263585"><ele>574.0</ele><time>2026-04-12T12:58:45.951Z</time></trkpt><trkpt lat="44.6251623" lon="10.2262285"><ele>580.0</ele><time>2026-04-12T12:58:47.95Z</time></trkpt><trkpt lat="44.625146" lon="10.2260742"><ele>586.0</ele><time>2026-04-12T12:58:49.95Z</time></trkpt><trkpt lat="44.6251281" lon="10.2259542"><ele>592.0</ele><time>2026-04-12T12:58:51.951Z</time></trkpt><trkpt lat="44.6251158" lon="10.2258616"><ele>592.0</ele><time>2026-04-12T12:58:53.949Z</time></trkpt><trkpt lat="44.6250626" lon="10.2257653"><ele>592.0</ele><time>2026-04-12T12:58:57.95Z</time></trkpt><trkpt lat="44.6250206" lon="10.2256873"><ele>592.0</ele><time>2026-04-12T12:59:00.95Z</time></trkpt><trkpt lat="44.6249478" lon="10.2255908"><ele>592.0</ele><time>2026-04-12T12:59:03.95Z</time></trkpt><trkpt lat="44.624863" lon="10.2255125"><ele>592.0</ele><time>2026-04-12T12:59:05.95Z</time></trkpt><trkpt lat="44.6248119" lon="10.2253898"><ele>591.0</ele><time>2026-04-12T12:59:07.95Z</time></trkpt><trkpt lat="44.6248206" lon="10.2252743"><ele>590.0</ele><time>2026-04-12T12:59:09.951Z</time></trkpt><trkpt lat="44.6247756" lon="10.2252011"><ele>589.0</ele><time>2026-04-12T12:59:12.949Z</time></trkpt><trkpt lat="44.6246683" lon="10.225096"><ele>588.0</ele><time>2026-04-12T12:59:15.951Z</time></trkpt><trkpt lat="44.6245739" lon="10.2250496"><ele>587.0</ele><time>2026-04-12T12:59:17.95Z</time></trkpt><trkpt lat="44.6244786" lon="10.2250144"><ele>588.5</ele><time>2026-04-12T12:59:19.951Z</time></trkpt><trkpt lat="44.6244369" lon="10.2248988"><ele>590.0</ele><time>2026-04-12T12:59:21.95Z</time></trkpt><trkpt lat="44.6243899" lon="10.2248042"><ele>591.5</ele><time>2026-04-12T12:59:23.95Z</time></trkpt><trkpt lat="44.624322" lon="10.2247543"><ele>593.0</ele><time>2026-04-12T12:59:39.949Z</time></trkpt><trkpt lat="44.6242198" lon="10.2247633"><ele>594.5</ele><time>2026-04-12T12:59:41.949Z</time></trkpt><trkpt lat="44.6241431" lon="10.2247467"><ele>596.0</ele><time>2026-04-12T12:59:43.951Z</time></trkpt><trkpt lat="44.6240752" lon="10.2247476"><ele>596.0</ele><time>2026-04-12T12:59:58.95Z</time></trkpt><trkpt lat="44.6239917" lon="10.2247217"><ele>596.0</ele><time>2026-04-12T13:00:01.951Z</time></trkpt><trkpt lat="44.6239168" lon="10.2246904"><ele>596.0</ele><time>2026-04-12T13:00:03.951Z</time></trkpt><trkpt lat="44.6238473" lon="10.2246745"><ele>596.0</ele><time>2026-04-12T13:00:06.95Z</time></trkpt><trkpt lat="44.6237821" lon="10.2246466"><ele>596.0</ele><time>2026-04-12T13:00:09.951Z</time></trkpt><trkpt lat="44.6237253" lon="10.2245957"><ele>596.0</ele><time>2026-04-12T13:00:12.95Z</time></trkpt><trkpt lat="44.623687" lon="10.2245066"><ele>596.0</ele><time>2026-04-12T13:00:16.951Z</time></trkpt><trkpt lat="44.6236245" lon="10.2244503"><ele>597.8333333333333</ele><time>2026-04-12T13:00:41.951Z</time></trkpt><trkpt lat="44.6235684" lon="10.2244059"><ele>599.6666666666666</ele><time>2026-04-12T13:04:22.95Z</time></trkpt><trkpt lat="44.6234907" lon="10.2243427"><ele>601.5</ele><time>2026-04-12T13:04:24.951Z</time></trkpt><trkpt lat="44.6234192" lon="10.2242873"><ele>603.3333333333334</ele><time>2026-04-12T13:04:26.951Z</time></trkpt><trkpt lat="44.6233452" lon="10.2242508"><ele>605.1666666666667</ele><time>2026-04-12T13:04:28.951Z</time></trkpt><trkpt lat="44.6232576" lon="10.2242343"><ele>607.0</ele><time>2026-04-12T13:04:31.951Z</time></trkpt><trkpt lat="44.6231838" lon="10.2242383"><ele>607.0</ele><time>2026-04-12T13:04:33.951Z</time></trkpt><trkpt lat="44.623101" lon="10.2242562"><ele>607.0</ele><time>2026-04-12T13:04:35.95Z</time></trkpt><trkpt lat="44.6230391" lon="10.2242881"><ele>607.0</ele><time>2026-04-12T13:04:39.95Z</time></trkpt><trkpt lat="44.6229757" lon="10.2243181"><ele>607.0</ele><time>2026-04-12T13:04:42.95Z</time></trkpt><trkpt lat="44.6229047" lon="10.2243579"><ele>607.0</ele><time>2026-04-12T13:04:45.95Z</time></trkpt><trkpt lat="44.6228296" lon="10.2243876"><ele>607.0</ele><time>2026-04-12T13:04:48.95Z</time></trkpt><trkpt lat="44.6227518" lon="10.2244064"><ele>608.1666666666667</ele><time>2026-04-12T13:04:50.95Z</time></trkpt><trkpt lat="44.6226664" lon="10.2244166"><ele>609.3333333333334</ele><time>2026-04-12T13:04:52.951Z</time></trkpt><trkpt lat="44.6225956" lon="10.2244404"><ele>610.5</ele><time>2026-04-12T13:04:54.951Z</time></trkpt><trkpt lat="44.6225134" lon="10.2244116"><ele>611.6666666666666</ele><time>2026-04-12T13:05:02.95Z</time></trkpt><trkpt lat="44.6224481" lon="10.224375"><ele>612.8333333333333</ele><time>2026-04-12T13:05:05.95Z</time></trkpt><trkpt lat="44.6223641" lon="10.2243847"><ele>614.0</ele><time>2026-04-12T13:05:16.95Z</time></trkpt><trkpt lat="44.6223145" lon="10.2243243"><ele>614.0</ele><time>2026-04-12T13:05:17.95Z</time></trkpt><trkpt lat="44.6222263" lon="10.2242261"><ele>614.0</ele><time>2026-04-12T13:05:19.949Z</time></trkpt><trkpt lat="44.6221256" lon="10.2240862"><ele>614.0</ele><time>2026-04-12T13:05:21.949Z</time></trkpt><trkpt lat="44.6220747" lon="10.2240039"><ele>614.0</ele><time>2026-04-12T13:05:22.949Z</time></trkpt><trkpt lat="44.6220146" lon="10.2239367"><ele>614.0</ele><time>2026-04-12T13:05:23.949Z</time></trkpt><trkpt lat="44.6219594" lon="10.2238707"><ele>615.6</ele><time>2026-04-12T13:05:24.949Z</time></trkpt><trkpt lat="44.6219066" lon="10.2238096"><ele>617.2</ele><time>2026-04-12T13:05:25.949Z</time></trkpt><trkpt lat="44.6218185" lon="10.2237028"><ele>618.8000000000001</ele><time>2026-04-12T13:05:27.949Z</time></trkpt><trkpt lat="44.6217348" lon="10.2235904"><ele>620.4</ele><time>2026-04-12T13:05:29.948Z</time></trkpt><trkpt lat="44.621644" lon="10.2234829"><ele>622.0</ele><time>2026-04-12T13:05:31.95Z</time></trkpt><trkpt lat="44.6215763" lon="10.2233643"><ele>622.0</ele><time>2026-04-12T13:05:33.95Z</time></trkpt><trkpt lat="44.6215394" lon="10.2232863"><ele>622.0</ele><time>2026-04-12T13:05:34.949Z</time></trkpt><trkpt lat="44.6215025" lon="10.2232055"><ele>622.0</ele><time>2026-04-12T13:05:35.949Z</time></trkpt><trkpt lat="44.6214676" lon="10.2231286"><ele>622.0</ele><time>2026-04-12T13:05:36.949Z</time></trkpt><trkpt lat="44.6214084" lon="10.2230031"><ele>622.0</ele><time>2026-04-12T13:05:38.95Z</time></trkpt><trkpt lat="44.6213508" lon="10.222895"><ele>622.0</ele><time>2026-04-12T13:05:40.949Z</time></trkpt><trkpt lat="44.6212964" lon="10.2228073"><ele>622.2</ele><time>2026-04-12T13:05:42.95Z</time></trkpt><trkpt lat="44.6212099" lon="10.2227215"><ele>622.4000000000001</ele><time>2026-04-12T13:05:45.95Z</time></trkpt><trkpt lat="44.6211563" lon="10.2226721"><ele>622.5999999999999</ele><time>2026-04-12T13:05:46.949Z</time></trkpt><trkpt lat="44.6210731" lon="10.2225634"><ele>622.8</ele><time>2026-04-12T13:05:48.949Z</time></trkpt><trkpt lat="44.6210196" lon="10.2224131"><ele>623.0</ele><time>2026-04-12T13:05:50.95Z</time></trkpt><trkpt lat="44.6209884" lon="10.2222819"><ele>624.1666666666666</ele><time>2026-04-12T13:05:52.95Z</time></trkpt><trkpt lat="44.6209395" lon="10.2222214"><ele>625.3333333333333</ele><time>2026-04-12T13:05:54.949Z</time></trkpt><trkpt lat="44.6208617" lon="10.222173"><ele>626.5</ele><time>2026-04-12T13:06:01.949Z</time></trkpt><trkpt lat="44.6207965" lon="10.2220681"><ele>627.6666666666666</ele><time>2026-04-12T13:06:03.949Z</time></trkpt><trkpt lat="44.6207379" lon="10.2219136"><ele>628.8333333333334</ele><time>2026-04-12T13:06:05.95Z</time></trkpt><trkpt lat="44.6207006" lon="10.2218326"><ele>630.0</ele><time>2026-04-12T13:06:06.949Z</time></trkpt><trkpt lat="44.6206626" lon="10.2217566"><ele>630.0</ele><time>2026-04-12T13:06:07.949Z</time></trkpt><trkpt lat="44.6205878" lon="10.221621"><ele>630.0</ele><time>2026-04-12T13:06:09.95Z</time></trkpt><trkpt lat="44.6205409" lon="10.2215615"><ele>630.0</ele><time>2026-04-12T13:06:10.95Z</time></trkpt><trkpt lat="44.6204927" lon="10.2215022"><ele>630.0</ele><time>2026-04-12T13:06:11.95Z</time></trkpt><trkpt lat="44.6204432" lon="10.2214415"><ele>630.0</ele><time>2026-04-12T13:06:12.949Z</time></trkpt><trkpt lat="44.6203901" lon="10.2213817"><ele>630.0</ele><time>2026-04-12T13:06:13.949Z</time></trkpt><trkpt lat="44.6203326" lon="10.2212974"><ele>632.8</ele><time>2026-04-12T13:06:15.949Z</time></trkpt><trkpt lat="44.6202658" lon="10.2211855"><ele>635.6</ele><time>2026-04-12T13:06:17.949Z</time></trkpt><trkpt lat="44.620211" lon="10.2210341"><ele>638.4000000000001</ele><time>2026-04-12T13:06:19.95Z</time></trkpt><trkpt lat="44.6201749" lon="10.2209605"><ele>641.2</ele><time>2026-04-12T13:06:20.949Z</time></trkpt><trkpt lat="44.6201073" lon="10.2208145"><ele>644.0</ele><time>2026-04-12T13:06:22.949Z</time></trkpt><trkpt lat="44.6200727" lon="10.220735"><ele>644.3333333333333</ele><time>2026-04-12T13:06:23.95Z</time></trkpt><trkpt lat="44.620045" lon="10.2206448"><ele>644.6666666666666</ele><time>2026-04-12T13:06:24.95Z</time></trkpt><trkpt lat="44.6199815" lon="10.2204999"><ele>645.0</ele><time>2026-04-12T13:06:26.95Z</time></trkpt><trkpt lat="44.6198866" lon="10.2203896"><ele>645.3333333333334</ele><time>2026-04-12T13:06:28.95Z</time></trkpt><trkpt lat="44.6198303" lon="10.2203409"><ele>645.6666666666667</ele><time>2026-04-12T13:06:29.949Z</time></trkpt><trkpt lat="44.6197764" lon="10.2202943"><ele>646.0</ele><time>2026-04-12T13:06:30.95Z</time></trkpt><trkpt lat="44.6197222" lon="10.2202347"><ele>646.0</ele><time>2026-04-12T13:06:31.95Z</time></trkpt><trkpt lat="44.6196631" lon="10.2201678"><ele>646.0</ele><time>2026-04-12T13:06:32.949Z</time></trkpt><trkpt lat="44.6196141" lon="10.2201037"><ele>646.0</ele><time>2026-04-12T13:06:33.95Z</time></trkpt><trkpt lat="44.6195348" lon="10.2200081"><ele>646.0</ele><time>2026-04-12T13:06:35.949Z</time></trkpt><trkpt lat="44.6194586" lon="10.2199937"><ele>646.0</ele><time>2026-04-12T13:06:38.95Z</time></trkpt><trkpt lat="44.6193743" lon="10.2199991"><ele>646.0</ele><time>2026-04-12T13:06:41.949Z</time></trkpt><trkpt lat="44.6192902" lon="10.2199524"><ele>648.1666666666667</ele><time>2026-04-12T13:06:43.95Z</time></trkpt><trkpt lat="44.6192157" lon="10.2198699"><ele>650.3333333333334</ele><time>2026-04-12T13:06:45.95Z</time></trkpt><trkpt lat="44.6191613" lon="10.2198018"><ele>652.5</ele><time>2026-04-12T13:06:47.95Z</time></trkpt><trkpt lat="44.6191066" lon="10.219751"><ele>654.6666666666666</ele><time>2026-04-12T13:06:50.95Z</time></trkpt><trkpt lat="44.6190686" lon="10.2196803"><ele>656.8333333333333</ele><time>2026-04-12T13:07:07.948Z</time></trkpt><trkpt lat="44.618974" lon="10.2195976"><ele>659.0</ele><time>2026-04-12T13:07:10.949Z</time></trkpt><trkpt lat="44.6189087" lon="10.2195719"><ele>659.0</ele><time>2026-04-12T13:07:11.95Z</time></trkpt><trkpt lat="44.6189759" lon="10.2195772"><ele>659.0</ele><time>2026-04-12T13:07:13.949Z</time></trkpt><trkpt lat="44.6189292" lon="10.2194926"><ele>659.0</ele><time>2026-04-12T13:07:15.949Z</time></trkpt><trkpt lat="44.6187079" lon="10.219378"><ele>659.0</ele><time>2026-04-12T13:07:18.95Z</time></trkpt><trkpt lat="44.6186585" lon="10.2192798"><ele>661.8333333333333</ele><time>2026-04-12T13:07:20.95Z</time></trkpt><trkpt lat="44.6185875" lon="10.2192048"><ele>664.6666666666666</ele><time>2026-04-12T13:07:22.949Z</time></trkpt><trkpt lat="44.6184964" lon="10.2191407"><ele>667.5</ele><time>2026-04-12T13:07:24.949Z</time></trkpt><trkpt lat="44.6184309" lon="10.2190862"><ele>670.3333333333334</ele><time>2026-04-12T13:07:25.95Z</time></trkpt><trkpt lat="44.6183691" lon="10.2190244"><ele>673.1666666666667</ele><time>2026-04-12T13:07:26.949Z</time></trkpt><trkpt lat="44.6183014" lon="10.2189704"><ele>676.0</ele><time>2026-04-12T13:07:27.95Z</time></trkpt><trkpt lat="44.618226" lon="10.218868"><ele>676.5</ele><time>2026-04-12T13:07:29.95Z</time></trkpt><trkpt lat="44.6181812" lon="10.218802"><ele>677.0</ele><time>2026-04-12T13:07:30.949Z</time></trkpt><trkpt lat="44.6181357" lon="10.2187351"><ele>677.5</ele><time>2026-04-12T13:07:31.95Z</time></trkpt><trkpt lat="44.6181042" lon="10.2186338"><ele>678.0</ele><time>2026-04-12T13:07:33.949Z</time></trkpt><trkpt lat="44.6180982" lon="10.2185267"><ele>678.5</ele><time>2026-04-12T13:07:35.95Z</time></trkpt><trkpt lat="44.6180843" lon="10.2184186"><ele>679.0</ele><time>2026-04-12T13:07:37.949Z</time></trkpt><trkpt lat="44.6180572" lon="10.2182585"><ele>679.0</ele><time>2026-04-12T13:07:39.949Z</time></trkpt><trkpt lat="44.61805" lon="10.2181627"><ele>679.0</ele><time>2026-04-12T13:07:40.949Z</time></trkpt><trkpt lat="44.6180524" lon="10.2180676"><ele>679.0</ele><time>2026-04-12T13:07:41.949Z</time></trkpt><trkpt lat="44.6180382" lon="10.217966"><ele>679.0</ele><time>2026-04-12T13:07:42.95Z</time></trkpt><trkpt lat="44.6180207" lon="10.2178675"><ele>679.0</ele><time>2026-04-12T13:07:43.949Z</time></trkpt><trkpt lat="44.6180007" lon="10.2177674"><ele>679.0</ele><time>2026-04-12T13:07:44.95Z</time></trkpt><trkpt lat="44.6179833" lon="10.2176776"><ele>679.0</ele><time>2026-04-12T13:07:45.949Z</time></trkpt><trkpt lat="44.6179602" lon="10.2175181"><ele>680.1666666666667</ele><time>2026-04-12T13:07:47.95Z</time></trkpt><trkpt lat="44.6179138" lon="10.2173534"><ele>681.3333333333334</ele><time>2026-04-12T13:07:49.949Z</time></trkpt><trkpt lat="44.6178993" lon="10.2172621"><ele>682.5</ele><time>2026-04-12T13:07:50.949Z</time></trkpt><trkpt lat="44.6178907" lon="10.2171522"><ele>683.6666666666666</ele><time>2026-04-12T13:07:51.95Z</time></trkpt><trkpt lat="44.6178955" lon="10.2170396"><ele>684.8333333333333</ele><time>2026-04-12T13:07:52.95Z</time></trkpt><trkpt lat="44.6179124" lon="10.2169172"><ele>686.0</ele><time>2026-04-12T13:07:53.948Z</time></trkpt><trkpt lat="44.6179342" lon="10.2167859"><ele>687.3333333333333</ele><time>2026-04-12T13:07:54.95Z</time></trkpt><trkpt lat="44.6179617" lon="10.2166698"><ele>688.6666666666666</ele><time>2026-04-12T13:07:55.949Z</time></trkpt><trkpt lat="44.6179915" lon="10.2165727"><ele>690.0</ele><time>2026-04-12T13:07:56.949Z</time></trkpt><trkpt lat="44.6180207" lon="10.2164839"><ele>691.3333333333334</ele><time>2026-04-12T13:07:57.949Z</time></trkpt><trkpt lat="44.6180445" lon="10.2163806"><ele>692.6666666666667</ele><time>2026-04-12T13:07:58.95Z</time></trkpt><trkpt lat="44.6180705" lon="10.2162591"><ele>694.0</ele><time>2026-04-12T13:07:59.95Z</time></trkpt><trkpt lat="44.6181003" lon="10.2161245"><ele>694.6</ele><time>2026-04-12T13:08:00.95Z</time></trkpt><trkpt lat="44.6181359" lon="10.2159778"><ele>695.2</ele><time>2026-04-12T13:08:01.949Z</time></trkpt><trkpt lat="44.6181835" lon="10.2158592"><ele>695.8000000000001</ele><time>2026-04-12T13:08:02.949Z</time></trkpt><trkpt lat="44.6182418" lon="10.215735"><ele>696.4000000000001</ele><time>2026-04-12T13:08:03.95Z</time></trkpt><trkpt lat="44.6182908" lon="10.2156273"><ele>697.0</ele><time>2026-04-12T13:08:04.95Z</time></trkpt><trkpt lat="44.6183321" lon="10.2155205"><ele>697.6</ele><time>2026-04-12T13:08:05.948Z</time></trkpt><trkpt lat="44.618361" lon="10.2154055"><ele>698.2</ele><time>2026-04-12T13:08:06.949Z</time></trkpt><trkpt lat="44.6183799" lon="10.2152716"><ele>698.8</ele><time>2026-04-12T13:08:07.949Z</time></trkpt><trkpt lat="44.6183986" lon="10.2151236"><ele>699.4</ele><time>2026-04-12T13:08:08.95Z</time></trkpt><trkpt lat="44.6184245" lon="10.2149844"><ele>700.0</ele><time>2026-04-12T13:08:09.949Z</time></trkpt><trkpt lat="44.6184567" lon="10.2148466"><ele>700.25</ele><time>2026-04-12T13:08:10.95Z</time></trkpt><trkpt lat="44.6184981" lon="10.2146893"><ele>700.5</ele><time>2026-04-12T13:08:11.949Z</time></trkpt><trkpt lat="44.6185448" lon="10.2145454"><ele>700.75</ele><time>2026-04-12T13:08:12.95Z</time></trkpt><trkpt lat="44.6185869" lon="10.2144098"><ele>701.0</ele><time>2026-04-12T13:08:13.95Z</time></trkpt><trkpt lat="44.6186298" lon="10.2142619"><ele>700.0</ele><time>2026-04-12T13:08:14.949Z</time></trkpt><trkpt lat="44.6186689" lon="10.2141427"><ele>699.0</ele><time>2026-04-12T13:08:15.949Z</time></trkpt><trkpt lat="44.6186983" lon="10.2140546"><ele>698.0</ele><time>2026-04-12T13:08:16.949Z</time></trkpt><trkpt lat="44.6187376" lon="10.2139654"><ele>697.0</ele><time>2026-04-12T13:08:18.948Z</time></trkpt><trkpt lat="44.6188018" lon="10.2138608"><ele>696.0</ele><time>2026-04-12T13:10:27.949Z</time></trkpt><trkpt lat="44.61886" lon="10.2138179"><ele>695.0</ele><time>2026-04-12T13:10:28.95Z</time></trkpt><trkpt lat="44.618964" lon="10.21377"><ele>694.8</ele><time>2026-04-12T13:10:30.95Z</time></trkpt><trkpt lat="44.6190647" lon="10.2137532"><ele>694.6</ele><time>2026-04-12T13:10:32.95Z</time></trkpt><trkpt lat="44.6191325" lon="10.2137531"><ele>694.4000000000001</ele><time>2026-04-12T13:10:34.95Z</time></trkpt><trkpt lat="44.6192094" lon="10.2137554"><ele>694.2</ele><time>2026-04-12T13:10:47.95Z</time></trkpt><trkpt lat="44.6193134" lon="10.2137684"><ele>694.0</ele><time>2026-04-12T13:10:49.95Z</time></trkpt><trkpt lat="44.6194299" lon="10.2137563"><ele>693.3333333333334</ele><time>2026-04-12T13:10:51.949Z</time></trkpt><trkpt lat="44.6194977" lon="10.2137322"><ele>692.6666666666667</ele><time>2026-04-12T13:10:52.95Z</time></trkpt><trkpt lat="44.6195656" lon="10.2137143"><ele>692.0</ele><time>2026-04-12T13:10:53.95Z</time></trkpt><trkpt lat="44.6196361" lon="10.2136845"><ele>691.3333333333334</ele><time>2026-04-12T13:10:54.949Z</time></trkpt><trkpt lat="44.6197054" lon="10.2136587"><ele>690.6666666666666</ele><time>2026-04-12T13:10:55.949Z</time></trkpt><trkpt lat="44.6197697" lon="10.2136401"><ele>690.0</ele><time>2026-04-12T13:10:56.95Z</time></trkpt><trkpt lat="44.6198911" lon="10.2136138"><ele>690.0</ele><time>2026-04-12T13:10:58.948Z</time></trkpt><trkpt lat="44.620004" lon="10.2135884"><ele>690.0</ele><time>2026-04-12T13:11:00.95Z</time></trkpt><trkpt lat="44.6201192" lon="10.2136014"><ele>690.0</ele><time>2026-04-12T13:11:02.95Z</time></trkpt><trkpt lat="44.6202359" lon="10.2136259"><ele>690.0</ele><time>2026-04-12T13:11:04.95Z</time></trkpt><trkpt lat="44.6203014" lon="10.2136366"><ele>690.0</ele><time>2026-04-12T13:11:05.949Z</time></trkpt><trkpt lat="44.6203774" lon="10.2136456"><ele>688.75</ele><time>2026-04-12T13:11:06.949Z</time></trkpt><trkpt lat="44.6204947" lon="10.2136406"><ele>687.5</ele><time>2026-04-12T13:11:08.95Z</time></trkpt><trkpt lat="44.6206024" lon="10.2136275"><ele>686.25</ele><time>2026-04-12T13:11:10.95Z</time></trkpt><trkpt lat="44.6207016" lon="10.2135682"><ele>685.0</ele><time>2026-04-12T13:11:12.949Z</time></trkpt><trkpt lat="44.6207977" lon="10.213474"><ele>685.0</ele><time>2026-04-12T13:11:14.949Z</time></trkpt><trkpt lat="44.6208964" lon="10.2133608"><ele>685.0</ele><time>2026-04-12T13:11:16.95Z</time></trkpt><trkpt lat="44.6209888" lon="10.2132569"><ele>685.0</ele><time>2026-04-12T13:11:18.949Z</time></trkpt><trkpt lat="44.6210739" lon="10.2131714"><ele>685.0</ele><time>2026-04-12T13:11:20.949Z</time></trkpt><trkpt lat="44.6211768" lon="10.213118"><ele>682.8</ele><time>2026-04-12T13:11:22.949Z</time></trkpt><trkpt lat="44.6212741" lon="10.2130825"><ele>680.6</ele><time>2026-04-12T13:11:24.949Z</time></trkpt><trkpt lat="44.6213629" lon="10.2130377"><ele>678.4000000000001</ele><time>2026-04-12T13:11:26.95Z</time></trkpt><trkpt lat="44.6214366" lon="10.2129533"><ele>676.2</ele><time>2026-04-12T13:11:28.949Z</time></trkpt><trkpt lat="44.6215011" lon="10.2128385"><ele>674.0</ele><time>2026-04-12T13:11:30.948Z</time></trkpt><trkpt lat="44.6215687" lon="10.212711"><ele>674.0</ele><time>2026-04-12T13:11:32.95Z</time></trkpt><trkpt lat="44.6216092" lon="10.2126301"><ele>674.0</ele><time>2026-04-12T13:11:33.949Z</time></trkpt><trkpt lat="44.6216555" lon="10.2125434"><ele>674.0</ele><time>2026-04-12T13:11:34.949Z</time></trkpt><trkpt lat="44.6217057" lon="10.2124659"><ele>674.0</ele><time>2026-04-12T13:11:35.95Z</time></trkpt><trkpt lat="44.6217544" lon="10.2123895"><ele>674.0</ele><time>2026-04-12T13:11:36.949Z</time></trkpt><trkpt lat="44.6218073" lon="10.2122968"><ele>674.0</ele><time>2026-04-12T13:11:37.949Z</time></trkpt><trkpt lat="44.6218672" lon="10.2122057"><ele>672.5</ele><time>2026-04-12T13:11:38.949Z</time></trkpt><trkpt lat="44.6219217" lon="10.2121118"><ele>671.0</ele><time>2026-04-12T13:11:39.949Z</time></trkpt><trkpt lat="44.6219732" lon="10.2120141"><ele>669.5</ele><time>2026-04-12T13:11:40.949Z</time></trkpt><trkpt lat="44.6220261" lon="10.2119177"><ele>668.0</ele><time>2026-04-12T13:11:41.948Z</time></trkpt><trkpt lat="44.6220783" lon="10.2118394"><ele>666.5</ele><time>2026-04-12T13:11:42.949Z</time></trkpt><trkpt lat="44.6221272" lon="10.2117666"><ele>665.0</ele><time>2026-04-12T13:11:43.95Z</time></trkpt><trkpt lat="44.6221814" lon="10.2116945"><ele>665.0</ele><time>2026-04-12T13:11:44.948Z</time></trkpt><trkpt lat="44.6222334" lon="10.2116211"><ele>665.0</ele><time>2026-04-12T13:11:45.949Z</time></trkpt><trkpt lat="44.6222805" lon="10.2115471"><ele>665.0</ele><time>2026-04-12T13:11:46.95Z</time></trkpt><trkpt lat="44.6223246" lon="10.2114766"><ele>665.0</ele><time>2026-04-12T13:11:47.949Z</time></trkpt><trkpt lat="44.6223716" lon="10.2113031"><ele>665.0</ele><time>2026-04-12T13:11:49.949Z</time></trkpt><trkpt lat="44.6223911" lon="10.2112117"><ele>665.0</ele><time>2026-04-12T13:11:50.949Z</time></trkpt><trkpt lat="44.6224042" lon="10.2111241"><ele>664.6</ele><time>2026-04-12T13:11:51.95Z</time></trkpt><trkpt lat="44.6224176" lon="10.2110346"><ele>664.2</ele><time>2026-04-12T13:11:52.949Z</time></trkpt><trkpt lat="44.6224305" lon="10.2109397"><ele>663.8</ele><time>2026-04-12T13:11:53.949Z</time></trkpt><trkpt lat="44.6224754" lon="10.2107926"><ele>663.4</ele><time>2026-04-12T13:11:55.95Z</time></trkpt><trkpt lat="44.6225256" lon="10.2106496"><ele>663.0</ele><time>2026-04-12T13:11:57.948Z</time></trkpt><trkpt lat="44.6225607" lon="10.2104894"><ele>661.8</ele><time>2026-04-12T13:11:59.949Z</time></trkpt><trkpt lat="44.6225858" lon="10.210323"><ele>660.5999999999999</ele><time>2026-04-12T13:12:01.949Z</time></trkpt><trkpt lat="44.6226238" lon="10.2101665"><ele>659.4000000000001</ele><time>2026-04-12T13:12:03.949Z</time></trkpt><trkpt lat="44.6226441" lon="10.2100492"><ele>658.2</ele><time>2026-04-12T13:12:05.949Z</time></trkpt><trkpt lat="44.6226687" lon="10.2099024"><ele>657.0</ele><time>2026-04-12T13:12:07.949Z</time></trkpt><trkpt lat="44.6226935" lon="10.2097249"><ele>655.7142857142857</ele><time>2026-04-12T13:12:09.95Z</time></trkpt><trkpt lat="44.6227268" lon="10.2096135"><ele>654.4285714285714</ele><time>2026-04-12T13:12:11.95Z</time></trkpt><trkpt lat="44.6227497" lon="10.209522"><ele>653.1428571428571</ele><time>2026-04-12T13:12:14.949Z</time></trkpt><trkpt lat="44.6227634" lon="10.2094078"><ele>651.8571428571429</ele><time>2026-04-12T13:12:18.948Z</time></trkpt><trkpt lat="44.6227738" lon="10.2093061"><ele>650.5714285714286</ele><time>2026-04-12T13:12:19.95Z</time></trkpt><trkpt lat="44.6227814" lon="10.2092052"><ele>649.2857142857143</ele><time>2026-04-12T13:12:20.95Z</time></trkpt><trkpt lat="44.6227866" lon="10.2091149"><ele>648.0</ele><time>2026-04-12T13:12:21.95Z</time></trkpt><trkpt lat="44.6227958" lon="10.2090082"><ele>646.1999999999999</ele><time>2026-04-12T13:12:22.948Z</time></trkpt><trkpt lat="44.6227972" lon="10.2089054"><ele>644.4</ele><time>2026-04-12T13:12:23.949Z</time></trkpt><trkpt lat="44.6227879" lon="10.2088039"><ele>642.5999999999999</ele><time>2026-04-12T13:12:24.95Z</time></trkpt><trkpt lat="44.6227679" lon="10.2086249"><ele>640.8</ele><time>2026-04-12T13:12:26.949Z</time></trkpt><trkpt lat="44.6227625" lon="10.2084958"><ele>639.0</ele><time>2026-04-12T13:12:28.95Z</time></trkpt><trkpt lat="44.6227797" lon="10.2083655"><ele>639.0</ele><time>2026-04-12T13:12:30.949Z</time></trkpt><trkpt lat="44.6228063" lon="10.2082817"><ele>639.0</ele><time>2026-04-12T13:12:31.95Z</time></trkpt><trkpt lat="44.622841" lon="10.2081886"><ele>639.0</ele><time>2026-04-12T13:12:32.95Z</time></trkpt><trkpt lat="44.6228835" lon="10.2080904"><ele>639.0</ele><time>2026-04-12T13:12:33.95Z</time></trkpt><trkpt lat="44.6229282" lon="10.2079869"><ele>639.0</ele><time>2026-04-12T13:12:34.95Z</time></trkpt><trkpt lat="44.6229603" lon="10.2078867"><ele>639.0</ele><time>2026-04-12T13:12:35.95Z</time></trkpt><trkpt lat="44.6230037" lon="10.2077943"><ele>639.2</ele><time>2026-04-12T13:12:36.949Z</time></trkpt><trkpt lat="44.6230437" lon="10.2077097"><ele>639.4</ele><time>2026-04-12T13:12:37.949Z</time></trkpt><trkpt lat="44.6231465" lon="10.2076066"><ele>639.6</ele><time>2026-04-12T13:12:39.949Z</time></trkpt><trkpt lat="44.6232457" lon="10.207514"><ele>639.8</ele><time>2026-04-12T13:12:41.949Z</time></trkpt><trkpt lat="44.623344" lon="10.2074594"><ele>640.0</ele><time>2026-04-12T13:12:43.95Z</time></trkpt><trkpt lat="44.623459" lon="10.2074307"><ele>640.0</ele><time>2026-04-12T13:12:45.95Z</time></trkpt><trkpt lat="44.6235241" lon="10.207386"><ele>640.0</ele><time>2026-04-12T13:12:46.949Z</time></trkpt><trkpt lat="44.62355" lon="10.2073039"><ele>640.0</ele><time>2026-04-12T13:12:47.949Z</time></trkpt><trkpt lat="44.6235846" lon="10.2072251"><ele>640.0</ele><time>2026-04-12T13:12:48.949Z</time></trkpt><trkpt lat="44.6236199" lon="10.2071338"><ele>640.0</ele><time>2026-04-12T13:12:49.95Z</time></trkpt><trkpt lat="44.6236531" lon="10.2070356"><ele>640.0</ele><time>2026-04-12T13:12:50.949Z</time></trkpt><trkpt lat="44.6236904" lon="10.2069572"><ele>640.0</ele><time>2026-04-12T13:12:51.95Z</time></trkpt><trkpt lat="44.62374" lon="10.2068972"><ele>639.8</ele><time>2026-04-12T13:12:52.95Z</time></trkpt><trkpt lat="44.6238515" lon="10.2067954"><ele>639.6</ele><time>2026-04-12T13:12:54.95Z</time></trkpt><trkpt lat="44.6239144" lon="10.2067444"><ele>639.4</ele><time>2026-04-12T13:12:55.949Z</time></trkpt><trkpt lat="44.6239696" lon="10.2066868"><ele>639.2</ele><time>2026-04-12T13:12:56.95Z</time></trkpt><trkpt lat="44.6240261" lon="10.2066321"><ele>639.0</ele><time>2026-04-12T13:12:57.95Z</time></trkpt><trkpt lat="44.6241178" lon="10.2065353"><ele>637.5</ele><time>2026-04-12T13:12:59.948Z</time></trkpt><trkpt lat="44.6241792" lon="10.2064658"><ele>636.0</ele><time>2026-04-12T13:13:00.949Z</time></trkpt><trkpt lat="44.6242398" lon="10.2063877"><ele>634.5</ele><time>2026-04-12T13:13:01.95Z</time></trkpt><trkpt lat="44.6242953" lon="10.2063055"><ele>633.0</ele><time>2026-04-12T13:13:02.95Z</time></trkpt><trkpt lat="44.6243486" lon="10.2062146"><ele>631.5</ele><time>2026-04-12T13:13:03.949Z</time></trkpt><trkpt lat="44.6243866" lon="10.2061157"><ele>630.0</ele><time>2026-04-12T13:13:04.95Z</time></trkpt><trkpt lat="44.6244168" lon="10.2060122"><ele>630.0</ele><time>2026-04-12T13:13:05.95Z</time></trkpt><trkpt lat="44.6244342" lon="10.2059022"><ele>630.0</ele><time>2026-04-12T13:13:06.95Z</time></trkpt><trkpt lat="44.6244445" lon="10.2057937"><ele>630.0</ele><time>2026-04-12T13:13:07.949Z</time></trkpt><trkpt lat="44.6244481" lon="10.2056764"><ele>630.0</ele><time>2026-04-12T13:13:08.949Z</time></trkpt><trkpt lat="44.6244452" lon="10.2055554"><ele>630.0</ele><time>2026-04-12T13:13:09.949Z</time></trkpt><trkpt lat="44.6244391" lon="10.2054347"><ele>630.0</ele><time>2026-04-12T13:13:10.949Z</time></trkpt><trkpt lat="44.6244287" lon="10.2053275"><ele>628.8333333333334</ele><time>2026-04-12T13:13:11.949Z</time></trkpt><trkpt lat="44.6244161" lon="10.2052339"><ele>627.6666666666666</ele><time>2026-04-12T13:13:12.95Z</time></trkpt><trkpt lat="44.6244088" lon="10.2051386"><ele>626.5</ele><time>2026-04-12T13:13:13.95Z</time></trkpt><trkpt lat="44.6243708" lon="10.204985"><ele>625.3333333333333</ele><time>2026-04-12T13:13:15.949Z</time></trkpt><trkpt lat="44.6243421" lon="10.2048856"><ele>624.1666666666666</ele><time>2026-04-12T13:13:16.949Z</time></trkpt><trkpt lat="44.624324" lon="10.2047781"><ele>623.0</ele><time>2026-04-12T13:13:17.95Z</time></trkpt><trkpt lat="44.6243197" lon="10.2046743"><ele>622.1666666666666</ele><time>2026-04-12T13:13:18.95Z</time></trkpt><trkpt lat="44.6243257" lon="10.2045724"><ele>621.3333333333333</ele><time>2026-04-12T13:13:19.95Z</time></trkpt><trkpt lat="44.6243221" lon="10.2044804"><ele>620.5</ele><time>2026-04-12T13:13:20.95Z</time></trkpt><trkpt lat="44.62433" lon="10.2043808"><ele>619.6666666666666</ele><time>2026-04-12T13:13:21.949Z</time></trkpt><trkpt lat="44.6243251" lon="10.2042629"><ele>618.8333333333334</ele><time>2026-04-12T13:13:22.949Z</time></trkpt><trkpt lat="44.6243284" lon="10.204136"><ele>618.0</ele><time>2026-04-12T13:13:23.949Z</time></trkpt><trkpt lat="44.6243275" lon="10.2040198"><ele>616.8333333333334</ele><time>2026-04-12T13:13:24.948Z</time></trkpt><trkpt lat="44.6243345" lon="10.2039199"><ele>615.6666666666666</ele><time>2026-04-12T13:13:25.948Z</time></trkpt><trkpt lat="44.6243378" lon="10.2038273"><ele>614.5</ele><time>2026-04-12T13:13:26.948Z</time></trkpt><trkpt lat="44.6243443" lon="10.2036833"><ele>613.3333333333333</ele><time>2026-04-12T13:13:28.949Z</time></trkpt><trkpt lat="44.6243677" lon="10.2035898"><ele>612.1666666666666</ele><time>2026-04-12T13:13:30.949Z</time></trkpt><trkpt lat="44.6244372" lon="10.2035542"><ele>611.0</ele><time>2026-04-12T13:14:03.95Z</time></trkpt><trkpt lat="44.624518" lon="10.2036051"><ele>610.4</ele><time>2026-04-12T13:14:05.95Z</time></trkpt><trkpt lat="44.6246129" lon="10.2036047"><ele>609.8</ele><time>2026-04-12T13:14:07.95Z</time></trkpt><trkpt lat="44.6247346" lon="10.2035805"><ele>609.1999999999999</ele><time>2026-04-12T13:14:09.95Z</time></trkpt><trkpt lat="44.6247984" lon="10.2035679"><ele>608.6</ele><time>2026-04-12T13:14:10.95Z</time></trkpt><trkpt lat="44.6249228" lon="10.2035432"><ele>608.0</ele><time>2026-04-12T13:14:12.949Z</time></trkpt><trkpt lat="44.6249928" lon="10.2035319"><ele>608.0</ele><time>2026-04-12T13:14:13.949Z</time></trkpt><trkpt lat="44.625117" lon="10.2035117"><ele>608.0</ele><time>2026-04-12T13:14:15.95Z</time></trkpt><trkpt lat="44.6251945" lon="10.2035213"><ele>608.0</ele><time>2026-04-12T13:14:16.949Z</time></trkpt><trkpt lat="44.6252625" lon="10.2035069"><ele>608.0</ele><time>2026-04-12T13:14:17.95Z</time></trkpt><trkpt lat="44.6253358" lon="10.2034892"><ele>608.0</ele><time>2026-04-12T13:14:18.949Z</time></trkpt><trkpt lat="44.6254076" lon="10.2034603"><ele>608.0</ele><time>2026-04-12T13:14:19.95Z</time></trkpt><trkpt lat="44.6254882" lon="10.2034462"><ele>605.8333333333333</ele><time>2026-04-12T13:14:20.949Z</time></trkpt><trkpt lat="44.625564" lon="10.2034209"><ele>603.6666666666666</ele><time>2026-04-12T13:14:21.95Z</time></trkpt><trkpt lat="44.6256412" lon="10.2033964"><ele>601.5</ele><time>2026-04-12T13:14:22.949Z</time></trkpt><trkpt lat="44.6257147" lon="10.2033737"><ele>599.3333333333334</ele><time>2026-04-12T13:14:23.95Z</time></trkpt><trkpt lat="44.6257888" lon="10.2033532"><ele>597.1666666666667</ele><time>2026-04-12T13:14:24.95Z</time></trkpt><trkpt lat="44.6258666" lon="10.2033327"><ele>595.0</ele><time>2026-04-12T13:14:25.949Z</time></trkpt><trkpt lat="44.6259362" lon="10.2033259"><ele>595.0</ele><time>2026-04-12T13:14:26.95Z</time></trkpt><trkpt lat="44.6260079" lon="10.2033235"><ele>595.0</ele><time>2026-04-12T13:14:27.949Z</time></trkpt><trkpt lat="44.6260788" lon="10.2033331"><ele>595.0</ele><time>2026-04-12T13:14:28.949Z</time></trkpt><trkpt lat="44.6261415" lon="10.2033575"><ele>595.0</ele><time>2026-04-12T13:14:29.949Z</time></trkpt><trkpt lat="44.6262498" lon="10.2034279"><ele>595.0</ele><time>2026-04-12T13:14:31.95Z</time></trkpt><trkpt lat="44.626374" lon="10.2034337"><ele>592.6666666666667</ele><time>2026-04-12T13:14:33.95Z</time></trkpt><trkpt lat="44.6264445" lon="10.2033945"><ele>590.3333333333334</ele><time>2026-04-12T13:14:34.949Z</time></trkpt><trkpt lat="44.6265175" lon="10.2033579"><ele>588.0</ele><time>2026-04-12T13:14:35.95Z</time></trkpt><trkpt lat="44.6265946" lon="10.2033485"><ele>585.6666666666666</ele><time>2026-04-12T13:14:36.949Z</time></trkpt><trkpt lat="44.626668" lon="10.2033619"><ele>583.3333333333333</ele><time>2026-04-12T13:14:37.95Z</time></trkpt><trkpt lat="44.6267256" lon="10.2033997"><ele>581.0</ele><time>2026-04-12T13:14:38.949Z</time></trkpt><trkpt lat="44.6268318" lon="10.2034746"><ele>581.0</ele><time>2026-04-12T13:14:40.949Z</time></trkpt><trkpt lat="44.6268896" lon="10.2035312"><ele>581.0</ele><time>2026-04-12T13:14:41.95Z</time></trkpt><trkpt lat="44.6269574" lon="10.2036012"><ele>581.0</ele><time>2026-04-12T13:14:42.95Z</time></trkpt><trkpt lat="44.6270278" lon="10.2036809"><ele>581.0</ele><time>2026-04-12T13:14:43.95Z</time></trkpt><trkpt lat="44.6270979" lon="10.2037742"><ele>581.0</ele><time>2026-04-12T13:14:44.949Z</time></trkpt><trkpt lat="44.6271704" lon="10.2038744"><ele>581.0</ele><time>2026-04-12T13:14:45.948Z</time></trkpt><trkpt lat="44.6272388" lon="10.2039867"><ele>581.0</ele><time>2026-04-12T13:14:46.948Z</time></trkpt><trkpt lat="44.6272989" lon="10.2040813"><ele>581.0</ele><time>2026-04-12T13:14:47.949Z</time></trkpt><trkpt lat="44.6273532" lon="10.2041638"><ele>581.0</ele><time>2026-04-12T13:14:48.949Z</time></trkpt><trkpt lat="44.6274042" lon="10.2042317"><ele>581.0</ele><time>2026-04-12T13:14:49.95Z</time></trkpt><trkpt lat="44.62746" lon="10.204279"><ele>581.0</ele><time>2026-04-12T13:14:50.95Z</time></trkpt><trkpt lat="44.6275181" lon="10.2043186"><ele>581.0</ele><time>2026-04-12T13:14:51.949Z</time></trkpt><trkpt lat="44.6276161" lon="10.2043427"><ele>581.0</ele><time>2026-04-12T13:14:53.949Z</time></trkpt><trkpt lat="44.6277331" lon="10.2043045"><ele>581.0</ele><time>2026-04-12T13:14:55.949Z</time></trkpt><trkpt lat="44.6277951" lon="10.2042602"><ele>581.0</ele><time>2026-04-12T13:14:56.95Z</time></trkpt><trkpt lat="44.6278571" lon="10.2042031"><ele>581.0</ele><time>2026-04-12T13:14:57.95Z</time></trkpt><trkpt lat="44.6279137" lon="10.2041456"><ele>581.0</ele><time>2026-04-12T13:14:58.949Z</time></trkpt><trkpt lat="44.6279715" lon="10.2040976"><ele>581.0</ele><time>2026-04-12T13:14:59.949Z</time></trkpt><trkpt lat="44.6280324" lon="10.2040385"><ele>579.0</ele><time>2026-04-12T13:15:00.95Z</time></trkpt><trkpt lat="44.6280956" lon="10.2039812"><ele>577.0</ele><time>2026-04-12T13:15:01.949Z</time></trkpt><trkpt lat="44.6281456" lon="10.2039035"><ele>575.0</ele><time>2026-04-12T13:15:02.95Z</time></trkpt><trkpt lat="44.6281846" lon="10.2038177"><ele>573.0</ele><time>2026-04-12T13:15:03.949Z</time></trkpt><trkpt lat="44.62822" lon="10.2037343"><ele>571.0</ele><time>2026-04-12T13:15:04.95Z</time></trkpt><trkpt lat="44.6282701" lon="10.2036517"><ele>569.0</ele><time>2026-04-12T13:15:05.95Z</time></trkpt><trkpt lat="44.6283233" lon="10.2035962"><ele>567.0</ele><time>2026-04-12T13:15:06.95Z</time></trkpt><trkpt lat="44.6284398" lon="10.2035593"><ele>567.0</ele><time>2026-04-12T13:15:08.95Z</time></trkpt><trkpt lat="44.6285202" lon="10.2035717"><ele>567.0</ele><time>2026-04-12T13:15:09.949Z</time></trkpt><trkpt lat="44.628626" lon="10.2035598"><ele>567.0</ele><time>2026-04-12T13:15:11.95Z</time></trkpt><trkpt lat="44.6287266" lon="10.2035289"><ele>567.0</ele><time>2026-04-12T13:15:13.948Z</time></trkpt><trkpt lat="44.6287912" lon="10.2035054"><ele>567.0</ele><time>2026-04-12T13:15:14.949Z</time></trkpt><trkpt lat="44.6288621" lon="10.2034852"><ele>567.0</ele><time>2026-04-12T13:15:15.949Z</time></trkpt><trkpt lat="44.6289296" lon="10.2034569"><ele>566.3333333333334</ele><time>2026-04-12T13:15:16.949Z</time></trkpt><trkpt lat="44.6290298" lon="10.2034396"><ele>565.6666666666666</ele><time>2026-04-12T13:15:17.95Z</time></trkpt><trkpt lat="44.6291212" lon="10.203423"><ele>565.0</ele><time>2026-04-12T13:15:18.949Z</time></trkpt><trkpt lat="44.6292108" lon="10.2034065"><ele>564.3333333333333</ele><time>2026-04-12T13:15:19.949Z</time></trkpt><trkpt lat="44.6292987" lon="10.203391"><ele>563.6666666666666</ele><time>2026-04-12T13:15:20.948Z</time></trkpt><trkpt lat="44.6293731" lon="10.2033795"><ele>563.0</ele><time>2026-04-12T13:15:21.95Z</time></trkpt><trkpt lat="44.6294392" lon="10.2033597"><ele>562.4285714285714</ele><time>2026-04-12T13:15:22.95Z</time></trkpt><trkpt lat="44.6295017" lon="10.203326"><ele>561.8571428571429</ele><time>2026-04-12T13:15:23.949Z</time></trkpt><trkpt lat="44.6295623" lon="10.2032845"><ele>561.2857142857143</ele><time>2026-04-12T13:15:24.95Z</time></trkpt><trkpt lat="44.6296239" lon="10.2032291"><ele>560.7142857142858</ele><time>2026-04-12T13:15:25.949Z</time></trkpt><trkpt lat="44.629687" lon="10.203158"><ele>560.1428571428572</ele><time>2026-04-12T13:15:26.949Z</time></trkpt><trkpt lat="44.6297501" lon="10.2030948"><ele>559.5714285714286</ele><time>2026-04-12T13:15:27.95Z</time></trkpt><trkpt lat="44.6298051" lon="10.2030491"><ele>559.0</ele><time>2026-04-12T13:15:28.95Z</time></trkpt><trkpt lat="44.6298782" lon="10.2029874"><ele>558.4</ele><time>2026-04-12T13:15:30.949Z</time></trkpt><trkpt lat="44.6299672" lon="10.202885"><ele>557.8</ele><time>2026-04-12T13:15:32.948Z</time></trkpt><trkpt lat="44.6300319" lon="10.2028221"><ele>557.2</ele><time>2026-04-12T13:15:33.95Z</time></trkpt><trkpt lat="44.6301088" lon="10.2027472"><ele>556.6</ele><time>2026-04-12T13:15:34.95Z</time></trkpt><trkpt lat="44.6301874" lon="10.2026695"><ele>556.0</ele><time>2026-04-12T13:15:35.95Z</time></trkpt><trkpt lat="44.6302563" lon="10.2026041"><ele>554.8333333333334</ele><time>2026-04-12T13:15:36.948Z</time></trkpt><trkpt lat="44.6303206" lon="10.2025434"><ele>553.6666666666667</ele><time>2026-04-12T13:15:37.949Z</time></trkpt><trkpt lat="44.6303849" lon="10.2024864"><ele>552.5</ele><time>2026-04-12T13:15:38.949Z</time></trkpt><trkpt lat="44.6304487" lon="10.2024312"><ele>551.3333333333334</ele><time>2026-04-12T13:15:39.95Z</time></trkpt><trkpt lat="44.6305119" lon="10.2023689"><ele>550.1666666666666</ele><time>2026-04-12T13:15:40.949Z</time></trkpt><trkpt lat="44.6305731" lon="10.2023039"><ele>549.0</ele><time>2026-04-12T13:15:41.948Z</time></trkpt><trkpt lat="44.6306388" lon="10.2022414"><ele>548.0</ele><time>2026-04-12T13:15:42.949Z</time></trkpt><trkpt lat="44.6307036" lon="10.2021985"><ele>547.0</ele><time>2026-04-12T13:15:43.95Z</time></trkpt><trkpt lat="44.6307695" lon="10.2021576"><ele>546.0</ele><time>2026-04-12T13:15:44.949Z</time></trkpt><trkpt lat="44.6308383" lon="10.2021273"><ele>545.0</ele><time>2026-04-12T13:15:45.949Z</time></trkpt><trkpt lat="44.6309058" lon="10.2020905"><ele>544.0</ele><time>2026-04-12T13:15:46.95Z</time></trkpt><trkpt lat="44.6309773" lon="10.2020508"><ele>543.0</ele><time>2026-04-12T13:15:47.949Z</time></trkpt><trkpt lat="44.6310536" lon="10.2020059"><ele>542.0</ele><time>2026-04-12T13:15:48.95Z</time></trkpt><trkpt lat="44.6311298" lon="10.201973"><ele>540.0</ele><time>2026-04-12T13:15:49.949Z</time></trkpt><trkpt lat="44.6312086" lon="10.2019306"><ele>538.0</ele><time>2026-04-12T13:15:50.95Z</time></trkpt><trkpt lat="44.6313055" lon="10.2018749"><ele>536.0</ele><time>2026-04-12T13:15:51.95Z</time></trkpt><trkpt lat="44.6313947" lon="10.2018285"><ele>534.0</ele><time>2026-04-12T13:15:52.949Z</time></trkpt><trkpt lat="44.631471" lon="10.201795"><ele>532.0</ele><time>2026-04-12T13:15:53.948Z</time></trkpt><trkpt lat="44.6315365" lon="10.2017629"><ele>530.0</ele><time>2026-04-12T13:15:54.95Z</time></trkpt><trkpt lat="44.6316049" lon="10.2017363"><ele>530.0</ele><time>2026-04-12T13:15:55.95Z</time></trkpt><trkpt lat="44.6316721" lon="10.2017263"><ele>530.0</ele><time>2026-04-12T13:15:56.949Z</time></trkpt><trkpt lat="44.6317468" lon="10.2017218"><ele>530.0</ele><time>2026-04-12T13:15:57.947Z</time></trkpt><trkpt lat="44.6318176" lon="10.2016991"><ele>530.0</ele><time>2026-04-12T13:15:58.948Z</time></trkpt><trkpt lat="44.6318895" lon="10.2016479"><ele>530.0</ele><time>2026-04-12T13:15:59.948Z</time></trkpt><trkpt lat="44.6319737" lon="10.2016109"><ele>530.0</ele><time>2026-04-12T13:16:00.947Z</time></trkpt><trkpt lat="44.6320703" lon="10.2015799"><ele>528.1666666666666</ele><time>2026-04-12T13:16:01.949Z</time></trkpt><trkpt lat="44.6321616" lon="10.2015525"><ele>526.3333333333333</ele><time>2026-04-12T13:16:02.948Z</time></trkpt><trkpt lat="44.632239" lon="10.2015129"><ele>524.5</ele><time>2026-04-12T13:16:03.948Z</time></trkpt><trkpt lat="44.6323074" lon="10.2014542"><ele>522.6666666666666</ele><time>2026-04-12T13:16:04.948Z</time></trkpt><trkpt lat="44.6323631" lon="10.2013946"><ele>520.8333333333334</ele><time>2026-04-12T13:16:05.949Z</time></trkpt><trkpt lat="44.6324127" lon="10.2013341"><ele>519.0</ele><time>2026-04-12T13:16:06.949Z</time></trkpt><trkpt lat="44.6324817" lon="10.2012759"><ele>518.1666666666666</ele><time>2026-04-12T13:16:07.948Z</time></trkpt><trkpt lat="44.6325534" lon="10.2012195"><ele>517.3333333333334</ele><time>2026-04-12T13:16:08.949Z</time></trkpt><trkpt lat="44.632626" lon="10.2011716"><ele>516.5</ele><time>2026-04-12T13:16:09.949Z</time></trkpt><trkpt lat="44.6327087" lon="10.2011372"><ele>515.6666666666667</ele><time>2026-04-12T13:16:10.948Z</time></trkpt><trkpt lat="44.6327885" lon="10.2010999"><ele>514.8333333333334</ele><time>2026-04-12T13:16:11.948Z</time></trkpt><trkpt lat="44.6328747" lon="10.2010601"><ele>514.0</ele><time>2026-04-12T13:16:12.948Z</time></trkpt><trkpt lat="44.6329628" lon="10.2010175"><ele>513.0</ele><time>2026-04-12T13:16:13.949Z</time></trkpt><trkpt lat="44.6330442" lon="10.2009777"><ele>512.0</ele><time>2026-04-12T13:16:14.948Z</time></trkpt><trkpt lat="44.6331303" lon="10.2009362"><ele>511.0</ele><time>2026-04-12T13:16:15.948Z</time></trkpt><trkpt lat="44.6332269" lon="10.2008933"><ele>510.0</ele><time>2026-04-12T13:16:16.949Z</time></trkpt><trkpt lat="44.6333083" lon="10.2008545"><ele>509.0</ele><time>2026-04-12T13:16:17.949Z</time></trkpt><trkpt lat="44.6333928" lon="10.2008156"><ele>509.0</ele><time>2026-04-12T13:16:18.949Z</time></trkpt><trkpt lat="44.6334719" lon="10.2007796"><ele>509.0</ele><time>2026-04-12T13:16:19.948Z</time></trkpt><trkpt lat="44.6335593" lon="10.2007451"><ele>509.0</ele><time>2026-04-12T13:16:20.949Z</time></trkpt><trkpt lat="44.6336582" lon="10.2007086"><ele>509.0</ele><time>2026-04-12T13:16:21.949Z</time></trkpt><trkpt lat="44.6337717" lon="10.2006701"><ele>509.0</ele><time>2026-04-12T13:16:22.949Z</time></trkpt><trkpt lat="44.633887" lon="10.2006165"><ele>507.49999999999994</ele><time>2026-04-12T13:16:23.949Z</time></trkpt><trkpt lat="44.6339856" lon="10.2005711"><ele>506.0</ele><time>2026-04-12T13:16:24.949Z</time></trkpt><trkpt lat="44.6340644" lon="10.200533"><ele>504.5</ele><time>2026-04-12T13:16:25.949Z</time></trkpt><trkpt lat="44.6341389" lon="10.2004961"><ele>503.0</ele><time>2026-04-12T13:16:26.949Z</time></trkpt><trkpt lat="44.6342189" lon="10.2004558"><ele>501.49999999999994</ele><time>2026-04-12T13:16:27.948Z</time></trkpt><trkpt lat="44.6343096" lon="10.2004108"><ele>500.0</ele><time>2026-04-12T13:16:28.949Z</time></trkpt><trkpt lat="44.6344082" lon="10.2003598"><ele>499.99999999999994</ele><time>2026-04-12T13:16:29.949Z</time></trkpt><trkpt lat="44.6344856" lon="10.2003216"><ele>500.0</ele><time>2026-04-12T13:16:30.948Z</time></trkpt><trkpt lat="44.6345528" lon="10.2002786"><ele>500.0</ele><time>2026-04-12T13:16:31.949Z</time></trkpt><trkpt lat="44.6346275" lon="10.2002304"><ele>500.0</ele><time>2026-04-12T13:16:32.949Z</time></trkpt><trkpt lat="44.6347088" lon="10.2001674"><ele>499.99999999999994</ele><time>2026-04-12T13:16:33.949Z</time></trkpt><trkpt lat="44.6347878" lon="10.2000928"><ele>500.0</ele><time>2026-04-12T13:16:34.948Z</time></trkpt><trkpt lat="44.6348707" lon="10.2000041"><ele>500.0</ele><time>2026-04-12T13:16:35.948Z</time></trkpt><trkpt lat="44.634953" lon="10.1999122"><ele>500.0</ele><time>2026-04-12T13:16:36.949Z</time></trkpt><trkpt lat="44.6350255" lon="10.1998267"><ele>500.0</ele><time>2026-04-12T13:16:37.948Z</time></trkpt><trkpt lat="44.6350979" lon="10.199738"><ele>500.0</ele><time>2026-04-12T13:16:38.948Z</time></trkpt><trkpt lat="44.6351617" lon="10.1996573"><ele>500.0</ele><time>2026-04-12T13:16:39.949Z</time></trkpt><trkpt lat="44.635224" lon="10.1995787"><ele>498.8333333333333</ele><time>2026-04-12T13:16:40.948Z</time></trkpt><trkpt lat="44.6352923" lon="10.1994784"><ele>497.66666666666663</ele><time>2026-04-12T13:16:41.948Z</time></trkpt><trkpt lat="44.6353441" lon="10.19939"><ele>496.5</ele><time>2026-04-12T13:16:42.949Z</time></trkpt><trkpt lat="44.6353919" lon="10.1993086"><ele>495.33333333333337</ele><time>2026-04-12T13:16:43.949Z</time></trkpt><trkpt lat="44.6354406" lon="10.1992237"><ele>494.1666666666667</ele><time>2026-04-12T13:16:44.948Z</time></trkpt><trkpt lat="44.6354885" lon="10.1991302"><ele>493.0</ele><time>2026-04-12T13:16:45.948Z</time></trkpt><trkpt lat="44.6355479" lon="10.1990386"><ele>491.33333333333337</ele><time>2026-04-12T13:16:46.949Z</time></trkpt><trkpt lat="44.6356153" lon="10.1989511"><ele>489.6666666666667</ele><time>2026-04-12T13:16:47.949Z</time></trkpt><trkpt lat="44.6356838" lon="10.1988781"><ele>488.0</ele><time>2026-04-12T13:16:48.948Z</time></trkpt><trkpt lat="44.6357575" lon="10.1988203"><ele>486.33333333333337</ele><time>2026-04-12T13:16:49.948Z</time></trkpt><trkpt lat="44.6358409" lon="10.1987533"><ele>484.6666666666667</ele><time>2026-04-12T13:16:50.948Z</time></trkpt><trkpt lat="44.6359136" lon="10.1986819"><ele>483.0</ele><time>2026-04-12T13:16:51.948Z</time></trkpt><trkpt lat="44.635982" lon="10.1986215"><ele>483.0</ele><time>2026-04-12T13:16:52.948Z</time></trkpt><trkpt lat="44.6360477" lon="10.1985701"><ele>483.0</ele><time>2026-04-12T13:16:53.948Z</time></trkpt><trkpt lat="44.6361068" lon="10.1985269"><ele>483.0</ele><time>2026-04-12T13:16:54.949Z</time></trkpt><trkpt lat="44.6361643" lon="10.1984904"><ele>483.0</ele><time>2026-04-12T13:16:55.948Z</time></trkpt><trkpt lat="44.6362596" lon="10.1984242"><ele>483.0</ele><time>2026-04-12T13:16:57.947Z</time></trkpt><trkpt lat="44.636318" lon="10.198357"><ele>483.0</ele><time>2026-04-12T13:17:44.949Z</time></trkpt><trkpt lat="44.6363716" lon="10.1982751"><ele>482.0</ele><time>2026-04-12T13:17:47.949Z</time></trkpt><trkpt lat="44.6364288" lon="10.1981965"><ele>480.99999999999994</ele><time>2026-04-12T13:17:49.949Z</time></trkpt><trkpt lat="44.6365098" lon="10.1981026"><ele>479.99999999999994</ele><time>2026-04-12T13:17:51.949Z</time></trkpt><trkpt lat="44.6366053" lon="10.1980096"><ele>479.0</ele><time>2026-04-12T13:17:53.948Z</time></trkpt><trkpt lat="44.6366999" lon="10.1979238"><ele>478.0</ele><time>2026-04-12T13:17:55.948Z</time></trkpt><trkpt lat="44.636758" lon="10.1978735"><ele>477.0</ele><time>2026-04-12T13:17:56.948Z</time></trkpt><trkpt lat="44.6368204" lon="10.1978089"><ele>475.99999999999994</ele><time>2026-04-12T13:17:57.949Z</time></trkpt><trkpt lat="44.6368858" lon="10.1977402"><ele>474.99999999999994</ele><time>2026-04-12T13:17:58.948Z</time></trkpt><trkpt lat="44.6369638" lon="10.1976489"><ele>474.0</ele><time>2026-04-12T13:17:59.948Z</time></trkpt><trkpt lat="44.6370478" lon="10.1975538"><ele>473.0</ele><time>2026-04-12T13:18:00.949Z</time></trkpt><trkpt lat="44.6371269" lon="10.1974587"><ele>473.0</ele><time>2026-04-12T13:18:01.949Z</time></trkpt><trkpt lat="44.6371983" lon="10.1973721"><ele>472.99999999999994</ele><time>2026-04-12T13:18:02.949Z</time></trkpt><trkpt lat="44.6372623" lon="10.1972924"><ele>472.99999999999994</ele><time>2026-04-12T13:18:03.949Z</time></trkpt><trkpt lat="44.6373201" lon="10.1971979"><ele>473.0</ele><time>2026-04-12T13:18:04.949Z</time></trkpt><trkpt lat="44.6373729" lon="10.1970896"><ele>473.0</ele><time>2026-04-12T13:18:05.949Z</time></trkpt><trkpt lat="44.6374228" lon="10.1969688"><ele>472.99999999999994</ele><time>2026-04-12T13:18:06.948Z</time></trkpt><trkpt lat="44.6374687" lon="10.1968462"><ele>473.0</ele><time>2026-04-12T13:18:07.948Z</time></trkpt><trkpt lat="44.6375107" lon="10.1967332"><ele>473.0</ele><time>2026-04-12T13:18:08.947Z</time></trkpt><trkpt lat="44.6375567" lon="10.1966307"><ele>473.0</ele><time>2026-04-12T13:18:09.949Z</time></trkpt><trkpt lat="44.6376003" lon="10.196537"><ele>472.99999999999994</ele><time>2026-04-12T13:18:10.949Z</time></trkpt><trkpt lat="44.6376448" lon="10.1964494"><ele>473.0</ele><time>2026-04-12T13:18:11.949Z</time></trkpt><trkpt lat="44.6376864" lon="10.1963649"><ele>470.4</ele><time>2026-04-12T13:18:12.949Z</time></trkpt><trkpt lat="44.6377315" lon="10.1962708"><ele>467.79999999999995</ele><time>2026-04-12T13:18:13.947Z</time></trkpt><trkpt lat="44.637779" lon="10.1961702"><ele>465.2</ele><time>2026-04-12T13:18:14.948Z</time></trkpt><trkpt lat="44.6378266" lon="10.1960593"><ele>462.6</ele><time>2026-04-12T13:18:15.949Z</time></trkpt><trkpt lat="44.6378741" lon="10.1959402"><ele>460.0</ele><time>2026-04-12T13:18:16.949Z</time></trkpt><trkpt lat="44.6379172" lon="10.195823"><ele>458.33333333333337</ele><time>2026-04-12T13:18:17.948Z</time></trkpt><trkpt lat="44.6379506" lon="10.1957113"><ele>456.6666666666667</ele><time>2026-04-12T13:18:18.948Z</time></trkpt><trkpt lat="44.6379834" lon="10.1956095"><ele>455.0</ele><time>2026-04-12T13:18:19.949Z</time></trkpt><trkpt lat="44.6380113" lon="10.1955073"><ele>453.33333333333337</ele><time>2026-04-12T13:18:20.949Z</time></trkpt><trkpt lat="44.6380434" lon="10.1954027"><ele>451.6666666666667</ele><time>2026-04-12T13:18:21.949Z</time></trkpt><trkpt lat="44.6380499" lon="10.195293"><ele>450.0</ele><time>2026-04-12T13:18:22.948Z</time></trkpt><trkpt lat="44.6380542" lon="10.1951852"><ele>449.7142857142858</ele><time>2026-04-12T13:18:23.948Z</time></trkpt><trkpt lat="44.6380663" lon="10.1950816"><ele>449.42857142857144</ele><time>2026-04-12T13:18:24.949Z</time></trkpt><trkpt lat="44.638081" lon="10.1949756"><ele>449.14285714285717</ele><time>2026-04-12T13:18:25.948Z</time></trkpt><trkpt lat="44.6381033" lon="10.194879"><ele>448.8571428571429</ele><time>2026-04-12T13:18:26.948Z</time></trkpt><trkpt lat="44.6381214" lon="10.1947855"><ele>448.57142857142856</ele><time>2026-04-12T13:18:27.949Z</time></trkpt><trkpt lat="44.6381385" lon="10.194694"><ele>448.2857142857143</ele><time>2026-04-12T13:18:28.947Z</time></trkpt><trkpt lat="44.6381577" lon="10.1945989"><ele>448.0</ele><time>2026-04-12T13:18:29.949Z</time></trkpt><trkpt lat="44.6381726" lon="10.1944836"><ele>446.2</ele><time>2026-04-12T13:18:30.949Z</time></trkpt><trkpt lat="44.6381843" lon="10.1943578"><ele>444.4</ele><time>2026-04-12T13:18:31.948Z</time></trkpt><trkpt lat="44.6381918" lon="10.1942379"><ele>442.59999999999997</ele><time>2026-04-12T13:18:32.949Z</time></trkpt><trkpt lat="44.6382011" lon="10.1941196"><ele>440.79999999999995</ele><time>2026-04-12T13:18:33.949Z</time></trkpt><trkpt lat="44.6382141" lon="10.1939878"><ele>439.0</ele><time>2026-04-12T13:18:34.949Z</time></trkpt><trkpt lat="44.6382452" lon="10.1938004"><ele>437.33333333333337</ele><time>2026-04-12T13:18:36.948Z</time></trkpt><trkpt lat="44.6382672" lon="10.1936965"><ele>435.6666666666667</ele><time>2026-04-12T13:18:37.948Z</time></trkpt><trkpt lat="44.6382952" lon="10.193614"><ele>434.0</ele><time>2026-04-12T13:18:38.947Z</time></trkpt><trkpt lat="44.638328" lon="10.1935374"><ele>432.33333333333337</ele><time>2026-04-12T13:18:39.948Z</time></trkpt><trkpt lat="44.6383899" lon="10.1934118"><ele>430.6666666666667</ele><time>2026-04-12T13:18:41.948Z</time></trkpt><trkpt lat="44.6384632" lon="10.1932885"><ele>429.0</ele><time>2026-04-12T13:18:43.949Z</time></trkpt><trkpt lat="44.6385217" lon="10.1931517"><ele>426.6</ele><time>2026-04-12T13:18:45.948Z</time></trkpt><trkpt lat="44.6385309" lon="10.1930265"><ele>424.2</ele><time>2026-04-12T13:18:47.948Z</time></trkpt><trkpt lat="44.6385213" lon="10.1929027"><ele>421.8</ele><time>2026-04-12T13:18:49.949Z</time></trkpt><trkpt lat="44.6385365" lon="10.1927798"><ele>419.40000000000003</ele><time>2026-04-12T13:18:51.948Z</time></trkpt><trkpt lat="44.6385787" lon="10.1926268"><ele>417.0</ele><time>2026-04-12T13:18:53.948Z</time></trkpt><trkpt lat="44.6386211" lon="10.1924637"><ele>413.5</ele><time>2026-04-12T13:18:55.949Z</time></trkpt><trkpt lat="44.6386621" lon="10.192315"><ele>410.0</ele><time>2026-04-12T13:18:57.948Z</time></trkpt><trkpt lat="44.6386727" lon="10.1921558"><ele>406.5</ele><time>2026-04-12T13:18:59.948Z</time></trkpt><trkpt lat="44.6386878" lon="10.1920563"><ele>403.0</ele><time>2026-04-12T13:19:00.949Z</time></trkpt><trkpt lat="44.6387028" lon="10.1919654"><ele>399.5</ele><time>2026-04-12T13:19:01.948Z</time></trkpt><trkpt lat="44.6387163" lon="10.1918747"><ele>396.0</ele><time>2026-04-12T13:19:02.949Z</time></trkpt><trkpt lat="44.6387193" lon="10.1917679"><ele>396.0</ele><time>2026-04-12T13:19:03.948Z</time></trkpt><trkpt lat="44.6387271" lon="10.1916662"><ele>396.0</ele><time>2026-04-12T13:19:04.948Z</time></trkpt><trkpt lat="44.6387284" lon="10.1915017"><ele>396.0</ele><time>2026-04-12T13:19:06.948Z</time></trkpt><trkpt lat="44.6387333" lon="10.1914117"><ele>396.0</ele><time>2026-04-12T13:19:07.949Z</time></trkpt><trkpt lat="44.6387441" lon="10.1913169"><ele>396.0</ele><time>2026-04-12T13:19:08.948Z</time></trkpt><trkpt lat="44.6387605" lon="10.191188"><ele>396.0</ele><time>2026-04-12T13:19:09.948Z</time></trkpt><trkpt lat="44.6387894" lon="10.191052"><ele>395.20000000000005</ele><time>2026-04-12T13:19:10.949Z</time></trkpt><trkpt lat="44.6388304" lon="10.1909107"><ele>394.40000000000003</ele><time>2026-04-12T13:19:11.947Z</time></trkpt><trkpt lat="44.638868" lon="10.1907843"><ele>393.6</ele><time>2026-04-12T13:19:12.949Z</time></trkpt><trkpt lat="44.6389028" lon="10.1906687"><ele>392.8</ele><time>2026-04-12T13:19:13.948Z</time></trkpt><trkpt lat="44.6389395" lon="10.190563"><ele>392.0</ele><time>2026-04-12T13:19:14.948Z</time></trkpt><trkpt lat="44.6389724" lon="10.1904484"><ele>390.66666666666663</ele><time>2026-04-12T13:19:15.947Z</time></trkpt><trkpt lat="44.6390017" lon="10.1903309"><ele>389.3333333333333</ele><time>2026-04-12T13:19:16.949Z</time></trkpt><trkpt lat="44.639027" lon="10.1902246"><ele>388.0</ele><time>2026-04-12T13:19:17.948Z</time></trkpt><trkpt lat="44.6390546" lon="10.1901317"><ele>386.66666666666663</ele><time>2026-04-12T13:19:18.948Z</time></trkpt><trkpt lat="44.6390843" lon="10.1900427"><ele>385.3333333333333</ele><time>2026-04-12T13:19:19.949Z</time></trkpt><trkpt lat="44.6391126" lon="10.1899566"><ele>384.0</ele><time>2026-04-12T13:19:20.948Z</time></trkpt><trkpt lat="44.6391514" lon="10.189805"><ele>381.25</ele><time>2026-04-12T13:19:22.948Z</time></trkpt><trkpt lat="44.6391598" lon="10.1896298"><ele>378.5</ele><time>2026-04-12T13:19:24.949Z</time></trkpt><trkpt lat="44.6391384" lon="10.1894663"><ele>375.75</ele><time>2026-04-12T13:19:26.949Z</time></trkpt><trkpt lat="44.6390915" lon="10.1893125"><ele>373.0</ele><time>2026-04-12T13:19:28.948Z</time></trkpt><trkpt lat="44.6390734" lon="10.1891705"><ele>373.0</ele><time>2026-04-12T13:19:30.949Z</time></trkpt><trkpt lat="44.6391" lon="10.1890375"><ele>373.0</ele><time>2026-04-12T13:19:32.948Z</time></trkpt><trkpt lat="44.6391442" lon="10.188911"><ele>373.0</ele><time>2026-04-12T13:19:34.949Z</time></trkpt><trkpt lat="44.6392077" lon="10.1888042"><ele>373.0</ele><time>2026-04-12T13:19:36.949Z</time></trkpt><trkpt lat="44.6392657" lon="10.1886982"><ele>373.0</ele><time>2026-04-12T13:19:38.949Z</time></trkpt><trkpt lat="44.6393445" lon="10.1886165"><ele>370.0</ele><time>2026-04-12T13:19:40.949Z</time></trkpt><trkpt lat="44.6394125" lon="10.188535"><ele>367.0</ele><time>2026-04-12T13:19:42.948Z</time></trkpt><trkpt lat="44.6394565" lon="10.1884645"><ele>364.0</ele><time>2026-04-12T13:19:44.947Z</time></trkpt><trkpt lat="44.6394719" lon="10.188377"><ele>361.0</ele><time>2026-04-12T13:19:46.949Z</time></trkpt><trkpt lat="44.6394664" lon="10.1882651"><ele>358.0</ele><time>2026-04-12T13:19:48.949Z</time></trkpt><trkpt lat="44.6394422" lon="10.1881669"><ele>355.0</ele><time>2026-04-12T13:19:50.949Z</time></trkpt><trkpt lat="44.6393893" lon="10.1880539"><ele>353.3333333333333</ele><time>2026-04-12T13:19:52.949Z</time></trkpt><trkpt lat="44.639358" lon="10.1879299"><ele>351.66666666666663</ele><time>2026-04-12T13:19:54.949Z</time></trkpt><trkpt lat="44.6393554" lon="10.1878125"><ele>350.0</ele><time>2026-04-12T13:19:56.949Z</time></trkpt><trkpt lat="44.6393366" lon="10.1876979"><ele>348.3333333333333</ele><time>2026-04-12T13:19:58.949Z</time></trkpt><trkpt lat="44.6393002" lon="10.1875999"><ele>346.6666666666667</ele><time>2026-04-12T13:20:00.949Z</time></trkpt><trkpt lat="44.6392973" lon="10.1874962"><ele>345.0</ele><time>2026-04-12T13:20:02.949Z</time></trkpt><trkpt lat="44.6393066" lon="10.1873634"><ele>342.8</ele><time>2026-04-12T13:20:04.949Z</time></trkpt><trkpt lat="44.6393224" lon="10.1871986"><ele>340.6</ele><time>2026-04-12T13:20:06.948Z</time></trkpt><trkpt lat="44.6393403" lon="10.1870386"><ele>338.4</ele><time>2026-04-12T13:20:08.949Z</time></trkpt><trkpt lat="44.6393587" lon="10.1869538"><ele>336.2</ele><time>2026-04-12T13:20:09.948Z</time></trkpt><trkpt lat="44.6393985" lon="10.1867881"><ele>334.0</ele><time>2026-04-12T13:20:11.948Z</time></trkpt><trkpt lat="44.6394266" lon="10.1867039"><ele>334.0</ele><time>2026-04-12T13:20:12.949Z</time></trkpt><trkpt lat="44.6394462" lon="10.1866084"><ele>334.0</ele><time>2026-04-12T13:20:13.948Z</time></trkpt><trkpt lat="44.6394615" lon="10.1865175"><ele>334.0</ele><time>2026-04-12T13:20:14.949Z</time></trkpt><trkpt lat="44.6394828" lon="10.1864226"><ele>334.0</ele><time>2026-04-12T13:20:15.948Z</time></trkpt><trkpt lat="44.6395027" lon="10.1863263"><ele>334.0</ele><time>2026-04-12T13:20:16.948Z</time></trkpt><trkpt lat="44.6395204" lon="10.1862348"><ele>334.0</ele><time>2026-04-12T13:20:17.948Z</time></trkpt><trkpt lat="44.6395456" lon="10.1861364"><ele>334.0</ele><time>2026-04-12T13:20:18.949Z</time></trkpt><trkpt lat="44.6395734" lon="10.186032"><ele>332.85714285714283</ele><time>2026-04-12T13:20:19.948Z</time></trkpt><trkpt lat="44.6396106" lon="10.1859353"><ele>331.7142857142857</ele><time>2026-04-12T13:20:20.949Z</time></trkpt><trkpt lat="44.6396573" lon="10.1858407"><ele>330.57142857142856</ele><time>2026-04-12T13:20:21.947Z</time></trkpt><trkpt lat="44.6396953" lon="10.1857569"><ele>329.42857142857144</ele><time>2026-04-12T13:20:22.949Z</time></trkpt><trkpt lat="44.6397286" lon="10.1856743"><ele>328.2857142857143</ele><time>2026-04-12T13:20:23.949Z</time></trkpt><trkpt lat="44.6397613" lon="10.1855901"><ele>327.14285714285717</ele><time>2026-04-12T13:20:24.949Z</time></trkpt><trkpt lat="44.6397957" lon="10.1855083"><ele>326.0</ele><time>2026-04-12T13:20:25.948Z</time></trkpt><trkpt lat="44.6398343" lon="10.1854238"><ele>324.83333333333337</ele><time>2026-04-12T13:20:26.948Z</time></trkpt><trkpt lat="44.6398772" lon="10.1853231"><ele>323.6666666666667</ele><time>2026-04-12T13:20:27.948Z</time></trkpt><trkpt lat="44.6399264" lon="10.1852252"><ele>322.5</ele><time>2026-04-12T13:20:28.948Z</time></trkpt><trkpt lat="44.6399783" lon="10.1851257"><ele>321.3333333333333</ele><time>2026-04-12T13:20:29.949Z</time></trkpt><trkpt lat="44.6400278" lon="10.1850242"><ele>320.16666666666663</ele><time>2026-04-12T13:20:30.949Z</time></trkpt><trkpt lat="44.640073" lon="10.1849183"><ele>319.0</ele><time>2026-04-12T13:20:31.948Z</time></trkpt><trkpt lat="44.640111" lon="10.1848082"><ele>318.8</ele><time>2026-04-12T13:20:32.948Z</time></trkpt><trkpt lat="44.6401502" lon="10.1846942"><ele>318.59999999999997</ele><time>2026-04-12T13:20:33.948Z</time></trkpt><trkpt lat="44.6401856" lon="10.1845774"><ele>318.4</ele><time>2026-04-12T13:20:34.948Z</time></trkpt><trkpt lat="44.6402297" lon="10.1844585"><ele>318.2</ele><time>2026-04-12T13:20:35.947Z</time></trkpt><trkpt lat="44.6402812" lon="10.1843376"><ele>318.0</ele><time>2026-04-12T13:20:36.949Z</time></trkpt><trkpt lat="44.6403365" lon="10.1842171"><ele>318.0</ele><time>2026-04-12T13:20:37.948Z</time></trkpt><trkpt lat="44.6403912" lon="10.1840976"><ele>318.0</ele><time>2026-04-12T13:20:38.948Z</time></trkpt><trkpt lat="44.640452" lon="10.1839749"><ele>318.0</ele><time>2026-04-12T13:20:39.949Z</time></trkpt><trkpt lat="44.6405089" lon="10.1838604"><ele>318.0</ele><time>2026-04-12T13:20:40.948Z</time></trkpt><trkpt lat="44.6405701" lon="10.1837451"><ele>318.0</ele><time>2026-04-12T13:20:41.948Z</time></trkpt><trkpt lat="44.6406311" lon="10.1836377"><ele>316.6</ele><time>2026-04-12T13:20:42.947Z</time></trkpt><trkpt lat="44.6406914" lon="10.1835345"><ele>315.20000000000005</ele><time>2026-04-12T13:20:43.949Z</time></trkpt><trkpt lat="44.6407468" lon="10.1834434"><ele>313.8</ele><time>2026-04-12T13:20:44.947Z</time></trkpt><trkpt lat="44.6407881" lon="10.1833634"><ele>312.40000000000003</ele><time>2026-04-12T13:20:45.949Z</time></trkpt><trkpt lat="44.6408428" lon="10.1832225"><ele>311.0</ele><time>2026-04-12T13:20:47.949Z</time></trkpt><trkpt lat="44.6408601" lon="10.1830427"><ele>310.1666666666667</ele><time>2026-04-12T13:20:49.948Z</time></trkpt><trkpt lat="44.6408574" lon="10.1829247"><ele>309.33333333333337</ele><time>2026-04-12T13:20:50.949Z</time></trkpt><trkpt lat="44.6408488" lon="10.1828089"><ele>308.5</ele><time>2026-04-12T13:20:51.948Z</time></trkpt><trkpt lat="44.6408409" lon="10.1826918"><ele>307.6666666666667</ele><time>2026-04-12T13:20:52.948Z</time></trkpt><trkpt lat="44.640842" lon="10.1825788"><ele>306.8333333333333</ele><time>2026-04-12T13:20:53.948Z</time></trkpt><trkpt lat="44.6408397" lon="10.1824778"><ele>306.0</ele><time>2026-04-12T13:20:54.948Z</time></trkpt><trkpt lat="44.6408328" lon="10.1823761"><ele>305.2857142857143</ele><time>2026-04-12T13:20:55.948Z</time></trkpt><trkpt lat="44.6408233" lon="10.1822869"><ele>304.57142857142856</ele><time>2026-04-12T13:20:56.948Z</time></trkpt><trkpt lat="44.640811" lon="10.1821692"><ele>303.8571428571429</ele><time>2026-04-12T13:20:57.949Z</time></trkpt><trkpt lat="44.6408138" lon="10.1820746"><ele>303.1428571428571</ele><time>2026-04-12T13:20:58.948Z</time></trkpt><trkpt lat="44.6408336" lon="10.1819888"><ele>302.42857142857144</ele><time>2026-04-12T13:20:59.948Z</time></trkpt><trkpt lat="44.6408711" lon="10.1818871"><ele>301.7142857142857</ele><time>2026-04-12T13:21:00.949Z</time></trkpt><trkpt lat="44.6409268" lon="10.1817937"><ele>301.0</ele><time>2026-04-12T13:21:01.949Z</time></trkpt><trkpt lat="44.6409962" lon="10.1816965"><ele>301.0</ele><time>2026-04-12T13:21:02.948Z</time></trkpt><trkpt lat="44.641069" lon="10.1816091"><ele>301.0</ele><time>2026-04-12T13:21:03.949Z</time></trkpt><trkpt lat="44.6411477" lon="10.1815221"><ele>301.0</ele><time>2026-04-12T13:21:04.949Z</time></trkpt><trkpt lat="44.6412285" lon="10.1814364"><ele>301.0</ele><time>2026-04-12T13:21:05.949Z</time></trkpt><trkpt lat="44.6413142" lon="10.1813577"><ele>301.0</ele><time>2026-04-12T13:21:06.949Z</time></trkpt><trkpt lat="44.6413996" lon="10.1812789"><ele>299.8</ele><time>2026-04-12T13:21:07.949Z</time></trkpt><trkpt lat="44.6414896" lon="10.1812022"><ele>298.6</ele><time>2026-04-12T13:21:08.949Z</time></trkpt><trkpt lat="44.6415757" lon="10.1811247"><ele>297.4</ele><time>2026-04-12T13:21:09.948Z</time></trkpt><trkpt lat="44.6416582" lon="10.1810503"><ele>296.2</ele><time>2026-04-12T13:21:10.949Z</time></trkpt><trkpt lat="44.6417362" lon="10.1809825"><ele>295.0</ele><time>2026-04-12T13:21:11.949Z</time></trkpt><trkpt lat="44.6418109" lon="10.1809202"><ele>295.0</ele><time>2026-04-12T13:21:12.948Z</time></trkpt><trkpt lat="44.6418843" lon="10.1808669"><ele>295.0</ele><time>2026-04-12T13:21:13.949Z</time></trkpt><trkpt lat="44.6419545" lon="10.18082"><ele>295.0</ele><time>2026-04-12T13:21:14.948Z</time></trkpt><trkpt lat="44.6420202" lon="10.1807857"><ele>295.0</ele><time>2026-04-12T13:21:15.949Z</time></trkpt><trkpt lat="44.6420813" lon="10.1807595"><ele>295.0</ele><time>2026-04-12T13:21:16.949Z</time></trkpt><trkpt lat="44.6421575" lon="10.1807008"><ele>295.0</ele><time>2026-04-12T13:21:18.949Z</time></trkpt><trkpt lat="44.6421941" lon="10.1806124"><ele>294.6</ele><time>2026-04-12T13:22:02.948Z</time></trkpt><trkpt lat="44.6421712" lon="10.1805285"><ele>294.2</ele><time>2026-04-12T13:22:04.949Z</time></trkpt><trkpt lat="44.6420554" lon="10.1804529"><ele>293.8</ele><time>2026-04-12T13:22:06.948Z</time></trkpt><trkpt lat="44.6419864" lon="10.1803899"><ele>293.4</ele><time>2026-04-12T13:22:07.949Z</time></trkpt><trkpt lat="44.6419122" lon="10.1803171"><ele>293.0</ele><time>2026-04-12T13:22:08.948Z</time></trkpt><trkpt lat="44.6418341" lon="10.1802387"><ele>293.0</ele><time>2026-04-12T13:22:09.947Z</time></trkpt><trkpt lat="44.6417413" lon="10.1801505"><ele>293.0</ele><time>2026-04-12T13:22:10.949Z</time></trkpt><trkpt lat="44.6416485" lon="10.1800639"><ele>293.0</ele><time>2026-04-12T13:22:11.949Z</time></trkpt><trkpt lat="44.6415546" lon="10.179976"><ele>293.0</ele><time>2026-04-12T13:22:12.949Z</time></trkpt><trkpt lat="44.6414559" lon="10.1798892"><ele>293.0</ele><time>2026-04-12T13:22:13.948Z</time></trkpt><trkpt lat="44.6413577" lon="10.1797982"><ele>293.0</ele><time>2026-04-12T13:22:14.948Z</time></trkpt><trkpt lat="44.6412524" lon="10.179701"><ele>293.0</ele><time>2026-04-12T13:22:15.949Z</time></trkpt><trkpt lat="44.6411453" lon="10.1796035"><ele>293.0</ele><time>2026-04-12T13:22:16.948Z</time></trkpt><trkpt lat="44.641039" lon="10.1795035"><ele>293.0</ele><time>2026-04-12T13:22:17.949Z</time></trkpt><trkpt lat="44.6409293" lon="10.1794011"><ele>293.0</ele><time>2026-04-12T13:22:18.947Z</time></trkpt><trkpt lat="44.6408186" lon="10.1792956"><ele>293.0</ele><time>2026-04-12T13:22:19.949Z</time></trkpt><trkpt lat="44.6407071" lon="10.179187"><ele>293.0</ele><time>2026-04-12T13:22:20.949Z</time></trkpt><trkpt lat="44.6405952" lon="10.1790764"><ele>293.0</ele><time>2026-04-12T13:22:21.948Z</time></trkpt><trkpt lat="44.6404823" lon="10.1789653"><ele>293.0</ele><time>2026-04-12T13:22:22.948Z</time></trkpt><trkpt lat="44.6403673" lon="10.1788487"><ele>293.0</ele><time>2026-04-12T13:22:23.949Z</time></trkpt><trkpt lat="44.6402546" lon="10.178724"><ele>293.0</ele><time>2026-04-12T13:22:24.949Z</time></trkpt><trkpt lat="44.6401464" lon="10.1785958"><ele>293.0</ele><time>2026-04-12T13:22:25.948Z</time></trkpt><trkpt lat="44.6400379" lon="10.1784667"><ele>293.0</ele><time>2026-04-12T13:22:26.949Z</time></trkpt><trkpt lat="44.6399298" lon="10.17834"><ele>293.0</ele><time>2026-04-12T13:22:27.948Z</time></trkpt><trkpt lat="44.6398198" lon="10.1782125"><ele>293.0</ele><time>2026-04-12T13:22:28.948Z</time></trkpt><trkpt lat="44.6397091" lon="10.1780835"><ele>293.25</ele><time>2026-04-12T13:22:29.949Z</time></trkpt><trkpt lat="44.6395967" lon="10.1779545"><ele>293.5</ele><time>2026-04-12T13:22:30.949Z</time></trkpt><trkpt lat="44.6394867" lon="10.1778255"><ele>293.75</ele><time>2026-04-12T13:22:31.947Z</time></trkpt><trkpt lat="44.639375" lon="10.1776886"><ele>294.0</ele><time>2026-04-12T13:22:32.949Z</time></trkpt><trkpt lat="44.6392657" lon="10.1775529"><ele>294.0</ele><time>2026-04-12T13:22:33.947Z</time></trkpt><trkpt lat="44.6391562" lon="10.1774166"><ele>294.0</ele><time>2026-04-12T13:22:34.948Z</time></trkpt><trkpt lat="44.6390471" lon="10.1772836"><ele>294.0</ele><time>2026-04-12T13:22:35.949Z</time></trkpt><trkpt lat="44.6389359" lon="10.1771523"><ele>294.0</ele><time>2026-04-12T13:22:36.948Z</time></trkpt><trkpt lat="44.6388257" lon="10.1770205"><ele>294.0</ele><time>2026-04-12T13:22:37.949Z</time></trkpt><trkpt lat="44.6387136" lon="10.1768865"><ele>294.0</ele><time>2026-04-12T13:22:38.949Z</time></trkpt><trkpt lat="44.6386039" lon="10.1767534"><ele>294.0</ele><time>2026-04-12T13:22:39.948Z</time></trkpt><trkpt lat="44.6384948" lon="10.1766206"><ele>294.0</ele><time>2026-04-12T13:22:40.949Z</time></trkpt><trkpt lat="44.6383838" lon="10.176487"><ele>294.25</ele><time>2026-04-12T13:22:41.947Z</time></trkpt><trkpt lat="44.6382728" lon="10.1763552"><ele>294.5</ele><time>2026-04-12T13:22:42.948Z</time></trkpt><trkpt lat="44.6381614" lon="10.1762201"><ele>294.75</ele><time>2026-04-12T13:22:43.949Z</time></trkpt><trkpt lat="44.6380502" lon="10.1760863"><ele>295.0</ele><time>2026-04-12T13:22:44.949Z</time></trkpt><trkpt lat="44.6379401" lon="10.175953"><ele>295.0</ele><time>2026-04-12T13:22:45.948Z</time></trkpt><trkpt lat="44.63783" lon="10.1758191"><ele>295.0</ele><time>2026-04-12T13:22:46.948Z</time></trkpt><trkpt lat="44.6377199" lon="10.1756883"><ele>295.0</ele><time>2026-04-12T13:22:47.949Z</time></trkpt><trkpt lat="44.6376099" lon="10.1755541"><ele>295.0</ele><time>2026-04-12T13:22:48.949Z</time></trkpt><trkpt lat="44.6375015" lon="10.1754238"><ele>296.0</ele><time>2026-04-12T13:22:49.948Z</time></trkpt><trkpt lat="44.6373927" lon="10.1752937"><ele>297.0</ele><time>2026-04-12T13:22:50.949Z</time></trkpt><trkpt lat="44.6372839" lon="10.1751634"><ele>298.0</ele><time>2026-04-12T13:22:51.948Z</time></trkpt><trkpt lat="44.6371762" lon="10.1750327"><ele>299.0</ele><time>2026-04-12T13:22:52.949Z</time></trkpt><trkpt lat="44.6370679" lon="10.174906"><ele>299.5</ele><time>2026-04-12T13:22:53.949Z</time></trkpt><trkpt lat="44.6369606" lon="10.1747808"><ele>300.0</ele><time>2026-04-12T13:22:54.949Z</time></trkpt><trkpt lat="44.6368552" lon="10.1746514"><ele>300.5</ele><time>2026-04-12T13:22:55.949Z</time></trkpt><trkpt lat="44.6367469" lon="10.1745258"><ele>301.0</ele><time>2026-04-12T13:22:56.947Z</time></trkpt><trkpt lat="44.6366369" lon="10.1743976"><ele>301.0</ele><time>2026-04-12T13:22:57.948Z</time></trkpt><trkpt lat="44.6365281" lon="10.174266"><ele>301.0</ele><time>2026-04-12T13:22:58.949Z</time></trkpt><trkpt lat="44.6364214" lon="10.1741351"><ele>301.0</ele><time>2026-04-12T13:22:59.948Z</time></trkpt><trkpt lat="44.6363138" lon="10.1739998"><ele>301.0</ele><time>2026-04-12T13:23:00.949Z</time></trkpt><trkpt lat="44.6362038" lon="10.1738671"><ele>301.5</ele><time>2026-04-12T13:23:01.948Z</time></trkpt><trkpt lat="44.6360938" lon="10.1737319"><ele>302.0</ele><time>2026-04-12T13:23:02.947Z</time></trkpt><trkpt lat="44.6359813" lon="10.1736021"><ele>302.5</ele><time>2026-04-12T13:23:03.949Z</time></trkpt><trkpt lat="44.6358714" lon="10.1734692"><ele>303.0</ele><time>2026-04-12T13:23:04.949Z</time></trkpt><trkpt lat="44.6357661" lon="10.1733397"><ele>303.0</ele><time>2026-04-12T13:23:05.948Z</time></trkpt><trkpt lat="44.6356616" lon="10.1732078"><ele>303.0</ele><time>2026-04-12T13:23:06.948Z</time></trkpt><trkpt lat="44.6355538" lon="10.1730834"><ele>303.0</ele><time>2026-04-12T13:23:07.949Z</time></trkpt><trkpt lat="44.6354479" lon="10.1729604"><ele>303.0</ele><time>2026-04-12T13:23:08.948Z</time></trkpt><trkpt lat="44.6353424" lon="10.1728377"><ele>304.25</ele><time>2026-04-12T13:23:09.949Z</time></trkpt><trkpt lat="44.6352406" lon="10.1727197"><ele>305.5</ele><time>2026-04-12T13:23:10.948Z</time></trkpt><trkpt lat="44.6351451" lon="10.1726089"><ele>306.75</ele><time>2026-04-12T13:23:11.949Z</time></trkpt><trkpt lat="44.6350565" lon="10.1725098"><ele>308.0</ele><time>2026-04-12T13:23:12.948Z</time></trkpt><trkpt lat="44.634964" lon="10.1724198"><ele>307.0</ele><time>2026-04-12T13:23:13.949Z</time></trkpt><trkpt lat="44.6348693" lon="10.1723437"><ele>306.0</ele><time>2026-04-12T13:23:14.948Z</time></trkpt><trkpt lat="44.6347685" lon="10.1722719"><ele>305.0</ele><time>2026-04-12T13:23:15.948Z</time></trkpt><trkpt lat="44.6346621" lon="10.1722074"><ele>304.0</ele><time>2026-04-12T13:23:16.948Z</time></trkpt><trkpt lat="44.634552" lon="10.1721465"><ele>304.5</ele><time>2026-04-12T13:23:17.948Z</time></trkpt><trkpt lat="44.6344386" lon="10.1720962"><ele>305.0</ele><time>2026-04-12T13:23:18.948Z</time></trkpt><trkpt lat="44.6343205" lon="10.1720537"><ele>305.5</ele><time>2026-04-12T13:23:19.949Z</time></trkpt><trkpt lat="44.6341973" lon="10.1720155"><ele>306.0</ele><time>2026-04-12T13:23:20.947Z</time></trkpt><trkpt lat="44.6340719" lon="10.1719762"><ele>306.0</ele><time>2026-04-12T13:23:21.948Z</time></trkpt><trkpt lat="44.6339469" lon="10.171933"><ele>306.0</ele><time>2026-04-12T13:23:22.949Z</time></trkpt><trkpt lat="44.6338159" lon="10.1718825"><ele>306.0</ele><time>2026-04-12T13:23:23.948Z</time></trkpt><trkpt lat="44.6336893" lon="10.1718273"><ele>306.0</ele><time>2026-04-12T13:23:24.949Z</time></trkpt><trkpt lat="44.6335653" lon="10.1717616"><ele>307.75</ele><time>2026-04-12T13:23:25.949Z</time></trkpt><trkpt lat="44.6334477" lon="10.1716887"><ele>309.5</ele><time>2026-04-12T13:23:26.949Z</time></trkpt><trkpt lat="44.6333267" lon="10.1716276"><ele>311.25</ele><time>2026-04-12T13:23:27.948Z</time></trkpt><trkpt lat="44.6332011" lon="10.1715847"><ele>313.0</ele><time>2026-04-12T13:23:28.949Z</time></trkpt><trkpt lat="44.6330747" lon="10.1715677"><ele>313.0</ele><time>2026-04-12T13:23:29.949Z</time></trkpt><trkpt lat="44.6329498" lon="10.1715676"><ele>313.0</ele><time>2026-04-12T13:23:30.948Z</time></trkpt><trkpt lat="44.6328299" lon="10.1715866"><ele>313.0</ele><time>2026-04-12T13:23:31.949Z</time></trkpt><trkpt lat="44.6327147" lon="10.1716433"><ele>313.0</ele><time>2026-04-12T13:23:32.948Z</time></trkpt><trkpt lat="44.6326051" lon="10.1717264"><ele>312.75</ele><time>2026-04-12T13:23:33.949Z</time></trkpt><trkpt lat="44.6324994" lon="10.1718184"><ele>312.5</ele><time>2026-04-12T13:23:34.949Z</time></trkpt><trkpt lat="44.6323931" lon="10.1719081"><ele>312.25</ele><time>2026-04-12T13:23:35.949Z</time></trkpt><trkpt lat="44.6322824" lon="10.1719984"><ele>312.0</ele><time>2026-04-12T13:23:36.949Z</time></trkpt><trkpt lat="44.6321675" lon="10.1720752"><ele>312.0</ele><time>2026-04-12T13:23:37.948Z</time></trkpt><trkpt lat="44.632048" lon="10.17213"><ele>312.0</ele><time>2026-04-12T13:23:38.949Z</time></trkpt><trkpt lat="44.6319283" lon="10.1721615"><ele>312.0</ele><time>2026-04-12T13:23:39.949Z</time></trkpt><trkpt lat="44.631812" lon="10.1721798"><ele>312.0</ele><time>2026-04-12T13:23:40.949Z</time></trkpt><trkpt lat="44.6316945" lon="10.1721941"><ele>312.0</ele><time>2026-04-12T13:23:41.947Z</time></trkpt><trkpt lat="44.6315753" lon="10.1722061"><ele>312.0</ele><time>2026-04-12T13:23:42.949Z</time></trkpt><trkpt lat="44.6314564" lon="10.1722124"><ele>312.0</ele><time>2026-04-12T13:23:43.949Z</time></trkpt><trkpt lat="44.6313411" lon="10.1722256"><ele>312.0</ele><time>2026-04-12T13:23:44.948Z</time></trkpt><trkpt lat="44.6312238" lon="10.1722264"><ele>313.2</ele><time>2026-04-12T13:23:45.948Z</time></trkpt><trkpt lat="44.6311146" lon="10.1722034"><ele>314.4</ele><time>2026-04-12T13:23:46.949Z</time></trkpt><trkpt lat="44.6310105" lon="10.1721612"><ele>315.6</ele><time>2026-04-12T13:23:47.948Z</time></trkpt><trkpt lat="44.6309212" lon="10.1720934"><ele>316.8</ele><time>2026-04-12T13:23:48.948Z</time></trkpt><trkpt lat="44.6308426" lon="10.1720073"><ele>318.0</ele><time>2026-04-12T13:23:49.947Z</time></trkpt><trkpt lat="44.6307696" lon="10.171905"><ele>318.0</ele><time>2026-04-12T13:23:50.949Z</time></trkpt><trkpt lat="44.6307076" lon="10.1717985"><ele>318.0</ele><time>2026-04-12T13:23:51.949Z</time></trkpt><trkpt lat="44.630657" lon="10.1716992"><ele>318.0</ele><time>2026-04-12T13:23:52.949Z</time></trkpt><trkpt lat="44.6306148" lon="10.1716201"><ele>318.0</ele><time>2026-04-12T13:23:53.949Z</time></trkpt><trkpt lat="44.6305676" lon="10.1715449"><ele>318.0</ele><time>2026-04-12T13:23:55.949Z</time></trkpt><trkpt lat="44.6304964" lon="10.1715692"><ele>318.0</ele><time>2026-04-12T13:26:11.949Z</time></trkpt><trkpt lat="44.6305425" lon="10.1716704"><ele>318.0</ele><time>2026-04-12T13:26:13.948Z</time></trkpt><trkpt lat="44.6306467" lon="10.1717757"><ele>318.0</ele><time>2026-04-12T13:26:15.948Z</time></trkpt><trkpt lat="44.6306982" lon="10.1718574"><ele>318.0</ele><time>2026-04-12T13:26:16.948Z</time></trkpt><trkpt lat="44.6307625" lon="10.1719387"><ele>318.0</ele><time>2026-04-12T13:26:17.949Z</time></trkpt><trkpt lat="44.630834" lon="10.1720356"><ele>318.0</ele><time>2026-04-12T13:26:18.949Z</time></trkpt><trkpt lat="44.630908" lon="10.1721235"><ele>318.0</ele><time>2026-04-12T13:26:19.948Z</time></trkpt><trkpt lat="44.6309752" lon="10.1721941"><ele>318.0</ele><time>2026-04-12T13:26:20.948Z</time></trkpt><trkpt lat="44.631024" lon="10.1722613"><ele>318.0</ele><time>2026-04-12T13:26:21.948Z</time></trkpt><trkpt lat="44.6310446" lon="10.172405"><ele>318.0</ele><time>2026-04-12T13:26:23.947Z</time></trkpt><trkpt lat="44.6310056" lon="10.1725075"><ele>318.0</ele><time>2026-04-12T13:26:25.948Z</time></trkpt><trkpt lat="44.6309383" lon="10.1726303"><ele>318.3333333333333</ele><time>2026-04-12T13:26:27.949Z</time></trkpt><trkpt lat="44.6308905" lon="10.1727015"><ele>318.6666666666667</ele><time>2026-04-12T13:26:28.949Z</time></trkpt><trkpt lat="44.6307892" lon="10.1728193"><ele>319.0</ele><time>2026-04-12T13:26:30.949Z</time></trkpt><trkpt lat="44.630738" lon="10.1728764"><ele>319.33333333333337</ele><time>2026-04-12T13:26:31.948Z</time></trkpt><trkpt lat="44.6306834" lon="10.17295"><ele>319.6666666666667</ele><time>2026-04-12T13:26:32.948Z</time></trkpt><trkpt lat="44.6306234" lon="10.1730264"><ele>320.0</ele><time>2026-04-12T13:26:33.949Z</time></trkpt><trkpt lat="44.6305534" lon="10.1730992"><ele>320.0</ele><time>2026-04-12T13:26:34.948Z</time></trkpt><trkpt lat="44.6304736" lon="10.1731743"><ele>320.0</ele><time>2026-04-12T13:26:35.948Z</time></trkpt><trkpt lat="44.6303889" lon="10.1732451"><ele>320.0</ele><time>2026-04-12T13:26:36.949Z</time></trkpt><trkpt lat="44.6302995" lon="10.1733114"><ele>320.0</ele><time>2026-04-12T13:26:37.949Z</time></trkpt><trkpt lat="44.6302183" lon="10.1733925"><ele>320.0</ele><time>2026-04-12T13:26:38.949Z</time></trkpt><trkpt lat="44.6301672" lon="10.1734687"><ele>321.8</ele><time>2026-04-12T13:26:39.947Z</time></trkpt><trkpt lat="44.6301174" lon="10.1735524"><ele>323.6</ele><time>2026-04-12T13:26:40.948Z</time></trkpt><trkpt lat="44.6300682" lon="10.1736696"><ele>325.4</ele><time>2026-04-12T13:26:41.948Z</time></trkpt><trkpt lat="44.6300082" lon="10.1738023"><ele>327.2</ele><time>2026-04-12T13:26:42.947Z</time></trkpt><trkpt lat="44.629943" lon="10.173936"><ele>329.0</ele><time>2026-04-12T13:26:43.948Z</time></trkpt><trkpt lat="44.6298668" lon="10.174071"><ele>331.75</ele><time>2026-04-12T13:26:44.949Z</time></trkpt><trkpt lat="44.6297704" lon="10.1741941"><ele>334.5</ele><time>2026-04-12T13:26:45.948Z</time></trkpt><trkpt lat="44.6296745" lon="10.1743099"><ele>337.25</ele><time>2026-04-12T13:26:46.949Z</time></trkpt><trkpt lat="44.629575" lon="10.1744211"><ele>340.0</ele><time>2026-04-12T13:26:47.949Z</time></trkpt><trkpt lat="44.629475" lon="10.1745251"><ele>340.0</ele><time>2026-04-12T13:26:48.948Z</time></trkpt><trkpt lat="44.6293704" lon="10.1746026"><ele>340.0</ele><time>2026-04-12T13:26:49.949Z</time></trkpt><trkpt lat="44.6292655" lon="10.1746787"><ele>340.0</ele><time>2026-04-12T13:26:50.947Z</time></trkpt><trkpt lat="44.6291816" lon="10.1747684"><ele>340.0</ele><time>2026-04-12T13:26:51.949Z</time></trkpt><trkpt lat="44.6291034" lon="10.1748517"><ele>340.0</ele><time>2026-04-12T13:26:52.949Z</time></trkpt><trkpt lat="44.6290394" lon="10.1749902"><ele>346.75</ele><time>2026-04-12T13:26:53.948Z</time></trkpt><trkpt lat="44.6289473" lon="10.175112"><ele>353.5</ele><time>2026-04-12T13:26:54.947Z</time></trkpt><trkpt lat="44.628848" lon="10.1752167"><ele>360.25</ele><time>2026-04-12T13:26:55.949Z</time></trkpt><trkpt lat="44.6287573" lon="10.1752936"><ele>367.0</ele><time>2026-04-12T13:26:56.948Z</time></trkpt><trkpt lat="44.6286745" lon="10.1753796"><ele>369.75</ele><time>2026-04-12T13:26:57.949Z</time></trkpt><trkpt lat="44.6286032" lon="10.1755147"><ele>372.5</ele><time>2026-04-12T13:26:58.949Z</time></trkpt><trkpt lat="44.6285086" lon="10.1756262"><ele>375.25</ele><time>2026-04-12T13:26:59.949Z</time></trkpt><trkpt lat="44.6283968" lon="10.1757125"><ele>378.0</ele><time>2026-04-12T13:27:00.948Z</time></trkpt><trkpt lat="44.6282911" lon="10.175815"><ele>378.0</ele><time>2026-04-12T13:27:01.948Z</time></trkpt><trkpt lat="44.628191" lon="10.1759335"><ele>378.0</ele><time>2026-04-12T13:27:02.947Z</time></trkpt><trkpt lat="44.6281029" lon="10.1760747"><ele>378.0</ele><time>2026-04-12T13:27:03.948Z</time></trkpt><trkpt lat="44.6280145" lon="10.1761807"><ele>378.0</ele><time>2026-04-12T13:27:04.948Z</time></trkpt><trkpt lat="44.6279372" lon="10.1762668"><ele>378.0</ele><time>2026-04-12T13:27:05.948Z</time></trkpt><trkpt lat="44.6278844" lon="10.176349"><ele>378.0</ele><time>2026-04-12T13:27:06.948Z</time></trkpt><trkpt lat="44.6278467" lon="10.1764279"><ele>378.0</ele><time>2026-04-12T13:27:07.949Z</time></trkpt><trkpt lat="44.6278361" lon="10.1765611"><ele>378.0</ele><time>2026-04-12T13:27:09.948Z</time></trkpt><trkpt lat="44.6279187" lon="10.1767007"><ele>378.0</ele><time>2026-04-12T13:27:11.948Z</time></trkpt><trkpt lat="44.6279847" lon="10.1767555"><ele>378.0</ele><time>2026-04-12T13:27:12.948Z</time></trkpt><trkpt lat="44.6280582" lon="10.176799"><ele>378.0</ele><time>2026-04-12T13:27:13.948Z</time></trkpt><trkpt lat="44.6281339" lon="10.1768212"><ele>378.0</ele><time>2026-04-12T13:27:14.948Z</time></trkpt><trkpt lat="44.6282061" lon="10.1768116"><ele>378.0</ele><time>2026-04-12T13:27:15.949Z</time></trkpt><trkpt lat="44.6282756" lon="10.1767713"><ele>378.0</ele><time>2026-04-12T13:27:16.948Z</time></trkpt><trkpt lat="44.6283463" lon="10.1767043"><ele>378.0</ele><time>2026-04-12T13:27:17.948Z</time></trkpt><trkpt lat="44.6284153" lon="10.1766078"><ele>378.0</ele><time>2026-04-12T13:27:18.948Z</time></trkpt><trkpt lat="44.6284885" lon="10.1765089"><ele>378.0</ele><time>2026-04-12T13:27:19.949Z</time></trkpt><trkpt lat="44.6285634" lon="10.1764088"><ele>378.0</ele><time>2026-04-12T13:27:20.949Z</time></trkpt><trkpt lat="44.6286446" lon="10.1763179"><ele>378.0</ele><time>2026-04-12T13:27:21.948Z</time></trkpt><trkpt lat="44.6287239" lon="10.1762338"><ele>378.0</ele><time>2026-04-12T13:27:22.948Z</time></trkpt><trkpt lat="44.628806" lon="10.1762011"><ele>378.0</ele><time>2026-04-12T13:27:23.948Z</time></trkpt><trkpt lat="44.6288998" lon="10.1761963"><ele>381.0</ele><time>2026-04-12T13:27:24.949Z</time></trkpt><trkpt lat="44.629002" lon="10.176211"><ele>384.0</ele><time>2026-04-12T13:27:25.948Z</time></trkpt><trkpt lat="44.6291108" lon="10.1762253"><ele>387.0</ele><time>2026-04-12T13:27:26.949Z</time></trkpt><trkpt lat="44.6292267" lon="10.1762189"><ele>390.0</ele><time>2026-04-12T13:27:27.949Z</time></trkpt><trkpt lat="44.6293443" lon="10.1761812"><ele>393.0</ele><time>2026-04-12T13:27:28.948Z</time></trkpt><trkpt lat="44.6294577" lon="10.1761204"><ele>395.59999999999997</ele><time>2026-04-12T13:27:29.948Z</time></trkpt><trkpt lat="44.6295628" lon="10.1760486"><ele>398.2</ele><time>2026-04-12T13:27:30.949Z</time></trkpt><trkpt lat="44.6296676" lon="10.1759833"><ele>400.8</ele><time>2026-04-12T13:27:31.948Z</time></trkpt><trkpt lat="44.629772" lon="10.175935"><ele>403.4</ele><time>2026-04-12T13:27:32.948Z</time></trkpt><trkpt lat="44.6298603" lon="10.1759163"><ele>406.0</ele><time>2026-04-12T13:27:33.949Z</time></trkpt><trkpt lat="44.6299603" lon="10.1759395"><ele>406.0</ele><time>2026-04-12T13:27:34.948Z</time></trkpt><trkpt lat="44.6300587" lon="10.1759862"><ele>406.0</ele><time>2026-04-12T13:27:35.948Z</time></trkpt><trkpt lat="44.6301621" lon="10.1760373"><ele>406.0</ele><time>2026-04-12T13:27:36.949Z</time></trkpt><trkpt lat="44.6302546" lon="10.1760859"><ele>406.0</ele><time>2026-04-12T13:27:37.948Z</time></trkpt><trkpt lat="44.6303125" lon="10.1761498"><ele>406.0</ele><time>2026-04-12T13:27:38.948Z</time></trkpt><trkpt lat="44.6303786" lon="10.1762152"><ele>406.50000000000006</ele><time>2026-04-12T13:27:39.948Z</time></trkpt><trkpt lat="44.6304421" lon="10.1762765"><ele>407.0</ele><time>2026-04-12T13:27:40.949Z</time></trkpt><trkpt lat="44.6304997" lon="10.1763583"><ele>407.5</ele><time>2026-04-12T13:27:41.948Z</time></trkpt><trkpt lat="44.6305518" lon="10.1764503"><ele>408.0</ele><time>2026-04-12T13:27:42.948Z</time></trkpt><trkpt lat="44.6305956" lon="10.176557"><ele>408.50000000000006</ele><time>2026-04-12T13:27:43.949Z</time></trkpt><trkpt lat="44.6306375" lon="10.1766723"><ele>409.0</ele><time>2026-04-12T13:27:44.949Z</time></trkpt><trkpt lat="44.6306769" lon="10.1768068"><ele>409.0</ele><time>2026-04-12T13:27:45.949Z</time></trkpt><trkpt lat="44.6307204" lon="10.1769511"><ele>409.0</ele><time>2026-04-12T13:27:46.948Z</time></trkpt><trkpt lat="44.6307577" lon="10.1770948"><ele>409.0</ele><time>2026-04-12T13:27:47.948Z</time></trkpt><trkpt lat="44.6307986" lon="10.1772356"><ele>409.0</ele><time>2026-04-12T13:27:48.947Z</time></trkpt><trkpt lat="44.6308533" lon="10.1773615"><ele>409.0</ele><time>2026-04-12T13:27:49.948Z</time></trkpt><trkpt lat="44.6309286" lon="10.1774608"><ele>409.79999999999995</ele><time>2026-04-12T13:27:50.948Z</time></trkpt><trkpt lat="44.6310228" lon="10.1775252"><ele>410.59999999999997</ele><time>2026-04-12T13:27:51.948Z</time></trkpt><trkpt lat="44.6311195" lon="10.1775585"><ele>411.4</ele><time>2026-04-12T13:27:52.948Z</time></trkpt><trkpt lat="44.6312176" lon="10.1775878"><ele>412.2</ele><time>2026-04-12T13:27:53.948Z</time></trkpt><trkpt lat="44.6313072" lon="10.1776421"><ele>413.0</ele><time>2026-04-12T13:27:54.947Z</time></trkpt><trkpt lat="44.6313841" lon="10.1777216"><ele>413.0</ele><time>2026-04-12T13:27:55.947Z</time></trkpt><trkpt lat="44.6314561" lon="10.1778085"><ele>413.0</ele><time>2026-04-12T13:27:56.947Z</time></trkpt><trkpt lat="44.631535" lon="10.1778917"><ele>413.0</ele><time>2026-04-12T13:27:57.949Z</time></trkpt><trkpt lat="44.6316261" lon="10.1779487"><ele>413.0</ele><time>2026-04-12T13:27:58.948Z</time></trkpt><trkpt lat="44.6317247" lon="10.1779811"><ele>413.0</ele><time>2026-04-12T13:27:59.948Z</time></trkpt><trkpt lat="44.6318215" lon="10.177987"><ele>413.0</ele><time>2026-04-12T13:28:00.947Z</time></trkpt><trkpt lat="44.6319137" lon="10.1779639"><ele>413.0</ele><time>2026-04-12T13:28:01.947Z</time></trkpt><trkpt lat="44.6320039" lon="10.1779184"><ele>413.0</ele><time>2026-04-12T13:28:02.947Z</time></trkpt><trkpt lat="44.6320929" lon="10.1778813"><ele>413.0</ele><time>2026-04-12T13:28:03.948Z</time></trkpt><trkpt lat="44.6321862" lon="10.1778546"><ele>413.0</ele><time>2026-04-12T13:28:04.949Z</time></trkpt><trkpt lat="44.6322784" lon="10.1778491"><ele>413.16666666666663</ele><time>2026-04-12T13:28:05.949Z</time></trkpt><trkpt lat="44.6323568" lon="10.1778723"><ele>413.3333333333333</ele><time>2026-04-12T13:28:06.948Z</time></trkpt><trkpt lat="44.6324243" lon="10.1779088"><ele>413.5</ele><time>2026-04-12T13:28:07.948Z</time></trkpt><trkpt lat="44.6324842" lon="10.1779501"><ele>413.66666666666663</ele><time>2026-04-12T13:28:08.948Z</time></trkpt><trkpt lat="44.6325268" lon="10.178034"><ele>413.8333333333333</ele><time>2026-04-12T13:28:10.949Z</time></trkpt><trkpt lat="44.6324865" lon="10.1781164"><ele>414.0</ele><time>2026-04-12T13:28:18.948Z</time></trkpt><trkpt lat="44.6324168" lon="10.1782354"><ele>416.1666666666667</ele><time>2026-04-12T13:28:26.948Z</time></trkpt><trkpt lat="44.6323326" lon="10.1783306"><ele>418.33333333333337</ele><time>2026-04-12T13:28:28.948Z</time></trkpt><trkpt lat="44.6322436" lon="10.1783734"><ele>420.5</ele><time>2026-04-12T13:28:30.948Z</time></trkpt><trkpt lat="44.6321878" lon="10.1784794"><ele>422.6666666666667</ele><time>2026-04-12T13:28:32.947Z</time></trkpt><trkpt lat="44.6321552" lon="10.1785632"><ele>424.83333333333337</ele><time>2026-04-12T13:28:33.947Z</time></trkpt><trkpt lat="44.6321207" lon="10.1786529"><ele>427.0</ele><time>2026-04-12T13:28:34.948Z</time></trkpt><trkpt lat="44.6320766" lon="10.1787361"><ele>427.00000000000006</ele><time>2026-04-12T13:28:35.947Z</time></trkpt><trkpt lat="44.6320263" lon="10.1788108"><ele>427.0</ele><time>2026-04-12T13:28:36.948Z</time></trkpt><trkpt lat="44.6319801" lon="10.1788712"><ele>427.0</ele><time>2026-04-12T13:28:37.948Z</time></trkpt><trkpt lat="44.6318976" lon="10.1789736"><ele>427.0</ele><time>2026-04-12T13:28:39.948Z</time></trkpt><trkpt lat="44.631845" lon="10.1790675"><ele>427.00000000000006</ele><time>2026-04-12T13:28:41.948Z</time></trkpt><trkpt lat="44.6318075" lon="10.1791784"><ele>427.0</ele><time>2026-04-12T13:28:43.948Z</time></trkpt><trkpt lat="44.6318095" lon="10.1793025"><ele>430.83333333333337</ele><time>2026-04-12T13:28:45.948Z</time></trkpt><trkpt lat="44.6318119" lon="10.1794262"><ele>434.6666666666667</ele><time>2026-04-12T13:28:47.947Z</time></trkpt><trkpt lat="44.6318006" lon="10.1795262"><ele>438.5</ele><time>2026-04-12T13:28:49.947Z</time></trkpt><trkpt lat="44.6317837" lon="10.1796121"><ele>442.33333333333337</ele><time>2026-04-12T13:28:51.948Z</time></trkpt><trkpt lat="44.6317542" lon="10.179698"><ele>446.1666666666667</ele><time>2026-04-12T13:28:53.947Z</time></trkpt><trkpt lat="44.6317234" lon="10.1797985"><ele>450.0</ele><time>2026-04-12T13:28:55.948Z</time></trkpt><trkpt lat="44.6316891" lon="10.1799129"><ele>451.0</ele><time>2026-04-12T13:28:57.948Z</time></trkpt><trkpt lat="44.6316549" lon="10.180045"><ele>452.0</ele><time>2026-04-12T13:28:59.948Z</time></trkpt><trkpt lat="44.631623" lon="10.1801669"><ele>453.0</ele><time>2026-04-12T13:29:01.947Z</time></trkpt><trkpt lat="44.6316051" lon="10.1802809"><ele>454.0</ele><time>2026-04-12T13:29:03.948Z</time></trkpt><trkpt lat="44.631615" lon="10.1803987"><ele>455.0</ele><time>2026-04-12T13:29:05.947Z</time></trkpt><trkpt lat="44.6316591" lon="10.1805135"><ele>455.0</ele><time>2026-04-12T13:29:07.946Z</time></trkpt><trkpt lat="44.6317165" lon="10.1806226"><ele>455.0</ele><time>2026-04-12T13:29:09.947Z</time></trkpt><trkpt lat="44.6317851" lon="10.1807181"><ele>455.0</ele><time>2026-04-12T13:29:11.947Z</time></trkpt><trkpt lat="44.6318699" lon="10.1807733"><ele>455.0</ele><time>2026-04-12T13:29:13.947Z</time></trkpt><trkpt lat="44.6319529" lon="10.1807972"><ele>455.0</ele><time>2026-04-12T13:29:15.947Z</time></trkpt><trkpt lat="44.6320584" lon="10.1808112"><ele>453.49999999999994</ele><time>2026-04-12T13:29:17.947Z</time></trkpt><trkpt lat="44.6321724" lon="10.1808372"><ele>452.0</ele><time>2026-04-12T13:29:19.947Z</time></trkpt><trkpt lat="44.6322378" lon="10.1808506"><ele>450.5</ele><time>2026-04-12T13:29:20.948Z</time></trkpt><trkpt lat="44.6323102" lon="10.1808721"><ele>449.0</ele><time>2026-04-12T13:29:21.947Z</time></trkpt><trkpt lat="44.6323742" lon="10.1808955"><ele>447.49999999999994</ele><time>2026-04-12T13:29:22.946Z</time></trkpt><trkpt lat="44.6324365" lon="10.1809234"><ele>446.0</ele><time>2026-04-12T13:29:23.948Z</time></trkpt><trkpt lat="44.6325492" lon="10.1809817"><ele>445.99999999999994</ele><time>2026-04-12T13:29:25.947Z</time></trkpt><trkpt lat="44.6326525" lon="10.1810407"><ele>446.0</ele><time>2026-04-12T13:29:27.948Z</time></trkpt><trkpt lat="44.6327258" lon="10.181091"><ele>446.0</ele><time>2026-04-12T13:29:29.948Z</time></trkpt><trkpt lat="44.6327882" lon="10.1811482"><ele>446.0</ele><time>2026-04-12T13:29:32.947Z</time></trkpt><trkpt lat="44.632712" lon="10.1811088"><ele>445.99999999999994</ele><time>2026-04-12T13:31:03.948Z</time></trkpt><trkpt lat="44.6326449" lon="10.1810375"><ele>446.0</ele><time>2026-04-12T13:31:05.947Z</time></trkpt><trkpt lat="44.6325866" lon="10.1809849"><ele>445.99999999999994</ele><time>2026-04-12T13:31:07.948Z</time></trkpt><trkpt lat="44.6325187" lon="10.1809268"><ele>446.0</ele><time>2026-04-12T13:31:09.947Z</time></trkpt><trkpt lat="44.6324353" lon="10.1808882"><ele>446.0</ele><time>2026-04-12T13:31:11.948Z</time></trkpt><trkpt lat="44.6323552" lon="10.1808602"><ele>446.0</ele><time>2026-04-12T13:31:13.948Z</time></trkpt><trkpt lat="44.6322828" lon="10.1808447"><ele>445.99999999999994</ele><time>2026-04-12T13:31:15.947Z</time></trkpt><trkpt lat="44.6322034" lon="10.1808225"><ele>446.0</ele><time>2026-04-12T13:31:17.948Z</time></trkpt><trkpt lat="44.6321112" lon="10.180822"><ele>445.99999999999994</ele><time>2026-04-12T13:31:19.948Z</time></trkpt><trkpt lat="44.6320331" lon="10.1808069"><ele>446.0</ele><time>2026-04-12T13:31:21.947Z</time></trkpt><trkpt lat="44.6319623" lon="10.1807962"><ele>446.0</ele><time>2026-04-12T13:31:23.948Z</time></trkpt><trkpt lat="44.6318927" lon="10.1807743"><ele>446.0</ele><time>2026-04-12T13:31:25.947Z</time></trkpt><trkpt lat="44.6318214" lon="10.1807317"><ele>445.99999999999994</ele><time>2026-04-12T13:31:43.947Z</time></trkpt><trkpt lat="44.6317367" lon="10.1806565"><ele>446.0</ele><time>2026-04-12T13:31:45.947Z</time></trkpt><trkpt lat="44.6316807" lon="10.180552"><ele>447.8</ele><time>2026-04-12T13:31:47.947Z</time></trkpt><trkpt lat="44.6316359" lon="10.1804664"><ele>449.6</ele><time>2026-04-12T13:31:49.947Z</time></trkpt><trkpt lat="44.6315954" lon="10.1803626"><ele>451.4</ele><time>2026-04-12T13:31:52.948Z</time></trkpt><trkpt lat="44.6316132" lon="10.1802268"><ele>453.2</ele><time>2026-04-12T13:31:55.947Z</time></trkpt><trkpt lat="44.6316495" lon="10.1800955"><ele>455.0</ele><time>2026-04-12T13:31:57.947Z</time></trkpt><trkpt lat="44.6316829" lon="10.1799702"><ele>454.99999999999994</ele><time>2026-04-12T13:31:59.948Z</time></trkpt><trkpt lat="44.631712" lon="10.1798546"><ele>455.0</ele><time>2026-04-12T13:32:01.948Z</time></trkpt><trkpt lat="44.631741" lon="10.1797356"><ele>455.0</ele><time>2026-04-12T13:32:03.948Z</time></trkpt><trkpt lat="44.6317711" lon="10.1796202"><ele>455.0</ele><time>2026-04-12T13:32:05.947Z</time></trkpt><trkpt lat="44.6317814" lon="10.1795152"><ele>454.99999999999994</ele><time>2026-04-12T13:35:01.947Z</time></trkpt><trkpt lat="44.6317976" lon="10.1793845"><ele>455.0</ele><time>2026-04-12T13:35:04.947Z</time></trkpt><trkpt lat="44.631796" lon="10.1792869"><ele>454.16666666666663</ele><time>2026-04-12T13:35:06.948Z</time></trkpt><trkpt lat="44.6317918" lon="10.1791794"><ele>453.3333333333333</ele><time>2026-04-12T13:35:08.948Z</time></trkpt><trkpt lat="44.6318246" lon="10.1790719"><ele>452.5</ele><time>2026-04-12T13:35:10.948Z</time></trkpt><trkpt lat="44.6318668" lon="10.1789912"><ele>451.66666666666663</ele><time>2026-04-12T13:35:13.948Z</time></trkpt><trkpt lat="44.6319185" lon="10.1789355"><ele>450.8333333333333</ele><time>2026-04-12T13:35:16.947Z</time></trkpt><trkpt lat="44.6319903" lon="10.1788656"><ele>450.0</ele><time>2026-04-12T13:35:19.947Z</time></trkpt><trkpt lat="44.6320477" lon="10.1787847"><ele>445.4</ele><time>2026-04-12T13:35:21.948Z</time></trkpt><trkpt lat="44.6321015" lon="10.1786631"><ele>440.8</ele><time>2026-04-12T13:35:23.947Z</time></trkpt><trkpt lat="44.6321532" lon="10.1785281"><ele>436.20000000000005</ele><time>2026-04-12T13:35:25.948Z</time></trkpt><trkpt lat="44.632209" lon="10.1784317"><ele>431.6</ele><time>2026-04-12T13:35:27.946Z</time></trkpt><trkpt lat="44.6322772" lon="10.178376"><ele>427.0</ele><time>2026-04-12T13:35:29.948Z</time></trkpt><trkpt lat="44.63235" lon="10.1783171"><ele>427.0</ele><time>2026-04-12T13:35:31.948Z</time></trkpt><trkpt lat="44.6324124" lon="10.1782321"><ele>427.00000000000006</ele><time>2026-04-12T13:35:33.948Z</time></trkpt><trkpt lat="44.6324636" lon="10.1781408"><ele>427.00000000000006</ele><time>2026-04-12T13:35:35.947Z</time></trkpt><trkpt lat="44.6325234" lon="10.178053"><ele>427.0</ele><time>2026-04-12T13:35:38.947Z</time></trkpt><trkpt lat="44.6324917" lon="10.1779477"><ele>427.0</ele><time>2026-04-12T13:36:08.948Z</time></trkpt><trkpt lat="44.6323763" lon="10.1778765"><ele>424.83333333333337</ele><time>2026-04-12T13:36:10.948Z</time></trkpt><trkpt lat="44.6323079" lon="10.1778603"><ele>422.6666666666667</ele><time>2026-04-12T13:36:11.946Z</time></trkpt><trkpt lat="44.632239" lon="10.1778596"><ele>420.5</ele><time>2026-04-12T13:36:12.947Z</time></trkpt><trkpt lat="44.6321598" lon="10.1778762"><ele>418.33333333333337</ele><time>2026-04-12T13:36:13.948Z</time></trkpt><trkpt lat="44.6320729" lon="10.1779089"><ele>416.1666666666667</ele><time>2026-04-12T13:36:14.948Z</time></trkpt><trkpt lat="44.6319826" lon="10.1779514"><ele>414.0</ele><time>2026-04-12T13:36:15.948Z</time></trkpt><trkpt lat="44.6318895" lon="10.1779844"><ele>413.8333333333333</ele><time>2026-04-12T13:36:16.948Z</time></trkpt><trkpt lat="44.6317974" lon="10.1780048"><ele>413.66666666666663</ele><time>2026-04-12T13:36:17.947Z</time></trkpt><trkpt lat="44.6317036" lon="10.1780031"><ele>413.5</ele><time>2026-04-12T13:36:18.947Z</time></trkpt><trkpt lat="44.6316163" lon="10.1779785"><ele>413.3333333333333</ele><time>2026-04-12T13:36:19.947Z</time></trkpt><trkpt lat="44.6315453" lon="10.1779206"><ele>413.16666666666663</ele><time>2026-04-12T13:36:20.946Z</time></trkpt><trkpt lat="44.6314805" lon="10.1778507"><ele>413.0</ele><time>2026-04-12T13:36:21.947Z</time></trkpt><trkpt lat="44.6314161" lon="10.1777688"><ele>413.0</ele><time>2026-04-12T13:36:22.947Z</time></trkpt><trkpt lat="44.6313428" lon="10.1776891"><ele>413.0</ele><time>2026-04-12T13:36:23.947Z</time></trkpt><trkpt lat="44.6312511" lon="10.1776315"><ele>413.0</ele><time>2026-04-12T13:36:24.947Z</time></trkpt><trkpt lat="44.6311497" lon="10.1775981"><ele>413.0</ele><time>2026-04-12T13:36:25.946Z</time></trkpt><trkpt lat="44.6310484" lon="10.1775598"><ele>413.0</ele><time>2026-04-12T13:36:26.946Z</time></trkpt><trkpt lat="44.6309572" lon="10.177498"><ele>412.2</ele><time>2026-04-12T13:36:27.947Z</time></trkpt><trkpt lat="44.6308816" lon="10.1774113"><ele>411.4</ele><time>2026-04-12T13:36:28.946Z</time></trkpt><trkpt lat="44.6308251" lon="10.1773094"><ele>410.59999999999997</ele><time>2026-04-12T13:36:29.946Z</time></trkpt><trkpt lat="44.6307832" lon="10.1771947"><ele>409.79999999999995</ele><time>2026-04-12T13:36:30.945Z</time></trkpt><trkpt lat="44.6307431" lon="10.1770696"><ele>409.0</ele><time>2026-04-12T13:36:31.946Z</time></trkpt><trkpt lat="44.6307008" lon="10.1769396"><ele>409.00000000000006</ele><time>2026-04-12T13:36:32.946Z</time></trkpt><trkpt lat="44.63066" lon="10.1768051"><ele>409.0</ele><time>2026-04-12T13:36:33.946Z</time></trkpt><trkpt lat="44.6306195" lon="10.1766816"><ele>409.0</ele><time>2026-04-12T13:36:34.946Z</time></trkpt><trkpt lat="44.6305799" lon="10.176569"><ele>409.0</ele><time>2026-04-12T13:36:35.947Z</time></trkpt><trkpt lat="44.6305413" lon="10.1764703"><ele>409.00000000000006</ele><time>2026-04-12T13:36:36.946Z</time></trkpt><trkpt lat="44.6304928" lon="10.1763832"><ele>409.0</ele><time>2026-04-12T13:36:37.946Z</time></trkpt><trkpt lat="44.6304422" lon="10.1763096"><ele>408.50000000000006</ele><time>2026-04-12T13:36:38.947Z</time></trkpt><trkpt lat="44.6303469" lon="10.1762236"><ele>408.0</ele><time>2026-04-12T13:36:40.947Z</time></trkpt><trkpt lat="44.6302811" lon="10.1762364"><ele>407.5</ele><time>2026-04-12T13:36:41.946Z</time></trkpt><trkpt lat="44.6302181" lon="10.1762577"><ele>407.0</ele><time>2026-04-12T13:36:42.946Z</time></trkpt><trkpt lat="44.63014" lon="10.1762589"><ele>406.50000000000006</ele><time>2026-04-12T13:36:43.946Z</time></trkpt><trkpt lat="44.630057" lon="10.1762595"><ele>406.0</ele><time>2026-04-12T13:36:44.946Z</time></trkpt><trkpt lat="44.6299603" lon="10.1762641"><ele>406.0</ele><time>2026-04-12T13:36:45.946Z</time></trkpt><trkpt lat="44.6298667" lon="10.1762795"><ele>406.0</ele><time>2026-04-12T13:36:46.947Z</time></trkpt><trkpt lat="44.6297679" lon="10.1763486"><ele>406.0</ele><time>2026-04-12T13:36:47.947Z</time></trkpt><trkpt lat="44.629682" lon="10.1764411"><ele>406.0</ele><time>2026-04-12T13:36:48.947Z</time></trkpt><trkpt lat="44.6295948" lon="10.1765384"><ele>406.0</ele><time>2026-04-12T13:36:49.946Z</time></trkpt><trkpt lat="44.6295026" lon="10.1766222"><ele>408.20000000000005</ele><time>2026-04-12T13:36:50.946Z</time></trkpt><trkpt lat="44.6294123" lon="10.1766848"><ele>410.40000000000003</ele><time>2026-04-12T13:36:51.946Z</time></trkpt><trkpt lat="44.6293383" lon="10.1767458"><ele>412.6</ele><time>2026-04-12T13:36:52.946Z</time></trkpt><trkpt lat="44.6292878" lon="10.17684"><ele>414.8</ele><time>2026-04-12T13:36:53.947Z</time></trkpt><trkpt lat="44.6292493" lon="10.1769505"><ele>417.0</ele><time>2026-04-12T13:36:54.947Z</time></trkpt><trkpt lat="44.6292278" lon="10.1770784"><ele>417.0</ele><time>2026-04-12T13:36:55.947Z</time></trkpt><trkpt lat="44.6292147" lon="10.1772165"><ele>417.0</ele><time>2026-04-12T13:36:56.946Z</time></trkpt><trkpt lat="44.6292044" lon="10.1773649"><ele>417.0</ele><time>2026-04-12T13:36:57.947Z</time></trkpt><trkpt lat="44.6291873" lon="10.1775223"><ele>417.0</ele><time>2026-04-12T13:36:58.947Z</time></trkpt><trkpt lat="44.629175" lon="10.1776938"><ele>417.0</ele><time>2026-04-12T13:36:59.946Z</time></trkpt><trkpt lat="44.6291651" lon="10.1778623"><ele>420.75</ele><time>2026-04-12T13:37:00.947Z</time></trkpt><trkpt lat="44.6291528" lon="10.178039"><ele>424.5</ele><time>2026-04-12T13:37:01.947Z</time></trkpt><trkpt lat="44.6291297" lon="10.1782207"><ele>428.25</ele><time>2026-04-12T13:37:02.947Z</time></trkpt><trkpt lat="44.6291001" lon="10.1784051"><ele>432.0</ele><time>2026-04-12T13:37:03.947Z</time></trkpt><trkpt lat="44.6290636" lon="10.1785924"><ele>434.0</ele><time>2026-04-12T13:37:04.946Z</time></trkpt><trkpt lat="44.6290418" lon="10.1787659"><ele>436.00000000000006</ele><time>2026-04-12T13:37:05.946Z</time></trkpt><trkpt lat="44.6290111" lon="10.178932"><ele>438.00000000000006</ele><time>2026-04-12T13:37:06.946Z</time></trkpt><trkpt lat="44.6290125" lon="10.1790568"><ele>440.0</ele><time>2026-04-12T13:37:07.946Z</time></trkpt><trkpt lat="44.6290069" lon="10.1791845"><ele>442.0</ele><time>2026-04-12T13:37:08.946Z</time></trkpt><trkpt lat="44.6289991" lon="10.1792966"><ele>443.83333333333337</ele><time>2026-04-12T13:37:09.947Z</time></trkpt><trkpt lat="44.6289925" lon="10.1793905"><ele>445.6666666666667</ele><time>2026-04-12T13:37:10.945Z</time></trkpt><trkpt lat="44.6289934" lon="10.1795607"><ele>447.5</ele><time>2026-04-12T13:37:12.946Z</time></trkpt><trkpt lat="44.629001" lon="10.1796746"><ele>449.33333333333337</ele><time>2026-04-12T13:37:14.946Z</time></trkpt><trkpt lat="44.6290151" lon="10.1797891"><ele>451.1666666666667</ele><time>2026-04-12T13:37:15.947Z</time></trkpt><trkpt lat="44.6289949" lon="10.1798806"><ele>453.0</ele><time>2026-04-12T13:37:16.947Z</time></trkpt><trkpt lat="44.6289112" lon="10.1800282"><ele>454.59999999999997</ele><time>2026-04-12T13:37:17.946Z</time></trkpt><trkpt lat="44.6288856" lon="10.1801437"><ele>456.19999999999993</ele><time>2026-04-12T13:37:18.945Z</time></trkpt><trkpt lat="44.6288779" lon="10.1802778"><ele>457.8</ele><time>2026-04-12T13:37:19.946Z</time></trkpt><trkpt lat="44.6288791" lon="10.1804182"><ele>459.4</ele><time>2026-04-12T13:37:20.946Z</time></trkpt><trkpt lat="44.6288889" lon="10.1805738"><ele>461.0</ele><time>2026-04-12T13:37:21.946Z</time></trkpt><trkpt lat="44.6288858" lon="10.1807114"><ele>462.4</ele><time>2026-04-12T13:37:22.946Z</time></trkpt><trkpt lat="44.6288817" lon="10.1808537"><ele>463.8</ele><time>2026-04-12T13:37:23.946Z</time></trkpt><trkpt lat="44.6288681" lon="10.1809756"><ele>465.19999999999993</ele><time>2026-04-12T13:37:24.946Z</time></trkpt><trkpt lat="44.6288584" lon="10.1811032"><ele>466.59999999999997</ele><time>2026-04-12T13:37:25.945Z</time></trkpt><trkpt lat="44.6288415" lon="10.1812305"><ele>468.0</ele><time>2026-04-12T13:37:26.947Z</time></trkpt><trkpt lat="44.6288244" lon="10.1813575"><ele>468.0</ele><time>2026-04-12T13:37:27.947Z</time></trkpt><trkpt lat="44.6288069" lon="10.1814799"><ele>468.0</ele><time>2026-04-12T13:37:28.947Z</time></trkpt><trkpt lat="44.62879" lon="10.1815797"><ele>468.0</ele><time>2026-04-12T13:37:29.947Z</time></trkpt><trkpt lat="44.6287726" lon="10.1816821"><ele>468.0</ele><time>2026-04-12T13:37:30.947Z</time></trkpt><trkpt lat="44.6287561" lon="10.1817751"><ele>468.0</ele><time>2026-04-12T13:37:33.945Z</time></trkpt><trkpt lat="44.6287229" lon="10.1818904"><ele>468.0</ele><time>2026-04-12T13:37:36.946Z</time></trkpt><trkpt lat="44.6286914" lon="10.1820351"><ele>469.5</ele><time>2026-04-12T13:37:38.947Z</time></trkpt><trkpt lat="44.628713" lon="10.1822145"><ele>471.0</ele><time>2026-04-12T13:37:40.945Z</time></trkpt><trkpt lat="44.6287491" lon="10.1823083"><ele>472.5</ele><time>2026-04-12T13:37:41.946Z</time></trkpt><trkpt lat="44.6287702" lon="10.1823999"><ele>474.0</ele><time>2026-04-12T13:37:42.947Z</time></trkpt><trkpt lat="44.6287886" lon="10.182489"><ele>475.5</ele><time>2026-04-12T13:37:43.947Z</time></trkpt><trkpt lat="44.6287941" lon="10.1825921"><ele>477.0</ele><time>2026-04-12T13:37:44.946Z</time></trkpt><trkpt lat="44.6287515" lon="10.1827014"><ele>478.0</ele><time>2026-04-12T13:37:45.947Z</time></trkpt><trkpt lat="44.6287381" lon="10.1828203"><ele>479.00000000000006</ele><time>2026-04-12T13:37:46.946Z</time></trkpt><trkpt lat="44.6287155" lon="10.1829492"><ele>480.00000000000006</ele><time>2026-04-12T13:37:47.946Z</time></trkpt><trkpt lat="44.6286973" lon="10.183083"><ele>481.0</ele><time>2026-04-12T13:37:48.947Z</time></trkpt><trkpt lat="44.6286607" lon="10.183208"><ele>482.0</ele><time>2026-04-12T13:37:49.947Z</time></trkpt><trkpt lat="44.6286207" lon="10.1833214"><ele>479.20000000000005</ele><time>2026-04-12T13:37:50.947Z</time></trkpt><trkpt lat="44.6285583" lon="10.1834156"><ele>476.40000000000003</ele><time>2026-04-12T13:37:51.947Z</time></trkpt><trkpt lat="44.628483" lon="10.1834867"><ele>473.59999999999997</ele><time>2026-04-12T13:37:52.946Z</time></trkpt><trkpt lat="44.6283968" lon="10.1835431"><ele>470.79999999999995</ele><time>2026-04-12T13:37:53.947Z</time></trkpt><trkpt lat="44.6283017" lon="10.1835856"><ele>468.0</ele><time>2026-04-12T13:37:54.946Z</time></trkpt><trkpt lat="44.6282058" lon="10.1836312"><ele>468.0</ele><time>2026-04-12T13:37:55.946Z</time></trkpt><trkpt lat="44.6281249" lon="10.1836858"><ele>467.99999999999994</ele><time>2026-04-12T13:37:56.946Z</time></trkpt><trkpt lat="44.6280528" lon="10.1837638"><ele>467.99999999999994</ele><time>2026-04-12T13:37:57.946Z</time></trkpt><trkpt lat="44.6279868" lon="10.1838592"><ele>468.0</ele><time>2026-04-12T13:37:58.946Z</time></trkpt><trkpt lat="44.6279159" lon="10.1839553"><ele>468.0</ele><time>2026-04-12T13:37:59.946Z</time></trkpt><trkpt lat="44.627842" lon="10.1840514"><ele>465.79999999999995</ele><time>2026-04-12T13:38:00.946Z</time></trkpt><trkpt lat="44.6277695" lon="10.1841498"><ele>463.59999999999997</ele><time>2026-04-12T13:38:01.946Z</time></trkpt><trkpt lat="44.6277046" lon="10.184261"><ele>461.40000000000003</ele><time>2026-04-12T13:38:02.946Z</time></trkpt><trkpt lat="44.627649" lon="10.1843783"><ele>459.20000000000005</ele><time>2026-04-12T13:38:03.946Z</time></trkpt><trkpt lat="44.6276018" lon="10.1844925"><ele>457.0</ele><time>2026-04-12T13:38:04.946Z</time></trkpt><trkpt lat="44.6275587" lon="10.1846074"><ele>457.0</ele><time>2026-04-12T13:38:05.946Z</time></trkpt><trkpt lat="44.6275307" lon="10.1847276"><ele>457.00000000000006</ele><time>2026-04-12T13:38:06.946Z</time></trkpt><trkpt lat="44.6275046" lon="10.1848547"><ele>457.00000000000006</ele><time>2026-04-12T13:38:07.946Z</time></trkpt><trkpt lat="44.6275019" lon="10.1849814"><ele>457.0</ele><time>2026-04-12T13:38:08.945Z</time></trkpt><trkpt lat="44.62753" lon="10.1851235"><ele>457.0</ele><time>2026-04-12T13:38:09.946Z</time></trkpt><trkpt lat="44.6275412" lon="10.1852628"><ele>458.40000000000003</ele><time>2026-04-12T13:38:10.946Z</time></trkpt><trkpt lat="44.627558" lon="10.1854051"><ele>459.80000000000007</ele><time>2026-04-12T13:38:11.947Z</time></trkpt><trkpt lat="44.6275669" lon="10.1855527"><ele>461.2</ele><time>2026-04-12T13:38:12.946Z</time></trkpt><trkpt lat="44.6275674" lon="10.1856921"><ele>462.6</ele><time>2026-04-12T13:38:13.947Z</time></trkpt><trkpt lat="44.6275488" lon="10.1858242"><ele>464.0</ele><time>2026-04-12T13:38:14.947Z</time></trkpt><trkpt lat="44.6275172" lon="10.1859396"><ele>466.4</ele><time>2026-04-12T13:38:15.947Z</time></trkpt><trkpt lat="44.6274572" lon="10.186038"><ele>468.79999999999995</ele><time>2026-04-12T13:38:16.946Z</time></trkpt><trkpt lat="44.6273846" lon="10.186118"><ele>471.20000000000005</ele><time>2026-04-12T13:38:17.947Z</time></trkpt><trkpt lat="44.6272952" lon="10.1861824"><ele>473.6</ele><time>2026-04-12T13:38:18.945Z</time></trkpt><trkpt lat="44.6272102" lon="10.1862427"><ele>476.0</ele><time>2026-04-12T13:38:19.946Z</time></trkpt><trkpt lat="44.6271405" lon="10.1863106"><ele>476.0</ele><time>2026-04-12T13:38:20.946Z</time></trkpt><trkpt lat="44.6270797" lon="10.1863973"><ele>476.0</ele><time>2026-04-12T13:38:21.946Z</time></trkpt><trkpt lat="44.6270225" lon="10.1865186"><ele>476.0</ele><time>2026-04-12T13:38:22.946Z</time></trkpt><trkpt lat="44.6269623" lon="10.1866532"><ele>476.0</ele><time>2026-04-12T13:38:23.946Z</time></trkpt><trkpt lat="44.6269069" lon="10.1867761"><ele>476.0</ele><time>2026-04-12T13:38:24.947Z</time></trkpt><trkpt lat="44.6268509" lon="10.1869081"><ele>473.20000000000005</ele><time>2026-04-12T13:38:25.946Z</time></trkpt><trkpt lat="44.6267975" lon="10.187032"><ele>470.40000000000003</ele><time>2026-04-12T13:38:26.946Z</time></trkpt><trkpt lat="44.6267432" lon="10.1871457"><ele>467.6</ele><time>2026-04-12T13:38:27.946Z</time></trkpt><trkpt lat="44.6266807" lon="10.1872603"><ele>464.8</ele><time>2026-04-12T13:38:28.947Z</time></trkpt><trkpt lat="44.6266149" lon="10.1873781"><ele>462.0</ele><time>2026-04-12T13:38:29.947Z</time></trkpt><trkpt lat="44.6265452" lon="10.1874978"><ele>462.0</ele><time>2026-04-12T13:38:30.946Z</time></trkpt><trkpt lat="44.6264896" lon="10.1876081"><ele>462.0</ele><time>2026-04-12T13:38:31.947Z</time></trkpt><trkpt lat="44.6264549" lon="10.1877162"><ele>462.0</ele><time>2026-04-12T13:38:32.947Z</time></trkpt><trkpt lat="44.6264405" lon="10.1878197"><ele>462.0</ele><time>2026-04-12T13:38:33.945Z</time></trkpt><trkpt lat="44.6264331" lon="10.1879296"><ele>462.0</ele><time>2026-04-12T13:38:34.947Z</time></trkpt><trkpt lat="44.6264353" lon="10.1880255"><ele>462.0</ele><time>2026-04-12T13:38:35.947Z</time></trkpt><trkpt lat="44.626443" lon="10.1881251"><ele>462.6666666666667</ele><time>2026-04-12T13:38:36.946Z</time></trkpt><trkpt lat="44.6264498" lon="10.1882352"><ele>463.33333333333337</ele><time>2026-04-12T13:38:37.947Z</time></trkpt><trkpt lat="44.6264623" lon="10.1883462"><ele>464.0</ele><time>2026-04-12T13:38:38.947Z</time></trkpt><trkpt lat="44.6264797" lon="10.1884499"><ele>464.6666666666667</ele><time>2026-04-12T13:38:39.946Z</time></trkpt><trkpt lat="44.626504" lon="10.188535"><ele>465.33333333333337</ele><time>2026-04-12T13:38:40.947Z</time></trkpt><trkpt lat="44.6265468" lon="10.1886179"><ele>466.0</ele><time>2026-04-12T13:38:41.946Z</time></trkpt><trkpt lat="44.6266063" lon="10.1886922"><ele>466.00000000000006</ele><time>2026-04-12T13:38:42.947Z</time></trkpt><trkpt lat="44.6266751" lon="10.1887625"><ele>466.0</ele><time>2026-04-12T13:38:43.946Z</time></trkpt><trkpt lat="44.626745" lon="10.1888259"><ele>466.0</ele><time>2026-04-12T13:38:44.947Z</time></trkpt><trkpt lat="44.626814" lon="10.1888794"><ele>466.0</ele><time>2026-04-12T13:38:45.947Z</time></trkpt><trkpt lat="44.6268986" lon="10.1889213"><ele>466.00000000000006</ele><time>2026-04-12T13:38:46.947Z</time></trkpt><trkpt lat="44.6269793" lon="10.1889401"><ele>466.0</ele><time>2026-04-12T13:38:47.946Z</time></trkpt><trkpt lat="44.6270576" lon="10.1889478"><ele>467.00000000000006</ele><time>2026-04-12T13:38:48.947Z</time></trkpt><trkpt lat="44.6271356" lon="10.188958"><ele>468.0</ele><time>2026-04-12T13:38:49.947Z</time></trkpt><trkpt lat="44.6272127" lon="10.1889788"><ele>469.0</ele><time>2026-04-12T13:38:50.946Z</time></trkpt><trkpt lat="44.6272927" lon="10.1890022"><ele>470.0</ele><time>2026-04-12T13:38:51.946Z</time></trkpt><trkpt lat="44.6273753" lon="10.1890314"><ele>471.00000000000006</ele><time>2026-04-12T13:38:52.947Z</time></trkpt><trkpt lat="44.6274592" lon="10.1890743"><ele>472.0</ele><time>2026-04-12T13:38:53.946Z</time></trkpt><trkpt lat="44.6275297" lon="10.1891422"><ele>472.0</ele><time>2026-04-12T13:38:54.946Z</time></trkpt><trkpt lat="44.6275934" lon="10.1892282"><ele>472.00000000000006</ele><time>2026-04-12T13:38:55.947Z</time></trkpt><trkpt lat="44.6276551" lon="10.1893304"><ele>472.00000000000006</ele><time>2026-04-12T13:38:56.946Z</time></trkpt><trkpt lat="44.6277123" lon="10.1894396"><ele>472.0</ele><time>2026-04-12T13:38:57.947Z</time></trkpt><trkpt lat="44.6277664" lon="10.1895447"><ele>472.0</ele><time>2026-04-12T13:38:58.946Z</time></trkpt><trkpt lat="44.6278167" lon="10.1896509"><ele>474.6666666666667</ele><time>2026-04-12T13:38:59.947Z</time></trkpt><trkpt lat="44.6278604" lon="10.1897592"><ele>477.33333333333337</ele><time>2026-04-12T13:39:00.946Z</time></trkpt><trkpt lat="44.6279024" lon="10.1898721"><ele>480.0</ele><time>2026-04-12T13:39:01.946Z</time></trkpt><trkpt lat="44.6279434" lon="10.1899865"><ele>482.66666666666663</ele><time>2026-04-12T13:39:02.946Z</time></trkpt><trkpt lat="44.6279747" lon="10.1901054"><ele>485.3333333333333</ele><time>2026-04-12T13:39:03.946Z</time></trkpt><trkpt lat="44.6279876" lon="10.1902242"><ele>488.0</ele><time>2026-04-12T13:39:04.946Z</time></trkpt><trkpt lat="44.6279952" lon="10.190344"><ele>488.0</ele><time>2026-04-12T13:39:05.946Z</time></trkpt><trkpt lat="44.6279957" lon="10.1904685"><ele>487.99999999999994</ele><time>2026-04-12T13:39:06.946Z</time></trkpt><trkpt lat="44.6279989" lon="10.1906005"><ele>487.99999999999994</ele><time>2026-04-12T13:39:07.947Z</time></trkpt><trkpt lat="44.6279993" lon="10.1907411"><ele>488.0</ele><time>2026-04-12T13:39:08.945Z</time></trkpt><trkpt lat="44.6280004" lon="10.1908812"><ele>488.0</ele><time>2026-04-12T13:39:09.947Z</time></trkpt><trkpt lat="44.6279995" lon="10.1910216"><ele>489.2</ele><time>2026-04-12T13:39:10.947Z</time></trkpt><trkpt lat="44.6280025" lon="10.1911661"><ele>490.4</ele><time>2026-04-12T13:39:11.947Z</time></trkpt><trkpt lat="44.6279995" lon="10.1913072"><ele>491.59999999999997</ele><time>2026-04-12T13:39:12.946Z</time></trkpt><trkpt lat="44.6279912" lon="10.1914399"><ele>492.79999999999995</ele><time>2026-04-12T13:39:13.945Z</time></trkpt><trkpt lat="44.6279791" lon="10.1915704"><ele>494.0</ele><time>2026-04-12T13:39:14.947Z</time></trkpt><trkpt lat="44.6279573" lon="10.1917085"><ele>496.2</ele><time>2026-04-12T13:39:15.946Z</time></trkpt><trkpt lat="44.6279294" lon="10.191843"><ele>498.4</ele><time>2026-04-12T13:39:16.946Z</time></trkpt><trkpt lat="44.6278982" lon="10.19198"><ele>500.6</ele><time>2026-04-12T13:39:17.945Z</time></trkpt><trkpt lat="44.6278715" lon="10.1921217"><ele>502.8</ele><time>2026-04-12T13:39:18.947Z</time></trkpt><trkpt lat="44.627847" lon="10.1922623"><ele>505.0</ele><time>2026-04-12T13:39:19.947Z</time></trkpt><trkpt lat="44.6278198" lon="10.1923964"><ele>501.0</ele><time>2026-04-12T13:39:20.946Z</time></trkpt><trkpt lat="44.627783" lon="10.1925314"><ele>497.0</ele><time>2026-04-12T13:39:21.946Z</time></trkpt><trkpt lat="44.6277386" lon="10.1926573"><ele>493.0</ele><time>2026-04-12T13:39:22.946Z</time></trkpt><trkpt lat="44.6276907" lon="10.192775"><ele>489.0</ele><time>2026-04-12T13:39:23.947Z</time></trkpt><trkpt lat="44.6276554" lon="10.1928728"><ele>485.0</ele><time>2026-04-12T13:39:24.947Z</time></trkpt><trkpt lat="44.6276525" lon="10.1930142"><ele>485.0</ele><time>2026-04-12T13:39:26.946Z</time></trkpt><trkpt lat="44.6277417" lon="10.1930397"><ele>485.0</ele><time>2026-04-12T13:39:28.946Z</time></trkpt><trkpt lat="44.6278437" lon="10.1929154"><ele>485.0</ele><time>2026-04-12T13:39:30.946Z</time></trkpt><trkpt lat="44.6279123" lon="10.1928102"><ele>485.0</ele><time>2026-04-12T13:39:31.946Z</time></trkpt><trkpt lat="44.627989" lon="10.1927015"><ele>485.0</ele><time>2026-04-12T13:39:32.946Z</time></trkpt><trkpt lat="44.6280541" lon="10.1926015"><ele>489.0</ele><time>2026-04-12T13:39:33.947Z</time></trkpt><trkpt lat="44.6281132" lon="10.1924977"><ele>493.0</ele><time>2026-04-12T13:39:34.946Z</time></trkpt><trkpt lat="44.6281758" lon="10.192383"><ele>497.0</ele><time>2026-04-12T13:39:35.946Z</time></trkpt><trkpt lat="44.6282405" lon="10.1922483"><ele>501.0</ele><time>2026-04-12T13:39:36.946Z</time></trkpt><trkpt lat="44.628317" lon="10.1921017"><ele>505.0</ele><time>2026-04-12T13:39:37.947Z</time></trkpt><trkpt lat="44.6283881" lon="10.1919145"><ele>505.0</ele><time>2026-04-12T13:39:38.947Z</time></trkpt><trkpt lat="44.6284716" lon="10.1917209"><ele>505.0</ele><time>2026-04-12T13:39:39.947Z</time></trkpt><trkpt lat="44.628518" lon="10.1915636"><ele>505.0</ele><time>2026-04-12T13:39:40.945Z</time></trkpt><trkpt lat="44.6285578" lon="10.1914569"><ele>505.0</ele><time>2026-04-12T13:39:41.946Z</time></trkpt><trkpt lat="44.6286055" lon="10.191398"><ele>505.0</ele><time>2026-04-12T13:39:42.947Z</time></trkpt><trkpt lat="44.6287071" lon="10.1914133"><ele>506.83333333333337</ele><time>2026-04-12T13:39:44.946Z</time></trkpt><trkpt lat="44.6287642" lon="10.1915039"><ele>508.6666666666667</ele><time>2026-04-12T13:39:46.946Z</time></trkpt><trkpt lat="44.6287892" lon="10.1916039"><ele>510.5</ele><time>2026-04-12T13:39:47.946Z</time></trkpt><trkpt lat="44.6287703" lon="10.1917544"><ele>512.3333333333334</ele><time>2026-04-12T13:39:48.946Z</time></trkpt><trkpt lat="44.6287528" lon="10.1918721"><ele>514.1666666666666</ele><time>2026-04-12T13:39:49.946Z</time></trkpt><trkpt lat="44.6287123" lon="10.1919763"><ele>516.0</ele><time>2026-04-12T13:39:50.947Z</time></trkpt><trkpt lat="44.6286517" lon="10.1920934"><ele>514.8</ele><time>2026-04-12T13:39:51.947Z</time></trkpt><trkpt lat="44.6285877" lon="10.1922157"><ele>513.6</ele><time>2026-04-12T13:39:52.947Z</time></trkpt><trkpt lat="44.6285288" lon="10.1923394"><ele>512.4</ele><time>2026-04-12T13:39:53.947Z</time></trkpt><trkpt lat="44.6284754" lon="10.1924593"><ele>511.2</ele><time>2026-04-12T13:39:54.946Z</time></trkpt><trkpt lat="44.6284285" lon="10.1925819"><ele>510.0</ele><time>2026-04-12T13:39:55.947Z</time></trkpt><trkpt lat="44.6283812" lon="10.1927084"><ele>510.0</ele><time>2026-04-12T13:39:56.947Z</time></trkpt><trkpt lat="44.628338" lon="10.192836"><ele>510.0</ele><time>2026-04-12T13:39:57.945Z</time></trkpt><trkpt lat="44.628295" lon="10.1929634"><ele>510.0</ele><time>2026-04-12T13:39:58.947Z</time></trkpt><trkpt lat="44.6282513" lon="10.1931122"><ele>510.0</ele><time>2026-04-12T13:39:59.947Z</time></trkpt><trkpt lat="44.6282031" lon="10.1932604"><ele>510.0</ele><time>2026-04-12T13:40:00.947Z</time></trkpt><trkpt lat="44.6281552" lon="10.1934173"><ele>512.6</ele><time>2026-04-12T13:40:01.945Z</time></trkpt><trkpt lat="44.628101" lon="10.1935683"><ele>515.2</ele><time>2026-04-12T13:40:02.947Z</time></trkpt><trkpt lat="44.6280564" lon="10.1937091"><ele>517.8</ele><time>2026-04-12T13:40:03.947Z</time></trkpt><trkpt lat="44.6280159" lon="10.1938414"><ele>520.4</ele><time>2026-04-12T13:40:04.946Z</time></trkpt><trkpt lat="44.6280002" lon="10.1939493"><ele>523.0</ele><time>2026-04-12T13:40:05.946Z</time></trkpt><trkpt lat="44.6279872" lon="10.1940464"><ele>523.0</ele><time>2026-04-12T13:40:06.946Z</time></trkpt><trkpt lat="44.6279624" lon="10.1941323"><ele>523.0</ele><time>2026-04-12T13:40:07.947Z</time></trkpt><trkpt lat="44.6279219" lon="10.1942176"><ele>523.0</ele><time>2026-04-12T13:40:08.946Z</time></trkpt><trkpt lat="44.6278827" lon="10.19432"><ele>523.0</ele><time>2026-04-12T13:40:09.946Z</time></trkpt><trkpt lat="44.6278414" lon="10.1944309"><ele>523.0</ele><time>2026-04-12T13:40:10.946Z</time></trkpt><trkpt lat="44.6278031" lon="10.1945353"><ele>523.0</ele><time>2026-04-12T13:40:11.947Z</time></trkpt><trkpt lat="44.6277677" lon="10.1946373"><ele>523.0</ele><time>2026-04-12T13:40:12.946Z</time></trkpt><trkpt lat="44.6276693" lon="10.1947661"><ele>523.0</ele><time>2026-04-12T13:40:14.947Z</time></trkpt><trkpt lat="44.627612" lon="10.1948401"><ele>523.0</ele><time>2026-04-12T13:40:15.946Z</time></trkpt><trkpt lat="44.6275368" lon="10.1949627"><ele>523.0</ele><time>2026-04-12T13:40:17.947Z</time></trkpt><trkpt lat="44.6274402" lon="10.1950688"><ele>526.6666666666667</ele><time>2026-04-12T13:40:19.946Z</time></trkpt><trkpt lat="44.6273881" lon="10.1951333"><ele>530.3333333333334</ele><time>2026-04-12T13:40:20.947Z</time></trkpt><trkpt lat="44.627319" lon="10.1951769"><ele>534.0</ele><time>2026-04-12T13:40:21.945Z</time></trkpt><trkpt lat="44.627269" lon="10.1953004"><ele>537.6666666666666</ele><time>2026-04-12T13:40:23.946Z</time></trkpt><trkpt lat="44.627244" lon="10.1953914"><ele>541.3333333333333</ele><time>2026-04-12T13:40:24.947Z</time></trkpt><trkpt lat="44.6271993" lon="10.195465"><ele>545.0</ele><time>2026-04-12T13:40:25.946Z</time></trkpt><trkpt lat="44.627174" lon="10.1955678"><ele>545.0</ele><time>2026-04-12T13:40:26.946Z</time></trkpt><trkpt lat="44.627137" lon="10.1956403"><ele>545.0</ele><time>2026-04-12T13:40:27.946Z</time></trkpt><trkpt lat="44.6271268" lon="10.1957948"><ele>545.0</ele><time>2026-04-12T13:40:29.947Z</time></trkpt><trkpt lat="44.6271199" lon="10.1958828"><ele>545.0</ele><time>2026-04-12T13:40:30.947Z</time></trkpt><trkpt lat="44.6271079" lon="10.1959716"><ele>545.0</ele><time>2026-04-12T13:40:31.947Z</time></trkpt><trkpt lat="44.6271172" lon="10.1960751"><ele>545.0</ele><time>2026-04-12T13:40:32.947Z</time></trkpt><trkpt lat="44.6271057" lon="10.1961774"><ele>545.0</ele><time>2026-04-12T13:40:33.946Z</time></trkpt><trkpt lat="44.6270937" lon="10.1962802"><ele>547.6</ele><time>2026-04-12T13:40:34.946Z</time></trkpt><trkpt lat="44.6270688" lon="10.1964795"><ele>550.2</ele><time>2026-04-12T13:40:36.946Z</time></trkpt><trkpt lat="44.6270472" lon="10.1965657"><ele>552.8</ele><time>2026-04-12T13:40:37.946Z</time></trkpt><trkpt lat="44.6270234" lon="10.1966523"><ele>555.4</ele><time>2026-04-12T13:40:38.947Z</time></trkpt><trkpt lat="44.627031" lon="10.1967676"><ele>558.0</ele><time>2026-04-12T13:40:39.947Z</time></trkpt><trkpt lat="44.6270149" lon="10.196935"><ele>559.4</ele><time>2026-04-12T13:40:41.946Z</time></trkpt><trkpt lat="44.6270015" lon="10.197033"><ele>560.8</ele><time>2026-04-12T13:40:43.946Z</time></trkpt><trkpt lat="44.6269722" lon="10.1971536"><ele>562.2</ele><time>2026-04-12T13:40:45.947Z</time></trkpt><trkpt lat="44.6269373" lon="10.1972839"><ele>563.6</ele><time>2026-04-12T13:40:47.946Z</time></trkpt><trkpt lat="44.6268818" lon="10.1973973"><ele>565.0</ele><time>2026-04-12T13:40:49.946Z</time></trkpt><trkpt lat="44.6268881" lon="10.1975311"><ele>573.0</ele><time>2026-04-12T13:40:52.947Z</time></trkpt><trkpt lat="44.6268297" lon="10.1977145"><ele>581.0</ele><time>2026-04-12T13:40:54.947Z</time></trkpt><trkpt lat="44.6268" lon="10.1977959"><ele>589.0</ele><time>2026-04-12T13:40:55.947Z</time></trkpt><trkpt lat="44.626771" lon="10.1978993"><ele>597.0</ele><time>2026-04-12T13:40:56.946Z</time></trkpt><trkpt lat="44.626762" lon="10.1980041"><ele>605.0</ele><time>2026-04-12T13:40:57.947Z</time></trkpt><trkpt lat="44.6267343" lon="10.1981291"><ele>603.6666666666666</ele><time>2026-04-12T13:40:58.947Z</time></trkpt><trkpt lat="44.6267013" lon="10.1982193"><ele>602.3333333333333</ele><time>2026-04-12T13:40:59.947Z</time></trkpt><trkpt lat="44.6267227" lon="10.1983516"><ele>601.0</ele><time>2026-04-12T13:41:01.947Z</time></trkpt><trkpt lat="44.6266699" lon="10.198468"><ele>599.6666666666666</ele><time>2026-04-12T13:41:03.946Z</time></trkpt><trkpt lat="44.6265998" lon="10.1985595"><ele>598.3333333333334</ele><time>2026-04-12T13:41:05.946Z</time></trkpt><trkpt lat="44.6265371" lon="10.1986398"><ele>597.0</ele><time>2026-04-12T13:41:07.947Z</time></trkpt><trkpt lat="44.626494" lon="10.1987218"><ele>597.0</ele><time>2026-04-12T13:41:10.946Z</time></trkpt><trkpt lat="44.626442" lon="10.1987893"><ele>597.0</ele><time>2026-04-12T13:41:17.946Z</time></trkpt><trkpt lat="44.6263846" lon="10.198833"><ele>597.0</ele><time>2026-04-12T13:41:22.946Z</time></trkpt><trkpt lat="44.6263064" lon="10.1989111"><ele>597.0</ele><time>2026-04-12T13:44:37.946Z</time></trkpt><trkpt lat="44.6262228" lon="10.1990163"><ele>597.0</ele><time>2026-04-12T13:44:39.947Z</time></trkpt><trkpt lat="44.6261316" lon="10.1991484"><ele>599.2</ele><time>2026-04-12T13:44:41.947Z</time></trkpt><trkpt lat="44.6260806" lon="10.1992223"><ele>601.4000000000001</ele><time>2026-04-12T13:44:42.946Z</time></trkpt><trkpt lat="44.6260269" lon="10.1992939"><ele>603.5999999999999</ele><time>2026-04-12T13:44:43.947Z</time></trkpt><trkpt lat="44.6259461" lon="10.1994227"><ele>605.8</ele><time>2026-04-12T13:44:45.947Z</time></trkpt><trkpt lat="44.625863" lon="10.1995432"><ele>608.0</ele><time>2026-04-12T13:44:47.947Z</time></trkpt><trkpt lat="44.6257566" lon="10.1996712"><ele>608.0</ele><time>2026-04-12T13:44:49.946Z</time></trkpt><trkpt lat="44.6257089" lon="10.1997402"><ele>608.0</ele><time>2026-04-12T13:44:50.946Z</time></trkpt><trkpt lat="44.6256366" lon="10.1998591"><ele>608.0</ele><time>2026-04-12T13:44:52.946Z</time></trkpt><trkpt lat="44.6255709" lon="10.2000038"><ele>608.0</ele><time>2026-04-12T13:44:54.946Z</time></trkpt><trkpt lat="44.6255373" lon="10.2000786"><ele>608.0</ele><time>2026-04-12T13:44:55.947Z</time></trkpt><trkpt lat="44.6254781" lon="10.2002415"><ele>608.8333333333333</ele><time>2026-04-12T13:44:57.945Z</time></trkpt><trkpt lat="44.6254328" lon="10.2003823"><ele>609.6666666666666</ele><time>2026-04-12T13:44:59.946Z</time></trkpt><trkpt lat="44.6254071" lon="10.2005007"><ele>610.5</ele><time>2026-04-12T13:45:01.946Z</time></trkpt><trkpt lat="44.6253723" lon="10.2006043"><ele>611.3333333333334</ele><time>2026-04-12T13:45:03.946Z</time></trkpt><trkpt lat="44.6253115" lon="10.2006647"><ele>612.1666666666667</ele><time>2026-04-12T13:45:04.946Z</time></trkpt><trkpt lat="44.6252703" lon="10.2007483"><ele>613.0</ele><time>2026-04-12T13:45:05.946Z</time></trkpt><trkpt lat="44.6252231" lon="10.2008097"><ele>613.0</ele><time>2026-04-12T13:45:06.946Z</time></trkpt><trkpt lat="44.6251357" lon="10.2009138"><ele>613.0</ele><time>2026-04-12T13:45:08.946Z</time></trkpt><trkpt lat="44.6250561" lon="10.2010203"><ele>613.0</ele><time>2026-04-12T13:45:10.947Z</time></trkpt><trkpt lat="44.6250095" lon="10.2010817"><ele>613.0</ele><time>2026-04-12T13:45:11.946Z</time></trkpt><trkpt lat="44.6249633" lon="10.2011509"><ele>613.0</ele><time>2026-04-12T13:45:12.947Z</time></trkpt><trkpt lat="44.6249203" lon="10.2012227"><ele>613.0</ele><time>2026-04-12T13:45:13.947Z</time></trkpt><trkpt lat="44.6248839" lon="10.2012949"><ele>613.0</ele><time>2026-04-12T13:45:14.946Z</time></trkpt><trkpt lat="44.6248262" lon="10.2014541"><ele>613.0</ele><time>2026-04-12T13:45:16.946Z</time></trkpt><trkpt lat="44.6247877" lon="10.2015493"><ele>613.0</ele><time>2026-04-12T13:45:17.946Z</time></trkpt><trkpt lat="44.6247545" lon="10.201641"><ele>613.0</ele><time>2026-04-12T13:45:18.947Z</time></trkpt><trkpt lat="44.6247188" lon="10.2017332"><ele>613.0</ele><time>2026-04-12T13:45:19.947Z</time></trkpt><trkpt lat="44.6246854" lon="10.2018148"><ele>613.0</ele><time>2026-04-12T13:45:20.947Z</time></trkpt><trkpt lat="44.6246458" lon="10.201888"><ele>612.1999999999999</ele><time>2026-04-12T13:45:21.947Z</time></trkpt><trkpt lat="44.62458" lon="10.202022"><ele>611.4</ele><time>2026-04-12T13:45:23.947Z</time></trkpt><trkpt lat="44.6245305" lon="10.2021573"><ele>610.5999999999999</ele><time>2026-04-12T13:45:25.946Z</time></trkpt><trkpt lat="44.6244799" lon="10.2022682"><ele>609.8</ele><time>2026-04-12T13:45:27.947Z</time></trkpt><trkpt lat="44.6244407" lon="10.2023561"><ele>609.0</ele><time>2026-04-12T13:45:29.947Z</time></trkpt><trkpt lat="44.6244189" lon="10.2024628"><ele>609.0</ele><time>2026-04-12T13:45:32.947Z</time></trkpt><trkpt lat="44.6243969" lon="10.2025824"><ele>609.0</ele><time>2026-04-12T13:45:34.945Z</time></trkpt><trkpt lat="44.6243586" lon="10.202731"><ele>609.0</ele><time>2026-04-12T13:45:36.947Z</time></trkpt><trkpt lat="44.6243313" lon="10.2028728"><ele>609.0</ele><time>2026-04-12T13:45:38.946Z</time></trkpt><trkpt lat="44.6243022" lon="10.2030386"><ele>609.0</ele><time>2026-04-12T13:45:40.947Z</time></trkpt><trkpt lat="44.6242917" lon="10.2031354"><ele>609.3333333333334</ele><time>2026-04-12T13:45:41.946Z</time></trkpt><trkpt lat="44.6242867" lon="10.2032364"><ele>609.6666666666666</ele><time>2026-04-12T13:45:42.946Z</time></trkpt><trkpt lat="44.6242902" lon="10.2033338"><ele>610.0</ele><time>2026-04-12T13:45:43.947Z</time></trkpt><trkpt lat="44.6243211" lon="10.203476"><ele>610.3333333333333</ele><time>2026-04-12T13:45:45.946Z</time></trkpt><trkpt lat="44.6243407" lon="10.2035607"><ele>610.6666666666666</ele><time>2026-04-12T13:45:47.946Z</time></trkpt><trkpt lat="44.6243433" lon="10.2036696"><ele>611.0</ele><time>2026-04-12T13:45:50.945Z</time></trkpt><trkpt lat="44.6243416" lon="10.2037842"><ele>611.0</ele><time>2026-04-12T13:45:52.946Z</time></trkpt><trkpt lat="44.6243273" lon="10.2039518"><ele>611.0</ele><time>2026-04-12T13:45:54.946Z</time></trkpt><trkpt lat="44.6243215" lon="10.204058"><ele>611.0</ele><time>2026-04-12T13:45:55.946Z</time></trkpt><trkpt lat="44.624323" lon="10.2041701"><ele>611.0</ele><time>2026-04-12T13:45:56.947Z</time></trkpt><trkpt lat="44.6243215" lon="10.2042811"><ele>611.0</ele><time>2026-04-12T13:45:57.947Z</time></trkpt><trkpt lat="44.624319" lon="10.2043928"><ele>611.0</ele><time>2026-04-12T13:45:58.947Z</time></trkpt><trkpt lat="44.6243155" lon="10.2044814"><ele>612.4</ele><time>2026-04-12T13:45:59.946Z</time></trkpt><trkpt lat="44.6243162" lon="10.2046261"><ele>613.8</ele><time>2026-04-12T13:46:01.946Z</time></trkpt><trkpt lat="44.624315" lon="10.2047422"><ele>615.1999999999999</ele><time>2026-04-12T13:46:03.947Z</time></trkpt><trkpt lat="44.6243314" lon="10.2048676"><ele>616.6</ele><time>2026-04-12T13:46:05.947Z</time></trkpt><trkpt lat="44.6243725" lon="10.2050155"><ele>618.0</ele><time>2026-04-12T13:46:07.947Z</time></trkpt><trkpt lat="44.6243947" lon="10.2050995"><ele>618.8333333333334</ele><time>2026-04-12T13:46:08.947Z</time></trkpt><trkpt lat="44.6244093" lon="10.2051997"><ele>619.6666666666666</ele><time>2026-04-12T13:46:09.946Z</time></trkpt><trkpt lat="44.6244212" lon="10.2053071"><ele>620.5</ele><time>2026-04-12T13:46:10.946Z</time></trkpt><trkpt lat="44.6244285" lon="10.2054214"><ele>621.3333333333333</ele><time>2026-04-12T13:46:11.946Z</time></trkpt><trkpt lat="44.6244378" lon="10.2055328"><ele>622.1666666666666</ele><time>2026-04-12T13:46:12.946Z</time></trkpt><trkpt lat="44.6244419" lon="10.2056363"><ele>623.0</ele><time>2026-04-12T13:46:13.946Z</time></trkpt><trkpt lat="44.6244396" lon="10.2057358"><ele>623.0</ele><time>2026-04-12T13:46:14.946Z</time></trkpt><trkpt lat="44.6244383" lon="10.2058252"><ele>623.0</ele><time>2026-04-12T13:46:15.947Z</time></trkpt><trkpt lat="44.6244359" lon="10.2057025"><ele>623.0</ele><time>2026-04-12T13:46:36.947Z</time></trkpt><trkpt lat="44.6244349" lon="10.2055527"><ele>623.0</ele><time>2026-04-12T13:46:38.947Z</time></trkpt><trkpt lat="44.6244267" lon="10.2054501"><ele>623.0</ele><time>2026-04-12T13:46:39.947Z</time></trkpt><trkpt lat="44.6244122" lon="10.2052788"><ele>623.0</ele><time>2026-04-12T13:46:41.947Z</time></trkpt><trkpt lat="44.6243869" lon="10.2051116"><ele>623.0</ele><time>2026-04-12T13:46:43.947Z</time></trkpt><trkpt lat="44.6243449" lon="10.2049565"><ele>623.0</ele><time>2026-04-12T13:46:45.946Z</time></trkpt><trkpt lat="44.6243109" lon="10.2047814"><ele>623.0</ele><time>2026-04-12T13:46:47.945Z</time></trkpt><trkpt lat="44.6243111" lon="10.2046833"><ele>623.0</ele><time>2026-04-12T13:46:48.945Z</time></trkpt><trkpt lat="44.6243143" lon="10.2045785"><ele>622.1666666666666</ele><time>2026-04-12T13:46:49.946Z</time></trkpt><trkpt lat="44.6243153" lon="10.2044661"><ele>621.3333333333333</ele><time>2026-04-12T13:46:50.947Z</time></trkpt><trkpt lat="44.624323" lon="10.2043568"><ele>620.5</ele><time>2026-04-12T13:46:51.947Z</time></trkpt><trkpt lat="44.6243241" lon="10.2042569"><ele>619.6666666666666</ele><time>2026-04-12T13:46:52.946Z</time></trkpt><trkpt lat="44.6243254" lon="10.2041543"><ele>618.8333333333334</ele><time>2026-04-12T13:46:53.946Z</time></trkpt><trkpt lat="44.6243295" lon="10.2040409"><ele>618.0</ele><time>2026-04-12T13:46:54.946Z</time></trkpt><trkpt lat="44.6243364" lon="10.2039297"><ele>616.6</ele><time>2026-04-12T13:46:55.946Z</time></trkpt><trkpt lat="44.624333" lon="10.2038237"><ele>615.1999999999999</ele><time>2026-04-12T13:46:56.947Z</time></trkpt><trkpt lat="44.6243374" lon="10.203657"><ele>613.8</ele><time>2026-04-12T13:46:58.947Z</time></trkpt><trkpt lat="44.62434" lon="10.2035511"><ele>612.4</ele><time>2026-04-12T13:47:00.944Z</time></trkpt><trkpt lat="44.6243189" lon="10.2034482"><ele>611.0</ele><time>2026-04-12T13:47:02.945Z</time></trkpt><trkpt lat="44.624293" lon="10.2032813"><ele>611.0</ele><time>2026-04-12T13:47:04.945Z</time></trkpt><trkpt lat="44.6242918" lon="10.2031772"><ele>611.0</ele><time>2026-04-12T13:47:05.946Z</time></trkpt><trkpt lat="44.624305" lon="10.2030618"><ele>611.0</ele><time>2026-04-12T13:47:06.944Z</time></trkpt><trkpt lat="44.6243252" lon="10.2029399"><ele>611.0</ele><time>2026-04-12T13:47:07.945Z</time></trkpt><trkpt lat="44.6243515" lon="10.2028143"><ele>611.0</ele><time>2026-04-12T13:47:08.945Z</time></trkpt><trkpt lat="44.6243738" lon="10.2027006"><ele>611.0</ele><time>2026-04-12T13:47:09.946Z</time></trkpt><trkpt lat="44.6243932" lon="10.202596"><ele>610.6666666666666</ele><time>2026-04-12T13:47:10.946Z</time></trkpt><trkpt lat="44.6244043" lon="10.2025014"><ele>610.3333333333333</ele><time>2026-04-12T13:47:11.945Z</time></trkpt><trkpt lat="44.6243959" lon="10.2023615"><ele>610.0</ele><time>2026-04-12T13:47:13.946Z</time></trkpt><trkpt lat="44.6243199" lon="10.2023525"><ele>609.6666666666666</ele><time>2026-04-12T13:47:16.945Z</time></trkpt><trkpt lat="44.6242329" lon="10.2023729"><ele>609.3333333333334</ele><time>2026-04-12T13:47:18.945Z</time></trkpt><trkpt lat="44.6241311" lon="10.2024159"><ele>609.0</ele><time>2026-04-12T13:47:20.946Z</time></trkpt><trkpt lat="44.6240295" lon="10.2024696"><ele>609.0</ele><time>2026-04-12T13:47:22.946Z</time></trkpt><trkpt lat="44.6239368" lon="10.2025241"><ele>609.0</ele><time>2026-04-12T13:47:24.945Z</time></trkpt><trkpt lat="44.623832" lon="10.2025735"><ele>609.0</ele><time>2026-04-12T13:47:26.946Z</time></trkpt><trkpt lat="44.6237199" lon="10.2026366"><ele>609.0</ele><time>2026-04-12T13:47:28.945Z</time></trkpt><trkpt lat="44.6236206" lon="10.2026837"><ele>609.0</ele><time>2026-04-12T13:47:30.946Z</time></trkpt><trkpt lat="44.6235228" lon="10.2027288"><ele>607.3333333333334</ele><time>2026-04-12T13:47:32.945Z</time></trkpt><trkpt lat="44.6234294" lon="10.2027651"><ele>605.6666666666666</ele><time>2026-04-12T13:47:34.944Z</time></trkpt><trkpt lat="44.6233342" lon="10.2028189"><ele>604.0</ele><time>2026-04-12T13:47:36.945Z</time></trkpt><trkpt lat="44.6232769" lon="10.2028573"><ele>602.3333333333333</ele><time>2026-04-12T13:47:37.945Z</time></trkpt><trkpt lat="44.6232164" lon="10.2029037"><ele>600.6666666666666</ele><time>2026-04-12T13:47:38.946Z</time></trkpt><trkpt lat="44.6231546" lon="10.2029517"><ele>599.0</ele><time>2026-04-12T13:47:39.946Z</time></trkpt><trkpt lat="44.62309" lon="10.2029993"><ele>599.0</ele><time>2026-04-12T13:47:40.945Z</time></trkpt><trkpt lat="44.6230318" lon="10.203043"><ele>599.0</ele><time>2026-04-12T13:47:41.946Z</time></trkpt><trkpt lat="44.6229805" lon="10.2030967"><ele>599.0</ele><time>2026-04-12T13:47:42.946Z</time></trkpt><trkpt lat="44.6228925" lon="10.2032253"><ele>599.0</ele><time>2026-04-12T13:47:44.945Z</time></trkpt><trkpt lat="44.6228464" lon="10.2032872"><ele>599.0</ele><time>2026-04-12T13:47:45.945Z</time></trkpt><trkpt lat="44.622795" lon="10.2033581"><ele>599.0</ele><time>2026-04-12T13:47:46.946Z</time></trkpt><trkpt lat="44.6227351" lon="10.203437"><ele>595.6666666666666</ele><time>2026-04-12T13:47:47.946Z</time></trkpt><trkpt lat="44.6226708" lon="10.2035231"><ele>592.3333333333333</ele><time>2026-04-12T13:47:48.945Z</time></trkpt><trkpt lat="44.62261" lon="10.2036122"><ele>589.0</ele><time>2026-04-12T13:47:49.946Z</time></trkpt><trkpt lat="44.622555" lon="10.2036997"><ele>585.6666666666666</ele><time>2026-04-12T13:47:50.946Z</time></trkpt><trkpt lat="44.6225036" lon="10.2037885"><ele>582.3333333333334</ele><time>2026-04-12T13:47:51.946Z</time></trkpt><trkpt lat="44.6224523" lon="10.2038782"><ele>579.0</ele><time>2026-04-12T13:47:52.946Z</time></trkpt><trkpt lat="44.6223934" lon="10.2039719"><ele>579.8333333333334</ele><time>2026-04-12T13:47:53.945Z</time></trkpt><trkpt lat="44.6223293" lon="10.2040528"><ele>580.6666666666666</ele><time>2026-04-12T13:47:54.945Z</time></trkpt><trkpt lat="44.6222616" lon="10.204129"><ele>581.5</ele><time>2026-04-12T13:47:55.945Z</time></trkpt><trkpt lat="44.6221911" lon="10.2042048"><ele>582.3333333333333</ele><time>2026-04-12T13:47:56.945Z</time></trkpt><trkpt lat="44.6221181" lon="10.2042808"><ele>583.1666666666666</ele><time>2026-04-12T13:47:57.946Z</time></trkpt><trkpt lat="44.6220547" lon="10.2043524"><ele>584.0</ele><time>2026-04-12T13:47:58.946Z</time></trkpt><trkpt lat="44.6219988" lon="10.2044176"><ele>580.8</ele><time>2026-04-12T13:47:59.945Z</time></trkpt><trkpt lat="44.6219082" lon="10.2044894"><ele>577.5999999999999</ele><time>2026-04-12T13:48:01.945Z</time></trkpt><trkpt lat="44.6218157" lon="10.2045095"><ele>574.4</ele><time>2026-04-12T13:48:03.945Z</time></trkpt><trkpt lat="44.6216895" lon="10.2044746"><ele>571.1999999999999</ele><time>2026-04-12T13:48:05.946Z</time></trkpt><trkpt lat="44.6216182" lon="10.2044556"><ele>568.0</ele><time>2026-04-12T13:48:06.945Z</time></trkpt><trkpt lat="44.6215439" lon="10.2044481"><ele>568.0</ele><time>2026-04-12T13:48:07.946Z</time></trkpt><trkpt lat="44.6214779" lon="10.204442"><ele>568.0</ele><time>2026-04-12T13:48:08.944Z</time></trkpt><trkpt lat="44.6213683" lon="10.2044215"><ele>568.0</ele><time>2026-04-12T13:48:10.946Z</time></trkpt><trkpt lat="44.6212622" lon="10.2044367"><ele>568.0</ele><time>2026-04-12T13:48:12.945Z</time></trkpt><trkpt lat="44.6211546" lon="10.2044868"><ele>568.0</ele><time>2026-04-12T13:48:14.944Z</time></trkpt><trkpt lat="44.6210405" lon="10.2045844"><ele>567.4</ele><time>2026-04-12T13:48:16.944Z</time></trkpt><trkpt lat="44.6209763" lon="10.2046185"><ele>566.8</ele><time>2026-04-12T13:48:17.944Z</time></trkpt><trkpt lat="44.6208925" lon="10.2046713"><ele>566.2</ele><time>2026-04-12T13:48:19.945Z</time></trkpt><trkpt lat="44.6208051" lon="10.2047267"><ele>565.6</ele><time>2026-04-12T13:48:21.945Z</time></trkpt><trkpt lat="44.6206996" lon="10.204708"><ele>565.0</ele><time>2026-04-12T13:48:23.945Z</time></trkpt><trkpt lat="44.6205985" lon="10.2046328"><ele>565.0</ele><time>2026-04-12T13:48:25.946Z</time></trkpt><trkpt lat="44.6205495" lon="10.204557"><ele>565.0</ele><time>2026-04-12T13:48:26.945Z</time></trkpt><trkpt lat="44.6205057" lon="10.2044769"><ele>565.0</ele><time>2026-04-12T13:48:27.946Z</time></trkpt><trkpt lat="44.6204692" lon="10.2043729"><ele>565.0</ele><time>2026-04-12T13:48:28.946Z</time></trkpt><trkpt lat="44.620439" lon="10.2042603"><ele>565.0</ele><time>2026-04-12T13:48:29.946Z</time></trkpt><trkpt lat="44.6204165" lon="10.204113"><ele>565.0</ele><time>2026-04-12T13:48:30.945Z</time></trkpt><trkpt lat="44.6203874" lon="10.2039873"><ele>566.0</ele><time>2026-04-12T13:48:31.945Z</time></trkpt><trkpt lat="44.6203568" lon="10.203874"><ele>567.0</ele><time>2026-04-12T13:48:32.946Z</time></trkpt><trkpt lat="44.6203275" lon="10.2037586"><ele>568.0</ele><time>2026-04-12T13:48:33.945Z</time></trkpt><trkpt lat="44.6202903" lon="10.2036492"><ele>569.0</ele><time>2026-04-12T13:48:34.946Z</time></trkpt><trkpt lat="44.6202493" lon="10.203549"><ele>570.0</ele><time>2026-04-12T13:48:35.945Z</time></trkpt><trkpt lat="44.6202161" lon="10.2034318"><ele>571.0</ele><time>2026-04-12T13:48:36.945Z</time></trkpt><trkpt lat="44.6201826" lon="10.2032938"><ele>571.0</ele><time>2026-04-12T13:48:37.945Z</time></trkpt><trkpt lat="44.6201736" lon="10.2031662"><ele>571.0</ele><time>2026-04-12T13:48:38.946Z</time></trkpt><trkpt lat="44.620163" lon="10.2030363"><ele>571.0</ele><time>2026-04-12T13:48:39.946Z</time></trkpt><trkpt lat="44.6201585" lon="10.2029028"><ele>571.0</ele><time>2026-04-12T13:48:40.945Z</time></trkpt><trkpt lat="44.6201562" lon="10.2027881"><ele>571.0</ele><time>2026-04-12T13:48:41.945Z</time></trkpt><trkpt lat="44.6201445" lon="10.202662"><ele>570.0</ele><time>2026-04-12T13:48:42.946Z</time></trkpt><trkpt lat="44.6201226" lon="10.202554"><ele>569.0</ele><time>2026-04-12T13:48:43.946Z</time></trkpt><trkpt lat="44.6200968" lon="10.2024594"><ele>568.0</ele><time>2026-04-12T13:48:44.945Z</time></trkpt><trkpt lat="44.620061" lon="10.2023837"><ele>567.0</ele><time>2026-04-12T13:48:45.945Z</time></trkpt><trkpt lat="44.6199464" lon="10.2022919"><ele>566.0</ele><time>2026-04-12T13:48:47.945Z</time></trkpt><trkpt lat="44.6198754" lon="10.2022556"><ele>565.0</ele><time>2026-04-12T13:48:48.946Z</time></trkpt><trkpt lat="44.6197645" lon="10.2021915"><ele>564.4</ele><time>2026-04-12T13:48:50.946Z</time></trkpt><trkpt lat="44.6196587" lon="10.2021307"><ele>563.8</ele><time>2026-04-12T13:48:52.946Z</time></trkpt><trkpt lat="44.6195354" lon="10.2020411"><ele>563.2</ele><time>2026-04-12T13:48:54.945Z</time></trkpt><trkpt lat="44.6194545" lon="10.2019862"><ele>562.6</ele><time>2026-04-12T13:48:55.946Z</time></trkpt><trkpt lat="44.6193785" lon="10.2019389"><ele>562.0</ele><time>2026-04-12T13:48:56.946Z</time></trkpt><trkpt lat="44.6192969" lon="10.2019044"><ele>561.8333333333334</ele><time>2026-04-12T13:48:57.946Z</time></trkpt><trkpt lat="44.6192102" lon="10.2018524"><ele>561.6666666666667</ele><time>2026-04-12T13:48:58.946Z</time></trkpt><trkpt lat="44.6191362" lon="10.2018012"><ele>561.5</ele><time>2026-04-12T13:48:59.945Z</time></trkpt><trkpt lat="44.6190701" lon="10.2017524"><ele>561.3333333333334</ele><time>2026-04-12T13:49:00.946Z</time></trkpt><trkpt lat="44.6190033" lon="10.201693"><ele>561.1666666666666</ele><time>2026-04-12T13:49:01.946Z</time></trkpt><trkpt lat="44.6189468" lon="10.2016138"><ele>561.0</ele><time>2026-04-12T13:49:02.946Z</time></trkpt><trkpt lat="44.6188896" lon="10.2015289"><ele>560.6666666666666</ele><time>2026-04-12T13:49:03.944Z</time></trkpt><trkpt lat="44.6188323" lon="10.2014494"><ele>560.3333333333334</ele><time>2026-04-12T13:49:04.945Z</time></trkpt><trkpt lat="44.6187783" lon="10.2013718"><ele>560.0</ele><time>2026-04-12T13:49:05.946Z</time></trkpt><trkpt lat="44.618728" lon="10.201303"><ele>559.6666666666667</ele><time>2026-04-12T13:49:06.945Z</time></trkpt><trkpt lat="44.6186794" lon="10.2012456"><ele>559.3333333333334</ele><time>2026-04-12T13:49:07.945Z</time></trkpt><trkpt lat="44.6185762" lon="10.2011762"><ele>559.0</ele><time>2026-04-12T13:49:09.944Z</time></trkpt><trkpt lat="44.6184579" lon="10.2011641"><ele>559.0</ele><time>2026-04-12T13:49:11.945Z</time></trkpt><trkpt lat="44.6183497" lon="10.2011802"><ele>559.0</ele><time>2026-04-12T13:49:13.946Z</time></trkpt><trkpt lat="44.6182592" lon="10.201205"><ele>559.0</ele><time>2026-04-12T13:49:15.945Z</time></trkpt><trkpt lat="44.6181692" lon="10.2011899"><ele>559.0</ele><time>2026-04-12T13:49:17.945Z</time></trkpt><trkpt lat="44.6181072" lon="10.2012195"><ele>559.0</ele><time>2026-04-12T13:49:40.945Z</time></trkpt><trkpt lat="44.6181527" lon="10.2013054"><ele>559.0</ele><time>2026-04-12T13:49:42.946Z</time></trkpt><trkpt lat="44.618186" lon="10.2014068"><ele>561.75</ele><time>2026-04-12T13:49:44.946Z</time></trkpt><trkpt lat="44.6182162" lon="10.2015469"><ele>564.5</ele><time>2026-04-12T13:49:46.945Z</time></trkpt><trkpt lat="44.6182403" lon="10.2016921"><ele>567.25</ele><time>2026-04-12T13:49:48.946Z</time></trkpt><trkpt lat="44.6182568" lon="10.2018636"><ele>570.0</ele><time>2026-04-12T13:49:50.946Z</time></trkpt><trkpt lat="44.6182685" lon="10.2020402"><ele>570.0</ele><time>2026-04-12T13:49:52.945Z</time></trkpt><trkpt lat="44.6182586" lon="10.2021277"><ele>570.0</ele><time>2026-04-12T13:49:53.944Z</time></trkpt><trkpt lat="44.6182367" lon="10.2022228"><ele>570.0</ele><time>2026-04-12T13:49:54.946Z</time></trkpt><trkpt lat="44.6182078" lon="10.2023196"><ele>570.0</ele><time>2026-04-12T13:49:55.945Z</time></trkpt><trkpt lat="44.6181807" lon="10.2024273"><ele>570.0</ele><time>2026-04-12T13:49:56.944Z</time></trkpt><trkpt lat="44.6181645" lon="10.2025451"><ele>570.0</ele><time>2026-04-12T13:49:57.945Z</time></trkpt><trkpt lat="44.618153" lon="10.2026618"><ele>572.0</ele><time>2026-04-12T13:49:58.946Z</time></trkpt><trkpt lat="44.6181397" lon="10.202776"><ele>574.0</ele><time>2026-04-12T13:49:59.946Z</time></trkpt><trkpt lat="44.6181214" lon="10.2028884"><ele>576.0</ele><time>2026-04-12T13:50:00.946Z</time></trkpt><trkpt lat="44.6181042" lon="10.2030057"><ele>578.0</ele><time>2026-04-12T13:50:01.945Z</time></trkpt><trkpt lat="44.6180931" lon="10.203123"><ele>580.0</ele><time>2026-04-12T13:50:02.945Z</time></trkpt><trkpt lat="44.6180884" lon="10.2032404"><ele>582.0</ele><time>2026-04-12T13:50:03.945Z</time></trkpt><trkpt lat="44.6180902" lon="10.2033542"><ele>584.3333333333334</ele><time>2026-04-12T13:50:04.945Z</time></trkpt><trkpt lat="44.6180949" lon="10.2034735"><ele>586.6666666666666</ele><time>2026-04-12T13:50:05.946Z</time></trkpt><trkpt lat="44.6181009" lon="10.2035817"><ele>589.0</ele><time>2026-04-12T13:50:06.946Z</time></trkpt><trkpt lat="44.6181084" lon="10.2036867"><ele>591.3333333333333</ele><time>2026-04-12T13:50:07.946Z</time></trkpt><trkpt lat="44.6181077" lon="10.2037905"><ele>593.6666666666666</ele><time>2026-04-12T13:50:08.946Z</time></trkpt><trkpt lat="44.6181041" lon="10.2039006"><ele>596.0</ele><time>2026-04-12T13:50:09.945Z</time></trkpt><trkpt lat="44.6181029" lon="10.2040221"><ele>598.5</ele><time>2026-04-12T13:50:10.945Z</time></trkpt><trkpt lat="44.6181016" lon="10.2041395"><ele>601.0</ele><time>2026-04-12T13:50:11.945Z</time></trkpt><trkpt lat="44.6180928" lon="10.2042611"><ele>603.5</ele><time>2026-04-12T13:50:12.946Z</time></trkpt><trkpt lat="44.6180784" lon="10.2043751"><ele>606.0</ele><time>2026-04-12T13:50:13.945Z</time></trkpt><trkpt lat="44.6180641" lon="10.2044824"><ele>608.5</ele><time>2026-04-12T13:50:14.945Z</time></trkpt><trkpt lat="44.6180626" lon="10.2045912"><ele>611.0</ele><time>2026-04-12T13:50:15.944Z</time></trkpt><trkpt lat="44.6180851" lon="10.2047142"><ele>613.0</ele><time>2026-04-12T13:50:16.945Z</time></trkpt><trkpt lat="44.6181035" lon="10.204834"><ele>615.0</ele><time>2026-04-12T13:50:17.946Z</time></trkpt><trkpt lat="44.6181254" lon="10.204959"><ele>617.0</ele><time>2026-04-12T13:50:18.946Z</time></trkpt><trkpt lat="44.6181439" lon="10.2050934"><ele>619.0</ele><time>2026-04-12T13:50:19.945Z</time></trkpt><trkpt lat="44.6181605" lon="10.2052217"><ele>621.0</ele><time>2026-04-12T13:50:20.945Z</time></trkpt><trkpt lat="44.6181802" lon="10.2053189"><ele>623.0</ele><time>2026-04-12T13:50:21.946Z</time></trkpt><trkpt lat="44.6182176" lon="10.2054218"><ele>623.0</ele><time>2026-04-12T13:50:22.946Z</time></trkpt><trkpt lat="44.6182771" lon="10.2055239"><ele>623.0</ele><time>2026-04-12T13:50:23.946Z</time></trkpt><trkpt lat="44.6183361" lon="10.2056158"><ele>623.0</ele><time>2026-04-12T13:50:24.946Z</time></trkpt><trkpt lat="44.6184008" lon="10.2057601"><ele>623.0</ele><time>2026-04-12T13:50:26.945Z</time></trkpt><trkpt lat="44.6183936" lon="10.2059269"><ele>623.0</ele><time>2026-04-12T13:50:28.946Z</time></trkpt><trkpt lat="44.6183704" lon="10.2060346"><ele>624.4</ele><time>2026-04-12T13:50:29.944Z</time></trkpt><trkpt lat="44.6183394" lon="10.2061585"><ele>625.8</ele><time>2026-04-12T13:50:30.945Z</time></trkpt><trkpt lat="44.6183127" lon="10.2062927"><ele>627.2</ele><time>2026-04-12T13:50:31.946Z</time></trkpt><trkpt lat="44.6182979" lon="10.2064318"><ele>628.6</ele><time>2026-04-12T13:50:32.945Z</time></trkpt><trkpt lat="44.6183007" lon="10.2065706"><ele>630.0</ele><time>2026-04-12T13:50:33.945Z</time></trkpt><trkpt lat="44.6183148" lon="10.206696"><ele>630.6666666666666</ele><time>2026-04-12T13:50:34.946Z</time></trkpt><trkpt lat="44.6183284" lon="10.2068084"><ele>631.3333333333334</ele><time>2026-04-12T13:50:35.945Z</time></trkpt><trkpt lat="44.6183426" lon="10.2069207"><ele>632.0</ele><time>2026-04-12T13:50:36.946Z</time></trkpt><trkpt lat="44.6183445" lon="10.2070794"><ele>632.6666666666667</ele><time>2026-04-12T13:50:38.945Z</time></trkpt><trkpt lat="44.6183456" lon="10.2071689"><ele>633.3333333333334</ele><time>2026-04-12T13:50:39.946Z</time></trkpt><trkpt lat="44.6183402" lon="10.2072571"><ele>634.0</ele><time>2026-04-12T13:50:40.946Z</time></trkpt><trkpt lat="44.61832" lon="10.207344"><ele>634.8</ele><time>2026-04-12T13:50:41.946Z</time></trkpt><trkpt lat="44.6183078" lon="10.2075004"><ele>635.5999999999999</ele><time>2026-04-12T13:50:43.944Z</time></trkpt><trkpt lat="44.6183387" lon="10.2076741"><ele>636.4</ele><time>2026-04-12T13:50:45.946Z</time></trkpt><trkpt lat="44.6183772" lon="10.207843"><ele>637.1999999999999</ele><time>2026-04-12T13:50:47.945Z</time></trkpt><trkpt lat="44.618394" lon="10.2079402"><ele>638.0</ele><time>2026-04-12T13:50:48.945Z</time></trkpt><trkpt lat="44.6184022" lon="10.2080574"><ele>639.1666666666666</ele><time>2026-04-12T13:50:49.945Z</time></trkpt><trkpt lat="44.6184104" lon="10.2081625"><ele>640.3333333333333</ele><time>2026-04-12T13:50:50.946Z</time></trkpt><trkpt lat="44.6184339" lon="10.2083523"><ele>641.5</ele><time>2026-04-12T13:50:52.946Z</time></trkpt><trkpt lat="44.6184546" lon="10.208449"><ele>642.6666666666666</ele><time>2026-04-12T13:50:53.946Z</time></trkpt><trkpt lat="44.6185011" lon="10.2085416"><ele>643.8333333333334</ele><time>2026-04-12T13:50:54.946Z</time></trkpt><trkpt lat="44.6185331" lon="10.2086413"><ele>645.0</ele><time>2026-04-12T13:50:55.946Z</time></trkpt><trkpt lat="44.6185619" lon="10.2087378"><ele>645.0</ele><time>2026-04-12T13:50:56.946Z</time></trkpt><trkpt lat="44.6185759" lon="10.2088242"><ele>645.0</ele><time>2026-04-12T13:50:57.946Z</time></trkpt><trkpt lat="44.6185723" lon="10.2089281"><ele>645.0</ele><time>2026-04-12T13:50:58.945Z</time></trkpt><trkpt lat="44.618567" lon="10.2090856"><ele>645.0</ele><time>2026-04-12T13:51:00.945Z</time></trkpt><trkpt lat="44.6185957" lon="10.2092554"><ele>645.0</ele><time>2026-04-12T13:51:02.946Z</time></trkpt><trkpt lat="44.618639" lon="10.2093559"><ele>645.8333333333334</ele><time>2026-04-12T13:51:03.946Z</time></trkpt><trkpt lat="44.6186726" lon="10.2094593"><ele>646.6666666666666</ele><time>2026-04-12T13:51:04.945Z</time></trkpt><trkpt lat="44.6187042" lon="10.2095828"><ele>647.5</ele><time>2026-04-12T13:51:05.945Z</time></trkpt><trkpt lat="44.6187059" lon="10.2096769"><ele>648.3333333333333</ele><time>2026-04-12T13:51:06.945Z</time></trkpt><trkpt lat="44.6187255" lon="10.2097978"><ele>649.1666666666666</ele><time>2026-04-12T13:51:07.944Z</time></trkpt><trkpt lat="44.6187398" lon="10.2099352"><ele>650.0</ele><time>2026-04-12T13:51:08.945Z</time></trkpt><trkpt lat="44.6187522" lon="10.2100765"><ele>650.0</ele><time>2026-04-12T13:51:09.945Z</time></trkpt><trkpt lat="44.6187753" lon="10.2102248"><ele>650.0</ele><time>2026-04-12T13:51:10.944Z</time></trkpt><trkpt lat="44.6187959" lon="10.2103456"><ele>650.0</ele><time>2026-04-12T13:51:11.945Z</time></trkpt><trkpt lat="44.6188254" lon="10.2104826"><ele>650.0</ele><time>2026-04-12T13:51:12.946Z</time></trkpt><trkpt lat="44.618861" lon="10.2106333"><ele>650.0</ele><time>2026-04-12T13:51:13.946Z</time></trkpt><trkpt lat="44.6188794" lon="10.2107702"><ele>652.2</ele><time>2026-04-12T13:51:14.945Z</time></trkpt><trkpt lat="44.618888" lon="10.2109181"><ele>654.4</ele><time>2026-04-12T13:51:15.946Z</time></trkpt><trkpt lat="44.6188993" lon="10.2110584"><ele>656.5999999999999</ele><time>2026-04-12T13:51:16.945Z</time></trkpt><trkpt lat="44.6189162" lon="10.2111993"><ele>658.8</ele><time>2026-04-12T13:51:17.946Z</time></trkpt><trkpt lat="44.618937" lon="10.2113156"><ele>661.0</ele><time>2026-04-12T13:51:18.945Z</time></trkpt><trkpt lat="44.6189679" lon="10.2114624"><ele>663.8</ele><time>2026-04-12T13:51:19.945Z</time></trkpt><trkpt lat="44.618997" lon="10.2116012"><ele>666.5999999999999</ele><time>2026-04-12T13:51:20.946Z</time></trkpt><trkpt lat="44.6190301" lon="10.2117477"><ele>669.4</ele><time>2026-04-12T13:51:21.946Z</time></trkpt><trkpt lat="44.619064" lon="10.2118775"><ele>672.2</ele><time>2026-04-12T13:51:22.945Z</time></trkpt><trkpt lat="44.6190968" lon="10.2120051"><ele>675.0</ele><time>2026-04-12T13:51:23.946Z</time></trkpt><trkpt lat="44.6191347" lon="10.2121483"><ele>675.0</ele><time>2026-04-12T13:51:24.945Z</time></trkpt><trkpt lat="44.6191795" lon="10.2122893"><ele>675.0</ele><time>2026-04-12T13:51:25.945Z</time></trkpt><trkpt lat="44.6192181" lon="10.2124191"><ele>675.0</ele><time>2026-04-12T13:51:26.945Z</time></trkpt><trkpt lat="44.6192398" lon="10.2125349"><ele>675.0</ele><time>2026-04-12T13:51:27.945Z</time></trkpt><trkpt lat="44.619245" lon="10.2126565"><ele>675.0</ele><time>2026-04-12T13:51:28.946Z</time></trkpt><trkpt lat="44.6192454" lon="10.2127879"><ele>677.0</ele><time>2026-04-12T13:51:29.945Z</time></trkpt><trkpt lat="44.6192422" lon="10.2129353"><ele>679.0</ele><time>2026-04-12T13:51:30.946Z</time></trkpt><trkpt lat="44.6192378" lon="10.2130826"><ele>681.0</ele><time>2026-04-12T13:51:31.946Z</time></trkpt><trkpt lat="44.619241" lon="10.2132244"><ele>683.0</ele><time>2026-04-12T13:51:32.945Z</time></trkpt><trkpt lat="44.6192519" lon="10.2133617"><ele>685.0</ele><time>2026-04-12T13:51:33.946Z</time></trkpt><trkpt lat="44.6192602" lon="10.2134804"><ele>686.2857142857142</ele><time>2026-04-12T13:51:34.946Z</time></trkpt><trkpt lat="44.6192637" lon="10.2135693"><ele>687.5714285714287</ele><time>2026-04-12T13:51:35.945Z</time></trkpt><trkpt lat="44.6192449" lon="10.2136811"><ele>688.8571428571429</ele><time>2026-04-12T13:51:37.944Z</time></trkpt><trkpt lat="44.6191877" lon="10.2137406"><ele>690.1428571428571</ele><time>2026-04-12T13:51:40.945Z</time></trkpt><trkpt lat="44.6191029" lon="10.2137693"><ele>691.4285714285713</ele><time>2026-04-12T13:51:42.945Z</time></trkpt><trkpt lat="44.619038" lon="10.2137799"><ele>692.7142857142858</ele><time>2026-04-12T13:51:43.945Z</time></trkpt><trkpt lat="44.618966" lon="10.213796"><ele>694.0</ele><time>2026-04-12T13:51:44.946Z</time></trkpt><trkpt lat="44.6188975" lon="10.2138205"><ele>694.0</ele><time>2026-04-12T13:51:45.944Z</time></trkpt><trkpt lat="44.6188317" lon="10.2138481"><ele>694.0</ele><time>2026-04-12T13:51:46.945Z</time></trkpt><trkpt lat="44.6187403" lon="10.2138397"><ele>694.0</ele><time>2026-04-12T13:51:48.945Z</time></trkpt><trkpt lat="44.618682" lon="10.2137523"><ele>694.0</ele><time>2026-04-12T13:51:50.945Z</time></trkpt><trkpt lat="44.6186389" lon="10.2136083"><ele>694.0</ele><time>2026-04-12T13:51:52.946Z</time></trkpt><trkpt lat="44.6186067" lon="10.2134613"><ele>694.2</ele><time>2026-04-12T13:51:54.944Z</time></trkpt><trkpt lat="44.6185728" lon="10.2132902"><ele>694.4000000000001</ele><time>2026-04-12T13:51:56.945Z</time></trkpt><trkpt lat="44.6185591" lon="10.2131996"><ele>694.6</ele><time>2026-04-12T13:51:57.945Z</time></trkpt><trkpt lat="44.6185449" lon="10.2131118"><ele>694.8</ele><time>2026-04-12T13:51:58.945Z</time></trkpt><trkpt lat="44.6185158" lon="10.21295"><ele>695.0</ele><time>2026-04-12T13:52:00.945Z</time></trkpt><trkpt lat="44.6184913" lon="10.2127794"><ele>693.5</ele><time>2026-04-12T13:52:02.944Z</time></trkpt><trkpt lat="44.6184921" lon="10.2126853"><ele>692.0</ele><time>2026-04-12T13:52:03.944Z</time></trkpt><trkpt lat="44.6184868" lon="10.2125224"><ele>690.5</ele><time>2026-04-12T13:52:05.946Z</time></trkpt><trkpt lat="44.6184745" lon="10.2124002"><ele>689.0</ele><time>2026-04-12T13:52:07.945Z</time></trkpt><trkpt lat="44.6184126" lon="10.2123691"><ele>687.5</ele><time>2026-04-12T13:52:08.945Z</time></trkpt><trkpt lat="44.6183378" lon="10.2123066"><ele>686.0</ele><time>2026-04-12T13:52:10.945Z</time></trkpt><trkpt lat="44.6182744" lon="10.2122623"><ele>684.1666666666666</ele><time>2026-04-12T13:52:12.946Z</time></trkpt><trkpt lat="44.6182133" lon="10.21221"><ele>682.3333333333333</ele><time>2026-04-12T13:52:14.945Z</time></trkpt><trkpt lat="44.6181283" lon="10.2121314"><ele>680.5</ele><time>2026-04-12T13:52:16.945Z</time></trkpt><trkpt lat="44.6180621" lon="10.2120631"><ele>678.6666666666666</ele><time>2026-04-12T13:52:18.945Z</time></trkpt><trkpt lat="44.6180043" lon="10.2120162"><ele>676.8333333333334</ele><time>2026-04-12T13:52:20.946Z</time></trkpt><trkpt lat="44.6179358" lon="10.2119965"><ele>675.0</ele><time>2026-04-12T13:52:22.944Z</time></trkpt><trkpt lat="44.6178797" lon="10.2119458"><ele>675.0</ele><time>2026-04-12T13:54:32.945Z</time></trkpt><trkpt lat="44.6178253" lon="10.2118817"><ele>675.0</ele><time>2026-04-12T13:54:39.946Z</time></trkpt><trkpt lat="44.617869" lon="10.2119515"><ele>675.0</ele><time>2026-04-12T13:55:10.955Z</time></trkpt><trkpt lat="44.6179285" lon="10.2119924"><ele>675.0</ele><time>2026-04-12T13:56:58.959Z</time></trkpt><trkpt lat="44.6181161" lon="10.2121234"><ele>675.0</ele><time>2026-04-12T13:57:02.945Z</time></trkpt><trkpt lat="44.6182094" lon="10.2122122"><ele>675.0</ele><time>2026-04-12T13:57:04.946Z</time></trkpt><trkpt lat="44.6183142" lon="10.2122912"><ele>675.0</ele><time>2026-04-12T13:57:06.945Z</time></trkpt><trkpt lat="44.6184243" lon="10.2123753"><ele>675.0</ele><time>2026-04-12T13:57:08.946Z</time></trkpt><trkpt lat="44.6184906" lon="10.2124875"><ele>675.0</ele><time>2026-04-12T13:57:10.945Z</time></trkpt><trkpt lat="44.6185082" lon="10.2125989"><ele>675.0</ele><time>2026-04-12T13:57:12.946Z</time></trkpt><trkpt lat="44.6185239" lon="10.2127503"><ele>676.8333333333334</ele><time>2026-04-12T13:57:25.945Z</time></trkpt><trkpt lat="44.6185323" lon="10.2128411"><ele>678.6666666666666</ele><time>2026-04-12T13:57:26.946Z</time></trkpt><trkpt lat="44.6185446" lon="10.2129282"><ele>680.5</ele><time>2026-04-12T13:57:27.946Z</time></trkpt><trkpt lat="44.6185698" lon="10.2130968"><ele>682.3333333333333</ele><time>2026-04-12T13:57:29.945Z</time></trkpt><trkpt lat="44.6185859" lon="10.2131983"><ele>684.1666666666666</ele><time>2026-04-12T13:57:30.946Z</time></trkpt><trkpt lat="44.618602" lon="10.2132985"><ele>686.0</ele><time>2026-04-12T13:57:31.945Z</time></trkpt><trkpt lat="44.6186167" lon="10.2134057"><ele>687.3333333333333</ele><time>2026-04-12T13:57:32.945Z</time></trkpt><trkpt lat="44.6186353" lon="10.2135064"><ele>688.6666666666666</ele><time>2026-04-12T13:57:33.945Z</time></trkpt><trkpt lat="44.6186557" lon="10.213612"><ele>690.0</ele><time>2026-04-12T13:57:34.946Z</time></trkpt><trkpt lat="44.6186782" lon="10.2137038"><ele>691.3333333333334</ele><time>2026-04-12T13:57:35.946Z</time></trkpt><trkpt lat="44.6187164" lon="10.2138297"><ele>692.6666666666667</ele><time>2026-04-12T13:57:37.945Z</time></trkpt><trkpt lat="44.6187283" lon="10.2139594"><ele>694.0</ele><time>2026-04-12T13:57:39.944Z</time></trkpt><trkpt lat="44.6186906" lon="10.2141185"><ele>694.1666666666667</ele><time>2026-04-12T13:57:41.946Z</time></trkpt><trkpt lat="44.6186603" lon="10.2142141"><ele>694.3333333333334</ele><time>2026-04-12T13:57:42.946Z</time></trkpt><trkpt lat="44.6186267" lon="10.2143219"><ele>694.5</ele><time>2026-04-12T13:57:43.945Z</time></trkpt><trkpt lat="44.6185926" lon="10.214436"><ele>694.6666666666666</ele><time>2026-04-12T13:57:44.944Z</time></trkpt><trkpt lat="44.618553" lon="10.2145393"><ele>694.8333333333333</ele><time>2026-04-12T13:57:45.945Z</time></trkpt><trkpt lat="44.6185162" lon="10.2146378"><ele>695.0</ele><time>2026-04-12T13:57:46.946Z</time></trkpt><trkpt lat="44.6184899" lon="10.2147403"><ele>695.8333333333333</ele><time>2026-04-12T13:57:47.946Z</time></trkpt><trkpt lat="44.6184644" lon="10.2148547"><ele>696.6666666666666</ele><time>2026-04-12T13:57:48.946Z</time></trkpt><trkpt lat="44.6184394" lon="10.2149621"><ele>697.5</ele><time>2026-04-12T13:57:49.944Z</time></trkpt><trkpt lat="44.6184218" lon="10.2150663"><ele>698.3333333333334</ele><time>2026-04-12T13:57:50.945Z</time></trkpt><trkpt lat="44.6184062" lon="10.2151664"><ele>699.1666666666667</ele><time>2026-04-12T13:57:51.945Z</time></trkpt><trkpt lat="44.6183944" lon="10.2152979"><ele>700.0</ele><time>2026-04-12T13:57:52.945Z</time></trkpt><trkpt lat="44.6183751" lon="10.2154032"><ele>700.0</ele><time>2026-04-12T13:57:53.945Z</time></trkpt><trkpt lat="44.6183464" lon="10.2155045"><ele>700.0</ele><time>2026-04-12T13:57:54.946Z</time></trkpt><trkpt lat="44.6183108" lon="10.2155984"><ele>700.0</ele><time>2026-04-12T13:57:55.946Z</time></trkpt><trkpt lat="44.6182655" lon="10.2156978"><ele>700.0</ele><time>2026-04-12T13:57:56.944Z</time></trkpt><trkpt lat="44.6182242" lon="10.215774"><ele>700.0</ele><time>2026-04-12T13:57:57.945Z</time></trkpt><trkpt lat="44.6181879" lon="10.2158641"><ele>700.0</ele><time>2026-04-12T13:57:58.945Z</time></trkpt><trkpt lat="44.6181502" lon="10.2159656"><ele>699.5</ele><time>2026-04-12T13:57:59.945Z</time></trkpt><trkpt lat="44.6181187" lon="10.216084"><ele>699.0</ele><time>2026-04-12T13:58:00.946Z</time></trkpt><trkpt lat="44.6180969" lon="10.2162034"><ele>698.5</ele><time>2026-04-12T13:58:01.944Z</time></trkpt><trkpt lat="44.618069" lon="10.2163224"><ele>698.0</ele><time>2026-04-12T13:58:02.946Z</time></trkpt><trkpt lat="44.6180449" lon="10.2164387"><ele>697.5</ele><time>2026-04-12T13:58:03.946Z</time></trkpt><trkpt lat="44.6180066" lon="10.2165422"><ele>697.0</ele><time>2026-04-12T13:58:04.945Z</time></trkpt><trkpt lat="44.6179701" lon="10.2166494"><ele>696.5714285714286</ele><time>2026-04-12T13:58:05.945Z</time></trkpt><trkpt lat="44.6179329" lon="10.216761"><ele>696.1428571428571</ele><time>2026-04-12T13:58:06.946Z</time></trkpt><trkpt lat="44.6178968" lon="10.2168771"><ele>695.7142857142858</ele><time>2026-04-12T13:58:07.946Z</time></trkpt><trkpt lat="44.6178981" lon="10.2169699"><ele>695.2857142857142</ele><time>2026-04-12T13:58:08.946Z</time></trkpt><trkpt lat="44.6178859" lon="10.2170592"><ele>694.8571428571428</ele><time>2026-04-12T13:58:09.945Z</time></trkpt><trkpt lat="44.6178881" lon="10.2171526"><ele>694.4285714285714</ele><time>2026-04-12T13:58:10.946Z</time></trkpt><trkpt lat="44.6178962" lon="10.2172437"><ele>694.0</ele><time>2026-04-12T13:58:11.944Z</time></trkpt><trkpt lat="44.6179192" lon="10.2173592"><ele>692.4000000000001</ele><time>2026-04-12T13:58:13.945Z</time></trkpt><trkpt lat="44.6179463" lon="10.2174955"><ele>690.8</ele><time>2026-04-12T13:58:28.946Z</time></trkpt><trkpt lat="44.6179771" lon="10.2176527"><ele>689.2</ele><time>2026-04-12T13:58:30.946Z</time></trkpt><trkpt lat="44.6180093" lon="10.2177995"><ele>687.5999999999999</ele><time>2026-04-12T13:58:32.945Z</time></trkpt><trkpt lat="44.6180438" lon="10.2179418"><ele>686.0</ele><time>2026-04-12T13:58:34.945Z</time></trkpt><trkpt lat="44.6180641" lon="10.2180941"><ele>684.5999999999999</ele><time>2026-04-12T13:58:36.946Z</time></trkpt><trkpt lat="44.6180743" lon="10.218246"><ele>683.2</ele><time>2026-04-12T13:58:38.946Z</time></trkpt><trkpt lat="44.6180918" lon="10.2183983"><ele>681.8</ele><time>2026-04-12T13:58:40.946Z</time></trkpt><trkpt lat="44.6180956" lon="10.2185383"><ele>680.4000000000001</ele><time>2026-04-12T13:58:42.946Z</time></trkpt><trkpt lat="44.6180953" lon="10.2186399"><ele>679.0</ele><time>2026-04-12T13:58:44.945Z</time></trkpt><trkpt lat="44.6180908" lon="10.218745"><ele>679.0</ele><time>2026-04-12T13:58:46.946Z</time></trkpt><trkpt lat="44.6180744" lon="10.218873"><ele>679.0</ele><time>2026-04-12T13:58:48.945Z</time></trkpt><trkpt lat="44.6180397" lon="10.2190193"><ele>679.0</ele><time>2026-04-12T13:58:50.945Z</time></trkpt><trkpt lat="44.6180325" lon="10.2191173"><ele>679.0</ele><time>2026-04-12T13:58:51.946Z</time></trkpt><trkpt lat="44.6180053" lon="10.2192618"><ele>679.0</ele><time>2026-04-12T13:58:53.946Z</time></trkpt><trkpt lat="44.6179903" lon="10.2194216"><ele>678.4000000000001</ele><time>2026-04-12T13:58:55.945Z</time></trkpt><trkpt lat="44.6179931" lon="10.2195102"><ele>677.8</ele><time>2026-04-12T13:58:56.946Z</time></trkpt><trkpt lat="44.6179933" lon="10.2196523"><ele>677.2</ele><time>2026-04-12T13:58:58.945Z</time></trkpt><trkpt lat="44.6180016" lon="10.2197904"><ele>676.5999999999999</ele><time>2026-04-12T13:59:00.946Z</time></trkpt><trkpt lat="44.6180076" lon="10.2199395"><ele>676.0</ele><time>2026-04-12T13:59:02.946Z</time></trkpt><trkpt lat="44.6180285" lon="10.2200987"><ele>673.5</ele><time>2026-04-12T13:59:04.945Z</time></trkpt><trkpt lat="44.6180182" lon="10.2202618"><ele>671.0</ele><time>2026-04-12T13:59:06.944Z</time></trkpt><trkpt lat="44.617985" lon="10.220412"><ele>668.5</ele><time>2026-04-12T13:59:08.945Z</time></trkpt><trkpt lat="44.6179551" lon="10.2205511"><ele>666.0</ele><time>2026-04-12T13:59:10.945Z</time></trkpt><trkpt lat="44.6179364" lon="10.2207143"><ele>663.5999999999999</ele><time>2026-04-12T13:59:12.945Z</time></trkpt><trkpt lat="44.6179415" lon="10.2208769"><ele>661.2</ele><time>2026-04-12T13:59:14.946Z</time></trkpt><trkpt lat="44.6179524" lon="10.2210307"><ele>658.8</ele><time>2026-04-12T13:59:16.946Z</time></trkpt><trkpt lat="44.6179608" lon="10.2211801"><ele>656.4000000000001</ele><time>2026-04-12T13:59:18.944Z</time></trkpt><trkpt lat="44.617962" lon="10.2213349"><ele>654.0</ele><time>2026-04-12T13:59:20.946Z</time></trkpt><trkpt lat="44.6179469" lon="10.2214809"><ele>651.4000000000001</ele><time>2026-04-12T13:59:22.946Z</time></trkpt><trkpt lat="44.6179253" lon="10.2216253"><ele>648.8</ele><time>2026-04-12T13:59:24.944Z</time></trkpt><trkpt lat="44.6179072" lon="10.2217693"><ele>646.2</ele><time>2026-04-12T13:59:26.944Z</time></trkpt><trkpt lat="44.61791" lon="10.22194"><ele>643.5999999999999</ele><time>2026-04-12T13:59:28.946Z</time></trkpt><trkpt lat="44.6179052" lon="10.222029"><ele>641.0</ele><time>2026-04-12T13:59:29.946Z</time></trkpt><trkpt lat="44.6179142" lon="10.2222068"><ele>639.0</ele><time>2026-04-12T13:59:31.946Z</time></trkpt><trkpt lat="44.6179494" lon="10.2223748"><ele>637.0</ele><time>2026-04-12T13:59:33.945Z</time></trkpt><trkpt lat="44.6179732" lon="10.2224587"><ele>635.0</ele><time>2026-04-12T13:59:34.945Z</time></trkpt><trkpt lat="44.6179979" lon="10.222542"><ele>633.0</ele><time>2026-04-12T13:59:35.945Z</time></trkpt><trkpt lat="44.618028" lon="10.2227155"><ele>631.0</ele><time>2026-04-12T13:59:37.945Z</time></trkpt><trkpt lat="44.6180312" lon="10.2228042"><ele>629.0</ele><time>2026-04-12T13:59:38.946Z</time></trkpt><trkpt lat="44.6180342" lon="10.2229632"><ele>629.0</ele><time>2026-04-12T13:59:40.946Z</time></trkpt><trkpt lat="44.6180168" lon="10.2230705"><ele>629.0</ele><time>2026-04-12T13:59:51.946Z</time></trkpt><trkpt lat="44.6179605" lon="10.2231812"><ele>629.0</ele><time>2026-04-12T13:59:54.945Z</time></trkpt><trkpt lat="44.6178999" lon="10.2232397"><ele>629.0</ele><time>2026-04-12T13:59:55.946Z</time></trkpt><trkpt lat="44.6178483" lon="10.2232933"><ele>629.0</ele><time>2026-04-12T13:59:56.946Z</time></trkpt><trkpt lat="44.6177833" lon="10.2233465"><ele>629.0</ele><time>2026-04-12T13:59:57.946Z</time></trkpt><trkpt lat="44.6177302" lon="10.2233967"><ele>629.6</ele><time>2026-04-12T13:59:58.945Z</time></trkpt><trkpt lat="44.6176828" lon="10.2234611"><ele>630.2</ele><time>2026-04-12T13:59:59.945Z</time></trkpt><trkpt lat="44.6176129" lon="10.2235737"><ele>630.8000000000001</ele><time>2026-04-12T14:00:01.946Z</time></trkpt><trkpt lat="44.6175634" lon="10.2236789"><ele>631.4</ele><time>2026-04-12T14:00:03.945Z</time></trkpt><trkpt lat="44.6175081" lon="10.2238183"><ele>632.0</ele><time>2026-04-12T14:00:05.945Z</time></trkpt><trkpt lat="44.6174765" lon="10.2239207"><ele>630.3333333333333</ele><time>2026-04-12T14:00:06.945Z</time></trkpt><trkpt lat="44.6174644" lon="10.2240513"><ele>628.6666666666666</ele><time>2026-04-12T14:00:07.945Z</time></trkpt><trkpt lat="44.617451" lon="10.224148"><ele>627.0</ele><time>2026-04-12T14:00:08.946Z</time></trkpt><trkpt lat="44.617449" lon="10.2242737"><ele>625.3333333333334</ele><time>2026-04-12T14:00:09.946Z</time></trkpt><trkpt lat="44.617443" lon="10.2243995"><ele>623.6666666666667</ele><time>2026-04-12T14:00:10.946Z</time></trkpt><trkpt lat="44.6174454" lon="10.2245148"><ele>622.0</ele><time>2026-04-12T14:00:11.945Z</time></trkpt><trkpt lat="44.6174359" lon="10.2246049"><ele>622.0</ele><time>2026-04-12T14:00:12.945Z</time></trkpt><trkpt lat="44.6174615" lon="10.2247926"><ele>622.0</ele><time>2026-04-12T14:00:14.945Z</time></trkpt><trkpt lat="44.6175068" lon="10.2249011"><ele>622.0</ele><time>2026-04-12T14:00:15.945Z</time></trkpt><trkpt lat="44.6175344" lon="10.2250044"><ele>622.0</ele><time>2026-04-12T14:00:16.944Z</time></trkpt><trkpt lat="44.6175421" lon="10.2251269"><ele>622.0</ele><time>2026-04-12T14:00:17.945Z</time></trkpt><trkpt lat="44.6175525" lon="10.2252432"><ele>620.4</ele><time>2026-04-12T14:00:18.946Z</time></trkpt><trkpt lat="44.6175217" lon="10.2254429"><ele>618.8000000000001</ele><time>2026-04-12T14:00:19.946Z</time></trkpt><trkpt lat="44.6174988" lon="10.2255909"><ele>617.2</ele><time>2026-04-12T14:00:20.946Z</time></trkpt><trkpt lat="44.6174757" lon="10.2257293"><ele>615.6</ele><time>2026-04-12T14:00:21.944Z</time></trkpt><trkpt lat="44.6174553" lon="10.2258299"><ele>614.0</ele><time>2026-04-12T14:00:22.945Z</time></trkpt><trkpt lat="44.6174205" lon="10.2259328"><ele>613.1666666666666</ele><time>2026-04-12T14:00:24.945Z</time></trkpt><trkpt lat="44.6173919" lon="10.2260335"><ele>612.3333333333333</ele><time>2026-04-12T14:00:33.945Z</time></trkpt><trkpt lat="44.6173408" lon="10.2261118"><ele>611.5</ele><time>2026-04-12T14:00:34.945Z</time></trkpt><trkpt lat="44.617289" lon="10.2261927"><ele>610.6666666666666</ele><time>2026-04-12T14:00:35.945Z</time></trkpt><trkpt lat="44.6172464" lon="10.2262674"><ele>609.8333333333334</ele><time>2026-04-12T14:00:36.946Z</time></trkpt><trkpt lat="44.6171931" lon="10.2263439"><ele>609.0</ele><time>2026-04-12T14:00:37.945Z</time></trkpt><trkpt lat="44.6171144" lon="10.2264386"><ele>607.0</ele><time>2026-04-12T14:00:38.945Z</time></trkpt><trkpt lat="44.6169916" lon="10.2265686"><ele>605.0</ele><time>2026-04-12T14:00:39.945Z</time></trkpt><trkpt lat="44.616928" lon="10.2266844"><ele>603.0</ele><time>2026-04-12T14:00:40.945Z</time></trkpt><trkpt lat="44.6168654" lon="10.2268016"><ele>601.0</ele><time>2026-04-12T14:00:41.945Z</time></trkpt><trkpt lat="44.6168047" lon="10.2269706"><ele>605.25</ele><time>2026-04-12T14:00:42.945Z</time></trkpt><trkpt lat="44.6167383" lon="10.2271545"><ele>609.5</ele><time>2026-04-12T14:00:43.944Z</time></trkpt><trkpt lat="44.6166767" lon="10.2273278"><ele>613.75</ele><time>2026-04-12T14:00:44.945Z</time></trkpt><trkpt lat="44.6166167" lon="10.2274904"><ele>618.0</ele><time>2026-04-12T14:00:45.946Z</time></trkpt><trkpt lat="44.6165726" lon="10.2276345"><ele>618.0</ele><time>2026-04-12T14:00:46.945Z</time></trkpt><trkpt lat="44.6165677" lon="10.2277927"><ele>618.0</ele><time>2026-04-12T14:00:47.945Z</time></trkpt><trkpt lat="44.6165532" lon="10.2278922"><ele>618.0</ele><time>2026-04-12T14:00:48.946Z</time></trkpt><trkpt lat="44.6164981" lon="10.228016"><ele>618.0</ele><time>2026-04-12T14:00:50.946Z</time></trkpt><trkpt lat="44.6164319" lon="10.228064"><ele>618.0</ele><time>2026-04-12T14:00:52.945Z</time></trkpt><trkpt lat="44.6163504" lon="10.2281049"><ele>618.0</ele><time>2026-04-12T14:00:54.946Z</time></trkpt><trkpt lat="44.6162784" lon="10.2281385"><ele>618.0</ele><time>2026-04-12T14:00:56.946Z</time></trkpt><trkpt lat="44.6162235" lon="10.2281979"><ele>618.0</ele><time>2026-04-12T14:00:57.945Z</time></trkpt><trkpt lat="44.6161411" lon="10.2282336"><ele>618.0</ele><time>2026-04-12T14:00:58.945Z</time></trkpt><trkpt lat="44.6160699" lon="10.2282908"><ele>618.0</ele><time>2026-04-12T14:00:59.945Z</time></trkpt><trkpt lat="44.6160009" lon="10.2283495"><ele>618.0</ele><time>2026-04-12T14:01:00.944Z</time></trkpt><trkpt lat="44.6159275" lon="10.2284024"><ele>616.5</ele><time>2026-04-12T14:01:01.945Z</time></trkpt><trkpt lat="44.615851" lon="10.2284441"><ele>615.0</ele><time>2026-04-12T14:01:02.945Z</time></trkpt><trkpt lat="44.6157843" lon="10.2284912"><ele>613.5</ele><time>2026-04-12T14:01:03.945Z</time></trkpt><trkpt lat="44.6156944" lon="10.2285389"><ele>612.0</ele><time>2026-04-12T14:01:05.946Z</time></trkpt><trkpt lat="44.6156289" lon="10.2285568"><ele>610.5</ele><time>2026-04-12T14:01:07.946Z</time></trkpt><trkpt lat="44.6155714" lon="10.228494"><ele>609.0</ele><time>2026-04-12T14:01:40.945Z</time></trkpt><trkpt lat="44.615643" lon="10.2284622"><ele>609.0</ele><time>2026-04-12T14:01:44.946Z</time></trkpt><trkpt lat="44.6157322" lon="10.2284801"><ele>609.0</ele><time>2026-04-12T14:01:46.946Z</time></trkpt><trkpt lat="44.6157973" lon="10.2284447"><ele>609.0</ele><time>2026-04-12T14:01:47.944Z</time></trkpt><trkpt lat="44.6158632" lon="10.2284095"><ele>609.0</ele><time>2026-04-12T14:01:48.945Z</time></trkpt><trkpt lat="44.6159289" lon="10.228377"><ele>609.0</ele><time>2026-04-12T14:01:49.945Z</time></trkpt><trkpt lat="44.6159946" lon="10.2283297"><ele>609.0</ele><time>2026-04-12T14:01:50.946Z</time></trkpt><trkpt lat="44.6160689" lon="10.2283013"><ele>609.0</ele><time>2026-04-12T14:01:51.946Z</time></trkpt><trkpt lat="44.6161481" lon="10.2282684"><ele>609.0</ele><time>2026-04-12T14:01:52.944Z</time></trkpt><trkpt lat="44.6162511" lon="10.2281786"><ele>609.0</ele><time>2026-04-12T14:01:54.946Z</time></trkpt><trkpt lat="44.6163153" lon="10.228143"><ele>609.0</ele><time>2026-04-12T14:01:55.945Z</time></trkpt><trkpt lat="44.6164159" lon="10.228081"><ele>609.0</ele><time>2026-04-12T14:01:57.946Z</time></trkpt><trkpt lat="44.6165065" lon="10.2280609"><ele>610.8</ele><time>2026-04-12T14:01:59.944Z</time></trkpt><trkpt lat="44.6165651" lon="10.2279764"><ele>612.5999999999999</ele><time>2026-04-12T14:02:01.945Z</time></trkpt><trkpt lat="44.6165913" lon="10.227818"><ele>614.4</ele><time>2026-04-12T14:02:03.945Z</time></trkpt><trkpt lat="44.6165927" lon="10.2276363"><ele>616.1999999999999</ele><time>2026-04-12T14:02:05.945Z</time></trkpt><trkpt lat="44.6166247" lon="10.2275335"><ele>618.0</ele><time>2026-04-12T14:02:06.946Z</time></trkpt><trkpt lat="44.6166462" lon="10.2274361"><ele>618.0</ele><time>2026-04-12T14:02:07.945Z</time></trkpt><trkpt lat="44.6166931" lon="10.2273456"><ele>618.0</ele><time>2026-04-12T14:02:08.946Z</time></trkpt><trkpt lat="44.6167338" lon="10.2272114"><ele>618.0</ele><time>2026-04-12T14:02:10.946Z</time></trkpt><trkpt lat="44.6167712" lon="10.2272959"><ele>618.0</ele><time>2026-04-12T14:02:24.945Z</time></trkpt><trkpt lat="44.6167462" lon="10.22738"><ele>618.0</ele><time>2026-04-12T14:02:26.944Z</time></trkpt><trkpt lat="44.6167134" lon="10.2274801"><ele>618.0</ele><time>2026-04-12T14:02:29.945Z</time></trkpt><trkpt lat="44.6167032" lon="10.227575"><ele>618.0</ele><time>2026-04-12T14:02:32.945Z</time></trkpt><trkpt lat="44.6167345" lon="10.2276736"><ele>618.0</ele><time>2026-04-12T14:02:36.946Z</time></trkpt><trkpt lat="44.6167807" lon="10.227734"><ele>618.0</ele><time>2026-04-12T14:02:47.945Z</time></trkpt><trkpt lat="44.6167431" lon="10.2276536"><ele>618.0</ele><time>2026-04-12T14:03:09.946Z</time></trkpt><trkpt lat="44.616718" lon="10.2275327"><ele>618.0</ele><time>2026-04-12T14:03:11.946Z</time></trkpt><trkpt lat="44.6167404" lon="10.2273998"><ele>618.0</ele><time>2026-04-12T14:03:13.946Z</time></trkpt><trkpt lat="44.6167587" lon="10.2272624"><ele>622.5</ele><time>2026-04-12T14:03:15.945Z</time></trkpt><trkpt lat="44.6167432" lon="10.2271283"><ele>627.0</ele><time>2026-04-12T14:03:17.946Z</time></trkpt><trkpt lat="44.6167919" lon="10.2270021"><ele>631.5</ele><time>2026-04-12T14:03:19.946Z</time></trkpt><trkpt lat="44.6168458" lon="10.2268248"><ele>636.0</ele><time>2026-04-12T14:03:21.946Z</time></trkpt><trkpt lat="44.6169196" lon="10.2266597"><ele>636.0</ele><time>2026-04-12T14:03:23.944Z</time></trkpt><trkpt lat="44.6169686" lon="10.2265733"><ele>636.0</ele><time>2026-04-12T14:03:24.946Z</time></trkpt><trkpt lat="44.6170288" lon="10.2264931"><ele>636.0</ele><time>2026-04-12T14:03:25.945Z</time></trkpt><trkpt lat="44.6170993" lon="10.226407"><ele>636.0</ele><time>2026-04-12T14:03:26.946Z</time></trkpt><trkpt lat="44.6171798" lon="10.2263194"><ele>636.0</ele><time>2026-04-12T14:03:27.945Z</time></trkpt><trkpt lat="44.6172379" lon="10.2262277"><ele>636.0</ele><time>2026-04-12T14:03:28.945Z</time></trkpt><trkpt lat="44.6172918" lon="10.2261441"><ele>632.1428571428571</ele><time>2026-04-12T14:03:29.946Z</time></trkpt><trkpt lat="44.6173351" lon="10.2260765"><ele>628.2857142857143</ele><time>2026-04-12T14:03:30.946Z</time></trkpt><trkpt lat="44.6174013" lon="10.22599"><ele>624.4285714285714</ele><time>2026-04-12T14:03:32.945Z</time></trkpt><trkpt lat="44.6174641" lon="10.2260094"><ele>620.5714285714286</ele><time>2026-04-12T14:03:44.946Z</time></trkpt><trkpt lat="44.6174621" lon="10.2261066"><ele>616.7142857142858</ele><time>2026-04-12T14:03:52.946Z</time></trkpt><trkpt lat="44.6174703" lon="10.2261963"><ele>612.8571428571429</ele><time>2026-04-12T14:03:54.946Z</time></trkpt><trkpt lat="44.6174437" lon="10.2262931"><ele>609.0</ele><time>2026-04-12T14:03:58.946Z</time></trkpt><trkpt lat="44.6173804" lon="10.2262838"><ele>609.0</ele><time>2026-04-12T14:04:06.945Z</time></trkpt><trkpt lat="44.6174014" lon="10.2261696"><ele>609.0</ele><time>2026-04-12T14:04:13.946Z</time></trkpt><trkpt lat="44.6174532" lon="10.2260612"><ele>609.0</ele><time>2026-04-12T14:04:15.945Z</time></trkpt><trkpt lat="44.6174394" lon="10.2259717"><ele>609.0</ele><time>2026-04-12T14:04:22.946Z</time></trkpt><trkpt lat="44.6173815" lon="10.2260262"><ele>609.0</ele><time>2026-04-12T14:04:23.946Z</time></trkpt><trkpt lat="44.6173292" lon="10.2261242"><ele>609.0</ele><time>2026-04-12T14:04:24.946Z</time></trkpt><trkpt lat="44.6172659" lon="10.2262349"><ele>609.0</ele><time>2026-04-12T14:04:25.945Z</time></trkpt><trkpt lat="44.6171965" lon="10.226345"><ele>609.0</ele><time>2026-04-12T14:04:26.945Z</time></trkpt><trkpt lat="44.6171246" lon="10.22645"><ele>609.0</ele><time>2026-04-12T14:04:27.945Z</time></trkpt><trkpt lat="44.6170528" lon="10.2265295"><ele>609.0</ele><time>2026-04-12T14:04:28.945Z</time></trkpt><trkpt lat="44.6169937" lon="10.226616"><ele>609.0</ele><time>2026-04-12T14:04:29.946Z</time></trkpt><trkpt lat="44.6169279" lon="10.2267142"><ele>614.4</ele><time>2026-04-12T14:04:30.946Z</time></trkpt><trkpt lat="44.6168749" lon="10.2268127"><ele>619.8</ele><time>2026-04-12T14:04:31.945Z</time></trkpt><trkpt lat="44.6168275" lon="10.2269298"><ele>625.2</ele><time>2026-04-12T14:04:32.945Z</time></trkpt><trkpt lat="44.6167863" lon="10.2270618"><ele>630.6</ele><time>2026-04-12T14:04:33.945Z</time></trkpt><trkpt lat="44.6167484" lon="10.227181"><ele>636.0</ele><time>2026-04-12T14:04:34.945Z</time></trkpt><trkpt lat="44.6167004" lon="10.2272984"><ele>633.0</ele><time>2026-04-12T14:04:35.945Z</time></trkpt><trkpt lat="44.6166491" lon="10.2274091"><ele>630.0</ele><time>2026-04-12T14:04:36.945Z</time></trkpt><trkpt lat="44.616612" lon="10.2275125"><ele>627.0</ele><time>2026-04-12T14:04:37.946Z</time></trkpt><trkpt lat="44.6165805" lon="10.2276106"><ele>624.0</ele><time>2026-04-12T14:04:38.946Z</time></trkpt><trkpt lat="44.6165686" lon="10.2277087"><ele>621.0</ele><time>2026-04-12T14:04:39.946Z</time></trkpt><trkpt lat="44.6165589" lon="10.2278143"><ele>618.0</ele><time>2026-04-12T14:04:40.946Z</time></trkpt><trkpt lat="44.6165658" lon="10.2279173"><ele>618.0</ele><time>2026-04-12T14:04:41.946Z</time></trkpt><trkpt lat="44.6165607" lon="10.2280316"><ele>618.0</ele><time>2026-04-12T14:04:43.946Z</time></trkpt><trkpt lat="44.6164945" lon="10.2280768"><ele>618.0</ele><time>2026-04-12T14:05:43.945Z</time></trkpt><trkpt lat="44.6164223" lon="10.228103"><ele>618.0</ele><time>2026-04-12T14:05:46.946Z</time></trkpt><trkpt lat="44.6163521" lon="10.2281227"><ele>618.0</ele><time>2026-04-12T14:05:48.946Z</time></trkpt><trkpt lat="44.6162592" lon="10.2281601"><ele>618.0</ele><time>2026-04-12T14:05:50.945Z</time></trkpt><trkpt lat="44.6161976" lon="10.2281937"><ele>616.5</ele><time>2026-04-12T14:05:52.945Z</time></trkpt><trkpt lat="44.6161212" lon="10.2282454"><ele>615.0</ele><time>2026-04-12T14:05:59.944Z</time></trkpt><trkpt lat="44.6160612" lon="10.228311"><ele>613.5</ele><time>2026-04-12T14:06:00.945Z</time></trkpt><trkpt lat="44.615997" lon="10.228346"><ele>612.0</ele><time>2026-04-12T14:06:01.945Z</time></trkpt><trkpt lat="44.6158751" lon="10.2284129"><ele>610.5</ele><time>2026-04-12T14:06:03.945Z</time></trkpt><trkpt lat="44.615812" lon="10.2284577"><ele>609.0</ele><time>2026-04-12T14:06:04.946Z</time></trkpt><trkpt lat="44.6157256" lon="10.2285036"><ele>609.0</ele><time>2026-04-12T14:06:06.946Z</time></trkpt><trkpt lat="44.6156346" lon="10.2285"><ele>609.0</ele><time>2026-04-12T14:06:08.945Z</time></trkpt><trkpt lat="44.6155487" lon="10.2284061"><ele>609.0</ele><time>2026-04-12T14:06:10.946Z</time></trkpt><trkpt lat="44.6155073" lon="10.2283322"><ele>609.0</ele><time>2026-04-12T14:06:11.945Z</time></trkpt><trkpt lat="44.6154794" lon="10.2282459"><ele>609.0</ele><time>2026-04-12T14:06:12.945Z</time></trkpt><trkpt lat="44.6154591" lon="10.2281528"><ele>609.0</ele><time>2026-04-12T14:06:13.945Z</time></trkpt><trkpt lat="44.6154366" lon="10.2280603"><ele>610.6</ele><time>2026-04-12T14:06:14.946Z</time></trkpt><trkpt lat="44.6154022" lon="10.2279833"><ele>612.2</ele><time>2026-04-12T14:06:15.946Z</time></trkpt><trkpt lat="44.615335" lon="10.2278355"><ele>613.8000000000001</ele><time>2026-04-12T14:06:17.945Z</time></trkpt><trkpt lat="44.6152658" lon="10.2276906"><ele>615.4</ele><time>2026-04-12T14:06:19.945Z</time></trkpt><trkpt lat="44.6152095" lon="10.227544"><ele>617.0</ele><time>2026-04-12T14:06:21.945Z</time></trkpt><trkpt lat="44.6151794" lon="10.2274663"><ele>614.5714285714286</ele><time>2026-04-12T14:06:22.946Z</time></trkpt><trkpt lat="44.6151439" lon="10.2273847"><ele>612.1428571428571</ele><time>2026-04-12T14:06:23.946Z</time></trkpt><trkpt lat="44.6151074" lon="10.2273018"><ele>609.7142857142857</ele><time>2026-04-12T14:06:24.945Z</time></trkpt><trkpt lat="44.6150654" lon="10.2272243"><ele>607.2857142857142</ele><time>2026-04-12T14:06:25.945Z</time></trkpt><trkpt lat="44.6150164" lon="10.2271448"><ele>604.8571428571429</ele><time>2026-04-12T14:06:26.944Z</time></trkpt><trkpt lat="44.6149689" lon="10.2270664"><ele>602.4285714285713</ele><time>2026-04-12T14:06:27.944Z</time></trkpt><trkpt lat="44.6149152" lon="10.2269916"><ele>600.0</ele><time>2026-04-12T14:06:28.944Z</time></trkpt><trkpt lat="44.6148639" lon="10.226916"><ele>599.9999999999999</ele><time>2026-04-12T14:06:29.945Z</time></trkpt><trkpt lat="44.6148141" lon="10.2268474"><ele>600.0</ele><time>2026-04-12T14:06:30.944Z</time></trkpt><trkpt lat="44.6147612" lon="10.2267929"><ele>600.0</ele><time>2026-04-12T14:06:31.945Z</time></trkpt><trkpt lat="44.6147062" lon="10.2267361"><ele>600.0</ele><time>2026-04-12T14:06:32.944Z</time></trkpt><trkpt lat="44.6146474" lon="10.2266892"><ele>600.0</ele><time>2026-04-12T14:06:33.945Z</time></trkpt><trkpt lat="44.6145827" lon="10.2266583"><ele>599.9999999999999</ele><time>2026-04-12T14:06:34.944Z</time></trkpt><trkpt lat="44.6145113" lon="10.2266348"><ele>600.0</ele><time>2026-04-12T14:06:35.945Z</time></trkpt><trkpt lat="44.6144403" lon="10.2266047"><ele>596.6666666666666</ele><time>2026-04-12T14:06:36.943Z</time></trkpt><trkpt lat="44.6143688" lon="10.2265749"><ele>593.3333333333334</ele><time>2026-04-12T14:06:37.944Z</time></trkpt><trkpt lat="44.6142981" lon="10.2265677"><ele>590.0</ele><time>2026-04-12T14:06:38.943Z</time></trkpt><trkpt lat="44.6142273" lon="10.2265743"><ele>586.6666666666667</ele><time>2026-04-12T14:06:39.944Z</time></trkpt><trkpt lat="44.6141438" lon="10.2265976"><ele>583.3333333333334</ele><time>2026-04-12T14:06:40.944Z</time></trkpt><trkpt lat="44.6140565" lon="10.2266083"><ele>580.0</ele><time>2026-04-12T14:06:41.945Z</time></trkpt><trkpt lat="44.6139699" lon="10.2266172"><ele>580.0</ele><time>2026-04-12T14:06:42.944Z</time></trkpt><trkpt lat="44.6138786" lon="10.2266334"><ele>580.0</ele><time>2026-04-12T14:06:43.944Z</time></trkpt><trkpt lat="44.6137907" lon="10.2266621"><ele>580.0</ele><time>2026-04-12T14:06:44.944Z</time></trkpt><trkpt lat="44.6137072" lon="10.2267104"><ele>580.0</ele><time>2026-04-12T14:06:45.945Z</time></trkpt><trkpt lat="44.6136269" lon="10.2267614"><ele>580.0</ele><time>2026-04-12T14:06:46.944Z</time></trkpt><trkpt lat="44.613553" lon="10.2268044"><ele>580.0</ele><time>2026-04-12T14:06:47.944Z</time></trkpt><trkpt lat="44.6134829" lon="10.2268406"><ele>579.5</ele><time>2026-04-12T14:06:48.944Z</time></trkpt><trkpt lat="44.6134142" lon="10.2268543"><ele>579.0</ele><time>2026-04-12T14:06:49.944Z</time></trkpt><trkpt lat="44.6133421" lon="10.2268471"><ele>578.5</ele><time>2026-04-12T14:06:50.944Z</time></trkpt><trkpt lat="44.6132656" lon="10.2268236"><ele>578.0</ele><time>2026-04-12T14:06:51.944Z</time></trkpt><trkpt lat="44.6131874" lon="10.2268046"><ele>577.5</ele><time>2026-04-12T14:06:52.945Z</time></trkpt><trkpt lat="44.6130971" lon="10.22678"><ele>577.0</ele><time>2026-04-12T14:06:53.944Z</time></trkpt><trkpt lat="44.6129885" lon="10.2267582"><ele>577.0</ele><time>2026-04-12T14:06:54.944Z</time></trkpt><trkpt lat="44.6128904" lon="10.2267476"><ele>577.0</ele><time>2026-04-12T14:06:55.943Z</time></trkpt><trkpt lat="44.6127957" lon="10.2267502"><ele>577.0</ele><time>2026-04-12T14:06:56.944Z</time></trkpt><trkpt lat="44.612714" lon="10.2267508"><ele>577.0</ele><time>2026-04-12T14:06:57.945Z</time></trkpt><trkpt lat="44.6126304" lon="10.2267304"><ele>577.0</ele><time>2026-04-12T14:06:58.945Z</time></trkpt><trkpt lat="44.6125498" lon="10.2266876"><ele>577.0</ele><time>2026-04-12T14:06:59.945Z</time></trkpt><trkpt lat="44.6124872" lon="10.2266237"><ele>577.3333333333334</ele><time>2026-04-12T14:07:00.945Z</time></trkpt><trkpt lat="44.6124295" lon="10.2265575"><ele>577.6666666666667</ele><time>2026-04-12T14:07:01.945Z</time></trkpt><trkpt lat="44.6123822" lon="10.2264707"><ele>578.0</ele><time>2026-04-12T14:07:02.945Z</time></trkpt><trkpt lat="44.6123435" lon="10.2263665"><ele>578.3333333333334</ele><time>2026-04-12T14:07:03.945Z</time></trkpt><trkpt lat="44.6123027" lon="10.226278"><ele>578.6666666666666</ele><time>2026-04-12T14:07:04.945Z</time></trkpt><trkpt lat="44.612264" lon="10.2261909"><ele>579.0</ele><time>2026-04-12T14:07:05.945Z</time></trkpt><trkpt lat="44.6121814" lon="10.2260926"><ele>579.0</ele><time>2026-04-12T14:07:07.943Z</time></trkpt><trkpt lat="44.6121071" lon="10.2260325"><ele>579.0</ele><time>2026-04-12T14:07:09.945Z</time></trkpt><trkpt lat="44.6120585" lon="10.2260956"><ele>579.0</ele><time>2026-04-12T14:08:15.945Z</time></trkpt><trkpt lat="44.6121188" lon="10.2261716"><ele>579.0</ele><time>2026-04-12T14:08:19.944Z</time></trkpt><trkpt lat="44.6121808" lon="10.226241"><ele>579.0</ele><time>2026-04-12T14:08:21.944Z</time></trkpt><trkpt lat="44.6122224" lon="10.2263759"><ele>579.0</ele><time>2026-04-12T14:08:23.944Z</time></trkpt><trkpt lat="44.6122381" lon="10.2265602"><ele>576.0</ele><time>2026-04-12T14:08:25.944Z</time></trkpt><trkpt lat="44.6122414" lon="10.2266646"><ele>573.0</ele><time>2026-04-12T14:08:26.945Z</time></trkpt><trkpt lat="44.6122537" lon="10.2267672"><ele>570.0</ele><time>2026-04-12T14:08:27.944Z</time></trkpt><trkpt lat="44.6122855" lon="10.2268714"><ele>567.0</ele><time>2026-04-12T14:08:28.945Z</time></trkpt><trkpt lat="44.6123357" lon="10.2269655"><ele>564.0</ele><time>2026-04-12T14:08:29.943Z</time></trkpt><trkpt lat="44.6124024" lon="10.227031"><ele>561.0</ele><time>2026-04-12T14:08:30.945Z</time></trkpt><trkpt lat="44.6124834" lon="10.227071"><ele>561.0</ele><time>2026-04-12T14:08:31.944Z</time></trkpt><trkpt lat="44.6125684" lon="10.2270977"><ele>561.0</ele><time>2026-04-12T14:08:32.944Z</time></trkpt><trkpt lat="44.6126461" lon="10.2271247"><ele>561.0</ele><time>2026-04-12T14:08:33.945Z</time></trkpt><trkpt lat="44.6127247" lon="10.227156"><ele>561.0</ele><time>2026-04-12T14:08:34.944Z</time></trkpt><trkpt lat="44.6128001" lon="10.2271806"><ele>561.0</ele><time>2026-04-12T14:08:35.945Z</time></trkpt><trkpt lat="44.6128703" lon="10.2272098"><ele>561.0</ele><time>2026-04-12T14:08:36.945Z</time></trkpt><trkpt lat="44.6129392" lon="10.2272344"><ele>558.6666666666666</ele><time>2026-04-12T14:08:37.945Z</time></trkpt><trkpt lat="44.613003" lon="10.2272607"><ele>556.3333333333334</ele><time>2026-04-12T14:08:38.945Z</time></trkpt><trkpt lat="44.6130656" lon="10.2272916"><ele>554.0</ele><time>2026-04-12T14:08:39.944Z</time></trkpt><trkpt lat="44.6131374" lon="10.2273134"><ele>551.6666666666667</ele><time>2026-04-12T14:08:40.945Z</time></trkpt><trkpt lat="44.6132193" lon="10.2273434"><ele>549.3333333333334</ele><time>2026-04-12T14:08:41.945Z</time></trkpt><trkpt lat="44.6132964" lon="10.2273674"><ele>547.0</ele><time>2026-04-12T14:08:42.944Z</time></trkpt><trkpt lat="44.6133739" lon="10.2273976"><ele>547.0</ele><time>2026-04-12T14:08:43.945Z</time></trkpt><trkpt lat="44.6134458" lon="10.2274249"><ele>547.0</ele><time>2026-04-12T14:08:44.945Z</time></trkpt><trkpt lat="44.6135123" lon="10.2274649"><ele>547.0</ele><time>2026-04-12T14:08:45.944Z</time></trkpt><trkpt lat="44.6135763" lon="10.2275153"><ele>547.0</ele><time>2026-04-12T14:08:46.944Z</time></trkpt><trkpt lat="44.6136267" lon="10.227586"><ele>547.0</ele><time>2026-04-12T14:08:47.945Z</time></trkpt><trkpt lat="44.6136681" lon="10.2276661"><ele>547.0</ele><time>2026-04-12T14:08:48.944Z</time></trkpt><trkpt lat="44.6137061" lon="10.2277631"><ele>547.0</ele><time>2026-04-12T14:08:49.945Z</time></trkpt><trkpt lat="44.6137398" lon="10.2278738"><ele>547.8000000000001</ele><time>2026-04-12T14:08:50.944Z</time></trkpt><trkpt lat="44.6137706" lon="10.2279892"><ele>548.6</ele><time>2026-04-12T14:08:51.944Z</time></trkpt><trkpt lat="44.6137946" lon="10.2281139"><ele>549.4000000000001</ele><time>2026-04-12T14:08:52.944Z</time></trkpt><trkpt lat="44.613817" lon="10.2282423"><ele>550.2</ele><time>2026-04-12T14:08:53.945Z</time></trkpt><trkpt lat="44.6138411" lon="10.2283731"><ele>551.0</ele><time>2026-04-12T14:08:54.944Z</time></trkpt><trkpt lat="44.6138609" lon="10.2285059"><ele>551.0</ele><time>2026-04-12T14:08:55.944Z</time></trkpt><trkpt lat="44.6138744" lon="10.2286386"><ele>551.0</ele><time>2026-04-12T14:08:56.943Z</time></trkpt><trkpt lat="44.6138801" lon="10.228778"><ele>551.0</ele><time>2026-04-12T14:08:57.945Z</time></trkpt><trkpt lat="44.6138792" lon="10.2289195"><ele>551.0</ele><time>2026-04-12T14:08:58.945Z</time></trkpt><trkpt lat="44.6138703" lon="10.2290696"><ele>551.0</ele><time>2026-04-12T14:08:59.945Z</time></trkpt><trkpt lat="44.6138508" lon="10.2292206"><ele>551.25</ele><time>2026-04-12T14:09:00.944Z</time></trkpt><trkpt lat="44.6138265" lon="10.2293681"><ele>551.5</ele><time>2026-04-12T14:09:01.944Z</time></trkpt><trkpt lat="44.613802" lon="10.229528"><ele>551.75</ele><time>2026-04-12T14:09:02.944Z</time></trkpt><trkpt lat="44.6137856" lon="10.2296859"><ele>552.0</ele><time>2026-04-12T14:09:03.943Z</time></trkpt><trkpt lat="44.6137807" lon="10.2298432"><ele>550.0</ele><time>2026-04-12T14:09:04.945Z</time></trkpt><trkpt lat="44.613781" lon="10.2300008"><ele>548.0</ele><time>2026-04-12T14:09:05.944Z</time></trkpt><trkpt lat="44.6137892" lon="10.2301696"><ele>546.0</ele><time>2026-04-12T14:09:06.944Z</time></trkpt><trkpt lat="44.6138114" lon="10.2303384"><ele>544.0</ele><time>2026-04-12T14:09:07.944Z</time></trkpt><trkpt lat="44.6138453" lon="10.2305017"><ele>541.5</ele><time>2026-04-12T14:09:08.945Z</time></trkpt><trkpt lat="44.6138967" lon="10.2306569"><ele>539.0</ele><time>2026-04-12T14:09:09.944Z</time></trkpt><trkpt lat="44.6139571" lon="10.2308023"><ele>536.5</ele><time>2026-04-12T14:09:10.945Z</time></trkpt><trkpt lat="44.6140219" lon="10.2309464"><ele>534.0</ele><time>2026-04-12T14:09:11.944Z</time></trkpt><trkpt lat="44.6140828" lon="10.2310879"><ele>534.0</ele><time>2026-04-12T14:09:12.945Z</time></trkpt><trkpt lat="44.6141437" lon="10.2312279"><ele>534.0</ele><time>2026-04-12T14:09:13.945Z</time></trkpt><trkpt lat="44.6142067" lon="10.2313747"><ele>534.0</ele><time>2026-04-12T14:09:14.944Z</time></trkpt><trkpt lat="44.6142668" lon="10.231522"><ele>534.0</ele><time>2026-04-12T14:09:15.944Z</time></trkpt><trkpt lat="44.6143292" lon="10.2316667"><ele>534.6</ele><time>2026-04-12T14:09:16.944Z</time></trkpt><trkpt lat="44.61439" lon="10.2318069"><ele>535.2</ele><time>2026-04-12T14:09:17.945Z</time></trkpt><trkpt lat="44.6144578" lon="10.231938"><ele>535.8000000000001</ele><time>2026-04-12T14:09:18.944Z</time></trkpt><trkpt lat="44.6145269" lon="10.2320523"><ele>536.4</ele><time>2026-04-12T14:09:19.945Z</time></trkpt><trkpt lat="44.6145953" lon="10.2321598"><ele>537.0</ele><time>2026-04-12T14:09:20.944Z</time></trkpt><trkpt lat="44.6146587" lon="10.2322556"><ele>535.0</ele><time>2026-04-12T14:09:21.945Z</time></trkpt><trkpt lat="44.6147145" lon="10.2323472"><ele>533.0</ele><time>2026-04-12T14:09:22.945Z</time></trkpt><trkpt lat="44.6147581" lon="10.2324226"><ele>531.0</ele><time>2026-04-12T14:09:23.945Z</time></trkpt><trkpt lat="44.614828" lon="10.2325561"><ele>529.0</ele><time>2026-04-12T14:09:25.944Z</time></trkpt><trkpt lat="44.6149187" lon="10.2326336"><ele>527.0</ele><time>2026-04-12T14:09:27.945Z</time></trkpt><trkpt lat="44.6150117" lon="10.2326259"><ele>527.0</ele><time>2026-04-12T14:09:29.944Z</time></trkpt><trkpt lat="44.6151029" lon="10.2326034"><ele>527.0</ele><time>2026-04-12T14:09:31.945Z</time></trkpt><trkpt lat="44.6152002" lon="10.2326034"><ele>527.0</ele><time>2026-04-12T14:09:33.943Z</time></trkpt><trkpt lat="44.6153126" lon="10.2326044"><ele>527.0</ele><time>2026-04-12T14:09:35.944Z</time></trkpt><trkpt lat="44.6154283" lon="10.2326014"><ele>527.0</ele><time>2026-04-12T14:09:37.944Z</time></trkpt><trkpt lat="44.6155283" lon="10.2325853"><ele>530.0</ele><time>2026-04-12T14:09:39.945Z</time></trkpt><trkpt lat="44.6156053" lon="10.2325447"><ele>533.0</ele><time>2026-04-12T14:09:41.944Z</time></trkpt><trkpt lat="44.6156786" lon="10.2324547"><ele>536.0</ele><time>2026-04-12T14:09:44.945Z</time></trkpt><trkpt lat="44.6157399" lon="10.2324345"><ele>539.0</ele><time>2026-04-12T14:09:47.944Z</time></trkpt><trkpt lat="44.6156763" lon="10.2325275"><ele>542.0</ele><time>2026-04-12T14:10:02.944Z</time></trkpt><trkpt lat="44.6156015" lon="10.2325995"><ele>545.0</ele><time>2026-04-12T14:10:04.945Z</time></trkpt><trkpt lat="44.6154986" lon="10.2326432"><ele>545.0</ele><time>2026-04-12T14:10:06.944Z</time></trkpt><trkpt lat="44.6154131" lon="10.2326112"><ele>545.0</ele><time>2026-04-12T14:10:08.945Z</time></trkpt><trkpt lat="44.6154085" lon="10.2324774"><ele>545.0</ele><time>2026-04-12T14:10:10.944Z</time></trkpt><trkpt lat="44.615429" lon="10.2323902"><ele>545.0</ele><time>2026-04-12T14:10:11.944Z</time></trkpt><trkpt lat="44.6154589" lon="10.2322919"><ele>545.0</ele><time>2026-04-12T14:10:12.945Z</time></trkpt><trkpt lat="44.6154937" lon="10.2321817"><ele>545.0</ele><time>2026-04-12T14:10:13.944Z</time></trkpt><trkpt lat="44.6155292" lon="10.2320789"><ele>546.5</ele><time>2026-04-12T14:10:14.943Z</time></trkpt><trkpt lat="44.6155685" lon="10.2319843"><ele>548.0</ele><time>2026-04-12T14:10:15.944Z</time></trkpt><trkpt lat="44.6156107" lon="10.2318962"><ele>549.5</ele><time>2026-04-12T14:10:16.944Z</time></trkpt><trkpt lat="44.6156576" lon="10.2318097"><ele>551.0</ele><time>2026-04-12T14:10:17.944Z</time></trkpt><trkpt lat="44.6157037" lon="10.2317146"><ele>552.5</ele><time>2026-04-12T14:10:18.945Z</time></trkpt><trkpt lat="44.6157448" lon="10.2316239"><ele>554.0</ele><time>2026-04-12T14:10:19.945Z</time></trkpt><trkpt lat="44.6157662" lon="10.2314784"><ele>554.0</ele><time>2026-04-12T14:10:21.945Z</time></trkpt><trkpt lat="44.615765" lon="10.2313831"><ele>554.0</ele><time>2026-04-12T14:10:23.944Z</time></trkpt><trkpt lat="44.6158296" lon="10.2314046"><ele>554.0</ele><time>2026-04-12T14:10:28.944Z</time></trkpt><trkpt lat="44.6158875" lon="10.2314715"><ele>554.0</ele><time>2026-04-12T14:10:30.945Z</time></trkpt><trkpt lat="44.6160049" lon="10.2315515"><ele>554.0</ele><time>2026-04-12T14:10:32.945Z</time></trkpt><trkpt lat="44.6160602" lon="10.2316165"><ele>554.0</ele><time>2026-04-12T14:10:33.945Z</time></trkpt><trkpt lat="44.6161217" lon="10.23169"><ele>557.5</ele><time>2026-04-12T14:10:34.944Z</time></trkpt><trkpt lat="44.6161877" lon="10.2317756"><ele>561.0</ele><time>2026-04-12T14:10:35.945Z</time></trkpt><trkpt lat="44.6162525" lon="10.2318489"><ele>564.5</ele><time>2026-04-12T14:10:36.945Z</time></trkpt><trkpt lat="44.6163108" lon="10.2318983"><ele>568.0</ele><time>2026-04-12T14:10:37.945Z</time></trkpt><trkpt lat="44.6163997" lon="10.2319631"><ele>571.5</ele><time>2026-04-12T14:10:39.944Z</time></trkpt><trkpt lat="44.6164615" lon="10.2320162"><ele>575.0</ele><time>2026-04-12T14:10:41.945Z</time></trkpt><trkpt lat="44.6165341" lon="10.2320583"><ele>575.0</ele><time>2026-04-12T14:10:43.945Z</time></trkpt><trkpt lat="44.6166106" lon="10.2321014"><ele>575.0</ele><time>2026-04-12T14:10:45.943Z</time></trkpt><trkpt lat="44.6166879" lon="10.2321563"><ele>575.0</ele><time>2026-04-12T14:10:47.944Z</time></trkpt><trkpt lat="44.6167907" lon="10.2321807"><ele>575.0</ele><time>2026-04-12T14:10:49.945Z</time></trkpt><trkpt lat="44.6169026" lon="10.2322172"><ele>575.0</ele><time>2026-04-12T14:10:51.944Z</time></trkpt><trkpt lat="44.6170211" lon="10.2321998"><ele>576.8333333333333</ele><time>2026-04-12T14:10:53.945Z</time></trkpt><trkpt lat="44.6170935" lon="10.2321802"><ele>578.6666666666666</ele><time>2026-04-12T14:10:54.945Z</time></trkpt><trkpt lat="44.617161" lon="10.2321509"><ele>580.5</ele><time>2026-04-12T14:10:55.944Z</time></trkpt><trkpt lat="44.6172222" lon="10.2321001"><ele>582.3333333333334</ele><time>2026-04-12T14:10:56.944Z</time></trkpt><trkpt lat="44.6173058" lon="10.2320473"><ele>584.1666666666667</ele><time>2026-04-12T14:10:57.945Z</time></trkpt><trkpt lat="44.6174028" lon="10.2319991"><ele>586.0</ele><time>2026-04-12T14:10:58.945Z</time></trkpt><trkpt lat="44.6174814" lon="10.231929"><ele>586.0</ele><time>2026-04-12T14:10:59.944Z</time></trkpt><trkpt lat="44.6175689" lon="10.2318891"><ele>586.0</ele><time>2026-04-12T14:11:00.944Z</time></trkpt><trkpt lat="44.6176584" lon="10.2318441"><ele>586.0</ele><time>2026-04-12T14:11:01.945Z</time></trkpt><trkpt lat="44.6177435" lon="10.2318071"><ele>586.0</ele><time>2026-04-12T14:11:02.944Z</time></trkpt><trkpt lat="44.6178396" lon="10.2317665"><ele>586.0</ele><time>2026-04-12T14:11:03.943Z</time></trkpt><trkpt lat="44.6179148" lon="10.2317257"><ele>583.2857142857142</ele><time>2026-04-12T14:11:04.945Z</time></trkpt><trkpt lat="44.6179857" lon="10.2317132"><ele>580.5714285714286</ele><time>2026-04-12T14:11:05.945Z</time></trkpt><trkpt lat="44.6180559" lon="10.2316942"><ele>577.8571428571429</ele><time>2026-04-12T14:11:06.944Z</time></trkpt><trkpt lat="44.6181157" lon="10.2317509"><ele>575.1428571428571</ele><time>2026-04-12T14:11:08.945Z</time></trkpt><trkpt lat="44.6181836" lon="10.231794"><ele>572.4285714285714</ele><time>2026-04-12T14:11:09.944Z</time></trkpt><trkpt lat="44.6182498" lon="10.2318352"><ele>569.7142857142857</ele><time>2026-04-12T14:11:10.944Z</time></trkpt><trkpt lat="44.6183181" lon="10.2318789"><ele>567.0</ele><time>2026-04-12T14:11:11.945Z</time></trkpt><trkpt lat="44.618401" lon="10.2319815"><ele>567.0</ele><time>2026-04-12T14:11:13.944Z</time></trkpt><trkpt lat="44.6185036" lon="10.2319212"><ele>567.0</ele><time>2026-04-12T14:11:15.944Z</time></trkpt><trkpt lat="44.6185974" lon="10.2318401"><ele>567.0</ele><time>2026-04-12T14:11:17.945Z</time></trkpt><trkpt lat="44.6186372" lon="10.231754"><ele>567.0</ele><time>2026-04-12T14:11:19.944Z</time></trkpt><trkpt lat="44.6186263" lon="10.2316506"><ele>567.0</ele><time>2026-04-12T14:11:20.945Z</time></trkpt><trkpt lat="44.61858" lon="10.2315872"><ele>567.0</ele><time>2026-04-12T14:11:21.944Z</time></trkpt><trkpt lat="44.6185104" lon="10.2314727"><ele>567.0</ele><time>2026-04-12T14:11:23.945Z</time></trkpt><trkpt lat="44.6184424" lon="10.2313345"><ele>567.0</ele><time>2026-04-12T14:11:25.944Z</time></trkpt><trkpt lat="44.6184178" lon="10.23125"><ele>567.0</ele><time>2026-04-12T14:11:26.945Z</time></trkpt><trkpt lat="44.6184933" lon="10.2311412"><ele>567.0</ele><time>2026-04-12T14:11:28.944Z</time></trkpt><trkpt lat="44.618572" lon="10.2311725"><ele>567.0</ele><time>2026-04-12T14:11:30.944Z</time></trkpt><trkpt lat="44.6186585" lon="10.2312491"><ele>562.2</ele><time>2026-04-12T14:11:32.944Z</time></trkpt><trkpt lat="44.6187499" lon="10.2312988"><ele>557.4000000000001</ele><time>2026-04-12T14:11:34.945Z</time></trkpt><trkpt lat="44.6188597" lon="10.2313159"><ele>552.5999999999999</ele><time>2026-04-12T14:11:36.944Z</time></trkpt><trkpt lat="44.6189566" lon="10.2312819"><ele>547.8</ele><time>2026-04-12T14:11:38.944Z</time></trkpt><trkpt lat="44.6190492" lon="10.231182"><ele>543.0</ele><time>2026-04-12T14:11:40.945Z</time></trkpt><trkpt lat="44.6190845" lon="10.2310985"><ele>543.0</ele><time>2026-04-12T14:11:41.944Z</time></trkpt><trkpt lat="44.619123" lon="10.2310273"><ele>543.0</ele><time>2026-04-12T14:11:42.945Z</time></trkpt><trkpt lat="44.6191657" lon="10.2309528"><ele>543.0</ele><time>2026-04-12T14:11:43.944Z</time></trkpt><trkpt lat="44.6192119" lon="10.2308739"><ele>543.0</ele><time>2026-04-12T14:11:44.945Z</time></trkpt><trkpt lat="44.6192726" lon="10.2307948"><ele>543.0</ele><time>2026-04-12T14:11:45.944Z</time></trkpt><trkpt lat="44.6193437" lon="10.2307163"><ele>543.0</ele><time>2026-04-12T14:11:46.945Z</time></trkpt><trkpt lat="44.6193801" lon="10.2306375"><ele>543.0</ele><time>2026-04-12T14:11:47.945Z</time></trkpt><trkpt lat="44.619395" lon="10.2305191"><ele>543.3333333333334</ele><time>2026-04-12T14:11:48.945Z</time></trkpt><trkpt lat="44.6194171" lon="10.230427"><ele>543.6666666666666</ele><time>2026-04-12T14:11:49.944Z</time></trkpt><trkpt lat="44.6194792" lon="10.2302915"><ele>544.0</ele><time>2026-04-12T14:11:51.944Z</time></trkpt><trkpt lat="44.6195121" lon="10.2302096"><ele>544.3333333333333</ele><time>2026-04-12T14:11:52.945Z</time></trkpt><trkpt lat="44.6195573" lon="10.2301288"><ele>544.6666666666666</ele><time>2026-04-12T14:11:53.945Z</time></trkpt><trkpt lat="44.6196029" lon="10.230033"><ele>545.0</ele><time>2026-04-12T14:11:54.945Z</time></trkpt><trkpt lat="44.6197097" lon="10.2299351"><ele>545.1666666666666</ele><time>2026-04-12T14:11:56.944Z</time></trkpt><trkpt lat="44.6197909" lon="10.2299013"><ele>545.3333333333333</ele><time>2026-04-12T14:11:58.945Z</time></trkpt><trkpt lat="44.6198541" lon="10.2299258"><ele>545.5</ele><time>2026-04-12T14:12:00.945Z</time></trkpt><trkpt lat="44.6198969" lon="10.2300187"><ele>545.6666666666666</ele><time>2026-04-12T14:12:03.944Z</time></trkpt><trkpt lat="44.6199342" lon="10.2301299"><ele>545.8333333333334</ele><time>2026-04-12T14:12:05.944Z</time></trkpt><trkpt lat="44.6200142" lon="10.2302638"><ele>546.0</ele><time>2026-04-12T14:12:07.945Z</time></trkpt><trkpt lat="44.6200647" lon="10.2303946"><ele>546.0</ele><time>2026-04-12T14:12:09.945Z</time></trkpt><trkpt lat="44.6200934" lon="10.2305881"><ele>546.0</ele><time>2026-04-12T14:12:11.944Z</time></trkpt><trkpt lat="44.620112" lon="10.230701"><ele>546.0</ele><time>2026-04-12T14:12:12.944Z</time></trkpt><trkpt lat="44.6201595" lon="10.2308714"><ele>546.0</ele><time>2026-04-12T14:12:14.945Z</time></trkpt><trkpt lat="44.6202128" lon="10.2309734"><ele>546.0</ele><time>2026-04-12T14:12:15.945Z</time></trkpt><trkpt lat="44.6202623" lon="10.2311066"><ele>545.3333333333334</ele><time>2026-04-12T14:12:16.944Z</time></trkpt><trkpt lat="44.6202931" lon="10.2311939"><ele>544.6666666666666</ele><time>2026-04-12T14:12:17.945Z</time></trkpt><trkpt lat="44.6203193" lon="10.2312817"><ele>544.0</ele><time>2026-04-12T14:12:18.945Z</time></trkpt><trkpt lat="44.6203572" lon="10.2313727"><ele>543.3333333333333</ele><time>2026-04-12T14:12:19.944Z</time></trkpt><trkpt lat="44.6204282" lon="10.2313998"><ele>542.6666666666666</ele><time>2026-04-12T14:12:20.945Z</time></trkpt><trkpt lat="44.6204814" lon="10.2314723"><ele>542.0</ele><time>2026-04-12T14:12:21.944Z</time></trkpt><trkpt lat="44.6205997" lon="10.2315622"><ele>544.2</ele><time>2026-04-12T14:12:22.945Z</time></trkpt><trkpt lat="44.620703" lon="10.2316621"><ele>546.4000000000001</ele><time>2026-04-12T14:12:23.944Z</time></trkpt><trkpt lat="44.6208023" lon="10.2317446"><ele>548.5999999999999</ele><time>2026-04-12T14:12:24.945Z</time></trkpt><trkpt lat="44.6208946" lon="10.2318306"><ele>550.8</ele><time>2026-04-12T14:12:25.944Z</time></trkpt><trkpt lat="44.6209691" lon="10.2318913"><ele>553.0</ele><time>2026-04-12T14:12:26.944Z</time></trkpt><trkpt lat="44.6210416" lon="10.2319582"><ele>553.0</ele><time>2026-04-12T14:12:27.944Z</time></trkpt><trkpt lat="44.621106" lon="10.23199"><ele>553.0</ele><time>2026-04-12T14:12:28.945Z</time></trkpt><trkpt lat="44.6211826" lon="10.2320197"><ele>553.0</ele><time>2026-04-12T14:12:29.945Z</time></trkpt><trkpt lat="44.6212703" lon="10.2320482"><ele>553.0</ele><time>2026-04-12T14:12:30.945Z</time></trkpt><trkpt lat="44.6213651" lon="10.2320714"><ele>553.0</ele><time>2026-04-12T14:12:31.945Z</time></trkpt><trkpt lat="44.6214572" lon="10.2320989"><ele>553.0</ele><time>2026-04-12T14:12:32.944Z</time></trkpt><trkpt lat="44.6215489" lon="10.2321609"><ele>552.8333333333334</ele><time>2026-04-12T14:12:33.944Z</time></trkpt><trkpt lat="44.6216267" lon="10.2322385"><ele>552.6666666666667</ele><time>2026-04-12T14:12:34.945Z</time></trkpt><trkpt lat="44.6217081" lon="10.2322924"><ele>552.5</ele><time>2026-04-12T14:12:35.944Z</time></trkpt><trkpt lat="44.6217812" lon="10.2323276"><ele>552.3333333333334</ele><time>2026-04-12T14:12:36.943Z</time></trkpt><trkpt lat="44.6218614" lon="10.232365"><ele>552.1666666666666</ele><time>2026-04-12T14:12:37.944Z</time></trkpt><trkpt lat="44.6219472" lon="10.2324094"><ele>552.0</ele><time>2026-04-12T14:12:38.944Z</time></trkpt><trkpt lat="44.6220446" lon="10.2324781"><ele>553.4</ele><time>2026-04-12T14:12:39.944Z</time></trkpt><trkpt lat="44.6221387" lon="10.2325571"><ele>554.8000000000001</ele><time>2026-04-12T14:12:40.944Z</time></trkpt><trkpt lat="44.6222283" lon="10.2326311"><ele>556.2</ele><time>2026-04-12T14:12:41.944Z</time></trkpt><trkpt lat="44.6223131" lon="10.2327071"><ele>557.6</ele><time>2026-04-12T14:12:42.945Z</time></trkpt><trkpt lat="44.6223853" lon="10.2327515"><ele>559.0</ele><time>2026-04-12T14:12:43.944Z</time></trkpt><trkpt lat="44.6224696" lon="10.2327818"><ele>559.0</ele><time>2026-04-12T14:12:44.945Z</time></trkpt><trkpt lat="44.6225437" lon="10.2327903"><ele>559.0</ele><time>2026-04-12T14:12:45.944Z</time></trkpt><trkpt lat="44.6226303" lon="10.2327867"><ele>559.0</ele><time>2026-04-12T14:12:46.944Z</time></trkpt><trkpt lat="44.6227254" lon="10.2327797"><ele>559.0</ele><time>2026-04-12T14:12:47.945Z</time></trkpt><trkpt lat="44.6228182" lon="10.2327733"><ele>559.0</ele><time>2026-04-12T14:12:48.943Z</time></trkpt><trkpt lat="44.6229187" lon="10.2327776"><ele>560.8</ele><time>2026-04-12T14:12:49.944Z</time></trkpt><trkpt lat="44.6230064" lon="10.2327854"><ele>562.5999999999999</ele><time>2026-04-12T14:12:50.944Z</time></trkpt><trkpt lat="44.6231056" lon="10.2327916"><ele>564.4</ele><time>2026-04-12T14:12:51.945Z</time></trkpt><trkpt lat="44.6231973" lon="10.2328041"><ele>566.1999999999999</ele><time>2026-04-12T14:12:52.945Z</time></trkpt><trkpt lat="44.6232844" lon="10.2327818"><ele>568.0</ele><time>2026-04-12T14:12:53.944Z</time></trkpt><trkpt lat="44.6234101" lon="10.232751"><ele>568.0</ele><time>2026-04-12T14:12:54.945Z</time></trkpt><trkpt lat="44.6234979" lon="10.232738"><ele>568.0</ele><time>2026-04-12T14:12:55.945Z</time></trkpt><trkpt lat="44.6235911" lon="10.232718"><ele>568.0</ele><time>2026-04-12T14:12:56.944Z</time></trkpt><trkpt lat="44.6236663" lon="10.2326818"><ele>568.0</ele><time>2026-04-12T14:12:57.945Z</time></trkpt><trkpt lat="44.6237507" lon="10.2326522"><ele>568.0</ele><time>2026-04-12T14:12:58.944Z</time></trkpt><trkpt lat="44.6238558" lon="10.2326624"><ele>569.8333333333334</ele><time>2026-04-12T14:13:00.945Z</time></trkpt><trkpt lat="44.6239508" lon="10.2327201"><ele>571.6666666666667</ele><time>2026-04-12T14:13:02.944Z</time></trkpt><trkpt lat="44.6240088" lon="10.2327646"><ele>573.5</ele><time>2026-04-12T14:13:03.944Z</time></trkpt><trkpt lat="44.6240833" lon="10.2328239"><ele>575.3333333333334</ele><time>2026-04-12T14:13:05.944Z</time></trkpt><trkpt lat="44.6241443" lon="10.2328757"><ele>577.1666666666666</ele><time>2026-04-12T14:13:07.944Z</time></trkpt><trkpt lat="44.6242254" lon="10.2329669"><ele>579.0</ele><time>2026-04-12T14:13:09.944Z</time></trkpt><trkpt lat="44.6243438" lon="10.2330522"><ele>579.0</ele><time>2026-04-12T14:13:11.944Z</time></trkpt><trkpt lat="44.6244167" lon="10.2331026"><ele>579.0</ele><time>2026-04-12T14:13:12.944Z</time></trkpt><trkpt lat="44.6245067" lon="10.2331495"><ele>579.0</ele><time>2026-04-12T14:13:13.944Z</time></trkpt><trkpt lat="44.6246037" lon="10.2332064"><ele>579.0</ele><time>2026-04-12T14:13:14.945Z</time></trkpt><trkpt lat="44.6247051" lon="10.2332729"><ele>579.0</ele><time>2026-04-12T14:13:15.945Z</time></trkpt><trkpt lat="44.6248059" lon="10.2333578"><ele>577.4</ele><time>2026-04-12T14:13:16.944Z</time></trkpt><trkpt lat="44.6249048" lon="10.2334386"><ele>575.8</ele><time>2026-04-12T14:13:17.945Z</time></trkpt><trkpt lat="44.6250049" lon="10.2335303"><ele>574.2</ele><time>2026-04-12T14:13:18.945Z</time></trkpt><trkpt lat="44.6250717" lon="10.233609"><ele>572.6</ele><time>2026-04-12T14:13:19.944Z</time></trkpt><trkpt lat="44.6251366" lon="10.2336744"><ele>571.0</ele><time>2026-04-12T14:13:20.945Z</time></trkpt><trkpt lat="44.6251894" lon="10.233737"><ele>571.0</ele><time>2026-04-12T14:13:21.944Z</time></trkpt><trkpt lat="44.6252343" lon="10.2338403"><ele>571.0</ele><time>2026-04-12T14:13:23.944Z</time></trkpt><trkpt lat="44.6253004" lon="10.2338968"><ele>571.0</ele><time>2026-04-12T14:13:24.945Z</time></trkpt><trkpt lat="44.6253597" lon="10.2339626"><ele>571.0</ele><time>2026-04-12T14:13:25.945Z</time></trkpt><trkpt lat="44.6254728" lon="10.2340042"><ele>571.0</ele><time>2026-04-12T14:13:26.945Z</time></trkpt><trkpt lat="44.6255582" lon="10.2340484"><ele>571.0</ele><time>2026-04-12T14:13:27.945Z</time></trkpt><trkpt lat="44.6256381" lon="10.234082"><ele>570.1428571428571</ele><time>2026-04-12T14:13:28.945Z</time></trkpt><trkpt lat="44.6257183" lon="10.2341104"><ele>569.2857142857142</ele><time>2026-04-12T14:13:29.943Z</time></trkpt><trkpt lat="44.6257851" lon="10.2341202"><ele>568.4285714285713</ele><time>2026-04-12T14:13:30.944Z</time></trkpt><trkpt lat="44.6258484" lon="10.2341119"><ele>567.5714285714286</ele><time>2026-04-12T14:13:31.945Z</time></trkpt><trkpt lat="44.6259142" lon="10.2341302"><ele>566.7142857142857</ele><time>2026-04-12T14:13:32.945Z</time></trkpt><trkpt lat="44.6259927" lon="10.2341537"><ele>565.8571428571428</ele><time>2026-04-12T14:13:33.944Z</time></trkpt><trkpt lat="44.6260771" lon="10.2341916"><ele>565.0</ele><time>2026-04-12T14:13:34.945Z</time></trkpt><trkpt lat="44.6261554" lon="10.2342194"><ele>565.0</ele><time>2026-04-12T14:13:35.945Z</time></trkpt><trkpt lat="44.6262408" lon="10.2342506"><ele>565.0</ele><time>2026-04-12T14:13:36.944Z</time></trkpt><trkpt lat="44.6263213" lon="10.234261"><ele>565.0</ele><time>2026-04-12T14:13:37.944Z</time></trkpt><trkpt lat="44.6264325" lon="10.2342451"><ele>565.0</ele><time>2026-04-12T14:13:38.944Z</time></trkpt><trkpt lat="44.6265401" lon="10.2342469"><ele>565.0</ele><time>2026-04-12T14:13:39.944Z</time></trkpt><trkpt lat="44.6266453" lon="10.2342759"><ele>565.0</ele><time>2026-04-12T14:13:40.943Z</time></trkpt><trkpt lat="44.626746" lon="10.2343096"><ele>565.0</ele><time>2026-04-12T14:13:41.944Z</time></trkpt><trkpt lat="44.6268536" lon="10.2343336"><ele>565.0</ele><time>2026-04-12T14:13:42.944Z</time></trkpt><trkpt lat="44.6269513" lon="10.2343561"><ele>565.0</ele><time>2026-04-12T14:13:43.944Z</time></trkpt><trkpt lat="44.6270424" lon="10.2343321"><ele>565.0</ele><time>2026-04-12T14:13:44.944Z</time></trkpt><trkpt lat="44.6271351" lon="10.2342994"><ele>565.0</ele><time>2026-04-12T14:13:45.945Z</time></trkpt><trkpt lat="44.6272197" lon="10.2342827"><ele>565.0</ele><time>2026-04-12T14:13:46.945Z</time></trkpt><trkpt lat="44.6272844" lon="10.2341687"><ele>565.0</ele><time>2026-04-12T14:13:47.944Z</time></trkpt><trkpt lat="44.6273666" lon="10.2341052"><ele>565.0</ele><time>2026-04-12T14:13:48.944Z</time></trkpt><trkpt lat="44.6274688" lon="10.2340571"><ele>565.0</ele><time>2026-04-12T14:13:49.945Z</time></trkpt><trkpt lat="44.6275571" lon="10.2340011"><ele>565.0</ele><time>2026-04-12T14:13:50.945Z</time></trkpt><trkpt lat="44.6276651" lon="10.2339769"><ele>565.0</ele><time>2026-04-12T14:13:51.945Z</time></trkpt><trkpt lat="44.6277325" lon="10.23398"><ele>565.0</ele><time>2026-04-12T14:13:52.945Z</time></trkpt><trkpt lat="44.6278186" lon="10.2339671"><ele>565.0</ele><time>2026-04-12T14:13:53.944Z</time></trkpt><trkpt lat="44.6279177" lon="10.2339236"><ele>565.0</ele><time>2026-04-12T14:13:54.944Z</time></trkpt><trkpt lat="44.6280205" lon="10.2338882"><ele>565.2</ele><time>2026-04-12T14:13:55.943Z</time></trkpt><trkpt lat="44.6280935" lon="10.2338754"><ele>565.4</ele><time>2026-04-12T14:13:56.943Z</time></trkpt><trkpt lat="44.6281804" lon="10.2338435"><ele>565.6</ele><time>2026-04-12T14:13:57.944Z</time></trkpt><trkpt lat="44.6282942" lon="10.2337495"><ele>565.8</ele><time>2026-04-12T14:13:59.944Z</time></trkpt><trkpt lat="44.628362" lon="10.2336988"><ele>566.0</ele><time>2026-04-12T14:14:00.944Z</time></trkpt><trkpt lat="44.6284294" lon="10.2335875"><ele>566.0</ele><time>2026-04-12T14:14:01.945Z</time></trkpt><trkpt lat="44.6285112" lon="10.2334402"><ele>566.0</ele><time>2026-04-12T14:14:02.945Z</time></trkpt><trkpt lat="44.6285922" lon="10.2333413"><ele>566.0</ele><time>2026-04-12T14:14:03.945Z</time></trkpt><trkpt lat="44.6286653" lon="10.2332063"><ele>566.0</ele><time>2026-04-12T14:14:04.945Z</time></trkpt><trkpt lat="44.6287319" lon="10.2331247"><ele>566.0</ele><time>2026-04-12T14:14:05.945Z</time></trkpt><trkpt lat="44.6288261" lon="10.2330717"><ele>562.2</ele><time>2026-04-12T14:14:06.944Z</time></trkpt><trkpt lat="44.6289108" lon="10.2329986"><ele>558.4000000000001</ele><time>2026-04-12T14:14:07.945Z</time></trkpt><trkpt lat="44.628999" lon="10.2329503"><ele>554.6</ele><time>2026-04-12T14:14:08.944Z</time></trkpt><trkpt lat="44.6290816" lon="10.2328877"><ele>550.8000000000001</ele><time>2026-04-12T14:14:09.945Z</time></trkpt><trkpt lat="44.6291441" lon="10.2328444"><ele>547.0</ele><time>2026-04-12T14:14:10.945Z</time></trkpt><trkpt lat="44.6292386" lon="10.232737"><ele>547.0</ele><time>2026-04-12T14:14:12.944Z</time></trkpt><trkpt lat="44.6292973" lon="10.2326403"><ele>547.0</ele><time>2026-04-12T14:14:13.944Z</time></trkpt><trkpt lat="44.6293679" lon="10.2325376"><ele>547.0</ele><time>2026-04-12T14:14:14.943Z</time></trkpt><trkpt lat="44.6294412" lon="10.2324195"><ele>547.0</ele><time>2026-04-12T14:14:15.945Z</time></trkpt><trkpt lat="44.6295373" lon="10.2323078"><ele>547.0</ele><time>2026-04-12T14:14:16.945Z</time></trkpt><trkpt lat="44.6296133" lon="10.2322178"><ele>543.0</ele><time>2026-04-12T14:14:17.945Z</time></trkpt><trkpt lat="44.6296983" lon="10.2321179"><ele>539.0</ele><time>2026-04-12T14:14:18.945Z</time></trkpt><trkpt lat="44.6297527" lon="10.2320046"><ele>535.0</ele><time>2026-04-12T14:14:19.945Z</time></trkpt><trkpt lat="44.6297806" lon="10.2319043"><ele>531.0</ele><time>2026-04-12T14:14:20.944Z</time></trkpt><trkpt lat="44.6298228" lon="10.2318177"><ele>527.0</ele><time>2026-04-12T14:14:21.945Z</time></trkpt><trkpt lat="44.6298674" lon="10.2317393"><ele>523.0</ele><time>2026-04-12T14:14:22.945Z</time></trkpt><trkpt lat="44.6299325" lon="10.2316212"><ele>523.0</ele><time>2026-04-12T14:14:24.945Z</time></trkpt><trkpt lat="44.6299781" lon="10.2315433"><ele>523.0</ele><time>2026-04-12T14:16:18.944Z</time></trkpt><trkpt lat="44.6300517" lon="10.2315866"><ele>523.0</ele><time>2026-04-12T14:16:21.945Z</time></trkpt><trkpt lat="44.6300969" lon="10.2317085"><ele>523.0</ele><time>2026-04-12T14:16:23.945Z</time></trkpt><trkpt lat="44.6301706" lon="10.2318313"><ele>523.0</ele><time>2026-04-12T14:16:25.945Z</time></trkpt><trkpt lat="44.630253" lon="10.2319607"><ele>523.0</ele><time>2026-04-12T14:16:27.945Z</time></trkpt><trkpt lat="44.6302999" lon="10.2320378"><ele>523.0</ele><time>2026-04-12T14:16:28.945Z</time></trkpt><trkpt lat="44.6303526" lon="10.2321212"><ele>523.0</ele><time>2026-04-12T14:16:29.945Z</time></trkpt><trkpt lat="44.6304108" lon="10.2322089"><ele>523.0</ele><time>2026-04-12T14:16:30.943Z</time></trkpt><trkpt lat="44.630476" lon="10.232298"><ele>523.0</ele><time>2026-04-12T14:16:31.945Z</time></trkpt><trkpt lat="44.6305452" lon="10.2323875"><ele>523.0</ele><time>2026-04-12T14:16:32.945Z</time></trkpt><trkpt lat="44.6306204" lon="10.2324704"><ele>520.1999999999999</ele><time>2026-04-12T14:16:33.945Z</time></trkpt><trkpt lat="44.6306959" lon="10.2325599"><ele>517.4</ele><time>2026-04-12T14:16:34.945Z</time></trkpt><trkpt lat="44.6307726" lon="10.2326425"><ele>514.5999999999999</ele><time>2026-04-12T14:16:35.945Z</time></trkpt><trkpt lat="44.6308501" lon="10.2327267"><ele>511.79999999999995</ele><time>2026-04-12T14:16:36.944Z</time></trkpt><trkpt lat="44.630927" lon="10.2328045"><ele>509.0</ele><time>2026-04-12T14:16:37.944Z</time></trkpt><trkpt lat="44.6310021" lon="10.2328792"><ele>509.0</ele><time>2026-04-12T14:16:38.943Z</time></trkpt><trkpt lat="44.6310743" lon="10.2329509"><ele>509.0</ele><time>2026-04-12T14:16:39.945Z</time></trkpt><trkpt lat="44.631142" lon="10.2330193"><ele>509.0</ele><time>2026-04-12T14:16:40.944Z</time></trkpt><trkpt lat="44.6312115" lon="10.2330949"><ele>509.0</ele><time>2026-04-12T14:16:41.944Z</time></trkpt><trkpt lat="44.6312862" lon="10.2331736"><ele>509.0</ele><time>2026-04-12T14:16:42.944Z</time></trkpt><trkpt lat="44.6313648" lon="10.2332564"><ele>505.25</ele><time>2026-04-12T14:16:43.944Z</time></trkpt><trkpt lat="44.6314495" lon="10.2333462"><ele>501.5</ele><time>2026-04-12T14:16:44.943Z</time></trkpt><trkpt lat="44.6315404" lon="10.2334462"><ele>497.75</ele><time>2026-04-12T14:16:45.945Z</time></trkpt><trkpt lat="44.6316352" lon="10.2335358"><ele>494.0</ele><time>2026-04-12T14:16:46.945Z</time></trkpt><trkpt lat="44.6317282" lon="10.2336291"><ele>494.0</ele><time>2026-04-12T14:16:47.944Z</time></trkpt><trkpt lat="44.6318185" lon="10.2337177"><ele>494.0</ele><time>2026-04-12T14:16:48.944Z</time></trkpt><trkpt lat="44.6319081" lon="10.2338092"><ele>494.0</ele><time>2026-04-12T14:16:49.945Z</time></trkpt><trkpt lat="44.632002" lon="10.2339003"><ele>494.0</ele><time>2026-04-12T14:16:50.945Z</time></trkpt><trkpt lat="44.6320931" lon="10.2339871"><ele>494.0</ele><time>2026-04-12T14:16:51.945Z</time></trkpt><trkpt lat="44.6321818" lon="10.2340707"><ele>491.0</ele><time>2026-04-12T14:16:52.945Z</time></trkpt><trkpt lat="44.6322723" lon="10.2341504"><ele>488.0</ele><time>2026-04-12T14:16:53.944Z</time></trkpt><trkpt lat="44.6323569" lon="10.2342287"><ele>485.0</ele><time>2026-04-12T14:16:54.944Z</time></trkpt><trkpt lat="44.6324334" lon="10.2342988"><ele>482.0</ele><time>2026-04-12T14:16:55.944Z</time></trkpt><trkpt lat="44.632517" lon="10.2343604"><ele>479.0</ele><time>2026-04-12T14:16:56.944Z</time></trkpt><trkpt lat="44.6326129" lon="10.2344124"><ele>479.0</ele><time>2026-04-12T14:16:57.944Z</time></trkpt><trkpt lat="44.6327091" lon="10.2344668"><ele>479.0</ele><time>2026-04-12T14:16:58.944Z</time></trkpt><trkpt lat="44.6328128" lon="10.2345273"><ele>479.0</ele><time>2026-04-12T14:16:59.945Z</time></trkpt><trkpt lat="44.632923" lon="10.2345783"><ele>479.0</ele><time>2026-04-12T14:17:00.945Z</time></trkpt><trkpt lat="44.6330279" lon="10.2346278"><ele>479.0</ele><time>2026-04-12T14:17:01.944Z</time></trkpt><trkpt lat="44.6331274" lon="10.2346774"><ele>476.4</ele><time>2026-04-12T14:17:02.944Z</time></trkpt><trkpt lat="44.6332232" lon="10.2347136"><ele>473.79999999999995</ele><time>2026-04-12T14:17:03.944Z</time></trkpt><trkpt lat="44.6333125" lon="10.2347257"><ele>471.20000000000005</ele><time>2026-04-12T14:17:04.943Z</time></trkpt><trkpt lat="44.6334044" lon="10.2347196"><ele>468.6</ele><time>2026-04-12T14:17:05.945Z</time></trkpt><trkpt lat="44.6334948" lon="10.2346838"><ele>466.0</ele><time>2026-04-12T14:17:06.945Z</time></trkpt><trkpt lat="44.6335899" lon="10.2346394"><ele>464.0</ele><time>2026-04-12T14:17:07.944Z</time></trkpt><trkpt lat="44.6336883" lon="10.2345922"><ele>462.0</ele><time>2026-04-12T14:17:08.944Z</time></trkpt><trkpt lat="44.6337891" lon="10.234547"><ele>460.0</ele><time>2026-04-12T14:17:09.944Z</time></trkpt><trkpt lat="44.6338943" lon="10.2345177"><ele>458.0</ele><time>2026-04-12T14:17:10.945Z</time></trkpt><trkpt lat="44.6340002" lon="10.2345079"><ele>456.0</ele><time>2026-04-12T14:17:11.944Z</time></trkpt><trkpt lat="44.6341036" lon="10.2345359"><ele>456.0</ele><time>2026-04-12T14:17:12.944Z</time></trkpt><trkpt lat="44.634196" lon="10.2345889"><ele>456.0</ele><time>2026-04-12T14:17:13.944Z</time></trkpt><trkpt lat="44.6342853" lon="10.2346497"><ele>456.0</ele><time>2026-04-12T14:17:14.945Z</time></trkpt><trkpt lat="44.634367" lon="10.2347199"><ele>456.0</ele><time>2026-04-12T14:17:15.945Z</time></trkpt><trkpt lat="44.6344496" lon="10.2347955"><ele>456.0</ele><time>2026-04-12T14:17:16.944Z</time></trkpt><trkpt lat="44.6345259" lon="10.234876"><ele>455.20000000000005</ele><time>2026-04-12T14:17:17.944Z</time></trkpt><trkpt lat="44.6345876" lon="10.234974"><ele>454.40000000000003</ele><time>2026-04-12T14:17:18.945Z</time></trkpt><trkpt lat="44.6346413" lon="10.2350836"><ele>453.6</ele><time>2026-04-12T14:17:19.943Z</time></trkpt><trkpt lat="44.6347014" lon="10.2351972"><ele>452.8</ele><time>2026-04-12T14:17:20.944Z</time></trkpt><trkpt lat="44.6347598" lon="10.2353163"><ele>452.0</ele><time>2026-04-12T14:17:21.945Z</time></trkpt><trkpt lat="44.6348098" lon="10.2354335"><ele>452.0</ele><time>2026-04-12T14:17:22.945Z</time></trkpt><trkpt lat="44.6348538" lon="10.2355532"><ele>452.00000000000006</ele><time>2026-04-12T14:17:23.944Z</time></trkpt><trkpt lat="44.6348915" lon="10.2356696"><ele>452.00000000000006</ele><time>2026-04-12T14:17:24.944Z</time></trkpt><trkpt lat="44.6349302" lon="10.235788"><ele>452.0</ele><time>2026-04-12T14:17:25.945Z</time></trkpt><trkpt lat="44.6349701" lon="10.2358962"><ele>452.0</ele><time>2026-04-12T14:17:26.945Z</time></trkpt><trkpt lat="44.6350255" lon="10.2360022"><ele>451.66666666666663</ele><time>2026-04-12T14:17:27.945Z</time></trkpt><trkpt lat="44.6350909" lon="10.2360791"><ele>451.3333333333333</ele><time>2026-04-12T14:17:28.944Z</time></trkpt><trkpt lat="44.6351522" lon="10.2361481"><ele>451.0</ele><time>2026-04-12T14:17:29.945Z</time></trkpt><trkpt lat="44.6352047" lon="10.2361978"><ele>450.66666666666663</ele><time>2026-04-12T14:17:30.944Z</time></trkpt><trkpt lat="44.635274" lon="10.2362713"><ele>450.3333333333333</ele><time>2026-04-12T14:17:32.944Z</time></trkpt><trkpt lat="44.6353502" lon="10.2363212"><ele>450.0</ele><time>2026-04-12T14:18:33.945Z</time></trkpt><trkpt lat="44.6354259" lon="10.2363966"><ele>448.6666666666667</ele><time>2026-04-12T14:18:35.944Z</time></trkpt><trkpt lat="44.635474" lon="10.2364595"><ele>447.33333333333337</ele><time>2026-04-12T14:18:36.945Z</time></trkpt><trkpt lat="44.6355203" lon="10.2365295"><ele>446.0</ele><time>2026-04-12T14:18:37.944Z</time></trkpt><trkpt lat="44.6355808" lon="10.2366163"><ele>444.6666666666667</ele><time>2026-04-12T14:18:38.944Z</time></trkpt><trkpt lat="44.635641" lon="10.2367005"><ele>443.33333333333337</ele><time>2026-04-12T14:18:39.945Z</time></trkpt><trkpt lat="44.6356987" lon="10.236784"><ele>442.0</ele><time>2026-04-12T14:18:40.944Z</time></trkpt><trkpt lat="44.6357579" lon="10.2368776"><ele>442.0</ele><time>2026-04-12T14:18:41.945Z</time></trkpt><trkpt lat="44.6358202" lon="10.2369801"><ele>442.00000000000006</ele><time>2026-04-12T14:18:42.945Z</time></trkpt><trkpt lat="44.6358834" lon="10.2370871"><ele>442.00000000000006</ele><time>2026-04-12T14:18:43.945Z</time></trkpt><trkpt lat="44.6359455" lon="10.2372041"><ele>442.0</ele><time>2026-04-12T14:18:44.945Z</time></trkpt><trkpt lat="44.6360103" lon="10.2373288"><ele>442.0</ele><time>2026-04-12T14:18:45.944Z</time></trkpt><trkpt lat="44.6360815" lon="10.2374599"><ele>441.5</ele><time>2026-04-12T14:18:46.944Z</time></trkpt><trkpt lat="44.6361615" lon="10.2375916"><ele>441.0</ele><time>2026-04-12T14:18:47.945Z</time></trkpt><trkpt lat="44.6362537" lon="10.2377177"><ele>440.5</ele><time>2026-04-12T14:18:48.944Z</time></trkpt><trkpt lat="44.636359" lon="10.2378301"><ele>440.0</ele><time>2026-04-12T14:18:49.943Z</time></trkpt><trkpt lat="44.6364709" lon="10.2379164"><ele>440.0</ele><time>2026-04-12T14:18:50.945Z</time></trkpt><trkpt lat="44.6365861" lon="10.2379953"><ele>440.0</ele><time>2026-04-12T14:18:51.943Z</time></trkpt><trkpt lat="44.636697" lon="10.2380841"><ele>440.0</ele><time>2026-04-12T14:18:52.945Z</time></trkpt><trkpt lat="44.6367993" lon="10.2381843"><ele>440.0</ele><time>2026-04-12T14:18:53.945Z</time></trkpt><trkpt lat="44.6368977" lon="10.2382852"><ele>440.2</ele><time>2026-04-12T14:18:54.945Z</time></trkpt><trkpt lat="44.6369923" lon="10.238369"><ele>440.4</ele><time>2026-04-12T14:18:55.944Z</time></trkpt><trkpt lat="44.6370879" lon="10.2384423"><ele>440.6</ele><time>2026-04-12T14:18:56.945Z</time></trkpt><trkpt lat="44.6371874" lon="10.2385096"><ele>440.8</ele><time>2026-04-12T14:18:57.945Z</time></trkpt><trkpt lat="44.6372851" lon="10.2385822"><ele>441.0</ele><time>2026-04-12T14:18:58.944Z</time></trkpt><trkpt lat="44.6373769" lon="10.2386765"><ele>441.0</ele><time>2026-04-12T14:18:59.944Z</time></trkpt><trkpt lat="44.6374562" lon="10.2387875"><ele>441.0</ele><time>2026-04-12T14:19:00.945Z</time></trkpt><trkpt lat="44.6375257" lon="10.2389095"><ele>441.0</ele><time>2026-04-12T14:19:01.944Z</time></trkpt><trkpt lat="44.6375941" lon="10.2390464"><ele>441.0</ele><time>2026-04-12T14:19:02.945Z</time></trkpt><trkpt lat="44.637666" lon="10.2391805"><ele>440.0</ele><time>2026-04-12T14:19:03.945Z</time></trkpt><trkpt lat="44.63774" lon="10.2393069"><ele>439.0</ele><time>2026-04-12T14:19:04.945Z</time></trkpt><trkpt lat="44.637816" lon="10.2394289"><ele>438.0</ele><time>2026-04-12T14:19:05.944Z</time></trkpt><trkpt lat="44.6378939" lon="10.239542"><ele>437.0</ele><time>2026-04-12T14:19:06.945Z</time></trkpt><trkpt lat="44.637978" lon="10.2396447"><ele>437.0</ele><time>2026-04-12T14:19:07.945Z</time></trkpt><trkpt lat="44.6380689" lon="10.239734"><ele>437.00000000000006</ele><time>2026-04-12T14:19:08.944Z</time></trkpt><trkpt lat="44.6381563" lon="10.2398164"><ele>437.00000000000006</ele><time>2026-04-12T14:19:09.944Z</time></trkpt><trkpt lat="44.638251" lon="10.2399076"><ele>437.0</ele><time>2026-04-12T14:19:10.944Z</time></trkpt><trkpt lat="44.6383302" lon="10.2400089"><ele>437.0</ele><time>2026-04-12T14:19:11.945Z</time></trkpt><trkpt lat="44.638408" lon="10.2401079"><ele>437.3333333333333</ele><time>2026-04-12T14:19:12.945Z</time></trkpt><trkpt lat="44.6384803" lon="10.2402119"><ele>437.66666666666663</ele><time>2026-04-12T14:19:13.944Z</time></trkpt><trkpt lat="44.6385384" lon="10.2403117"><ele>438.0</ele><time>2026-04-12T14:19:14.944Z</time></trkpt><trkpt lat="44.6385939" lon="10.2404018"><ele>438.33333333333337</ele><time>2026-04-12T14:19:15.945Z</time></trkpt><trkpt lat="44.6386493" lon="10.2404867"><ele>438.6666666666667</ele><time>2026-04-12T14:19:16.945Z</time></trkpt><trkpt lat="44.6387062" lon="10.2405634"><ele>439.0</ele><time>2026-04-12T14:19:17.945Z</time></trkpt><trkpt lat="44.6387591" lon="10.2406395"><ele>440.1666666666667</ele><time>2026-04-12T14:19:18.944Z</time></trkpt><trkpt lat="44.6388176" lon="10.2407087"><ele>441.33333333333337</ele><time>2026-04-12T14:19:19.944Z</time></trkpt><trkpt lat="44.6388811" lon="10.2407894"><ele>442.5</ele><time>2026-04-12T14:19:20.944Z</time></trkpt><trkpt lat="44.6389514" lon="10.2408666"><ele>443.66666666666663</ele><time>2026-04-12T14:19:21.944Z</time></trkpt><trkpt lat="44.6390296" lon="10.2409298"><ele>444.8333333333333</ele><time>2026-04-12T14:19:22.945Z</time></trkpt><trkpt lat="44.6391108" lon="10.2409973"><ele>446.0</ele><time>2026-04-12T14:19:23.945Z</time></trkpt><trkpt lat="44.639188" lon="10.2410658"><ele>445.99999999999994</ele><time>2026-04-12T14:19:24.944Z</time></trkpt><trkpt lat="44.6392606" lon="10.2411411"><ele>446.0</ele><time>2026-04-12T14:19:25.945Z</time></trkpt><trkpt lat="44.6393285" lon="10.2412207"><ele>446.0</ele><time>2026-04-12T14:19:26.945Z</time></trkpt><trkpt lat="44.6393928" lon="10.2413036"><ele>446.0</ele><time>2026-04-12T14:19:27.945Z</time></trkpt><trkpt lat="44.6394464" lon="10.2413913"><ele>445.99999999999994</ele><time>2026-04-12T14:19:28.945Z</time></trkpt><trkpt lat="44.6394861" lon="10.241489"><ele>446.0</ele><time>2026-04-12T14:19:29.944Z</time></trkpt><trkpt lat="44.6395105" lon="10.2415943"><ele>446.3333333333333</ele><time>2026-04-12T14:19:30.945Z</time></trkpt><trkpt lat="44.63953" lon="10.2417004"><ele>446.66666666666663</ele><time>2026-04-12T14:19:31.945Z</time></trkpt><trkpt lat="44.6395423" lon="10.2418147"><ele>447.0</ele><time>2026-04-12T14:19:32.944Z</time></trkpt><trkpt lat="44.6395642" lon="10.2419318"><ele>447.33333333333337</ele><time>2026-04-12T14:19:33.944Z</time></trkpt><trkpt lat="44.6395949" lon="10.2420579"><ele>447.6666666666667</ele><time>2026-04-12T14:19:34.945Z</time></trkpt><trkpt lat="44.6396368" lon="10.2421809"><ele>448.0</ele><time>2026-04-12T14:19:35.943Z</time></trkpt><trkpt lat="44.6396933" lon="10.2422949"><ele>447.4</ele><time>2026-04-12T14:19:36.943Z</time></trkpt><trkpt lat="44.6397588" lon="10.2424061"><ele>446.79999999999995</ele><time>2026-04-12T14:19:37.944Z</time></trkpt><trkpt lat="44.6398292" lon="10.2425232"><ele>446.2</ele><time>2026-04-12T14:19:38.944Z</time></trkpt><trkpt lat="44.6398945" lon="10.2426371"><ele>445.6</ele><time>2026-04-12T14:19:39.945Z</time></trkpt><trkpt lat="44.6399492" lon="10.2427568"><ele>445.0</ele><time>2026-04-12T14:19:40.944Z</time></trkpt><trkpt lat="44.6399978" lon="10.2428779"><ele>445.0</ele><time>2026-04-12T14:19:41.945Z</time></trkpt><trkpt lat="44.6400405" lon="10.2430008"><ele>445.0</ele><time>2026-04-12T14:19:42.945Z</time></trkpt><trkpt lat="44.6400824" lon="10.2431292"><ele>445.0</ele><time>2026-04-12T14:19:43.945Z</time></trkpt><trkpt lat="44.6401179" lon="10.2432524"><ele>445.0</ele><time>2026-04-12T14:19:44.944Z</time></trkpt><trkpt lat="44.6401514" lon="10.2433778"><ele>445.0</ele><time>2026-04-12T14:19:45.944Z</time></trkpt><trkpt lat="44.6401811" lon="10.2435082"><ele>443.6</ele><time>2026-04-12T14:19:46.944Z</time></trkpt><trkpt lat="44.6402051" lon="10.2436445"><ele>442.2</ele><time>2026-04-12T14:19:47.943Z</time></trkpt><trkpt lat="44.6402193" lon="10.2437894"><ele>440.79999999999995</ele><time>2026-04-12T14:19:48.945Z</time></trkpt><trkpt lat="44.6402291" lon="10.2439371"><ele>439.4</ele><time>2026-04-12T14:19:49.944Z</time></trkpt><trkpt lat="44.6402344" lon="10.2440823"><ele>438.0</ele><time>2026-04-12T14:19:50.945Z</time></trkpt><trkpt lat="44.6402416" lon="10.2442288"><ele>436.79999999999995</ele><time>2026-04-12T14:19:51.944Z</time></trkpt><trkpt lat="44.6402538" lon="10.2443807"><ele>435.59999999999997</ele><time>2026-04-12T14:19:52.943Z</time></trkpt><trkpt lat="44.6402636" lon="10.2445315"><ele>434.40000000000003</ele><time>2026-04-12T14:19:53.944Z</time></trkpt><trkpt lat="44.6402676" lon="10.244682"><ele>433.20000000000005</ele><time>2026-04-12T14:19:54.944Z</time></trkpt><trkpt lat="44.640266" lon="10.2448348"><ele>432.0</ele><time>2026-04-12T14:19:55.945Z</time></trkpt><trkpt lat="44.6402597" lon="10.2449894"><ele>430.5</ele><time>2026-04-12T14:19:56.945Z</time></trkpt><trkpt lat="44.6402512" lon="10.2451517"><ele>429.0</ele><time>2026-04-12T14:19:57.945Z</time></trkpt><trkpt lat="44.6402428" lon="10.2453161"><ele>427.5</ele><time>2026-04-12T14:19:58.943Z</time></trkpt><trkpt lat="44.6402333" lon="10.2454863"><ele>426.0</ele><time>2026-04-12T14:19:59.945Z</time></trkpt><trkpt lat="44.6402246" lon="10.2456544"><ele>425.25</ele><time>2026-04-12T14:20:00.945Z</time></trkpt><trkpt lat="44.6402164" lon="10.2458162"><ele>424.5</ele><time>2026-04-12T14:20:01.945Z</time></trkpt><trkpt lat="44.6402095" lon="10.2459794"><ele>423.75</ele><time>2026-04-12T14:20:02.945Z</time></trkpt><trkpt lat="44.6402108" lon="10.2461377"><ele>423.0</ele><time>2026-04-12T14:20:03.944Z</time></trkpt><trkpt lat="44.6402279" lon="10.2462881"><ele>423.0</ele><time>2026-04-12T14:20:04.945Z</time></trkpt><trkpt lat="44.6402603" lon="10.2464251"><ele>423.0</ele><time>2026-04-12T14:20:05.944Z</time></trkpt><trkpt lat="44.6403048" lon="10.246556"><ele>423.0</ele><time>2026-04-12T14:20:06.944Z</time></trkpt><trkpt lat="44.6403497" lon="10.2466871"><ele>423.0</ele><time>2026-04-12T14:20:07.944Z</time></trkpt><trkpt lat="44.6403997" lon="10.2467988"><ele>423.0</ele><time>2026-04-12T14:20:08.945Z</time></trkpt><trkpt lat="44.640439" lon="10.2469076"><ele>422.7142857142857</ele><time>2026-04-12T14:20:09.944Z</time></trkpt><trkpt lat="44.6404788" lon="10.2470028"><ele>422.42857142857144</ele><time>2026-04-12T14:20:10.945Z</time></trkpt><trkpt lat="44.64051" lon="10.2470962"><ele>422.14285714285717</ele><time>2026-04-12T14:20:11.945Z</time></trkpt><trkpt lat="44.6405395" lon="10.2471896"><ele>421.8571428571429</ele><time>2026-04-12T14:20:12.944Z</time></trkpt><trkpt lat="44.6405599" lon="10.247278"><ele>421.57142857142856</ele><time>2026-04-12T14:20:13.944Z</time></trkpt><trkpt lat="44.6405923" lon="10.2473777"><ele>421.28571428571433</ele><time>2026-04-12T14:20:14.944Z</time></trkpt><trkpt lat="44.6406194" lon="10.2474783"><ele>421.0</ele><time>2026-04-12T14:20:15.945Z</time></trkpt><trkpt lat="44.6406458" lon="10.2475898"><ele>421.00000000000006</ele><time>2026-04-12T14:20:16.944Z</time></trkpt><trkpt lat="44.6406736" lon="10.2477015"><ele>421.0</ele><time>2026-04-12T14:20:17.945Z</time></trkpt><trkpt lat="44.6406986" lon="10.2478135"><ele>421.0</ele><time>2026-04-12T14:20:18.944Z</time></trkpt><trkpt lat="44.6407237" lon="10.2479288"><ele>421.0</ele><time>2026-04-12T14:20:19.944Z</time></trkpt><trkpt lat="44.640753" lon="10.2480387"><ele>421.00000000000006</ele><time>2026-04-12T14:20:20.944Z</time></trkpt><trkpt lat="44.6407853" lon="10.2481501"><ele>421.0</ele><time>2026-04-12T14:20:21.944Z</time></trkpt><trkpt lat="44.6408171" lon="10.2482525"><ele>421.14285714285717</ele><time>2026-04-12T14:20:22.945Z</time></trkpt><trkpt lat="44.640846" lon="10.2483536"><ele>421.2857142857143</ele><time>2026-04-12T14:20:23.944Z</time></trkpt><trkpt lat="44.640878" lon="10.2484485"><ele>421.42857142857144</ele><time>2026-04-12T14:20:24.944Z</time></trkpt><trkpt lat="44.6409133" lon="10.2485339"><ele>421.57142857142856</ele><time>2026-04-12T14:20:25.945Z</time></trkpt><trkpt lat="44.6409486" lon="10.2486206"><ele>421.7142857142857</ele><time>2026-04-12T14:20:26.943Z</time></trkpt><trkpt lat="44.640983" lon="10.2487059"><ele>421.8571428571429</ele><time>2026-04-12T14:20:27.943Z</time></trkpt><trkpt lat="44.6410184" lon="10.2487873"><ele>422.0</ele><time>2026-04-12T14:20:28.945Z</time></trkpt><trkpt lat="44.6410535" lon="10.2488689"><ele>421.99999999999994</ele><time>2026-04-12T14:20:29.943Z</time></trkpt><trkpt lat="44.6410946" lon="10.248954"><ele>422.0</ele><time>2026-04-12T14:20:30.945Z</time></trkpt><trkpt lat="44.6411364" lon="10.2490393"><ele>422.0</ele><time>2026-04-12T14:20:31.944Z</time></trkpt><trkpt lat="44.6411883" lon="10.2491191"><ele>422.0</ele><time>2026-04-12T14:20:32.945Z</time></trkpt><trkpt lat="44.6412471" lon="10.2491997"><ele>421.99999999999994</ele><time>2026-04-12T14:20:33.944Z</time></trkpt><trkpt lat="44.641309" lon="10.2492773"><ele>422.0</ele><time>2026-04-12T14:20:34.945Z</time></trkpt><trkpt lat="44.6413738" lon="10.249354"><ele>421.16666666666663</ele><time>2026-04-12T14:20:35.944Z</time></trkpt><trkpt lat="44.6414368" lon="10.2494224"><ele>420.3333333333333</ele><time>2026-04-12T14:20:36.943Z</time></trkpt><trkpt lat="44.6415064" lon="10.2494858"><ele>419.5</ele><time>2026-04-12T14:20:37.944Z</time></trkpt><trkpt lat="44.6415786" lon="10.2495481"><ele>418.66666666666663</ele><time>2026-04-12T14:20:38.943Z</time></trkpt><trkpt lat="44.6416538" lon="10.2496046"><ele>417.8333333333333</ele><time>2026-04-12T14:20:39.943Z</time></trkpt><trkpt lat="44.6417329" lon="10.2496579"><ele>417.0</ele><time>2026-04-12T14:20:40.945Z</time></trkpt><trkpt lat="44.641814" lon="10.2497095"><ele>417.0</ele><time>2026-04-12T14:20:41.944Z</time></trkpt><trkpt lat="44.6418963" lon="10.2497717"><ele>417.0</ele><time>2026-04-12T14:20:42.945Z</time></trkpt><trkpt lat="44.6419799" lon="10.2498359"><ele>417.0</ele><time>2026-04-12T14:20:43.944Z</time></trkpt><trkpt lat="44.6420665" lon="10.2499004"><ele>417.0</ele><time>2026-04-12T14:20:44.944Z</time></trkpt><trkpt lat="44.6421505" lon="10.2499736"><ele>417.0</ele><time>2026-04-12T14:20:45.944Z</time></trkpt><trkpt lat="44.6422288" lon="10.2500516"><ele>416.6</ele><time>2026-04-12T14:20:46.945Z</time></trkpt><trkpt lat="44.6423041" lon="10.2501385"><ele>416.20000000000005</ele><time>2026-04-12T14:20:47.945Z</time></trkpt><trkpt lat="44.642373" lon="10.2502275"><ele>415.8</ele><time>2026-04-12T14:20:48.943Z</time></trkpt><trkpt lat="44.6424395" lon="10.2503238"><ele>415.4</ele><time>2026-04-12T14:20:49.944Z</time></trkpt><trkpt lat="44.642503" lon="10.2504213"><ele>415.0</ele><time>2026-04-12T14:20:50.943Z</time></trkpt><trkpt lat="44.6425707" lon="10.2505174"><ele>415.0</ele><time>2026-04-12T14:20:51.944Z</time></trkpt><trkpt lat="44.6426288" lon="10.2506234"><ele>415.0</ele><time>2026-04-12T14:20:52.945Z</time></trkpt><trkpt lat="44.6426835" lon="10.2507399"><ele>415.0</ele><time>2026-04-12T14:20:53.944Z</time></trkpt><trkpt lat="44.6427334" lon="10.2508538"><ele>415.0</ele><time>2026-04-12T14:20:54.945Z</time></trkpt><trkpt lat="44.6427838" lon="10.2509683"><ele>415.0</ele><time>2026-04-12T14:20:55.945Z</time></trkpt><trkpt lat="44.6428436" lon="10.2510793"><ele>414.2</ele><time>2026-04-12T14:20:56.944Z</time></trkpt><trkpt lat="44.6429148" lon="10.2511891"><ele>413.4</ele><time>2026-04-12T14:20:57.944Z</time></trkpt><trkpt lat="44.6429911" lon="10.2512928"><ele>412.6</ele><time>2026-04-12T14:20:58.944Z</time></trkpt><trkpt lat="44.6430686" lon="10.2513844"><ele>411.8</ele><time>2026-04-12T14:20:59.944Z</time></trkpt><trkpt lat="44.643142" lon="10.2514759"><ele>411.0</ele><time>2026-04-12T14:21:00.945Z</time></trkpt><trkpt lat="44.6432181" lon="10.2515675"><ele>412.6</ele><time>2026-04-12T14:21:01.944Z</time></trkpt><trkpt lat="44.6432921" lon="10.2516531"><ele>414.20000000000005</ele><time>2026-04-12T14:21:02.945Z</time></trkpt><trkpt lat="44.6433622" lon="10.2517381"><ele>415.79999999999995</ele><time>2026-04-12T14:21:03.943Z</time></trkpt><trkpt lat="44.6434348" lon="10.2518215"><ele>417.4</ele><time>2026-04-12T14:21:04.945Z</time></trkpt><trkpt lat="44.6435112" lon="10.2519066"><ele>419.0</ele><time>2026-04-12T14:21:05.944Z</time></trkpt><trkpt lat="44.6435958" lon="10.2519953"><ele>415.25</ele><time>2026-04-12T14:21:06.944Z</time></trkpt><trkpt lat="44.6436835" lon="10.252086"><ele>411.5</ele><time>2026-04-12T14:21:07.943Z</time></trkpt><trkpt lat="44.643771" lon="10.2521826"><ele>407.75</ele><time>2026-04-12T14:21:08.944Z</time></trkpt><trkpt lat="44.6438669" lon="10.2522818"><ele>404.0</ele><time>2026-04-12T14:21:09.944Z</time></trkpt><trkpt lat="44.6439591" lon="10.252378"><ele>404.0</ele><time>2026-04-12T14:21:10.943Z</time></trkpt><trkpt lat="44.6440449" lon="10.2524695"><ele>404.0</ele><time>2026-04-12T14:21:11.943Z</time></trkpt><trkpt lat="44.6441315" lon="10.2525565"><ele>404.0</ele><time>2026-04-12T14:21:12.944Z</time></trkpt><trkpt lat="44.6442191" lon="10.2526272"><ele>404.0</ele><time>2026-04-12T14:21:13.945Z</time></trkpt><trkpt lat="44.6443133" lon="10.2526858"><ele>404.0</ele><time>2026-04-12T14:21:14.944Z</time></trkpt><trkpt lat="44.644414" lon="10.252747"><ele>402.79999999999995</ele><time>2026-04-12T14:21:15.945Z</time></trkpt><trkpt lat="44.6445219" lon="10.2528061"><ele>401.59999999999997</ele><time>2026-04-12T14:21:16.945Z</time></trkpt><trkpt lat="44.6446297" lon="10.2528545"><ele>400.4</ele><time>2026-04-12T14:21:17.945Z</time></trkpt><trkpt lat="44.6447365" lon="10.2528895"><ele>399.2</ele><time>2026-04-12T14:21:18.944Z</time></trkpt><trkpt lat="44.6448427" lon="10.2529077"><ele>398.0</ele><time>2026-04-12T14:21:19.945Z</time></trkpt><trkpt lat="44.6449494" lon="10.2529114"><ele>398.0</ele><time>2026-04-12T14:21:20.944Z</time></trkpt><trkpt lat="44.6450553" lon="10.2529085"><ele>398.0</ele><time>2026-04-12T14:21:21.944Z</time></trkpt><trkpt lat="44.6451622" lon="10.2529067"><ele>398.0</ele><time>2026-04-12T14:21:22.945Z</time></trkpt><trkpt lat="44.6452728" lon="10.2529204"><ele>398.0</ele><time>2026-04-12T14:21:23.945Z</time></trkpt><trkpt lat="44.6453771" lon="10.2529551"><ele>398.0</ele><time>2026-04-12T14:21:24.945Z</time></trkpt><trkpt lat="44.6454839" lon="10.2530036"><ele>397.75</ele><time>2026-04-12T14:21:25.945Z</time></trkpt><trkpt lat="44.6455887" lon="10.2530691"><ele>397.5</ele><time>2026-04-12T14:21:26.945Z</time></trkpt><trkpt lat="44.6456927" lon="10.2531379"><ele>397.25</ele><time>2026-04-12T14:21:27.945Z</time></trkpt><trkpt lat="44.6458004" lon="10.2532071"><ele>397.0</ele><time>2026-04-12T14:21:28.945Z</time></trkpt><trkpt lat="44.6459045" lon="10.2532729"><ele>397.0</ele><time>2026-04-12T14:21:29.944Z</time></trkpt><trkpt lat="44.6460082" lon="10.2533277"><ele>397.0</ele><time>2026-04-12T14:21:30.945Z</time></trkpt><trkpt lat="44.6461134" lon="10.2533824"><ele>397.0</ele><time>2026-04-12T14:21:31.944Z</time></trkpt><trkpt lat="44.6462116" lon="10.2534419"><ele>397.0</ele><time>2026-04-12T14:21:32.944Z</time></trkpt><trkpt lat="44.6463012" lon="10.253501"><ele>397.0</ele><time>2026-04-12T14:21:33.944Z</time></trkpt><trkpt lat="44.6463814" lon="10.2535669"><ele>397.00000000000006</ele><time>2026-04-12T14:21:34.944Z</time></trkpt><trkpt lat="44.6464563" lon="10.2536301"><ele>397.0</ele><time>2026-04-12T14:21:35.945Z</time></trkpt><trkpt lat="44.6465274" lon="10.2536835"><ele>397.0</ele><time>2026-04-12T14:21:36.945Z</time></trkpt><trkpt lat="44.6465949" lon="10.253724"><ele>397.0</ele><time>2026-04-12T14:21:37.944Z</time></trkpt><trkpt lat="44.6466587" lon="10.253757"><ele>397.00000000000006</ele><time>2026-04-12T14:21:38.945Z</time></trkpt><trkpt lat="44.6467196" lon="10.2537958"><ele>397.0</ele><time>2026-04-12T14:21:39.945Z</time></trkpt><trkpt lat="44.6468344" lon="10.2538651"><ele>397.00000000000006</ele><time>2026-04-12T14:21:41.945Z</time></trkpt><trkpt lat="44.6469018" lon="10.2538854"><ele>397.0</ele><time>2026-04-12T14:21:43.945Z</time></trkpt><trkpt lat="44.6467808" lon="10.2538109"><ele>397.0</ele><time>2026-04-12T14:21:52.945Z</time></trkpt><trkpt lat="44.6467131" lon="10.2537728"><ele>397.0</ele><time>2026-04-12T14:21:53.945Z</time></trkpt><trkpt lat="44.6466419" lon="10.2537246"><ele>397.00000000000006</ele><time>2026-04-12T14:21:54.945Z</time></trkpt><trkpt lat="44.6465582" lon="10.2536753"><ele>397.0</ele><time>2026-04-12T14:21:55.944Z</time></trkpt><trkpt lat="44.6464778" lon="10.2536228"><ele>397.00000000000006</ele><time>2026-04-12T14:21:56.945Z</time></trkpt><trkpt lat="44.6464084" lon="10.2535738"><ele>397.0</ele><time>2026-04-12T14:21:57.945Z</time></trkpt><trkpt lat="44.6463165" lon="10.2535137"><ele>397.0</ele><time>2026-04-12T14:21:59.944Z</time></trkpt><trkpt lat="44.646277" lon="10.2534294"><ele>397.0</ele><time>2026-04-12T14:22:01.944Z</time></trkpt><trkpt lat="44.6462533" lon="10.2533225"><ele>397.00000000000006</ele><time>2026-04-12T14:22:03.944Z</time></trkpt><trkpt lat="44.6462163" lon="10.2532165"><ele>397.0</ele><time>2026-04-12T14:22:05.945Z</time></trkpt><trkpt lat="44.6461708" lon="10.2530943"><ele>395.83333333333337</ele><time>2026-04-12T14:22:07.945Z</time></trkpt><trkpt lat="44.6461102" lon="10.2529685"><ele>394.6666666666667</ele><time>2026-04-12T14:22:09.945Z</time></trkpt><trkpt lat="44.6460466" lon="10.2528183"><ele>393.5</ele><time>2026-04-12T14:22:11.944Z</time></trkpt><trkpt lat="44.6460153" lon="10.2527348"><ele>392.33333333333337</ele><time>2026-04-12T14:22:12.943Z</time></trkpt><trkpt lat="44.6459883" lon="10.2526536"><ele>391.1666666666667</ele><time>2026-04-12T14:22:13.944Z</time></trkpt><trkpt lat="44.6459661" lon="10.2525686"><ele>390.0</ele><time>2026-04-12T14:22:14.944Z</time></trkpt><trkpt lat="44.6459471" lon="10.2524784"><ele>390.0</ele><time>2026-04-12T14:22:15.945Z</time></trkpt><trkpt lat="44.6459262" lon="10.2523911"><ele>390.0</ele><time>2026-04-12T14:22:16.944Z</time></trkpt><trkpt lat="44.6459043" lon="10.2523081"><ele>390.0</ele><time>2026-04-12T14:22:17.945Z</time></trkpt><trkpt lat="44.6458783" lon="10.2522249"><ele>390.0</ele><time>2026-04-12T14:22:18.943Z</time></trkpt><trkpt lat="44.6458514" lon="10.2521422"><ele>390.0</ele><time>2026-04-12T14:22:19.944Z</time></trkpt><trkpt lat="44.6458191" lon="10.2520592"><ele>390.0</ele><time>2026-04-12T14:22:20.944Z</time></trkpt><trkpt lat="44.6457772" lon="10.2518801"><ele>388.6666666666667</ele><time>2026-04-12T14:22:22.945Z</time></trkpt><trkpt lat="44.6457802" lon="10.2517712"><ele>387.3333333333333</ele><time>2026-04-12T14:22:23.944Z</time></trkpt><trkpt lat="44.6457951" lon="10.2516679"><ele>386.0</ele><time>2026-04-12T14:22:24.944Z</time></trkpt><trkpt lat="44.6458138" lon="10.2515557"><ele>384.66666666666663</ele><time>2026-04-12T14:22:25.945Z</time></trkpt><trkpt lat="44.6458315" lon="10.251442"><ele>383.3333333333333</ele><time>2026-04-12T14:22:26.944Z</time></trkpt><trkpt lat="44.6458497" lon="10.2513291"><ele>382.0</ele><time>2026-04-12T14:22:27.945Z</time></trkpt><trkpt lat="44.645861" lon="10.2512143"><ele>381.5</ele><time>2026-04-12T14:22:28.945Z</time></trkpt><trkpt lat="44.6458712" lon="10.2510958"><ele>381.0</ele><time>2026-04-12T14:22:29.945Z</time></trkpt><trkpt lat="44.6458759" lon="10.2509885"><ele>380.5</ele><time>2026-04-12T14:22:30.944Z</time></trkpt><trkpt lat="44.6458856" lon="10.2508824"><ele>380.0</ele><time>2026-04-12T14:22:31.945Z</time></trkpt><trkpt lat="44.6458983" lon="10.2507864"><ele>379.5</ele><time>2026-04-12T14:22:32.945Z</time></trkpt><trkpt lat="44.6459186" lon="10.2506291"><ele>379.0</ele><time>2026-04-12T14:22:34.944Z</time></trkpt><trkpt lat="44.645933" lon="10.2504793"><ele>377.2</ele><time>2026-04-12T14:22:36.944Z</time></trkpt><trkpt lat="44.6459437" lon="10.2503354"><ele>375.4</ele><time>2026-04-12T14:22:38.945Z</time></trkpt><trkpt lat="44.6459596" lon="10.2501899"><ele>373.6</ele><time>2026-04-12T14:22:40.944Z</time></trkpt><trkpt lat="44.6459818" lon="10.2500447"><ele>371.8</ele><time>2026-04-12T14:22:42.944Z</time></trkpt><trkpt lat="44.6459952" lon="10.2498905"><ele>370.0</ele><time>2026-04-12T14:22:44.944Z</time></trkpt><trkpt lat="44.6460162" lon="10.2497307"><ele>368.0</ele><time>2026-04-12T14:22:46.945Z</time></trkpt><trkpt lat="44.6460351" lon="10.2495708"><ele>366.0</ele><time>2026-04-12T14:22:48.944Z</time></trkpt><trkpt lat="44.6460662" lon="10.2494229"><ele>364.0</ele><time>2026-04-12T14:22:50.945Z</time></trkpt><trkpt lat="44.6461253" lon="10.2493011"><ele>362.0</ele><time>2026-04-12T14:22:52.945Z</time></trkpt><trkpt lat="44.6461902" lon="10.2492058"><ele>360.0</ele><time>2026-04-12T14:22:54.945Z</time></trkpt><trkpt lat="44.6462606" lon="10.249127"><ele>359.3333333333333</ele><time>2026-04-12T14:22:56.944Z</time></trkpt><trkpt lat="44.6463222" lon="10.2490638"><ele>358.6666666666667</ele><time>2026-04-12T14:22:58.945Z</time></trkpt><trkpt lat="44.6463924" lon="10.2490154"><ele>358.0</ele><time>2026-04-12T14:23:00.945Z</time></trkpt><trkpt lat="44.6464744" lon="10.2489599"><ele>357.33333333333337</ele><time>2026-04-12T14:23:02.944Z</time></trkpt><trkpt lat="44.6465619" lon="10.2489137"><ele>356.6666666666667</ele><time>2026-04-12T14:23:04.945Z</time></trkpt><trkpt lat="44.6466217" lon="10.2488398"><ele>356.0</ele><time>2026-04-12T14:23:06.945Z</time></trkpt><trkpt lat="44.6466466" lon="10.2487571"><ele>354.83333333333337</ele><time>2026-04-12T14:23:08.944Z</time></trkpt><trkpt lat="44.6466453" lon="10.2486399"><ele>353.6666666666667</ele><time>2026-04-12T14:23:10.945Z</time></trkpt><trkpt lat="44.6466173" lon="10.248507"><ele>352.5</ele><time>2026-04-12T14:23:12.945Z</time></trkpt><trkpt lat="44.646579" lon="10.2483867"><ele>351.3333333333333</ele><time>2026-04-12T14:23:14.945Z</time></trkpt><trkpt lat="44.6465431" lon="10.2482957"><ele>350.16666666666663</ele><time>2026-04-12T14:23:16.945Z</time></trkpt><trkpt lat="44.6465099" lon="10.2482189"><ele>349.0</ele><time>2026-04-12T14:23:18.945Z</time></trkpt><trkpt lat="44.6464661" lon="10.2481243"><ele>347.8333333333333</ele><time>2026-04-12T14:23:20.945Z</time></trkpt><trkpt lat="44.6464128" lon="10.2480319"><ele>346.66666666666663</ele><time>2026-04-12T14:23:22.945Z</time></trkpt><trkpt lat="44.6463514" lon="10.2479477"><ele>345.5</ele><time>2026-04-12T14:23:24.944Z</time></trkpt><trkpt lat="44.6462857" lon="10.2478751"><ele>344.3333333333333</ele><time>2026-04-12T14:23:26.945Z</time></trkpt><trkpt lat="44.6462005" lon="10.2477981"><ele>343.1666666666667</ele><time>2026-04-12T14:23:28.945Z</time></trkpt><trkpt lat="44.6461425" lon="10.2477596"><ele>342.0</ele><time>2026-04-12T14:23:29.944Z</time></trkpt><trkpt lat="44.646078" lon="10.247721"><ele>342.0</ele><time>2026-04-12T14:23:30.945Z</time></trkpt><trkpt lat="44.6460074" lon="10.2476807"><ele>342.0</ele><time>2026-04-12T14:23:31.945Z</time></trkpt><trkpt lat="44.6459366" lon="10.2476474"><ele>342.0</ele><time>2026-04-12T14:23:32.943Z</time></trkpt><trkpt lat="44.6458647" lon="10.2476134"><ele>342.0</ele><time>2026-04-12T14:23:33.943Z</time></trkpt><trkpt lat="44.6457924" lon="10.2475791"><ele>342.0</ele><time>2026-04-12T14:23:34.945Z</time></trkpt><trkpt lat="44.6457269" lon="10.2475465"><ele>342.0</ele><time>2026-04-12T14:23:35.945Z</time></trkpt><trkpt lat="44.6456226" lon="10.2475146"><ele>342.0</ele><time>2026-04-12T14:23:37.944Z</time></trkpt><trkpt lat="44.6455322" lon="10.2474761"><ele>342.0</ele><time>2026-04-12T14:23:39.945Z</time></trkpt><trkpt lat="44.6456025" lon="10.2474544"><ele>342.0</ele><time>2026-04-12T14:23:52.944Z</time></trkpt><trkpt lat="44.6456754" lon="10.2475014"><ele>342.0</ele><time>2026-04-12T14:23:54.945Z</time></trkpt><trkpt lat="44.6457551" lon="10.2475335"><ele>342.0</ele><time>2026-04-12T14:23:56.945Z</time></trkpt><trkpt lat="44.6458419" lon="10.2475767"><ele>342.0</ele><time>2026-04-12T14:23:58.945Z</time></trkpt><trkpt lat="44.6459543" lon="10.2476327"><ele>342.0</ele><time>2026-04-12T14:24:00.945Z</time></trkpt><trkpt lat="44.6460152" lon="10.2476642"><ele>342.0</ele><time>2026-04-12T14:24:01.945Z</time></trkpt><trkpt lat="44.6460806" lon="10.2477009"><ele>342.0</ele><time>2026-04-12T14:24:02.945Z</time></trkpt><trkpt lat="44.6461424" lon="10.2477356"><ele>342.0</ele><time>2026-04-12T14:24:03.945Z</time></trkpt><trkpt lat="44.646202" lon="10.2477759"><ele>342.0</ele><time>2026-04-12T14:24:04.945Z</time></trkpt><trkpt lat="44.6463044" lon="10.2478755"><ele>342.0</ele><time>2026-04-12T14:24:06.945Z</time></trkpt><trkpt lat="44.6463993" lon="10.2479998"><ele>341.4285714285714</ele><time>2026-04-12T14:24:08.945Z</time></trkpt><trkpt lat="44.6464419" lon="10.2480747"><ele>340.85714285714283</ele><time>2026-04-12T14:24:09.944Z</time></trkpt><trkpt lat="44.6464791" lon="10.2481522"><ele>340.2857142857143</ele><time>2026-04-12T14:24:10.944Z</time></trkpt><trkpt lat="44.646516" lon="10.2482258"><ele>339.71428571428567</ele><time>2026-04-12T14:24:11.944Z</time></trkpt><trkpt lat="44.6465509" lon="10.2483041"><ele>339.1428571428571</ele><time>2026-04-12T14:24:12.945Z</time></trkpt><trkpt lat="44.6465795" lon="10.2483844"><ele>338.57142857142856</ele><time>2026-04-12T14:24:13.944Z</time></trkpt><trkpt lat="44.6466046" lon="10.2484672"><ele>338.0</ele><time>2026-04-12T14:24:14.944Z</time></trkpt><trkpt lat="44.6466451" lon="10.24863"><ele>339.83333333333337</ele><time>2026-04-12T14:24:16.945Z</time></trkpt><trkpt lat="44.6466377" lon="10.2487937"><ele>341.6666666666667</ele><time>2026-04-12T14:24:18.944Z</time></trkpt><trkpt lat="44.6466058" lon="10.2488753"><ele>343.5</ele><time>2026-04-12T14:24:20.944Z</time></trkpt><trkpt lat="44.6465131" lon="10.2489589"><ele>345.3333333333333</ele><time>2026-04-12T14:24:22.944Z</time></trkpt><trkpt lat="44.6464485" lon="10.2489974"><ele>347.16666666666663</ele><time>2026-04-12T14:24:23.945Z</time></trkpt><trkpt lat="44.6463812" lon="10.2490358"><ele>349.0</ele><time>2026-04-12T14:24:24.944Z</time></trkpt><trkpt lat="44.6463212" lon="10.2490793"><ele>349.99999999999994</ele><time>2026-04-12T14:24:25.943Z</time></trkpt><trkpt lat="44.6462607" lon="10.2491285"><ele>351.0</ele><time>2026-04-12T14:24:26.945Z</time></trkpt><trkpt lat="44.6462006" lon="10.2491822"><ele>352.0</ele><time>2026-04-12T14:24:27.944Z</time></trkpt><trkpt lat="44.6461489" lon="10.2492561"><ele>353.0</ele><time>2026-04-12T14:24:28.945Z</time></trkpt><trkpt lat="44.646104" lon="10.2493329"><ele>354.0</ele><time>2026-04-12T14:24:29.945Z</time></trkpt><trkpt lat="44.6460657" lon="10.2494229"><ele>354.99999999999994</ele><time>2026-04-12T14:24:30.944Z</time></trkpt><trkpt lat="44.6460378" lon="10.2495289"><ele>356.0</ele><time>2026-04-12T14:24:31.944Z</time></trkpt><trkpt lat="44.6460193" lon="10.2496412"><ele>356.6666666666667</ele><time>2026-04-12T14:24:32.944Z</time></trkpt><trkpt lat="44.6460031" lon="10.2497594"><ele>357.33333333333337</ele><time>2026-04-12T14:24:33.945Z</time></trkpt><trkpt lat="44.6459894" lon="10.2498866"><ele>358.0</ele><time>2026-04-12T14:24:34.945Z</time></trkpt><trkpt lat="44.6459674" lon="10.2500081"><ele>358.6666666666667</ele><time>2026-04-12T14:24:35.943Z</time></trkpt><trkpt lat="44.6459562" lon="10.2501365"><ele>359.3333333333333</ele><time>2026-04-12T14:24:36.945Z</time></trkpt><trkpt lat="44.6459442" lon="10.2502627"><ele>360.0</ele><time>2026-04-12T14:24:37.945Z</time></trkpt><trkpt lat="44.6459349" lon="10.2503779"><ele>362.0</ele><time>2026-04-12T14:24:38.945Z</time></trkpt><trkpt lat="44.6459248" lon="10.2504914"><ele>364.0</ele><time>2026-04-12T14:24:39.945Z</time></trkpt><trkpt lat="44.6459074" lon="10.2506749"><ele>366.0</ele><time>2026-04-12T14:24:41.945Z</time></trkpt><trkpt lat="44.6458905" lon="10.2507954"><ele>368.0</ele><time>2026-04-12T14:24:42.944Z</time></trkpt><trkpt lat="44.6458733" lon="10.2509371"><ele>370.0</ele><time>2026-04-12T14:24:43.945Z</time></trkpt><trkpt lat="44.6458621" lon="10.2510976"><ele>371.8</ele><time>2026-04-12T14:24:44.944Z</time></trkpt><trkpt lat="44.6458438" lon="10.251264"><ele>373.6</ele><time>2026-04-12T14:24:45.944Z</time></trkpt><trkpt lat="44.645828" lon="10.2513977"><ele>375.4</ele><time>2026-04-12T14:24:46.944Z</time></trkpt><trkpt lat="44.6458085" lon="10.251553"><ele>377.2</ele><time>2026-04-12T14:24:47.945Z</time></trkpt><trkpt lat="44.6457861" lon="10.2516818"><ele>379.0</ele><time>2026-04-12T14:24:48.944Z</time></trkpt><trkpt lat="44.6457741" lon="10.2518064"><ele>379.6</ele><time>2026-04-12T14:24:49.944Z</time></trkpt><trkpt lat="44.6457842" lon="10.2519121"><ele>380.2</ele><time>2026-04-12T14:24:50.944Z</time></trkpt><trkpt lat="44.6458112" lon="10.2520256"><ele>380.8</ele><time>2026-04-12T14:24:51.945Z</time></trkpt><trkpt lat="44.6458509" lon="10.2521419"><ele>381.40000000000003</ele><time>2026-04-12T14:24:52.944Z</time></trkpt><trkpt lat="44.645888" lon="10.252266"><ele>382.0</ele><time>2026-04-12T14:24:53.944Z</time></trkpt><trkpt lat="44.6459174" lon="10.2524027"><ele>383.20000000000005</ele><time>2026-04-12T14:24:54.945Z</time></trkpt><trkpt lat="44.6459516" lon="10.2525456"><ele>384.4</ele><time>2026-04-12T14:24:55.944Z</time></trkpt><trkpt lat="44.6459906" lon="10.2526863"><ele>385.6</ele><time>2026-04-12T14:24:56.944Z</time></trkpt><trkpt lat="44.6460418" lon="10.2528178"><ele>386.79999999999995</ele><time>2026-04-12T14:24:57.944Z</time></trkpt><trkpt lat="44.6460988" lon="10.2529467"><ele>388.0</ele><time>2026-04-12T14:24:58.944Z</time></trkpt><trkpt lat="44.6461538" lon="10.253071"><ele>389.79999999999995</ele><time>2026-04-12T14:24:59.945Z</time></trkpt><trkpt lat="44.6462067" lon="10.2531923"><ele>391.6</ele><time>2026-04-12T14:25:00.945Z</time></trkpt><trkpt lat="44.6462464" lon="10.2532861"><ele>393.4</ele><time>2026-04-12T14:25:01.944Z</time></trkpt><trkpt lat="44.6462761" lon="10.2534001"><ele>395.20000000000005</ele><time>2026-04-12T14:25:03.944Z</time></trkpt><trkpt lat="44.6463012" lon="10.2535178"><ele>397.0</ele><time>2026-04-12T14:25:06.944Z</time></trkpt><trkpt lat="44.6463898" lon="10.2535832"><ele>397.00000000000006</ele><time>2026-04-12T14:25:08.944Z</time></trkpt><trkpt lat="44.6464583" lon="10.2536209"><ele>397.0</ele><time>2026-04-12T14:25:09.945Z</time></trkpt><trkpt lat="44.6465303" lon="10.2536693"><ele>397.0</ele><time>2026-04-12T14:25:10.945Z</time></trkpt><trkpt lat="44.646603" lon="10.2537069"><ele>397.0</ele><time>2026-04-12T14:25:11.945Z</time></trkpt><trkpt lat="44.6466668" lon="10.2537543"><ele>397.00000000000006</ele><time>2026-04-12T14:25:12.945Z</time></trkpt><trkpt lat="44.6467595" lon="10.2537972"><ele>397.0</ele><time>2026-04-12T14:25:13.945Z</time></trkpt><trkpt lat="44.6468316" lon="10.2538308"><ele>397.00000000000006</ele><time>2026-04-12T14:25:14.945Z</time></trkpt><trkpt lat="44.646904" lon="10.2538592"><ele>397.0</ele><time>2026-04-12T14:25:15.945Z</time></trkpt><trkpt lat="44.6469744" lon="10.2538815"><ele>397.0</ele><time>2026-04-12T14:25:16.945Z</time></trkpt><trkpt lat="44.6470482" lon="10.2539074"><ele>397.0</ele><time>2026-04-12T14:25:17.944Z</time></trkpt><trkpt lat="44.6471208" lon="10.2539379"><ele>397.00000000000006</ele><time>2026-04-12T14:25:18.945Z</time></trkpt><trkpt lat="44.6471989" lon="10.2539805"><ele>397.0</ele><time>2026-04-12T14:25:19.945Z</time></trkpt><trkpt lat="44.6472855" lon="10.2540344"><ele>396.40000000000003</ele><time>2026-04-12T14:25:20.945Z</time></trkpt><trkpt lat="44.6473783" lon="10.2540975"><ele>395.8</ele><time>2026-04-12T14:25:21.945Z</time></trkpt><trkpt lat="44.6474774" lon="10.254172"><ele>395.2</ele><time>2026-04-12T14:25:22.944Z</time></trkpt><trkpt lat="44.6475783" lon="10.2542557"><ele>394.6</ele><time>2026-04-12T14:25:23.944Z</time></trkpt><trkpt lat="44.6476803" lon="10.2543302"><ele>394.0</ele><time>2026-04-12T14:25:24.944Z</time></trkpt><trkpt lat="44.6477853" lon="10.2543965"><ele>394.0</ele><time>2026-04-12T14:25:25.944Z</time></trkpt><trkpt lat="44.6478909" lon="10.2544585"><ele>394.0</ele><time>2026-04-12T14:25:26.944Z</time></trkpt><trkpt lat="44.647991" lon="10.2545215"><ele>394.0</ele><time>2026-04-12T14:25:27.944Z</time></trkpt><trkpt lat="44.6480832" lon="10.2545873"><ele>394.0</ele><time>2026-04-12T14:25:28.945Z</time></trkpt><trkpt lat="44.6481839" lon="10.254652"><ele>394.0</ele><time>2026-04-12T14:25:29.945Z</time></trkpt><trkpt lat="44.6482924" lon="10.2547178"><ele>394.0</ele><time>2026-04-12T14:25:30.945Z</time></trkpt><trkpt lat="44.6484018" lon="10.2547734"><ele>394.0</ele><time>2026-04-12T14:25:31.945Z</time></trkpt><trkpt lat="44.6485199" lon="10.2548115"><ele>394.0</ele><time>2026-04-12T14:25:32.944Z</time></trkpt><trkpt lat="44.6486426" lon="10.2548267"><ele>394.0</ele><time>2026-04-12T14:25:33.944Z</time></trkpt><trkpt lat="44.6487664" lon="10.2548347"><ele>392.75</ele><time>2026-04-12T14:25:34.945Z</time></trkpt><trkpt lat="44.6488877" lon="10.2548517"><ele>391.5</ele><time>2026-04-12T14:25:35.944Z</time></trkpt><trkpt lat="44.6490053" lon="10.2548755"><ele>390.25</ele><time>2026-04-12T14:25:36.945Z</time></trkpt><trkpt lat="44.6491173" lon="10.2549102"><ele>389.0</ele><time>2026-04-12T14:25:37.945Z</time></trkpt><trkpt lat="44.6492268" lon="10.2549574"><ele>389.0</ele><time>2026-04-12T14:25:38.945Z</time></trkpt><trkpt lat="44.649332" lon="10.2550073"><ele>389.0</ele><time>2026-04-12T14:25:39.944Z</time></trkpt><trkpt lat="44.6494352" lon="10.2550547"><ele>389.0</ele><time>2026-04-12T14:25:40.944Z</time></trkpt><trkpt lat="44.649543" lon="10.2551"><ele>389.0</ele><time>2026-04-12T14:25:41.943Z</time></trkpt><trkpt lat="44.649646" lon="10.255152"><ele>389.0</ele><time>2026-04-12T14:25:42.944Z</time></trkpt><trkpt lat="44.6497606" lon="10.2552188"><ele>389.2</ele><time>2026-04-12T14:25:43.944Z</time></trkpt><trkpt lat="44.6498227" lon="10.2553286"><ele>389.4</ele><time>2026-04-12T14:25:44.945Z</time></trkpt><trkpt lat="44.6498849" lon="10.2554541"><ele>389.6</ele><time>2026-04-12T14:25:45.944Z</time></trkpt><trkpt lat="44.649941" lon="10.2555924"><ele>389.8</ele><time>2026-04-12T14:25:46.945Z</time></trkpt><trkpt lat="44.6499899" lon="10.255739"><ele>390.0</ele><time>2026-04-12T14:25:47.944Z</time></trkpt><trkpt lat="44.6500341" lon="10.2558955"><ele>390.0</ele><time>2026-04-12T14:25:48.944Z</time></trkpt><trkpt lat="44.6500813" lon="10.2560587"><ele>390.0</ele><time>2026-04-12T14:25:49.945Z</time></trkpt><trkpt lat="44.6501294" lon="10.2562254"><ele>390.0</ele><time>2026-04-12T14:25:50.944Z</time></trkpt><trkpt lat="44.6501752" lon="10.2563904"><ele>390.0</ele><time>2026-04-12T14:25:51.944Z</time></trkpt><trkpt lat="44.6502253" lon="10.2565509"><ele>388.25</ele><time>2026-04-12T14:25:52.945Z</time></trkpt><trkpt lat="44.65027" lon="10.2567045"><ele>386.5</ele><time>2026-04-12T14:25:53.945Z</time></trkpt><trkpt lat="44.6503178" lon="10.2568509"><ele>384.75</ele><time>2026-04-12T14:25:54.944Z</time></trkpt><trkpt lat="44.6503581" lon="10.2569989"><ele>383.0</ele><time>2026-04-12T14:25:55.943Z</time></trkpt><trkpt lat="44.6504039" lon="10.2571443"><ele>382.5</ele><time>2026-04-12T14:25:56.945Z</time></trkpt><trkpt lat="44.6504483" lon="10.2572802"><ele>382.0</ele><time>2026-04-12T14:25:57.945Z</time></trkpt><trkpt lat="44.6504848" lon="10.2573946"><ele>381.5</ele><time>2026-04-12T14:25:58.944Z</time></trkpt><trkpt lat="44.6505153" lon="10.2574935"><ele>381.0</ele><time>2026-04-12T14:25:59.945Z</time></trkpt><trkpt lat="44.6505424" lon="10.2575766"><ele>380.5</ele><time>2026-04-12T14:26:00.944Z</time></trkpt><trkpt lat="44.6505763" lon="10.2577192"><ele>380.0</ele><time>2026-04-12T14:26:02.944Z</time></trkpt><trkpt lat="44.6506055" lon="10.257829"><ele>380.0</ele><time>2026-04-12T14:26:04.944Z</time></trkpt><trkpt lat="44.6506458" lon="10.2579006"><ele>380.0</ele><time>2026-04-12T14:26:06.945Z</time></trkpt><trkpt lat="44.650735" lon="10.2578585"><ele>380.0</ele><time>2026-04-12T14:26:09.943Z</time></trkpt><trkpt lat="44.650837" lon="10.2578023"><ele>380.0</ele><time>2026-04-12T14:26:11.945Z</time></trkpt><trkpt lat="44.6508993" lon="10.2577739"><ele>380.0</ele><time>2026-04-12T14:26:12.945Z</time></trkpt><trkpt lat="44.6509681" lon="10.2577312"><ele>380.0</ele><time>2026-04-12T14:26:13.945Z</time></trkpt><trkpt lat="44.6510308" lon="10.2576807"><ele>380.0</ele><time>2026-04-12T14:26:14.945Z</time></trkpt><trkpt lat="44.6510879" lon="10.2576068"><ele>380.0</ele><time>2026-04-12T14:26:15.945Z</time></trkpt><trkpt lat="44.6511424" lon="10.2575273"><ele>380.0</ele><time>2026-04-12T14:26:16.943Z</time></trkpt><trkpt lat="44.6511789" lon="10.2574326"><ele>380.0</ele><time>2026-04-12T14:26:17.944Z</time></trkpt><trkpt lat="44.6512135" lon="10.2573438"><ele>380.0</ele><time>2026-04-12T14:26:18.944Z</time></trkpt><trkpt lat="44.6512332" lon="10.2572446"><ele>380.0</ele><time>2026-04-12T14:26:19.945Z</time></trkpt><trkpt lat="44.6512623" lon="10.2571359"><ele>375.8</ele><time>2026-04-12T14:26:20.944Z</time></trkpt><trkpt lat="44.6512957" lon="10.2570129"><ele>371.6</ele><time>2026-04-12T14:26:21.944Z</time></trkpt><trkpt lat="44.6513366" lon="10.2568928"><ele>367.4</ele><time>2026-04-12T14:26:22.945Z</time></trkpt><trkpt lat="44.6513809" lon="10.2567695"><ele>363.2</ele><time>2026-04-12T14:26:23.944Z</time></trkpt><trkpt lat="44.6514332" lon="10.2566443"><ele>359.0</ele><time>2026-04-12T14:26:24.944Z</time></trkpt><trkpt lat="44.6514933" lon="10.2565255"><ele>359.0</ele><time>2026-04-12T14:26:25.944Z</time></trkpt><trkpt lat="44.6515489" lon="10.256404"><ele>359.0</ele><time>2026-04-12T14:26:26.943Z</time></trkpt><trkpt lat="44.6515898" lon="10.2562962"><ele>359.0</ele><time>2026-04-12T14:26:27.945Z</time></trkpt><trkpt lat="44.6516219" lon="10.256183"><ele>359.0</ele><time>2026-04-12T14:26:28.945Z</time></trkpt><trkpt lat="44.6516474" lon="10.2560674"><ele>359.0</ele><time>2026-04-12T14:26:29.944Z</time></trkpt><trkpt lat="44.6516691" lon="10.255941"><ele>359.0</ele><time>2026-04-12T14:26:30.945Z</time></trkpt><trkpt lat="44.6516856" lon="10.2558148"><ele>359.0</ele><time>2026-04-12T14:26:31.945Z</time></trkpt><trkpt lat="44.651705" lon="10.2556609"><ele>359.0</ele><time>2026-04-12T14:26:32.945Z</time></trkpt><trkpt lat="44.651726" lon="10.2555229"><ele>359.0</ele><time>2026-04-12T14:26:33.944Z</time></trkpt><trkpt lat="44.6517452" lon="10.2553859"><ele>359.0</ele><time>2026-04-12T14:26:34.944Z</time></trkpt><trkpt lat="44.6517695" lon="10.2552458"><ele>358.5</ele><time>2026-04-12T14:26:35.944Z</time></trkpt><trkpt lat="44.6517914" lon="10.2551075"><ele>358.0</ele><time>2026-04-12T14:26:36.944Z</time></trkpt><trkpt lat="44.6518397" lon="10.254959"><ele>357.5</ele><time>2026-04-12T14:26:37.943Z</time></trkpt><trkpt lat="44.6518787" lon="10.2548047"><ele>357.0</ele><time>2026-04-12T14:26:38.945Z</time></trkpt><trkpt lat="44.6519093" lon="10.2546463"><ele>357.0</ele><time>2026-04-12T14:26:39.944Z</time></trkpt><trkpt lat="44.6519308" lon="10.2544918"><ele>357.0</ele><time>2026-04-12T14:26:40.945Z</time></trkpt><trkpt lat="44.6519428" lon="10.2543495"><ele>357.0</ele><time>2026-04-12T14:26:41.945Z</time></trkpt><trkpt lat="44.6519507" lon="10.254212"><ele>357.0</ele><time>2026-04-12T14:26:42.945Z</time></trkpt><trkpt lat="44.6519525" lon="10.2540624"><ele>357.0</ele><time>2026-04-12T14:26:43.944Z</time></trkpt><trkpt lat="44.651948" lon="10.2539166"><ele>357.0</ele><time>2026-04-12T14:26:44.944Z</time></trkpt><trkpt lat="44.6519453" lon="10.2537738"><ele>357.0</ele><time>2026-04-12T14:26:45.945Z</time></trkpt><trkpt lat="44.6519743" lon="10.2536475"><ele>357.0</ele><time>2026-04-12T14:26:46.945Z</time></trkpt><trkpt lat="44.6520314" lon="10.25354"><ele>357.0</ele><time>2026-04-12T14:26:47.944Z</time></trkpt><trkpt lat="44.6521069" lon="10.253441"><ele>357.0</ele><time>2026-04-12T14:26:48.944Z</time></trkpt><trkpt lat="44.6521808" lon="10.2533334"><ele>355.6</ele><time>2026-04-12T14:26:49.945Z</time></trkpt><trkpt lat="44.6522691" lon="10.2532241"><ele>354.20000000000005</ele><time>2026-04-12T14:26:50.944Z</time></trkpt><trkpt lat="44.6523547" lon="10.2531199"><ele>352.8</ele><time>2026-04-12T14:26:51.945Z</time></trkpt><trkpt lat="44.6524463" lon="10.2530198"><ele>351.4</ele><time>2026-04-12T14:26:52.944Z</time></trkpt><trkpt lat="44.6525137" lon="10.2529494"><ele>350.0</ele><time>2026-04-12T14:26:53.945Z</time></trkpt><trkpt lat="44.6525811" lon="10.2528829"><ele>350.0</ele><time>2026-04-12T14:26:54.944Z</time></trkpt><trkpt lat="44.6526526" lon="10.252803"><ele>350.0</ele><time>2026-04-12T14:26:55.945Z</time></trkpt><trkpt lat="44.652722" lon="10.2527361"><ele>350.0</ele><time>2026-04-12T14:26:56.944Z</time></trkpt><trkpt lat="44.6527776" lon="10.2526698"><ele>350.0</ele><time>2026-04-12T14:26:57.944Z</time></trkpt><trkpt lat="44.6528347" lon="10.2526031"><ele>350.0</ele><time>2026-04-12T14:26:58.945Z</time></trkpt><trkpt lat="44.6529" lon="10.2525467"><ele>350.0</ele><time>2026-04-12T14:26:59.944Z</time></trkpt><trkpt lat="44.6529619" lon="10.2524782"><ele>347.6666666666667</ele><time>2026-04-12T14:27:00.945Z</time></trkpt><trkpt lat="44.6530195" lon="10.2523947"><ele>345.33333333333337</ele><time>2026-04-12T14:27:01.944Z</time></trkpt><trkpt lat="44.6530696" lon="10.2523015"><ele>343.0</ele><time>2026-04-12T14:27:02.944Z</time></trkpt><trkpt lat="44.6531207" lon="10.2522092"><ele>340.6666666666667</ele><time>2026-04-12T14:27:03.944Z</time></trkpt><trkpt lat="44.6531543" lon="10.2521334"><ele>338.3333333333333</ele><time>2026-04-12T14:27:04.945Z</time></trkpt><trkpt lat="44.6531931" lon="10.2520358"><ele>336.0</ele><time>2026-04-12T14:27:06.945Z</time></trkpt><trkpt lat="44.6531737" lon="10.2519457"><ele>336.0</ele><time>2026-04-12T14:27:08.945Z</time></trkpt><trkpt lat="44.6531186" lon="10.2518498"><ele>336.0</ele><time>2026-04-12T14:27:10.945Z</time></trkpt><trkpt lat="44.6530348" lon="10.2517511"><ele>336.0</ele><time>2026-04-12T14:27:12.945Z</time></trkpt><trkpt lat="44.6529629" lon="10.2517128"><ele>336.0</ele><time>2026-04-12T14:27:13.944Z</time></trkpt><trkpt lat="44.6529029" lon="10.2516645"><ele>336.0</ele><time>2026-04-12T14:27:14.945Z</time></trkpt><trkpt lat="44.6528358" lon="10.2516327"><ele>336.0</ele><time>2026-04-12T14:27:15.944Z</time></trkpt><trkpt lat="44.652739" lon="10.2516151"><ele>337.4</ele><time>2026-04-12T14:27:17.943Z</time></trkpt><trkpt lat="44.6526383" lon="10.2515574"><ele>338.8</ele><time>2026-04-12T14:27:19.945Z</time></trkpt><trkpt lat="44.6525398" lon="10.2514494"><ele>340.2</ele><time>2026-04-12T14:27:21.944Z</time></trkpt><trkpt lat="44.6524888" lon="10.2513602"><ele>341.59999999999997</ele><time>2026-04-12T14:27:22.945Z</time></trkpt><trkpt lat="44.6524295" lon="10.2512518"><ele>343.0</ele><time>2026-04-12T14:27:23.944Z</time></trkpt><trkpt lat="44.6523895" lon="10.2511701"><ele>340.0</ele><time>2026-04-12T14:27:24.945Z</time></trkpt><trkpt lat="44.6523544" lon="10.2510813"><ele>337.0</ele><time>2026-04-12T14:27:25.944Z</time></trkpt><trkpt lat="44.6523323" lon="10.2509659"><ele>334.0</ele><time>2026-04-12T14:27:26.945Z</time></trkpt><trkpt lat="44.6523034" lon="10.2508612"><ele>331.0</ele><time>2026-04-12T14:27:27.944Z</time></trkpt><trkpt lat="44.6522756" lon="10.2507492"><ele>328.0</ele><time>2026-04-12T14:27:28.944Z</time></trkpt><trkpt lat="44.6522541" lon="10.2506592"><ele>325.0</ele><time>2026-04-12T14:27:29.944Z</time></trkpt><trkpt lat="44.6522072" lon="10.2505215"><ele>321.4</ele><time>2026-04-12T14:27:30.943Z</time></trkpt><trkpt lat="44.6521777" lon="10.2503961"><ele>317.8</ele><time>2026-04-12T14:27:31.945Z</time></trkpt><trkpt lat="44.6521436" lon="10.2502806"><ele>314.2</ele><time>2026-04-12T14:27:32.945Z</time></trkpt><trkpt lat="44.6521035" lon="10.2501679"><ele>310.6</ele><time>2026-04-12T14:27:33.945Z</time></trkpt><trkpt lat="44.6520776" lon="10.2500555"><ele>307.0</ele><time>2026-04-12T14:27:34.945Z</time></trkpt><trkpt lat="44.6520259" lon="10.2499443"><ele>307.0</ele><time>2026-04-12T14:27:35.944Z</time></trkpt><trkpt lat="44.6519997" lon="10.249842"><ele>307.0</ele><time>2026-04-12T14:27:36.944Z</time></trkpt><trkpt lat="44.6519249" lon="10.2496588"><ele>307.0</ele><time>2026-04-12T14:27:38.944Z</time></trkpt><trkpt lat="44.6519009" lon="10.2495509"><ele>307.0</ele><time>2026-04-12T14:27:39.945Z</time></trkpt><trkpt lat="44.6518651" lon="10.2494495"><ele>307.0</ele><time>2026-04-12T14:27:40.944Z</time></trkpt><trkpt lat="44.6518347" lon="10.2493469"><ele>306.3333333333333</ele><time>2026-04-12T14:27:41.944Z</time></trkpt><trkpt lat="44.6518101" lon="10.2492436"><ele>305.66666666666663</ele><time>2026-04-12T14:27:42.945Z</time></trkpt><trkpt lat="44.651789" lon="10.2491438"><ele>305.0</ele><time>2026-04-12T14:27:43.944Z</time></trkpt><trkpt lat="44.6517716" lon="10.2490428"><ele>304.3333333333333</ele><time>2026-04-12T14:27:44.945Z</time></trkpt><trkpt lat="44.6517622" lon="10.2489477"><ele>303.6666666666667</ele><time>2026-04-12T14:27:45.944Z</time></trkpt><trkpt lat="44.6517567" lon="10.2488568"><ele>303.0</ele><time>2026-04-12T14:27:46.944Z</time></trkpt><trkpt lat="44.6517467" lon="10.2487133"><ele>303.0</ele><time>2026-04-12T14:27:48.944Z</time></trkpt><trkpt lat="44.6517364" lon="10.2486186"><ele>303.0</ele><time>2026-04-12T14:27:50.945Z</time></trkpt><trkpt lat="44.6516859" lon="10.248535"><ele>303.0</ele><time>2026-04-12T14:28:18.944Z</time></trkpt><trkpt lat="44.6517465" lon="10.2486401"><ele>303.0</ele><time>2026-04-12T14:28:26.943Z</time></trkpt><trkpt lat="44.6517664" lon="10.2487908"><ele>303.0</ele><time>2026-04-12T14:28:28.945Z</time></trkpt><trkpt lat="44.6517727" lon="10.2488876"><ele>303.0</ele><time>2026-04-12T14:28:29.943Z</time></trkpt><trkpt lat="44.6517791" lon="10.2489915"><ele>302.2857142857143</ele><time>2026-04-12T14:28:30.945Z</time></trkpt><trkpt lat="44.6517906" lon="10.2490888"><ele>301.57142857142856</ele><time>2026-04-12T14:28:31.944Z</time></trkpt><trkpt lat="44.6518119" lon="10.2491839"><ele>300.85714285714283</ele><time>2026-04-12T14:28:32.944Z</time></trkpt><trkpt lat="44.6518404" lon="10.2492756"><ele>300.1428571428571</ele><time>2026-04-12T14:28:33.944Z</time></trkpt><trkpt lat="44.6518711" lon="10.2493679"><ele>299.4285714285714</ele><time>2026-04-12T14:28:34.944Z</time></trkpt><trkpt lat="44.6519002" lon="10.2494615"><ele>298.7142857142857</ele><time>2026-04-12T14:28:35.944Z</time></trkpt><trkpt lat="44.6519376" lon="10.2495594"><ele>298.0</ele><time>2026-04-12T14:28:36.945Z</time></trkpt><trkpt lat="44.6519768" lon="10.2496627"><ele>298.0</ele><time>2026-04-12T14:28:37.944Z</time></trkpt><trkpt lat="44.6520188" lon="10.2497744"><ele>298.0</ele><time>2026-04-12T14:28:38.945Z</time></trkpt><trkpt lat="44.6520501" lon="10.2498949"><ele>298.0</ele><time>2026-04-12T14:28:39.944Z</time></trkpt><trkpt lat="44.6520825" lon="10.2500161"><ele>298.0</ele><time>2026-04-12T14:28:40.943Z</time></trkpt><trkpt lat="44.6521103" lon="10.2501425"><ele>298.0</ele><time>2026-04-12T14:28:41.943Z</time></trkpt><trkpt lat="44.6521377" lon="10.2502656"><ele>299.8</ele><time>2026-04-12T14:28:42.944Z</time></trkpt><trkpt lat="44.6521744" lon="10.2503933"><ele>301.6</ele><time>2026-04-12T14:28:43.944Z</time></trkpt><trkpt lat="44.6522126" lon="10.2505156"><ele>303.4</ele><time>2026-04-12T14:28:44.944Z</time></trkpt><trkpt lat="44.652254" lon="10.2506435"><ele>305.2</ele><time>2026-04-12T14:28:45.945Z</time></trkpt><trkpt lat="44.6522818" lon="10.2507668"><ele>307.0</ele><time>2026-04-12T14:28:46.944Z</time></trkpt><trkpt lat="44.6523128" lon="10.2508949"><ele>310.6</ele><time>2026-04-12T14:28:47.944Z</time></trkpt><trkpt lat="44.6523386" lon="10.2510286"><ele>314.2</ele><time>2026-04-12T14:28:48.944Z</time></trkpt><trkpt lat="44.6523704" lon="10.2511569"><ele>317.8</ele><time>2026-04-12T14:28:49.943Z</time></trkpt><trkpt lat="44.6524027" lon="10.2512601"><ele>321.4</ele><time>2026-04-12T14:28:50.944Z</time></trkpt><trkpt lat="44.6524472" lon="10.2513737"><ele>325.0</ele><time>2026-04-12T14:28:51.945Z</time></trkpt><trkpt lat="44.6525176" lon="10.2515242"><ele>327.2</ele><time>2026-04-12T14:28:53.945Z</time></trkpt><trkpt lat="44.6526074" lon="10.2515964"><ele>329.4</ele><time>2026-04-12T14:28:55.944Z</time></trkpt><trkpt lat="44.6527482" lon="10.2516194"><ele>331.6</ele><time>2026-04-12T14:28:57.945Z</time></trkpt><trkpt lat="44.6528243" lon="10.2516511"><ele>333.8</ele><time>2026-04-12T14:28:58.945Z</time></trkpt><trkpt lat="44.6529055" lon="10.2517252"><ele>336.0</ele><time>2026-04-12T14:28:59.944Z</time></trkpt><trkpt lat="44.6529741" lon="10.251737"><ele>336.0</ele><time>2026-04-12T14:29:00.944Z</time></trkpt><trkpt lat="44.6530269" lon="10.251789"><ele>336.0</ele><time>2026-04-12T14:29:01.945Z</time></trkpt><trkpt lat="44.6531196" lon="10.2518971"><ele>336.0</ele><time>2026-04-12T14:29:03.944Z</time></trkpt><trkpt lat="44.6531811" lon="10.2520074"><ele>336.0</ele><time>2026-04-12T14:29:05.945Z</time></trkpt><trkpt lat="44.6532459" lon="10.252044"><ele>336.0</ele><time>2026-04-12T14:29:08.944Z</time></trkpt><trkpt lat="44.6533351" lon="10.2520019"><ele>336.0</ele><time>2026-04-12T14:29:10.945Z</time></trkpt><trkpt lat="44.6533966" lon="10.2519777"><ele>336.0</ele><time>2026-04-12T14:29:11.945Z</time></trkpt><trkpt lat="44.6534579" lon="10.251947"><ele>336.0</ele><time>2026-04-12T14:29:12.945Z</time></trkpt><trkpt lat="44.6535691" lon="10.2519056"><ele>336.0</ele><time>2026-04-12T14:29:14.944Z</time></trkpt><trkpt lat="44.653637" lon="10.2518899"><ele>336.0</ele><time>2026-04-12T14:29:15.945Z</time></trkpt><trkpt lat="44.6537067" lon="10.2518775"><ele>336.0</ele><time>2026-04-12T14:29:16.943Z</time></trkpt><trkpt lat="44.6537865" lon="10.2518504"><ele>336.0</ele><time>2026-04-12T14:29:17.945Z</time></trkpt><trkpt lat="44.6538541" lon="10.2518512"><ele>336.1666666666667</ele><time>2026-04-12T14:29:18.944Z</time></trkpt><trkpt lat="44.6539285" lon="10.2518511"><ele>336.3333333333333</ele><time>2026-04-12T14:29:19.945Z</time></trkpt><trkpt lat="44.654007" lon="10.2518587"><ele>336.5</ele><time>2026-04-12T14:29:20.944Z</time></trkpt><trkpt lat="44.6540881" lon="10.2518654"><ele>336.66666666666663</ele><time>2026-04-12T14:29:21.944Z</time></trkpt><trkpt lat="44.6541709" lon="10.2518752"><ele>336.8333333333333</ele><time>2026-04-12T14:29:22.944Z</time></trkpt><trkpt lat="44.6542577" lon="10.2518818"><ele>337.0</ele><time>2026-04-12T14:29:23.944Z</time></trkpt><trkpt lat="44.6543353" lon="10.2518732"><ele>337.0</ele><time>2026-04-12T14:29:24.945Z</time></trkpt><trkpt lat="44.6544089" lon="10.2518588"><ele>337.0</ele><time>2026-04-12T14:29:25.945Z</time></trkpt><trkpt lat="44.6544754" lon="10.2518401"><ele>337.0</ele><time>2026-04-12T14:29:26.943Z</time></trkpt><trkpt lat="44.654538" lon="10.2518213"><ele>337.0</ele><time>2026-04-12T14:29:27.944Z</time></trkpt><trkpt lat="44.6546408" lon="10.2517744"><ele>337.0</ele><time>2026-04-12T14:29:29.945Z</time></trkpt><trkpt lat="44.6547549" lon="10.2517069"><ele>337.0</ele><time>2026-04-12T14:29:31.945Z</time></trkpt><trkpt lat="44.6548149" lon="10.251669"><ele>336.40000000000003</ele><time>2026-04-12T14:29:32.945Z</time></trkpt><trkpt lat="44.6548823" lon="10.2516177"><ele>335.8</ele><time>2026-04-12T14:29:34.944Z</time></trkpt><trkpt lat="44.6549715" lon="10.2515559"><ele>335.2</ele><time>2026-04-12T14:29:59.945Z</time></trkpt><trkpt lat="44.6550781" lon="10.2515305"><ele>334.6</ele><time>2026-04-12T14:30:01.944Z</time></trkpt><trkpt lat="44.6551772" lon="10.2515745"><ele>334.0</ele><time>2026-04-12T14:30:02.945Z</time></trkpt><trkpt lat="44.6552579" lon="10.251595"><ele>331.8333333333333</ele><time>2026-04-12T14:30:03.945Z</time></trkpt><trkpt lat="44.6553332" lon="10.2516095"><ele>329.66666666666663</ele><time>2026-04-12T14:30:04.945Z</time></trkpt><trkpt lat="44.6554044" lon="10.2516287"><ele>327.5</ele><time>2026-04-12T14:30:05.944Z</time></trkpt><trkpt lat="44.6554901" lon="10.2516416"><ele>325.3333333333333</ele><time>2026-04-12T14:30:06.944Z</time></trkpt><trkpt lat="44.6556084" lon="10.251667"><ele>323.1666666666667</ele><time>2026-04-12T14:30:08.944Z</time></trkpt><trkpt lat="44.6556723" lon="10.2516713"><ele>321.0</ele><time>2026-04-12T14:30:09.944Z</time></trkpt><trkpt lat="44.6557976" lon="10.2516495"><ele>321.0</ele><time>2026-04-12T14:30:11.945Z</time></trkpt><trkpt lat="44.6558566" lon="10.2516186"><ele>321.0</ele><time>2026-04-12T14:30:12.945Z</time></trkpt><trkpt lat="44.6559564" lon="10.251549"><ele>321.0</ele><time>2026-04-12T14:30:14.943Z</time></trkpt><trkpt lat="44.656037" lon="10.2514748"><ele>321.0</ele><time>2026-04-12T14:30:16.944Z</time></trkpt><trkpt lat="44.6560948" lon="10.2514073"><ele>321.0</ele><time>2026-04-12T14:30:19.945Z</time></trkpt><trkpt lat="44.6560447" lon="10.2515025"><ele>321.0</ele><time>2026-04-12T14:30:29.945Z</time></trkpt><trkpt lat="44.6559573" lon="10.2515668"><ele>321.0</ele><time>2026-04-12T14:30:31.944Z</time></trkpt><trkpt lat="44.6558417" lon="10.251633"><ele>321.0</ele><time>2026-04-12T14:30:33.944Z</time></trkpt><trkpt lat="44.6557765" lon="10.2516583"><ele>321.0</ele><time>2026-04-12T14:30:34.945Z</time></trkpt><trkpt lat="44.6557115" lon="10.2516731"><ele>321.0</ele><time>2026-04-12T14:30:35.945Z</time></trkpt><trkpt lat="44.6556408" lon="10.2516762"><ele>321.0</ele><time>2026-04-12T14:30:36.945Z</time></trkpt><trkpt lat="44.6555685" lon="10.2516713"><ele>321.0</ele><time>2026-04-12T14:30:37.944Z</time></trkpt><trkpt lat="44.6554873" lon="10.2516608"><ele>321.0</ele><time>2026-04-12T14:30:38.944Z</time></trkpt><trkpt lat="44.6553986" lon="10.2516477"><ele>321.0</ele><time>2026-04-12T14:30:39.944Z</time></trkpt><trkpt lat="44.6553094" lon="10.2516324"><ele>321.0</ele><time>2026-04-12T14:30:40.944Z</time></trkpt><trkpt lat="44.6552209" lon="10.251618"><ele>321.0</ele><time>2026-04-12T14:30:41.945Z</time></trkpt><trkpt lat="44.6551302" lon="10.2516139"><ele>321.0</ele><time>2026-04-12T14:30:42.944Z</time></trkpt><trkpt lat="44.6550445" lon="10.2515992"><ele>321.0</ele><time>2026-04-12T14:30:43.945Z</time></trkpt><trkpt lat="44.6549702" lon="10.2516093"><ele>323.1666666666667</ele><time>2026-04-12T14:30:44.943Z</time></trkpt><trkpt lat="44.6548768" lon="10.2516405"><ele>325.3333333333333</ele><time>2026-04-12T14:30:46.944Z</time></trkpt><trkpt lat="44.6547878" lon="10.2517083"><ele>327.5</ele><time>2026-04-12T14:30:48.944Z</time></trkpt><trkpt lat="44.6547302" lon="10.2517449"><ele>329.66666666666663</ele><time>2026-04-12T14:30:49.945Z</time></trkpt><trkpt lat="44.6546685" lon="10.2517777"><ele>331.8333333333333</ele><time>2026-04-12T14:30:50.945Z</time></trkpt><trkpt lat="44.6546024" lon="10.251808"><ele>334.0</ele><time>2026-04-12T14:30:51.943Z</time></trkpt><trkpt lat="44.6545337" lon="10.2518386"><ele>334.0</ele><time>2026-04-12T14:30:52.944Z</time></trkpt><trkpt lat="44.6544616" lon="10.2518689"><ele>334.0</ele><time>2026-04-12T14:30:53.945Z</time></trkpt><trkpt lat="44.6543867" lon="10.2518879"><ele>334.0</ele><time>2026-04-12T14:30:54.945Z</time></trkpt><trkpt lat="44.6543084" lon="10.251893"><ele>334.0</ele><time>2026-04-12T14:30:55.945Z</time></trkpt><trkpt lat="44.65423" lon="10.2518856"><ele>334.0</ele><time>2026-04-12T14:30:56.945Z</time></trkpt><trkpt lat="44.6541474" lon="10.2518821"><ele>334.0</ele><time>2026-04-12T14:30:57.944Z</time></trkpt><trkpt lat="44.6540603" lon="10.2518779"><ele>334.4</ele><time>2026-04-12T14:30:58.944Z</time></trkpt><trkpt lat="44.6539679" lon="10.2518726"><ele>334.79999999999995</ele><time>2026-04-12T14:30:59.945Z</time></trkpt><trkpt lat="44.653874" lon="10.2518717"><ele>335.20000000000005</ele><time>2026-04-12T14:31:00.945Z</time></trkpt><trkpt lat="44.653777" lon="10.2518785"><ele>335.6</ele><time>2026-04-12T14:31:01.943Z</time></trkpt><trkpt lat="44.6536785" lon="10.2518991"><ele>336.0</ele><time>2026-04-12T14:31:02.944Z</time></trkpt><trkpt lat="44.6535822" lon="10.2519251"><ele>336.0</ele><time>2026-04-12T14:31:03.945Z</time></trkpt><trkpt lat="44.6534848" lon="10.251951"><ele>336.0</ele><time>2026-04-12T14:31:04.945Z</time></trkpt><trkpt lat="44.6533875" lon="10.2519831"><ele>336.0</ele><time>2026-04-12T14:31:05.945Z</time></trkpt><trkpt lat="44.6532963" lon="10.2520363"><ele>336.0</ele><time>2026-04-12T14:31:06.944Z</time></trkpt><trkpt lat="44.653212" lon="10.2521117"><ele>336.0</ele><time>2026-04-12T14:31:07.943Z</time></trkpt><trkpt lat="44.6531421" lon="10.2521943"><ele>336.0</ele><time>2026-04-12T14:31:08.943Z</time></trkpt><trkpt lat="44.6530715" lon="10.2522989"><ele>336.0</ele><time>2026-04-12T14:31:09.944Z</time></trkpt><trkpt lat="44.6529946" lon="10.2524051"><ele>336.0</ele><time>2026-04-12T14:31:10.945Z</time></trkpt><trkpt lat="44.6529203" lon="10.2525003"><ele>336.0</ele><time>2026-04-12T14:31:11.945Z</time></trkpt><trkpt lat="44.6528406" lon="10.2525899"><ele>336.0</ele><time>2026-04-12T14:31:12.945Z</time></trkpt><trkpt lat="44.6527488" lon="10.2526798"><ele>337.4</ele><time>2026-04-12T14:31:13.944Z</time></trkpt><trkpt lat="44.6526566" lon="10.2527784"><ele>338.8</ele><time>2026-04-12T14:31:14.944Z</time></trkpt><trkpt lat="44.6525644" lon="10.2528691"><ele>340.2</ele><time>2026-04-12T14:31:15.945Z</time></trkpt><trkpt lat="44.652473" lon="10.2529642"><ele>341.59999999999997</ele><time>2026-04-12T14:31:16.944Z</time></trkpt><trkpt lat="44.6523923" lon="10.2530526"><ele>343.0</ele><time>2026-04-12T14:31:17.944Z</time></trkpt><trkpt lat="44.6523077" lon="10.2531608"><ele>343.0</ele><time>2026-04-12T14:31:18.945Z</time></trkpt><trkpt lat="44.6522099" lon="10.2532942"><ele>343.0</ele><time>2026-04-12T14:31:19.944Z</time></trkpt><trkpt lat="44.6521173" lon="10.2534124"><ele>343.0</ele><time>2026-04-12T14:31:20.945Z</time></trkpt><trkpt lat="44.6520394" lon="10.2535414"><ele>343.0</ele><time>2026-04-12T14:31:21.944Z</time></trkpt><trkpt lat="44.651987" lon="10.2536848"><ele>343.0</ele><time>2026-04-12T14:31:22.945Z</time></trkpt><trkpt lat="44.6519668" lon="10.253871"><ele>343.0</ele><time>2026-04-12T14:31:23.944Z</time></trkpt><trkpt lat="44.6519719" lon="10.254046"><ele>343.0</ele><time>2026-04-12T14:31:24.945Z</time></trkpt><trkpt lat="44.6519659" lon="10.2542363"><ele>343.0</ele><time>2026-04-12T14:31:25.945Z</time></trkpt><trkpt lat="44.6519489" lon="10.2544225"><ele>345.0</ele><time>2026-04-12T14:31:26.944Z</time></trkpt><trkpt lat="44.6519223" lon="10.254617"><ele>347.0</ele><time>2026-04-12T14:31:27.944Z</time></trkpt><trkpt lat="44.6518834" lon="10.25482"><ele>349.0</ele><time>2026-04-12T14:31:28.944Z</time></trkpt><trkpt lat="44.6518351" lon="10.2550267"><ele>351.0</ele><time>2026-04-12T14:31:29.945Z</time></trkpt><trkpt lat="44.6517886" lon="10.255235"><ele>352.5</ele><time>2026-04-12T14:31:30.944Z</time></trkpt><trkpt lat="44.6517396" lon="10.2554097"><ele>354.0</ele><time>2026-04-12T14:31:31.945Z</time></trkpt><trkpt lat="44.651719" lon="10.2555982"><ele>355.5</ele><time>2026-04-12T14:31:32.944Z</time></trkpt><trkpt lat="44.651691" lon="10.2557781"><ele>357.0</ele><time>2026-04-12T14:31:33.945Z</time></trkpt><trkpt lat="44.6516672" lon="10.2559635"><ele>357.5</ele><time>2026-04-12T14:31:34.944Z</time></trkpt><trkpt lat="44.6516366" lon="10.2561072"><ele>358.0</ele><time>2026-04-12T14:31:35.944Z</time></trkpt><trkpt lat="44.6515946" lon="10.2562685"><ele>358.5</ele><time>2026-04-12T14:31:36.944Z</time></trkpt><trkpt lat="44.6515271" lon="10.2564471"><ele>359.0</ele><time>2026-04-12T14:31:37.945Z</time></trkpt><trkpt lat="44.6514418" lon="10.2566398"><ele>359.0</ele><time>2026-04-12T14:31:38.944Z</time></trkpt><trkpt lat="44.6513577" lon="10.2568514"><ele>359.0</ele><time>2026-04-12T14:31:39.944Z</time></trkpt><trkpt lat="44.6512881" lon="10.2570616"><ele>359.0</ele><time>2026-04-12T14:31:40.944Z</time></trkpt><trkpt lat="44.6512372" lon="10.2572432"><ele>360.0</ele><time>2026-04-12T14:31:41.943Z</time></trkpt><trkpt lat="44.6511846" lon="10.2574034"><ele>361.0</ele><time>2026-04-12T14:31:42.945Z</time></trkpt><trkpt lat="44.6511318" lon="10.2575378"><ele>362.0</ele><time>2026-04-12T14:31:43.945Z</time></trkpt><trkpt lat="44.6510623" lon="10.2576571"><ele>363.0</ele><time>2026-04-12T14:31:44.945Z</time></trkpt><trkpt lat="44.6509681" lon="10.2577483"><ele>366.4</ele><time>2026-04-12T14:31:45.945Z</time></trkpt><trkpt lat="44.6508606" lon="10.2578062"><ele>369.79999999999995</ele><time>2026-04-12T14:31:46.945Z</time></trkpt><trkpt lat="44.6507703" lon="10.2578454"><ele>373.2</ele><time>2026-04-12T14:31:47.943Z</time></trkpt><trkpt lat="44.6506982" lon="10.2579229"><ele>376.6</ele><time>2026-04-12T14:31:49.944Z</time></trkpt><trkpt lat="44.6507042" lon="10.258049"><ele>380.0</ele><time>2026-04-12T14:31:51.945Z</time></trkpt><trkpt lat="44.650731" lon="10.2581372"><ele>380.33333333333337</ele><time>2026-04-12T14:31:52.945Z</time></trkpt><trkpt lat="44.6507625" lon="10.2582349"><ele>380.6666666666667</ele><time>2026-04-12T14:31:53.944Z</time></trkpt><trkpt lat="44.6507941" lon="10.2583461"><ele>381.0</ele><time>2026-04-12T14:31:54.944Z</time></trkpt><trkpt lat="44.6508276" lon="10.2584544"><ele>381.3333333333333</ele><time>2026-04-12T14:31:55.945Z</time></trkpt><trkpt lat="44.6508594" lon="10.2585646"><ele>381.66666666666663</ele><time>2026-04-12T14:31:56.945Z</time></trkpt><trkpt lat="44.650888" lon="10.2586765"><ele>382.0</ele><time>2026-04-12T14:31:57.944Z</time></trkpt><trkpt lat="44.6509211" lon="10.2587865"><ele>382.0</ele><time>2026-04-12T14:31:58.944Z</time></trkpt><trkpt lat="44.6509647" lon="10.2588986"><ele>382.0</ele><time>2026-04-12T14:31:59.945Z</time></trkpt><trkpt lat="44.6510196" lon="10.259002"><ele>382.0</ele><time>2026-04-12T14:32:00.944Z</time></trkpt><trkpt lat="44.651094" lon="10.2590781"><ele>382.0</ele><time>2026-04-12T14:32:01.944Z</time></trkpt><trkpt lat="44.6511892" lon="10.2591226"><ele>382.0</ele><time>2026-04-12T14:32:02.945Z</time></trkpt><trkpt lat="44.6512968" lon="10.259151"><ele>382.0</ele><time>2026-04-12T14:32:03.945Z</time></trkpt><trkpt lat="44.6514087" lon="10.2591803"><ele>382.0</ele><time>2026-04-12T14:32:04.944Z</time></trkpt><trkpt lat="44.6515165" lon="10.2592105"><ele>382.0</ele><time>2026-04-12T14:32:05.945Z</time></trkpt><trkpt lat="44.6516254" lon="10.2592377"><ele>382.0</ele><time>2026-04-12T14:32:06.945Z</time></trkpt><trkpt lat="44.6517369" lon="10.2592553"><ele>382.0</ele><time>2026-04-12T14:32:07.945Z</time></trkpt><trkpt lat="44.6518511" lon="10.2592662"><ele>381.75</ele><time>2026-04-12T14:32:08.945Z</time></trkpt><trkpt lat="44.6519649" lon="10.2592796"><ele>381.5</ele><time>2026-04-12T14:32:09.943Z</time></trkpt><trkpt lat="44.6520818" lon="10.2592952"><ele>381.25</ele><time>2026-04-12T14:32:10.945Z</time></trkpt><trkpt lat="44.6521913" lon="10.2593263"><ele>381.0</ele><time>2026-04-12T14:32:11.944Z</time></trkpt><trkpt lat="44.652305" lon="10.2593621"><ele>381.0</ele><time>2026-04-12T14:32:12.945Z</time></trkpt><trkpt lat="44.6524092" lon="10.259399"><ele>381.0</ele><time>2026-04-12T14:32:13.945Z</time></trkpt><trkpt lat="44.6525186" lon="10.2594256"><ele>381.0</ele><time>2026-04-12T14:32:14.944Z</time></trkpt><trkpt lat="44.6526427" lon="10.2594754"><ele>381.0</ele><time>2026-04-12T14:32:15.944Z</time></trkpt><trkpt lat="44.6527694" lon="10.2595619"><ele>380.25</ele><time>2026-04-12T14:32:16.945Z</time></trkpt><trkpt lat="44.6528877" lon="10.2596325"><ele>379.5</ele><time>2026-04-12T14:32:17.944Z</time></trkpt><trkpt lat="44.6530029" lon="10.2597072"><ele>378.75</ele><time>2026-04-12T14:32:18.944Z</time></trkpt><trkpt lat="44.653116" lon="10.2597824"><ele>378.0</ele><time>2026-04-12T14:32:19.944Z</time></trkpt><trkpt lat="44.6532317" lon="10.2598615"><ele>376.75</ele><time>2026-04-12T14:32:20.944Z</time></trkpt><trkpt lat="44.6533496" lon="10.2599493"><ele>375.5</ele><time>2026-04-12T14:32:21.945Z</time></trkpt><trkpt lat="44.6534743" lon="10.2600453"><ele>374.25</ele><time>2026-04-12T14:32:22.944Z</time></trkpt><trkpt lat="44.6536037" lon="10.2601447"><ele>373.0</ele><time>2026-04-12T14:32:23.943Z</time></trkpt><trkpt lat="44.6537335" lon="10.2602429"><ele>372.0</ele><time>2026-04-12T14:32:24.945Z</time></trkpt><trkpt lat="44.653869" lon="10.260343"><ele>371.0</ele><time>2026-04-12T14:32:25.945Z</time></trkpt><trkpt lat="44.6540052" lon="10.260436"><ele>370.0</ele><time>2026-04-12T14:32:26.945Z</time></trkpt><trkpt lat="44.6541494" lon="10.2605263"><ele>370.0</ele><time>2026-04-12T14:32:27.944Z</time></trkpt><trkpt lat="44.6542984" lon="10.2606039"><ele>370.0</ele><time>2026-04-12T14:32:28.944Z</time></trkpt><trkpt lat="44.6544398" lon="10.2606699"><ele>370.0</ele><time>2026-04-12T14:32:29.944Z</time></trkpt><trkpt lat="44.6545693" lon="10.2607349"><ele>370.0</ele><time>2026-04-12T14:32:30.944Z</time></trkpt><trkpt lat="44.6546868" lon="10.2607993"><ele>369.4</ele><time>2026-04-12T14:32:31.945Z</time></trkpt><trkpt lat="44.654792" lon="10.2608635"><ele>368.8</ele><time>2026-04-12T14:32:32.943Z</time></trkpt><trkpt lat="44.6548873" lon="10.2609234"><ele>368.20000000000005</ele><time>2026-04-12T14:32:33.944Z</time></trkpt><trkpt lat="44.6549786" lon="10.2609538"><ele>367.6</ele><time>2026-04-12T14:32:34.945Z</time></trkpt><trkpt lat="44.6550718" lon="10.2609566"><ele>367.0</ele><time>2026-04-12T14:32:35.945Z</time></trkpt><trkpt lat="44.6551671" lon="10.2609447"><ele>367.0</ele><time>2026-04-12T14:32:36.943Z</time></trkpt><trkpt lat="44.6552606" lon="10.2609239"><ele>367.0</ele><time>2026-04-12T14:32:37.944Z</time></trkpt><trkpt lat="44.6553668" lon="10.2608862"><ele>367.0</ele><time>2026-04-12T14:32:38.944Z</time></trkpt><trkpt lat="44.6554796" lon="10.2608356"><ele>367.0</ele><time>2026-04-12T14:32:39.944Z</time></trkpt><trkpt lat="44.6555892" lon="10.2607787"><ele>367.0</ele><time>2026-04-12T14:32:40.944Z</time></trkpt><trkpt lat="44.6556994" lon="10.2607288"><ele>368.8333333333333</ele><time>2026-04-12T14:32:41.945Z</time></trkpt><trkpt lat="44.6557915" lon="10.2607123"><ele>370.66666666666663</ele><time>2026-04-12T14:32:42.944Z</time></trkpt><trkpt lat="44.6558671" lon="10.260718"><ele>372.5</ele><time>2026-04-12T14:32:43.945Z</time></trkpt><trkpt lat="44.6559691" lon="10.2607722"><ele>374.3333333333333</ele><time>2026-04-12T14:32:45.945Z</time></trkpt><trkpt lat="44.656025" lon="10.2608657"><ele>376.1666666666667</ele><time>2026-04-12T14:32:47.944Z</time></trkpt><trkpt lat="44.6560621" lon="10.2609677"><ele>378.0</ele><time>2026-04-12T14:32:49.944Z</time></trkpt><trkpt lat="44.6561103" lon="10.2610812"><ele>378.8333333333333</ele><time>2026-04-12T14:32:52.944Z</time></trkpt><trkpt lat="44.6561717" lon="10.2611822"><ele>379.6666666666667</ele><time>2026-04-12T14:32:54.945Z</time></trkpt><trkpt lat="44.6562032" lon="10.261271"><ele>380.5</ele><time>2026-04-12T14:32:55.944Z</time></trkpt><trkpt lat="44.6562401" lon="10.2613719"><ele>381.33333333333337</ele><time>2026-04-12T14:32:56.944Z</time></trkpt><trkpt lat="44.6562803" lon="10.2614748"><ele>382.1666666666667</ele><time>2026-04-12T14:32:57.945Z</time></trkpt><trkpt lat="44.6563101" lon="10.2616105"><ele>383.0</ele><time>2026-04-12T14:32:58.945Z</time></trkpt><trkpt lat="44.6563398" lon="10.2617025"><ele>383.5</ele><time>2026-04-12T14:32:59.945Z</time></trkpt><trkpt lat="44.6563499" lon="10.2617942"><ele>384.0</ele><time>2026-04-12T14:33:00.944Z</time></trkpt><trkpt lat="44.6563772" lon="10.2618971"><ele>384.5</ele><time>2026-04-12T14:33:01.944Z</time></trkpt><trkpt lat="44.6564199" lon="10.2619814"><ele>385.0</ele><time>2026-04-12T14:33:02.945Z</time></trkpt><trkpt lat="44.6564694" lon="10.2620478"><ele>385.49999999999994</ele><time>2026-04-12T14:33:03.945Z</time></trkpt><trkpt lat="44.6565224" lon="10.2621256"><ele>386.0</ele><time>2026-04-12T14:33:04.943Z</time></trkpt><trkpt lat="44.6566009" lon="10.2622676"><ele>386.0</ele><time>2026-04-12T14:33:06.945Z</time></trkpt><trkpt lat="44.6566793" lon="10.2623461"><ele>386.0</ele><time>2026-04-12T14:33:08.944Z</time></trkpt><trkpt lat="44.6566116" lon="10.2622761"><ele>386.0</ele><time>2026-04-12T14:33:20.945Z</time></trkpt><trkpt lat="44.6565567" lon="10.2622024"><ele>386.0</ele><time>2026-04-12T14:33:21.945Z</time></trkpt><trkpt lat="44.6565052" lon="10.2621257"><ele>386.0</ele><time>2026-04-12T14:33:22.944Z</time></trkpt><trkpt lat="44.6564382" lon="10.2619878"><ele>386.0</ele><time>2026-04-12T14:33:23.944Z</time></trkpt><trkpt lat="44.6563979" lon="10.261896"><ele>386.0</ele><time>2026-04-12T14:33:24.943Z</time></trkpt><trkpt lat="44.6563496" lon="10.2617946"><ele>386.0</ele><time>2026-04-12T14:33:25.945Z</time></trkpt><trkpt lat="44.6563077" lon="10.2616522"><ele>386.0</ele><time>2026-04-12T14:33:26.943Z</time></trkpt><trkpt lat="44.6562602" lon="10.2615201"><ele>386.0</ele><time>2026-04-12T14:33:27.944Z</time></trkpt><trkpt lat="44.6561828" lon="10.2613054"><ele>385.4</ele><time>2026-04-12T14:33:28.944Z</time></trkpt><trkpt lat="44.656121" lon="10.2611562"><ele>384.8</ele><time>2026-04-12T14:33:29.945Z</time></trkpt><trkpt lat="44.6560649" lon="10.2610277"><ele>384.2</ele><time>2026-04-12T14:33:30.944Z</time></trkpt><trkpt lat="44.6560209" lon="10.2609201"><ele>383.59999999999997</ele><time>2026-04-12T14:33:31.945Z</time></trkpt><trkpt lat="44.6559858" lon="10.2607768"><ele>383.0</ele><time>2026-04-12T14:33:33.944Z</time></trkpt><trkpt lat="44.6560359" lon="10.2606688"><ele>381.4</ele><time>2026-04-12T14:33:35.944Z</time></trkpt><trkpt lat="44.6560963" lon="10.2606118"><ele>379.79999999999995</ele><time>2026-04-12T14:33:36.945Z</time></trkpt><trkpt lat="44.6561803" lon="10.2605526"><ele>378.2</ele><time>2026-04-12T14:33:37.944Z</time></trkpt><trkpt lat="44.6562791" lon="10.2604853"><ele>376.6</ele><time>2026-04-12T14:33:38.944Z</time></trkpt><trkpt lat="44.6563875" lon="10.2604145"><ele>375.0</ele><time>2026-04-12T14:33:39.943Z</time></trkpt><trkpt lat="44.6564931" lon="10.260342"><ele>374.0</ele><time>2026-04-12T14:33:40.942Z</time></trkpt><trkpt lat="44.6565985" lon="10.2602716"><ele>373.0</ele><time>2026-04-12T14:33:41.943Z</time></trkpt><trkpt lat="44.6566955" lon="10.2601889"><ele>372.0</ele><time>2026-04-12T14:33:42.944Z</time></trkpt><trkpt lat="44.6567876" lon="10.2601144"><ele>371.0</ele><time>2026-04-12T14:33:43.943Z</time></trkpt><trkpt lat="44.6568727" lon="10.2600869"><ele>370.0</ele><time>2026-04-12T14:33:44.944Z</time></trkpt><trkpt lat="44.6569605" lon="10.2600862"><ele>365.75</ele><time>2026-04-12T14:33:45.944Z</time></trkpt><trkpt lat="44.6570452" lon="10.2600802"><ele>361.5</ele><time>2026-04-12T14:33:46.944Z</time></trkpt><trkpt lat="44.6570987" lon="10.2602465"><ele>357.25</ele><time>2026-04-12T14:33:47.942Z</time></trkpt><trkpt lat="44.6571581" lon="10.2603827"><ele>353.0</ele><time>2026-04-12T14:33:48.943Z</time></trkpt><trkpt lat="44.6572342" lon="10.2605445"><ele>354.75</ele><time>2026-04-12T14:33:49.944Z</time></trkpt><trkpt lat="44.6573129" lon="10.2607156"><ele>356.5</ele><time>2026-04-12T14:33:50.944Z</time></trkpt><trkpt lat="44.6574001" lon="10.2608831"><ele>358.25</ele><time>2026-04-12T14:33:51.944Z</time></trkpt><trkpt lat="44.6574815" lon="10.2610477"><ele>360.0</ele><time>2026-04-12T14:33:52.944Z</time></trkpt><trkpt lat="44.6575549" lon="10.261182"><ele>360.0</ele><time>2026-04-12T14:33:53.942Z</time></trkpt><trkpt lat="44.6576336" lon="10.2613017"><ele>360.0</ele><time>2026-04-12T14:33:54.944Z</time></trkpt><trkpt lat="44.6577642" lon="10.261352"><ele>360.0</ele><time>2026-04-12T14:33:55.942Z</time></trkpt><trkpt lat="44.6578707" lon="10.2614142"><ele>360.0</ele><time>2026-04-12T14:33:56.944Z</time></trkpt><trkpt lat="44.6579637" lon="10.2613902"><ele>354.5</ele><time>2026-04-12T14:33:57.944Z</time></trkpt><trkpt lat="44.658086" lon="10.2613931"><ele>349.0</ele><time>2026-04-12T14:33:58.943Z</time></trkpt><trkpt lat="44.6582195" lon="10.2613484"><ele>343.5</ele><time>2026-04-12T14:33:59.944Z</time></trkpt><trkpt lat="44.6583536" lon="10.2613571"><ele>338.0</ele><time>2026-04-12T14:34:00.943Z</time></trkpt><trkpt lat="44.6584792" lon="10.2613844"><ele>338.0</ele><time>2026-04-12T14:34:01.943Z</time></trkpt><trkpt lat="44.6585954" lon="10.2614132"><ele>338.0</ele><time>2026-04-12T14:34:02.944Z</time></trkpt><trkpt lat="44.6587115" lon="10.2614355"><ele>338.0</ele><time>2026-04-12T14:34:03.943Z</time></trkpt><trkpt lat="44.6588237" lon="10.2614563"><ele>338.0</ele><time>2026-04-12T14:34:04.944Z</time></trkpt><trkpt lat="44.6589293" lon="10.2614729"><ele>338.33333333333337</ele><time>2026-04-12T14:34:05.944Z</time></trkpt><trkpt lat="44.6590361" lon="10.2614916"><ele>338.6666666666667</ele><time>2026-04-12T14:34:06.944Z</time></trkpt><trkpt lat="44.6591253" lon="10.2615116"><ele>339.0</ele><time>2026-04-12T14:34:07.943Z</time></trkpt><trkpt lat="44.6591938" lon="10.2615359"><ele>339.3333333333333</ele><time>2026-04-12T14:34:08.944Z</time></trkpt><trkpt lat="44.6592779" lon="10.2615278"><ele>339.66666666666663</ele><time>2026-04-12T14:34:10.943Z</time></trkpt><trkpt lat="44.6593475" lon="10.261495"><ele>340.0</ele><time>2026-04-12T14:34:13.943Z</time></trkpt><trkpt lat="44.6594177" lon="10.2614543"><ele>338.66666666666663</ele><time>2026-04-12T14:34:37.944Z</time></trkpt><trkpt lat="44.6595036" lon="10.2614039"><ele>337.3333333333333</ele><time>2026-04-12T14:34:40.943Z</time></trkpt><trkpt lat="44.6595751" lon="10.2613579"><ele>336.0</ele><time>2026-04-12T14:34:42.942Z</time></trkpt><trkpt lat="44.659642" lon="10.2613041"><ele>334.6666666666667</ele><time>2026-04-12T14:34:45.943Z</time></trkpt><trkpt lat="44.659726" lon="10.2612996"><ele>333.33333333333337</ele><time>2026-04-12T14:34:47.942Z</time></trkpt><trkpt lat="44.6598205" lon="10.2612921"><ele>332.0</ele><time>2026-04-12T14:34:49.944Z</time></trkpt><trkpt lat="44.6598881" lon="10.2612895"><ele>332.0</ele><time>2026-04-12T14:34:51.944Z</time></trkpt><trkpt lat="44.6599592" lon="10.2612991"><ele>332.0</ele><time>2026-04-12T14:34:53.944Z</time></trkpt><trkpt lat="44.6600464" lon="10.2613189"><ele>332.0</ele><time>2026-04-12T14:34:55.944Z</time></trkpt><trkpt lat="44.6601336" lon="10.261321"><ele>332.0</ele><time>2026-04-12T14:34:57.944Z</time></trkpt><trkpt lat="44.6602175" lon="10.261322"><ele>332.0</ele><time>2026-04-12T14:34:59.943Z</time></trkpt><trkpt lat="44.6603048" lon="10.2613088"><ele>332.0</ele><time>2026-04-12T14:35:01.944Z</time></trkpt><trkpt lat="44.6603996" lon="10.2612914"><ele>329.0</ele><time>2026-04-12T14:35:03.944Z</time></trkpt><trkpt lat="44.6604878" lon="10.2612573"><ele>326.0</ele><time>2026-04-12T14:35:05.943Z</time></trkpt><trkpt lat="44.6605841" lon="10.2612252"><ele>323.0</ele><time>2026-04-12T14:35:07.943Z</time></trkpt><trkpt lat="44.660664" lon="10.2612013"><ele>320.0</ele><time>2026-04-12T14:35:09.944Z</time></trkpt><trkpt lat="44.6607296" lon="10.2611639"><ele>317.0</ele><time>2026-04-12T14:35:11.943Z</time></trkpt><trkpt lat="44.6608187" lon="10.2611169"><ele>314.0</ele><time>2026-04-12T14:35:14.943Z</time></trkpt><trkpt lat="44.6608895" lon="10.2610817"><ele>314.0</ele><time>2026-04-12T14:35:16.943Z</time></trkpt><trkpt lat="44.6609606" lon="10.2610572"><ele>314.0</ele><time>2026-04-12T14:35:18.944Z</time></trkpt><trkpt lat="44.6610343" lon="10.2610317"><ele>314.0</ele><time>2026-04-12T14:35:20.944Z</time></trkpt><trkpt lat="44.6611015" lon="10.2610152"><ele>314.0</ele><time>2026-04-12T14:35:22.943Z</time></trkpt><trkpt lat="44.6611888" lon="10.2609816"><ele>314.0</ele><time>2026-04-12T14:35:24.943Z</time></trkpt><trkpt lat="44.6612899" lon="10.2609644"><ele>314.0</ele><time>2026-04-12T14:35:26.944Z</time></trkpt><trkpt lat="44.6613946" lon="10.2609408"><ele>311.0</ele><time>2026-04-12T14:35:28.944Z</time></trkpt><trkpt lat="44.6614891" lon="10.2609063"><ele>308.0</ele><time>2026-04-12T14:35:30.944Z</time></trkpt><trkpt lat="44.6615837" lon="10.26089"><ele>305.0</ele><time>2026-04-12T14:35:32.943Z</time></trkpt><trkpt lat="44.6616785" lon="10.2608667"><ele>302.0</ele><time>2026-04-12T14:35:34.944Z</time></trkpt><trkpt lat="44.661784" lon="10.2608375"><ele>299.0</ele><time>2026-04-12T14:35:36.944Z</time></trkpt><trkpt lat="44.6618905" lon="10.2607978"><ele>296.0</ele><time>2026-04-12T14:35:38.944Z</time></trkpt><trkpt lat="44.6619891" lon="10.2607577"><ele>293.0</ele><time>2026-04-12T14:35:40.943Z</time></trkpt><trkpt lat="44.6620947" lon="10.2607231"><ele>290.0</ele><time>2026-04-12T14:35:42.944Z</time></trkpt><trkpt lat="44.662212" lon="10.2606806"><ele>287.0</ele><time>2026-04-12T14:35:44.943Z</time></trkpt><trkpt lat="44.6622734" lon="10.2606589"><ele>284.0</ele><time>2026-04-12T14:35:45.944Z</time></trkpt><trkpt lat="44.6623901" lon="10.2606178"><ele>284.2</ele><time>2026-04-12T14:35:47.944Z</time></trkpt><trkpt lat="44.6624903" lon="10.2605737"><ele>284.4</ele><time>2026-04-12T14:35:49.944Z</time></trkpt><trkpt lat="44.6625779" lon="10.2605046"><ele>284.6</ele><time>2026-04-12T14:35:51.944Z</time></trkpt><trkpt lat="44.6626593" lon="10.2604219"><ele>284.8</ele><time>2026-04-12T14:35:53.943Z</time></trkpt><trkpt lat="44.6627685" lon="10.260308"><ele>285.0</ele><time>2026-04-12T14:35:55.943Z</time></trkpt><trkpt lat="44.6628296" lon="10.2602423"><ele>283.0</ele><time>2026-04-12T14:35:56.943Z</time></trkpt><trkpt lat="44.662883" lon="10.2601783"><ele>281.0</ele><time>2026-04-12T14:35:57.943Z</time></trkpt><trkpt lat="44.6629326" lon="10.2601207"><ele>279.0</ele><time>2026-04-12T14:35:58.943Z</time></trkpt><trkpt lat="44.662988" lon="10.2600767"><ele>277.0</ele><time>2026-04-12T14:35:59.943Z</time></trkpt><trkpt lat="44.663103" lon="10.2600186"><ele>275.0</ele><time>2026-04-12T14:36:01.943Z</time></trkpt><trkpt lat="44.6632231" lon="10.2600248"><ele>273.0</ele><time>2026-04-12T14:36:03.944Z</time></trkpt><trkpt lat="44.6633452" lon="10.260086"><ele>273.0</ele><time>2026-04-12T14:36:05.944Z</time></trkpt><trkpt lat="44.6634061" lon="10.2601276"><ele>273.0</ele><time>2026-04-12T14:36:06.942Z</time></trkpt><trkpt lat="44.6634672" lon="10.2601728"><ele>273.0</ele><time>2026-04-12T14:36:07.943Z</time></trkpt><trkpt lat="44.6635276" lon="10.26022"><ele>273.0</ele><time>2026-04-12T14:36:08.944Z</time></trkpt><trkpt lat="44.6635913" lon="10.2602644"><ele>273.0</ele><time>2026-04-12T14:36:09.944Z</time></trkpt><trkpt lat="44.6636619" lon="10.260322"><ele>273.0</ele><time>2026-04-12T14:36:10.944Z</time></trkpt><trkpt lat="44.6637315" lon="10.260381"><ele>273.0</ele><time>2026-04-12T14:36:11.943Z</time></trkpt><trkpt lat="44.6638013" lon="10.2604389"><ele>272.5</ele><time>2026-04-12T14:36:12.943Z</time></trkpt><trkpt lat="44.6638768" lon="10.2604967"><ele>272.0</ele><time>2026-04-12T14:36:13.943Z</time></trkpt><trkpt lat="44.6639527" lon="10.2605547"><ele>271.5</ele><time>2026-04-12T14:36:14.944Z</time></trkpt><trkpt lat="44.6640284" lon="10.2606179"><ele>271.0</ele><time>2026-04-12T14:36:15.943Z</time></trkpt><trkpt lat="44.6641029" lon="10.2606756"><ele>270.5</ele><time>2026-04-12T14:36:16.944Z</time></trkpt><trkpt lat="44.66418" lon="10.2607386"><ele>270.0</ele><time>2026-04-12T14:36:17.943Z</time></trkpt><trkpt lat="44.664263" lon="10.2607966"><ele>270.0</ele><time>2026-04-12T14:36:18.943Z</time></trkpt><trkpt lat="44.6643483" lon="10.2608575"><ele>270.0</ele><time>2026-04-12T14:36:19.944Z</time></trkpt><trkpt lat="44.6644365" lon="10.2609207"><ele>270.0</ele><time>2026-04-12T14:36:20.944Z</time></trkpt><trkpt lat="44.6645245" lon="10.2609876"><ele>270.0</ele><time>2026-04-12T14:36:21.944Z</time></trkpt><trkpt lat="44.6646186" lon="10.2610626"><ele>270.0</ele><time>2026-04-12T14:36:22.944Z</time></trkpt><trkpt lat="44.664713" lon="10.26114"><ele>266.75</ele><time>2026-04-12T14:36:23.944Z</time></trkpt><trkpt lat="44.6648056" lon="10.261225"><ele>263.5</ele><time>2026-04-12T14:36:24.942Z</time></trkpt><trkpt lat="44.6648996" lon="10.2613099"><ele>260.25</ele><time>2026-04-12T14:36:25.944Z</time></trkpt><trkpt lat="44.6649974" lon="10.2613959"><ele>257.0</ele><time>2026-04-12T14:36:26.944Z</time></trkpt><trkpt lat="44.6650924" lon="10.2614843"><ele>256.2</ele><time>2026-04-12T14:36:27.943Z</time></trkpt><trkpt lat="44.6651828" lon="10.2615686"><ele>255.39999999999998</ele><time>2026-04-12T14:36:28.944Z</time></trkpt><trkpt lat="44.6652642" lon="10.2616455"><ele>254.60000000000002</ele><time>2026-04-12T14:36:29.944Z</time></trkpt><trkpt lat="44.6653466" lon="10.2617219"><ele>253.8</ele><time>2026-04-12T14:36:30.943Z</time></trkpt><trkpt lat="44.6654285" lon="10.2617975"><ele>253.0</ele><time>2026-04-12T14:36:31.944Z</time></trkpt><trkpt lat="44.6655094" lon="10.2618697"><ele>252.60000000000002</ele><time>2026-04-12T14:36:32.943Z</time></trkpt><trkpt lat="44.6655862" lon="10.261947"><ele>252.20000000000002</ele><time>2026-04-12T14:36:33.943Z</time></trkpt><trkpt lat="44.6656621" lon="10.2620208"><ele>251.8</ele><time>2026-04-12T14:36:34.943Z</time></trkpt><trkpt lat="44.66574" lon="10.2620907"><ele>251.4</ele><time>2026-04-12T14:36:35.943Z</time></trkpt><trkpt lat="44.6658178" lon="10.2621669"><ele>251.0</ele><time>2026-04-12T14:36:36.944Z</time></trkpt><trkpt lat="44.6658979" lon="10.2622319"><ele>251.00000000000003</ele><time>2026-04-12T14:36:37.944Z</time></trkpt><trkpt lat="44.6659731" lon="10.2622896"><ele>251.0</ele><time>2026-04-12T14:36:38.943Z</time></trkpt><trkpt lat="44.6660384" lon="10.2623367"><ele>251.0</ele><time>2026-04-12T14:36:39.944Z</time></trkpt><trkpt lat="44.6660945" lon="10.2623812"><ele>251.0</ele><time>2026-04-12T14:36:40.943Z</time></trkpt><trkpt lat="44.6661489" lon="10.2624259"><ele>251.00000000000003</ele><time>2026-04-12T14:36:41.943Z</time></trkpt><trkpt lat="44.6662328" lon="10.2625223"><ele>251.0</ele><time>2026-04-12T14:36:43.943Z</time></trkpt><trkpt lat="44.6663086" lon="10.2626002"><ele>250.50000000000003</ele><time>2026-04-12T14:36:45.943Z</time></trkpt><trkpt lat="44.6663675" lon="10.2626532"><ele>250.0</ele><time>2026-04-12T14:36:47.942Z</time></trkpt><trkpt lat="44.6664215" lon="10.2627089"><ele>249.5</ele><time>2026-04-12T14:36:49.943Z</time></trkpt><trkpt lat="44.6664754" lon="10.2627582"><ele>249.0</ele><time>2026-04-12T14:36:51.944Z</time></trkpt><trkpt lat="44.6665374" lon="10.2628225"><ele>248.50000000000003</ele><time>2026-04-12T14:36:53.944Z</time></trkpt><trkpt lat="44.6666179" lon="10.2629043"><ele>248.0</ele><time>2026-04-12T14:36:55.943Z</time></trkpt><trkpt lat="44.6667153" lon="10.2629861"><ele>248.00000000000003</ele><time>2026-04-12T14:36:57.943Z</time></trkpt><trkpt lat="44.6667779" lon="10.2630412"><ele>248.0</ele><time>2026-04-12T14:36:58.943Z</time></trkpt><trkpt lat="44.6668413" lon="10.2631022"><ele>248.0</ele><time>2026-04-12T14:36:59.943Z</time></trkpt><trkpt lat="44.6669014" lon="10.2631665"><ele>248.0</ele><time>2026-04-12T14:37:00.944Z</time></trkpt><trkpt lat="44.6669641" lon="10.2632356"><ele>248.00000000000003</ele><time>2026-04-12T14:37:01.944Z</time></trkpt><trkpt lat="44.6670344" lon="10.2633049"><ele>248.0</ele><time>2026-04-12T14:37:02.944Z</time></trkpt><trkpt lat="44.6671166" lon="10.2633735"><ele>247.66666666666669</ele><time>2026-04-12T14:37:03.942Z</time></trkpt><trkpt lat="44.667194" lon="10.263441"><ele>247.33333333333334</ele><time>2026-04-12T14:37:04.943Z</time></trkpt><trkpt lat="44.6672665" lon="10.2635042"><ele>247.0</ele><time>2026-04-12T14:37:05.944Z</time></trkpt><trkpt lat="44.6673252" lon="10.2635733"><ele>246.66666666666669</ele><time>2026-04-12T14:37:06.944Z</time></trkpt><trkpt lat="44.6673786" lon="10.2636404"><ele>246.33333333333334</ele><time>2026-04-12T14:37:07.944Z</time></trkpt><trkpt lat="44.6674345" lon="10.2637044"><ele>246.0</ele><time>2026-04-12T14:37:08.943Z</time></trkpt><trkpt lat="44.6674895" lon="10.2637715"><ele>246.00000000000003</ele><time>2026-04-12T14:37:09.944Z</time></trkpt><trkpt lat="44.6675391" lon="10.263843"><ele>246.0</ele><time>2026-04-12T14:37:10.943Z</time></trkpt><trkpt lat="44.6675822" lon="10.2639146"><ele>246.00000000000003</ele><time>2026-04-12T14:37:11.944Z</time></trkpt><trkpt lat="44.6676227" lon="10.2639928"><ele>246.00000000000003</ele><time>2026-04-12T14:37:12.943Z</time></trkpt><trkpt lat="44.6676691" lon="10.2640584"><ele>246.0</ele><time>2026-04-12T14:37:13.944Z</time></trkpt><trkpt lat="44.6677247" lon="10.2641224"><ele>246.00000000000003</ele><time>2026-04-12T14:37:14.944Z</time></trkpt><trkpt lat="44.6677921" lon="10.2641659"><ele>246.00000000000003</ele><time>2026-04-12T14:37:15.943Z</time></trkpt><trkpt lat="44.667854" lon="10.2642102"><ele>246.16666666666666</ele><time>2026-04-12T14:37:16.944Z</time></trkpt><trkpt lat="44.6679137" lon="10.26426"><ele>246.33333333333331</ele><time>2026-04-12T14:37:17.944Z</time></trkpt><trkpt lat="44.6679796" lon="10.2643087"><ele>246.5</ele><time>2026-04-12T14:37:18.944Z</time></trkpt><trkpt lat="44.6680439" lon="10.2643611"><ele>246.66666666666666</ele><time>2026-04-12T14:37:19.942Z</time></trkpt><trkpt lat="44.6681107" lon="10.2644133"><ele>246.83333333333331</ele><time>2026-04-12T14:37:20.942Z</time></trkpt><trkpt lat="44.6681817" lon="10.2644729"><ele>247.0</ele><time>2026-04-12T14:37:21.943Z</time></trkpt><trkpt lat="44.6682515" lon="10.2645365"><ele>247.0</ele><time>2026-04-12T14:37:22.944Z</time></trkpt><trkpt lat="44.6683234" lon="10.2646031"><ele>247.0</ele><time>2026-04-12T14:37:23.942Z</time></trkpt><trkpt lat="44.6684004" lon="10.2646765"><ele>247.0</ele><time>2026-04-12T14:37:24.943Z</time></trkpt><trkpt lat="44.6684813" lon="10.2647557"><ele>247.0</ele><time>2026-04-12T14:37:25.944Z</time></trkpt><trkpt lat="44.6685687" lon="10.2648435"><ele>247.0</ele><time>2026-04-12T14:37:26.944Z</time></trkpt><trkpt lat="44.6686672" lon="10.2649419"><ele>247.5</ele><time>2026-04-12T14:37:27.943Z</time></trkpt><trkpt lat="44.6687659" lon="10.2650403"><ele>248.0</ele><time>2026-04-12T14:37:28.944Z</time></trkpt><trkpt lat="44.6688615" lon="10.265135"><ele>248.5</ele><time>2026-04-12T14:37:29.943Z</time></trkpt><trkpt lat="44.6689567" lon="10.2652353"><ele>249.0</ele><time>2026-04-12T14:37:30.943Z</time></trkpt><trkpt lat="44.6690542" lon="10.2653346"><ele>249.0</ele><time>2026-04-12T14:37:31.943Z</time></trkpt><trkpt lat="44.6691512" lon="10.2654302"><ele>248.99999999999997</ele><time>2026-04-12T14:37:32.943Z</time></trkpt><trkpt lat="44.6692459" lon="10.2655114"><ele>248.99999999999997</ele><time>2026-04-12T14:37:33.944Z</time></trkpt><trkpt lat="44.669346" lon="10.2655718"><ele>249.0</ele><time>2026-04-12T14:37:34.943Z</time></trkpt><trkpt lat="44.669445" lon="10.2656255"><ele>249.0</ele><time>2026-04-12T14:37:35.944Z</time></trkpt><trkpt lat="44.6695494" lon="10.2656764"><ele>250.75</ele><time>2026-04-12T14:37:36.944Z</time></trkpt><trkpt lat="44.6696567" lon="10.2657265"><ele>252.5</ele><time>2026-04-12T14:37:37.944Z</time></trkpt><trkpt lat="44.6697643" lon="10.2657791"><ele>254.25</ele><time>2026-04-12T14:37:38.943Z</time></trkpt><trkpt lat="44.6698713" lon="10.2658346"><ele>256.0</ele><time>2026-04-12T14:37:39.943Z</time></trkpt><trkpt lat="44.6699754" lon="10.2659028"><ele>256.0</ele><time>2026-04-12T14:37:40.943Z</time></trkpt><trkpt lat="44.6700732" lon="10.2659838"><ele>256.0</ele><time>2026-04-12T14:37:41.944Z</time></trkpt><trkpt lat="44.6701555" lon="10.2660811"><ele>256.0</ele><time>2026-04-12T14:37:42.943Z</time></trkpt><trkpt lat="44.6702166" lon="10.2661868"><ele>256.0</ele><time>2026-04-12T14:37:43.943Z</time></trkpt><trkpt lat="44.6702696" lon="10.2662915"><ele>256.0</ele><time>2026-04-12T14:37:44.944Z</time></trkpt><trkpt lat="44.6703037" lon="10.2664099"><ele>259.75</ele><time>2026-04-12T14:37:45.944Z</time></trkpt><trkpt lat="44.6703334" lon="10.2665461"><ele>263.5</ele><time>2026-04-12T14:37:46.944Z</time></trkpt><trkpt lat="44.6703633" lon="10.2666989"><ele>267.25</ele><time>2026-04-12T14:37:47.944Z</time></trkpt><trkpt lat="44.670395" lon="10.2668678"><ele>271.0</ele><time>2026-04-12T14:37:48.944Z</time></trkpt><trkpt lat="44.6704343" lon="10.2670561"><ele>271.0</ele><time>2026-04-12T14:37:49.943Z</time></trkpt><trkpt lat="44.6704718" lon="10.2672545"><ele>271.0</ele><time>2026-04-12T14:37:50.944Z</time></trkpt><trkpt lat="44.6705065" lon="10.2674441"><ele>271.0</ele><time>2026-04-12T14:37:51.942Z</time></trkpt><trkpt lat="44.6705396" lon="10.2676166"><ele>271.0</ele><time>2026-04-12T14:37:52.943Z</time></trkpt><trkpt lat="44.6705811" lon="10.2677749"><ele>270.5</ele><time>2026-04-12T14:37:53.943Z</time></trkpt><trkpt lat="44.6706308" lon="10.2679305"><ele>270.0</ele><time>2026-04-12T14:37:54.944Z</time></trkpt><trkpt lat="44.6706933" lon="10.2680786"><ele>269.5</ele><time>2026-04-12T14:37:55.942Z</time></trkpt><trkpt lat="44.6707686" lon="10.2682389"><ele>269.0</ele><time>2026-04-12T14:37:56.944Z</time></trkpt><trkpt lat="44.67085" lon="10.2684003"><ele>268.75</ele><time>2026-04-12T14:37:57.943Z</time></trkpt><trkpt lat="44.6709176" lon="10.2685515"><ele>268.5</ele><time>2026-04-12T14:37:58.943Z</time></trkpt><trkpt lat="44.6709757" lon="10.2686918"><ele>268.25</ele><time>2026-04-12T14:37:59.943Z</time></trkpt><trkpt lat="44.6710536" lon="10.2688002"><ele>268.0</ele><time>2026-04-12T14:38:00.944Z</time></trkpt><trkpt lat="44.6711534" lon="10.2688823"><ele>264.25</ele><time>2026-04-12T14:38:01.944Z</time></trkpt><trkpt lat="44.6712731" lon="10.268953"><ele>260.5</ele><time>2026-04-12T14:38:02.943Z</time></trkpt><trkpt lat="44.6714043" lon="10.268999"><ele>256.75</ele><time>2026-04-12T14:38:03.944Z</time></trkpt><trkpt lat="44.6715333" lon="10.2690151"><ele>253.0</ele><time>2026-04-12T14:38:04.944Z</time></trkpt><trkpt lat="44.6716722" lon="10.2690082"><ele>253.0</ele><time>2026-04-12T14:38:05.944Z</time></trkpt><trkpt lat="44.6718207" lon="10.2689698"><ele>253.0</ele><time>2026-04-12T14:38:06.943Z</time></trkpt><trkpt lat="44.6719586" lon="10.2689288"><ele>253.0</ele><time>2026-04-12T14:38:07.943Z</time></trkpt><trkpt lat="44.6720899" lon="10.2688413"><ele>253.0</ele><time>2026-04-12T14:38:08.943Z</time></trkpt><trkpt lat="44.6722165" lon="10.2687949"><ele>256.75</ele><time>2026-04-12T14:38:09.943Z</time></trkpt><trkpt lat="44.6723467" lon="10.2687659"><ele>260.5</ele><time>2026-04-12T14:38:10.944Z</time></trkpt><trkpt lat="44.6724792" lon="10.2687402"><ele>264.25</ele><time>2026-04-12T14:38:11.942Z</time></trkpt><trkpt lat="44.6726265" lon="10.2687548"><ele>268.0</ele><time>2026-04-12T14:38:12.943Z</time></trkpt><trkpt lat="44.6727686" lon="10.2687703"><ele>267.25</ele><time>2026-04-12T14:38:13.943Z</time></trkpt><trkpt lat="44.6729097" lon="10.268824"><ele>266.5</ele><time>2026-04-12T14:38:14.942Z</time></trkpt><trkpt lat="44.6730441" lon="10.2689051"><ele>265.75</ele><time>2026-04-12T14:38:15.942Z</time></trkpt><trkpt lat="44.6731699" lon="10.269001"><ele>265.0</ele><time>2026-04-12T14:38:16.944Z</time></trkpt><trkpt lat="44.6732809" lon="10.269118"><ele>262.6</ele><time>2026-04-12T14:38:17.943Z</time></trkpt><trkpt lat="44.6733738" lon="10.2692339"><ele>260.2</ele><time>2026-04-12T14:38:18.943Z</time></trkpt><trkpt lat="44.6734618" lon="10.2693215"><ele>257.8</ele><time>2026-04-12T14:38:19.944Z</time></trkpt><trkpt lat="44.6735526" lon="10.2693914"><ele>255.4</ele><time>2026-04-12T14:38:20.944Z</time></trkpt><trkpt lat="44.6736422" lon="10.2694366"><ele>253.0</ele><time>2026-04-12T14:38:21.943Z</time></trkpt><trkpt lat="44.6737415" lon="10.2694135"><ele>252.60000000000002</ele><time>2026-04-12T14:38:22.943Z</time></trkpt><trkpt lat="44.6738397" lon="10.2693899"><ele>252.20000000000002</ele><time>2026-04-12T14:38:23.944Z</time></trkpt><trkpt lat="44.673942" lon="10.2693807"><ele>251.8</ele><time>2026-04-12T14:38:24.944Z</time></trkpt><trkpt lat="44.6740498" lon="10.2693865"><ele>251.4</ele><time>2026-04-12T14:38:25.944Z</time></trkpt><trkpt lat="44.6741662" lon="10.2694022"><ele>251.0</ele><time>2026-04-12T14:38:26.944Z</time></trkpt><trkpt lat="44.6742835" lon="10.2694215"><ele>251.0</ele><time>2026-04-12T14:38:27.944Z</time></trkpt><trkpt lat="44.6744057" lon="10.2694389"><ele>251.0</ele><time>2026-04-12T14:38:28.944Z</time></trkpt><trkpt lat="44.6745285" lon="10.2694573"><ele>251.0</ele><time>2026-04-12T14:38:29.943Z</time></trkpt><trkpt lat="44.6746526" lon="10.269479"><ele>251.0</ele><time>2026-04-12T14:38:30.944Z</time></trkpt><trkpt lat="44.674778" lon="10.2695015"><ele>248.25</ele><time>2026-04-12T14:38:31.944Z</time></trkpt><trkpt lat="44.674898" lon="10.2695132"><ele>245.5</ele><time>2026-04-12T14:38:32.943Z</time></trkpt><trkpt lat="44.675019" lon="10.2695117"><ele>242.75</ele><time>2026-04-12T14:38:33.943Z</time></trkpt><trkpt lat="44.6751356" lon="10.269489"><ele>240.0</ele><time>2026-04-12T14:38:34.944Z</time></trkpt><trkpt lat="44.6752527" lon="10.2694437"><ele>238.75</ele><time>2026-04-12T14:38:35.944Z</time></trkpt><trkpt lat="44.6753725" lon="10.2693967"><ele>237.5</ele><time>2026-04-12T14:38:36.943Z</time></trkpt><trkpt lat="44.6754949" lon="10.2693474"><ele>236.25</ele><time>2026-04-12T14:38:37.944Z</time></trkpt><trkpt lat="44.675621" lon="10.2692968"><ele>235.0</ele><time>2026-04-12T14:38:38.942Z</time></trkpt><trkpt lat="44.6757511" lon="10.2692499"><ele>235.0</ele><time>2026-04-12T14:38:39.943Z</time></trkpt><trkpt lat="44.67588" lon="10.2692058"><ele>235.0</ele><time>2026-04-12T14:38:40.944Z</time></trkpt><trkpt lat="44.676012" lon="10.2691593"><ele>235.0</ele><time>2026-04-12T14:38:41.944Z</time></trkpt><trkpt lat="44.6761399" lon="10.2691004"><ele>235.0</ele><time>2026-04-12T14:38:42.944Z</time></trkpt><trkpt lat="44.6762436" lon="10.269039"><ele>234.25</ele><time>2026-04-12T14:38:43.944Z</time></trkpt><trkpt lat="44.6763452" lon="10.2689637"><ele>233.5</ele><time>2026-04-12T14:38:44.944Z</time></trkpt><trkpt lat="44.6764599" lon="10.268857"><ele>232.75</ele><time>2026-04-12T14:38:45.944Z</time></trkpt><trkpt lat="44.676567" lon="10.2687539"><ele>232.0</ele><time>2026-04-12T14:38:46.944Z</time></trkpt><trkpt lat="44.6766498" lon="10.2687191"><ele>228.0</ele><time>2026-04-12T14:38:47.942Z</time></trkpt><trkpt lat="44.6767527" lon="10.2686803"><ele>224.0</ele><time>2026-04-12T14:38:48.943Z</time></trkpt><trkpt lat="44.6768687" lon="10.2686931"><ele>220.0</ele><time>2026-04-12T14:38:49.943Z</time></trkpt><trkpt lat="44.676991" lon="10.2687455"><ele>216.0</ele><time>2026-04-12T14:38:50.943Z</time></trkpt><trkpt lat="44.6771162" lon="10.2688042"><ele>212.25</ele><time>2026-04-12T14:38:51.944Z</time></trkpt><trkpt lat="44.6772455" lon="10.2688561"><ele>208.5</ele><time>2026-04-12T14:38:52.944Z</time></trkpt><trkpt lat="44.6773955" lon="10.2688631"><ele>204.75</ele><time>2026-04-12T14:38:53.944Z</time></trkpt><trkpt lat="44.6775381" lon="10.2688765"><ele>201.0</ele><time>2026-04-12T14:38:54.944Z</time></trkpt><trkpt lat="44.6777188" lon="10.2688071"><ele>198.25</ele><time>2026-04-12T14:38:55.944Z</time></trkpt><trkpt lat="44.6778726" lon="10.268781"><ele>195.5</ele><time>2026-04-12T14:38:56.943Z</time></trkpt><trkpt lat="44.6780034" lon="10.2687603"><ele>192.75</ele><time>2026-04-12T14:38:57.944Z</time></trkpt><trkpt lat="44.6781195" lon="10.2687715"><ele>190.0</ele><time>2026-04-12T14:38:58.943Z</time></trkpt><trkpt lat="44.6782476" lon="10.2688332"><ele>190.0</ele><time>2026-04-12T14:38:59.944Z</time></trkpt><trkpt lat="44.6783809" lon="10.268904"><ele>190.0</ele><time>2026-04-12T14:39:00.944Z</time></trkpt><trkpt lat="44.6785199" lon="10.2689892"><ele>190.0</ele><time>2026-04-12T14:39:01.944Z</time></trkpt><trkpt lat="44.6786613" lon="10.2690873"><ele>191.0</ele><time>2026-04-12T14:39:02.944Z</time></trkpt><trkpt lat="44.6787854" lon="10.2691891"><ele>192.0</ele><time>2026-04-12T14:39:03.944Z</time></trkpt><trkpt lat="44.678905" lon="10.2692876"><ele>193.0</ele><time>2026-04-12T14:39:04.943Z</time></trkpt><trkpt lat="44.6790172" lon="10.2693918"><ele>194.0</ele><time>2026-04-12T14:39:05.943Z</time></trkpt><trkpt lat="44.679133" lon="10.2694798"><ele>194.0</ele><time>2026-04-12T14:39:06.944Z</time></trkpt><trkpt lat="44.6792423" lon="10.2695615"><ele>194.0</ele><time>2026-04-12T14:39:07.942Z</time></trkpt><trkpt lat="44.6793462" lon="10.2696487"><ele>194.0</ele><time>2026-04-12T14:39:08.944Z</time></trkpt><trkpt lat="44.6794377" lon="10.2697255"><ele>194.0</ele><time>2026-04-12T14:39:09.944Z</time></trkpt><trkpt lat="44.6795343" lon="10.2698059"><ele>193.79999999999998</ele><time>2026-04-12T14:39:10.943Z</time></trkpt><trkpt lat="44.6796176" lon="10.269819"><ele>193.6</ele><time>2026-04-12T14:39:11.943Z</time></trkpt><trkpt lat="44.6797119" lon="10.2698358"><ele>193.4</ele><time>2026-04-12T14:39:12.943Z</time></trkpt><trkpt lat="44.6798018" lon="10.2698114"><ele>193.2</ele><time>2026-04-12T14:39:13.943Z</time></trkpt><trkpt lat="44.6798933" lon="10.2697551"><ele>193.0</ele><time>2026-04-12T14:39:14.943Z</time></trkpt><trkpt lat="44.6799874" lon="10.2696758"><ele>192.0</ele><time>2026-04-12T14:39:15.944Z</time></trkpt><trkpt lat="44.6800745" lon="10.2695776"><ele>191.0</ele><time>2026-04-12T14:39:16.944Z</time></trkpt><trkpt lat="44.680163" lon="10.2694625"><ele>190.0</ele><time>2026-04-12T14:39:17.944Z</time></trkpt><trkpt lat="44.6802597" lon="10.2693489"><ele>189.0</ele><time>2026-04-12T14:39:18.943Z</time></trkpt><trkpt lat="44.680356" lon="10.2692297"><ele>188.0</ele><time>2026-04-12T14:39:19.944Z</time></trkpt><trkpt lat="44.680459" lon="10.2691055"><ele>187.0</ele><time>2026-04-12T14:39:20.944Z</time></trkpt><trkpt lat="44.6805617" lon="10.2689849"><ele>186.0</ele><time>2026-04-12T14:39:21.944Z</time></trkpt><trkpt lat="44.6806571" lon="10.2688647"><ele>185.0</ele><time>2026-04-12T14:39:22.943Z</time></trkpt><trkpt lat="44.6807308" lon="10.2687134"><ele>184.75</ele><time>2026-04-12T14:39:23.944Z</time></trkpt><trkpt lat="44.6807935" lon="10.2685395"><ele>184.5</ele><time>2026-04-12T14:39:24.943Z</time></trkpt><trkpt lat="44.6808549" lon="10.2683599"><ele>184.25</ele><time>2026-04-12T14:39:25.943Z</time></trkpt><trkpt lat="44.6809211" lon="10.2681795"><ele>184.0</ele><time>2026-04-12T14:39:26.943Z</time></trkpt><trkpt lat="44.6809928" lon="10.2680119"><ele>184.0</ele><time>2026-04-12T14:39:27.943Z</time></trkpt><trkpt lat="44.6810622" lon="10.2678857"><ele>184.0</ele><time>2026-04-12T14:39:28.944Z</time></trkpt><trkpt lat="44.6811186" lon="10.2678106"><ele>184.0</ele><time>2026-04-12T14:39:29.944Z</time></trkpt><trkpt lat="44.6811739" lon="10.2677658"><ele>184.0</ele><time>2026-04-12T14:39:30.944Z</time></trkpt><trkpt lat="44.6812589" lon="10.2676532"><ele>184.0</ele><time>2026-04-12T14:39:32.943Z</time></trkpt><trkpt lat="44.6813111" lon="10.2675803"><ele>184.0</ele><time>2026-04-12T14:39:33.943Z</time></trkpt><trkpt lat="44.6813718" lon="10.2674938"><ele>184.2</ele><time>2026-04-12T14:39:34.944Z</time></trkpt><trkpt lat="44.6814315" lon="10.2673987"><ele>184.39999999999998</ele><time>2026-04-12T14:39:35.943Z</time></trkpt><trkpt lat="44.6814827" lon="10.2672949"><ele>184.6</ele><time>2026-04-12T14:39:36.944Z</time></trkpt><trkpt lat="44.6815336" lon="10.2671723"><ele>184.8</ele><time>2026-04-12T14:39:37.944Z</time></trkpt><trkpt lat="44.6815859" lon="10.2670325"><ele>185.0</ele><time>2026-04-12T14:39:38.943Z</time></trkpt><trkpt lat="44.6816426" lon="10.2668856"><ele>185.2</ele><time>2026-04-12T14:39:39.944Z</time></trkpt><trkpt lat="44.6816913" lon="10.2667543"><ele>185.4</ele><time>2026-04-12T14:39:40.943Z</time></trkpt><trkpt lat="44.6817295" lon="10.2666441"><ele>185.60000000000002</ele><time>2026-04-12T14:39:41.944Z</time></trkpt><trkpt lat="44.6818343" lon="10.2665708"><ele>185.8</ele><time>2026-04-12T14:39:43.944Z</time></trkpt><trkpt lat="44.6819024" lon="10.2665839"><ele>186.0</ele><time>2026-04-12T14:39:44.944Z</time></trkpt><trkpt lat="44.6819885" lon="10.2666152"><ele>186.0</ele><time>2026-04-12T14:39:45.944Z</time></trkpt><trkpt lat="44.6820698" lon="10.2666494"><ele>186.0</ele><time>2026-04-12T14:39:46.943Z</time></trkpt><trkpt lat="44.6821655" lon="10.266688"><ele>186.0</ele><time>2026-04-12T14:39:47.944Z</time></trkpt><trkpt lat="44.6822664" lon="10.2667249"><ele>186.0</ele><time>2026-04-12T14:39:48.944Z</time></trkpt><trkpt lat="44.6823748" lon="10.2667679"><ele>186.0</ele><time>2026-04-12T14:39:49.943Z</time></trkpt><trkpt lat="44.6824901" lon="10.2668195"><ele>186.0</ele><time>2026-04-12T14:39:50.943Z</time></trkpt><trkpt lat="44.6826075" lon="10.2668621"><ele>186.0</ele><time>2026-04-12T14:39:51.943Z</time></trkpt><trkpt lat="44.682723" lon="10.2669083"><ele>186.0</ele><time>2026-04-12T14:39:52.944Z</time></trkpt><trkpt lat="44.6828362" lon="10.266956"><ele>186.0</ele><time>2026-04-12T14:39:53.944Z</time></trkpt><trkpt lat="44.6829463" lon="10.2669971"><ele>185.4</ele><time>2026-04-12T14:39:54.942Z</time></trkpt><trkpt lat="44.6830527" lon="10.2670473"><ele>184.8</ele><time>2026-04-12T14:39:55.943Z</time></trkpt><trkpt lat="44.6831431" lon="10.2670905"><ele>184.20000000000002</ele><time>2026-04-12T14:39:56.944Z</time></trkpt><trkpt lat="44.6832485" lon="10.2671096"><ele>183.60000000000002</ele><time>2026-04-12T14:39:57.944Z</time></trkpt><trkpt lat="44.68335" lon="10.2671203"><ele>183.0</ele><time>2026-04-12T14:39:58.944Z</time></trkpt><trkpt lat="44.6834367" lon="10.2670841"><ele>183.0</ele><time>2026-04-12T14:39:59.943Z</time></trkpt><trkpt lat="44.6834995" lon="10.2670053"><ele>183.0</ele><time>2026-04-12T14:40:00.943Z</time></trkpt><trkpt lat="44.6835432" lon="10.266854"><ele>183.0</ele><time>2026-04-12T14:40:01.943Z</time></trkpt><trkpt lat="44.6835915" lon="10.2667126"><ele>183.0</ele><time>2026-04-12T14:40:02.943Z</time></trkpt><trkpt lat="44.6836241" lon="10.2665679"><ele>183.0</ele><time>2026-04-12T14:40:03.944Z</time></trkpt><trkpt lat="44.6836542" lon="10.2664182"><ele>182.8</ele><time>2026-04-12T14:40:04.943Z</time></trkpt><trkpt lat="44.683686" lon="10.2662655"><ele>182.60000000000002</ele><time>2026-04-12T14:40:05.943Z</time></trkpt><trkpt lat="44.6837129" lon="10.2661254"><ele>182.39999999999998</ele><time>2026-04-12T14:40:06.943Z</time></trkpt><trkpt lat="44.6837357" lon="10.2659937"><ele>182.2</ele><time>2026-04-12T14:40:07.944Z</time></trkpt><trkpt lat="44.6837666" lon="10.2658788"><ele>182.0</ele><time>2026-04-12T14:40:08.944Z</time></trkpt><trkpt lat="44.6838069" lon="10.2657954"><ele>182.0</ele><time>2026-04-12T14:40:09.943Z</time></trkpt><trkpt lat="44.6839134" lon="10.2657206"><ele>182.0</ele><time>2026-04-12T14:40:11.943Z</time></trkpt><trkpt lat="44.6840398" lon="10.2656804"><ele>182.0</ele><time>2026-04-12T14:40:13.943Z</time></trkpt><trkpt lat="44.6841324" lon="10.2656415"><ele>182.0</ele><time>2026-04-12T14:40:14.944Z</time></trkpt><trkpt lat="44.684218" lon="10.2656105"><ele>182.0</ele><time>2026-04-12T14:40:15.943Z</time></trkpt><trkpt lat="44.6843238" lon="10.265581"><ele>182.25</ele><time>2026-04-12T14:40:16.944Z</time></trkpt><trkpt lat="44.684436" lon="10.2655619"><ele>182.5</ele><time>2026-04-12T14:40:17.944Z</time></trkpt><trkpt lat="44.6845573" lon="10.2655579"><ele>182.75</ele><time>2026-04-12T14:40:18.944Z</time></trkpt><trkpt lat="44.6846822" lon="10.2655664"><ele>183.0</ele><time>2026-04-12T14:40:19.942Z</time></trkpt><trkpt lat="44.684804" lon="10.2655791"><ele>183.0</ele><time>2026-04-12T14:40:20.942Z</time></trkpt><trkpt lat="44.6849271" lon="10.2655981"><ele>183.0</ele><time>2026-04-12T14:40:21.944Z</time></trkpt><trkpt lat="44.6850417" lon="10.2656103"><ele>183.0</ele><time>2026-04-12T14:40:22.943Z</time></trkpt><trkpt lat="44.6851595" lon="10.2656278"><ele>183.0</ele><time>2026-04-12T14:40:23.943Z</time></trkpt><trkpt lat="44.6852789" lon="10.2656316"><ele>182.75</ele><time>2026-04-12T14:40:24.944Z</time></trkpt><trkpt lat="44.685392" lon="10.2656348"><ele>182.5</ele><time>2026-04-12T14:40:25.943Z</time></trkpt><trkpt lat="44.6855178" lon="10.265649"><ele>182.25</ele><time>2026-04-12T14:40:26.943Z</time></trkpt><trkpt lat="44.6856485" lon="10.2656572"><ele>182.0</ele><time>2026-04-12T14:40:27.944Z</time></trkpt><trkpt lat="44.6857783" lon="10.2656685"><ele>182.0</ele><time>2026-04-12T14:40:28.944Z</time></trkpt><trkpt lat="44.6859164" lon="10.2656703"><ele>182.0</ele><time>2026-04-12T14:40:29.944Z</time></trkpt><trkpt lat="44.6860494" lon="10.265677"><ele>182.0</ele><time>2026-04-12T14:40:30.942Z</time></trkpt><trkpt lat="44.6861973" lon="10.2656895"><ele>182.0</ele><time>2026-04-12T14:40:31.944Z</time></trkpt><trkpt lat="44.6863346" lon="10.2657029"><ele>181.0</ele><time>2026-04-12T14:40:32.944Z</time></trkpt><trkpt lat="44.6864674" lon="10.2657125"><ele>180.0</ele><time>2026-04-12T14:40:33.943Z</time></trkpt><trkpt lat="44.6866014" lon="10.2657225"><ele>179.0</ele><time>2026-04-12T14:40:34.942Z</time></trkpt><trkpt lat="44.6867384" lon="10.265725"><ele>178.0</ele><time>2026-04-12T14:40:35.943Z</time></trkpt><trkpt lat="44.6868772" lon="10.2657336"><ele>177.75</ele><time>2026-04-12T14:40:36.944Z</time></trkpt><trkpt lat="44.6870122" lon="10.265755"><ele>177.5</ele><time>2026-04-12T14:40:37.943Z</time></trkpt><trkpt lat="44.687137" lon="10.2657699"><ele>177.25</ele><time>2026-04-12T14:40:38.943Z</time></trkpt><trkpt lat="44.6872248" lon="10.2657809"><ele>177.0</ele><time>2026-04-12T14:40:39.943Z</time></trkpt><trkpt lat="44.6873406" lon="10.2658203"><ele>177.0</ele><time>2026-04-12T14:40:40.944Z</time></trkpt><trkpt lat="44.6874349" lon="10.265835"><ele>177.0</ele><time>2026-04-12T14:40:41.943Z</time></trkpt><trkpt lat="44.6875292" lon="10.2658573"><ele>177.0</ele><time>2026-04-12T14:40:42.944Z</time></trkpt><trkpt lat="44.6876153" lon="10.265868"><ele>177.0</ele><time>2026-04-12T14:40:43.943Z</time></trkpt><trkpt lat="44.6876906" lon="10.2658756"><ele>177.0</ele><time>2026-04-12T14:40:44.944Z</time></trkpt><trkpt lat="44.6878012" lon="10.2658892"><ele>176.66666666666666</ele><time>2026-04-12T14:40:46.943Z</time></trkpt><trkpt lat="44.6878767" lon="10.2658394"><ele>176.33333333333334</ele><time>2026-04-12T14:40:49.944Z</time></trkpt><trkpt lat="44.6879363" lon="10.2656855"><ele>176.0</ele><time>2026-04-12T14:40:51.944Z</time></trkpt><trkpt lat="44.6879485" lon="10.2655931"><ele>175.66666666666669</ele><time>2026-04-12T14:40:52.944Z</time></trkpt><trkpt lat="44.6879672" lon="10.2654851"><ele>175.33333333333334</ele><time>2026-04-12T14:40:53.944Z</time></trkpt><trkpt lat="44.6879904" lon="10.265365"><ele>175.0</ele><time>2026-04-12T14:40:54.944Z</time></trkpt><trkpt lat="44.6880176" lon="10.2652304"><ele>175.0</ele><time>2026-04-12T14:40:55.944Z</time></trkpt><trkpt lat="44.6880438" lon="10.2650954"><ele>175.0</ele><time>2026-04-12T14:40:56.944Z</time></trkpt><trkpt lat="44.6880696" lon="10.2649556"><ele>175.0</ele><time>2026-04-12T14:40:57.944Z</time></trkpt><trkpt lat="44.6880914" lon="10.2648062"><ele>175.0</ele><time>2026-04-12T14:40:58.944Z</time></trkpt><trkpt lat="44.688117" lon="10.2646506"><ele>175.0</ele><time>2026-04-12T14:40:59.942Z</time></trkpt><trkpt lat="44.6881491" lon="10.2644798"><ele>175.0</ele><time>2026-04-12T14:41:00.943Z</time></trkpt><trkpt lat="44.6881801" lon="10.2643033"><ele>175.0</ele><time>2026-04-12T14:41:01.943Z</time></trkpt><trkpt lat="44.6882131" lon="10.2641276"><ele>175.0</ele><time>2026-04-12T14:41:02.943Z</time></trkpt><trkpt lat="44.6882415" lon="10.2639607"><ele>175.0</ele><time>2026-04-12T14:41:03.944Z</time></trkpt><trkpt lat="44.6882701" lon="10.2637946"><ele>175.25</ele><time>2026-04-12T14:41:04.943Z</time></trkpt><trkpt lat="44.6882999" lon="10.2636292"><ele>175.5</ele><time>2026-04-12T14:41:05.944Z</time></trkpt><trkpt lat="44.6883302" lon="10.2634729"><ele>175.75</ele><time>2026-04-12T14:41:06.942Z</time></trkpt><trkpt lat="44.6883591" lon="10.2633173"><ele>176.0</ele><time>2026-04-12T14:41:07.944Z</time></trkpt><trkpt lat="44.6883852" lon="10.2631834"><ele>176.16666666666666</ele><time>2026-04-12T14:41:08.943Z</time></trkpt><trkpt lat="44.6884079" lon="10.263056"><ele>176.33333333333331</ele><time>2026-04-12T14:41:09.943Z</time></trkpt><trkpt lat="44.6884312" lon="10.2629406"><ele>176.5</ele><time>2026-04-12T14:41:10.942Z</time></trkpt><trkpt lat="44.6884518" lon="10.2628289"><ele>176.66666666666666</ele><time>2026-04-12T14:41:11.944Z</time></trkpt><trkpt lat="44.6884723" lon="10.2627072"><ele>176.83333333333334</ele><time>2026-04-12T14:41:12.943Z</time></trkpt><trkpt lat="44.688496" lon="10.2625815"><ele>177.0</ele><time>2026-04-12T14:41:13.944Z</time></trkpt><trkpt lat="44.6885224" lon="10.2624621"><ele>177.0</ele><time>2026-04-12T14:41:14.943Z</time></trkpt><trkpt lat="44.6885557" lon="10.262359"><ele>177.0</ele><time>2026-04-12T14:41:15.942Z</time></trkpt><trkpt lat="44.6886117" lon="10.2622722"><ele>177.0</ele><time>2026-04-12T14:41:16.944Z</time></trkpt><trkpt lat="44.6886857" lon="10.262221"><ele>177.0</ele><time>2026-04-12T14:41:17.944Z</time></trkpt><trkpt lat="44.6887517" lon="10.2621819"><ele>177.0</ele><time>2026-04-12T14:41:18.944Z</time></trkpt><trkpt lat="44.6888053" lon="10.2621291"><ele>177.0</ele><time>2026-04-12T14:41:19.943Z</time></trkpt><trkpt lat="44.688841" lon="10.2619729"><ele>176.8</ele><time>2026-04-12T14:41:21.944Z</time></trkpt><trkpt lat="44.6887874" lon="10.2618102"><ele>176.6</ele><time>2026-04-12T14:41:23.944Z</time></trkpt><trkpt lat="44.6887548" lon="10.2617033"><ele>176.4</ele><time>2026-04-12T14:41:24.944Z</time></trkpt><trkpt lat="44.688753" lon="10.2615651"><ele>176.20000000000002</ele><time>2026-04-12T14:41:25.944Z</time></trkpt><trkpt lat="44.6887727" lon="10.261428"><ele>176.0</ele><time>2026-04-12T14:41:26.944Z</time></trkpt><trkpt lat="44.6888075" lon="10.2612735"><ele>176.0</ele><time>2026-04-12T14:41:27.942Z</time></trkpt><trkpt lat="44.6888465" lon="10.2611067"><ele>176.0</ele><time>2026-04-12T14:41:28.944Z</time></trkpt><trkpt lat="44.6888935" lon="10.2609294"><ele>176.0</ele><time>2026-04-12T14:41:29.944Z</time></trkpt><trkpt lat="44.688935" lon="10.2607576"><ele>176.0</ele><time>2026-04-12T14:41:30.944Z</time></trkpt><trkpt lat="44.6889784" lon="10.2605828"><ele>176.75</ele><time>2026-04-12T14:41:31.944Z</time></trkpt><trkpt lat="44.6890212" lon="10.2604062"><ele>177.5</ele><time>2026-04-12T14:41:32.943Z</time></trkpt><trkpt lat="44.6890601" lon="10.2602233"><ele>178.25</ele><time>2026-04-12T14:41:33.944Z</time></trkpt><trkpt lat="44.6890962" lon="10.2600386"><ele>179.0</ele><time>2026-04-12T14:41:34.944Z</time></trkpt><trkpt lat="44.6891368" lon="10.2598591"><ele>179.75</ele><time>2026-04-12T14:41:35.944Z</time></trkpt><trkpt lat="44.689179" lon="10.2596937"><ele>180.5</ele><time>2026-04-12T14:41:36.943Z</time></trkpt><trkpt lat="44.6892263" lon="10.2595263"><ele>181.25</ele><time>2026-04-12T14:41:37.943Z</time></trkpt><trkpt lat="44.6892737" lon="10.2593581"><ele>182.0</ele><time>2026-04-12T14:41:38.943Z</time></trkpt><trkpt lat="44.6893281" lon="10.2591868"><ele>182.0</ele><time>2026-04-12T14:41:39.944Z</time></trkpt><trkpt lat="44.6893906" lon="10.2590145"><ele>182.0</ele><time>2026-04-12T14:41:40.944Z</time></trkpt><trkpt lat="44.6894642" lon="10.2588442"><ele>182.0</ele><time>2026-04-12T14:41:41.943Z</time></trkpt><trkpt lat="44.6895386" lon="10.2586678"><ele>182.0</ele><time>2026-04-12T14:41:42.943Z</time></trkpt><trkpt lat="44.6896109" lon="10.2584817"><ele>180.66666666666666</ele><time>2026-04-12T14:41:43.944Z</time></trkpt><trkpt lat="44.6896887" lon="10.258295"><ele>179.33333333333334</ele><time>2026-04-12T14:41:44.942Z</time></trkpt><trkpt lat="44.6897717" lon="10.258105"><ele>178.0</ele><time>2026-04-12T14:41:45.944Z</time></trkpt><trkpt lat="44.6898559" lon="10.2579082"><ele>178.0</ele><time>2026-04-12T14:41:46.944Z</time></trkpt><trkpt lat="44.6899387" lon="10.2577083"><ele>178.0</ele><time>2026-04-12T14:41:47.943Z</time></trkpt><trkpt lat="44.6900246" lon="10.2574944"><ele>178.0</ele><time>2026-04-12T14:41:48.944Z</time></trkpt><trkpt lat="44.6901174" lon="10.2572765"><ele>177.66666666666669</ele><time>2026-04-12T14:41:49.944Z</time></trkpt><trkpt lat="44.6902112" lon="10.2570579"><ele>177.33333333333334</ele><time>2026-04-12T14:41:50.942Z</time></trkpt><trkpt lat="44.6903021" lon="10.2568333"><ele>177.0</ele><time>2026-04-12T14:41:51.944Z</time></trkpt><trkpt lat="44.6903941" lon="10.2566065"><ele>176.33333333333334</ele><time>2026-04-12T14:41:52.943Z</time></trkpt><trkpt lat="44.6904873" lon="10.2563782"><ele>175.66666666666669</ele><time>2026-04-12T14:41:53.943Z</time></trkpt><trkpt lat="44.6905799" lon="10.2561456"><ele>175.0</ele><time>2026-04-12T14:41:54.944Z</time></trkpt><trkpt lat="44.6906657" lon="10.2559062"><ele>175.0</ele><time>2026-04-12T14:41:55.944Z</time></trkpt><trkpt lat="44.6907361" lon="10.2556614"><ele>175.0</ele><time>2026-04-12T14:41:56.944Z</time></trkpt><trkpt lat="44.6907917" lon="10.2554105"><ele>175.0</ele><time>2026-04-12T14:41:57.944Z</time></trkpt><trkpt lat="44.6908449" lon="10.2551593"><ele>175.0</ele><time>2026-04-12T14:41:58.944Z</time></trkpt><trkpt lat="44.6908942" lon="10.2549073"><ele>175.0</ele><time>2026-04-12T14:41:59.943Z</time></trkpt><trkpt lat="44.6909395" lon="10.2546599"><ele>175.0</ele><time>2026-04-12T14:42:00.942Z</time></trkpt><trkpt lat="44.6909828" lon="10.2544103"><ele>175.0</ele><time>2026-04-12T14:42:01.944Z</time></trkpt><trkpt lat="44.6910264" lon="10.2541615"><ele>175.0</ele><time>2026-04-12T14:42:02.944Z</time></trkpt><trkpt lat="44.6910675" lon="10.2539109"><ele>175.0</ele><time>2026-04-12T14:42:03.943Z</time></trkpt><trkpt lat="44.6911063" lon="10.2536592"><ele>176.33333333333334</ele><time>2026-04-12T14:42:04.944Z</time></trkpt><trkpt lat="44.6911431" lon="10.2534094"><ele>177.66666666666666</ele><time>2026-04-12T14:42:05.944Z</time></trkpt><trkpt lat="44.6911767" lon="10.2531552"><ele>179.0</ele><time>2026-04-12T14:42:06.944Z</time></trkpt><trkpt lat="44.6912087" lon="10.2528981"><ele>179.33333333333331</ele><time>2026-04-12T14:42:07.943Z</time></trkpt><trkpt lat="44.6912396" lon="10.2526441"><ele>179.66666666666666</ele><time>2026-04-12T14:42:08.943Z</time></trkpt><trkpt lat="44.6912728" lon="10.2523911"><ele>180.0</ele><time>2026-04-12T14:42:09.943Z</time></trkpt><trkpt lat="44.6913054" lon="10.2521304"><ele>181.5</ele><time>2026-04-12T14:42:10.944Z</time></trkpt><trkpt lat="44.6913333" lon="10.2518714"><ele>183.0</ele><time>2026-04-12T14:42:11.943Z</time></trkpt><trkpt lat="44.6914005" lon="10.2513547"><ele>184.66666666666666</ele><time>2026-04-12T14:42:13.943Z</time></trkpt><trkpt lat="44.6914346" lon="10.2510926"><ele>186.33333333333331</ele><time>2026-04-12T14:42:14.944Z</time></trkpt><trkpt lat="44.6914681" lon="10.2508296"><ele>188.0</ele><time>2026-04-12T14:42:15.943Z</time></trkpt><trkpt lat="44.6914977" lon="10.2505633"><ele>189.0</ele><time>2026-04-12T14:42:16.943Z</time></trkpt></trkseg></trk></gpx>